<
# Wetter Temperatur Luftdruck Luftfeuchtigkeit Sichtweite Windgeschwindigkeit Windrichtung Zeit
1 Clouds 13 1013 67 10000 1.34 212 13:40 22.04.2021
2 Clouds 13 1013 67 10000 1.44 225 13:21 22.04.2021
3 Clouds 13 1013 67 10000 1.44 225 12:45 22.04.2021
4 Clouds 13 1013 67 10000 1.86 218 12:23 22.04.2021
5 Clouds 13 1013 67 10000 1.86 218 11:48 22.04.2021
6 Clouds 13 1013 67 10000 2.28 215 11:24 22.04.2021
7 Clouds 13 1013 67 10000 2.28 215 10:46 22.04.2021
8 Clouds 13 1014 67 10000 2.07 203 10:26 22.04.2021
9 Clouds 13 1014 67 10000 2.07 203 09:58 22.04.2021
10 Clouds 13 1013 67 10000 2.07 203 09:30 22.04.2021
11 Clear 13 1013 72 10000 1.94 204 08:45 22.04.2021
12 Clear 13 1013 72 10000 1.9 220 08:23 22.04.2021
13 Clouds 13 1013 67 10000 2.07 209 07:46 22.04.2021
14 Clouds 13 1013 67 10000 2.69 219 07:27 22.04.2021
15 Clouds 13 1013 67 10000 2.06 260 06:40 22.04.2021
16 Clouds 13 1012 67 10000 1.54 0 05:53 22.04.2021
17 Clouds 14 1012 63 10000 3.32 228 05:20 22.04.2021
18 Clouds 16 1011 55 10000 2.06 0 01:41 22.04.2021
19 Clouds 16 1012 59 10000 2.06 260 23:54 21.04.2021
20 Clouds 16 1012 59 10000 4.09 209 23:35 21.04.2021
21 Clouds 17 1013 55 10000 3.49 203 22:45 21.04.2021
22 Clouds 17 1013 55 10000 3.08 178 22:25 21.04.2021
23 Clouds 16 1013 52 10000 3.08 178 21:59 21.04.2021
24 Clouds 16 1013 52 10000 3.08 178 21:40 21.04.2021
25 Clouds 16 1013 52 10000 3.14 159 21:19 21.04.2021
26 Clouds 16 1013 52 10000 1.54 0 20:24 21.04.2021
27 Clouds 16 1013 55 10000 1.54 0 19:46 21.04.2021
28 Clouds 16 1013 55 10000 1.54 0 19:27 21.04.2021
29 Clouds 15 1013 59 10000 2.57 130 18:51 21.04.2021
30 Clouds 15 1013 59 10000 2.57 130 18:33 21.04.2021
31 Clouds 15 1013 63 10000 1.54 0 17:58 21.04.2021
32 Clouds 14 1013 63 10000 1.54 0 17:39 21.04.2021
33 Clouds 14 1013 63 10000 1.54 0 17:20 21.04.2021
34 Clouds 14 1012 59 10000 2.57 90 16:38 21.04.2021
35 Clouds 13 1012 63 10000 4 126 15:47 21.04.2021
36 Clouds 13 1012 63 10000 4.25 123 15:25 21.04.2021
37 Clouds 13 1012 63 10000 1.54 120 14:45 21.04.2021
38 Clouds 13 1012 63 10000 1.54 120 14:25 21.04.2021
39 Clouds 13 1012 67 10000 2.57 80 13:50 21.04.2021
40 Clouds 13 1012 67 10000 2.57 80 13:22 21.04.2021
41 Clouds 14 1012 63 10000 2.57 100 12:46 21.04.2021
42 Clouds 13 1012 63 10000 2.57 100 12:20 21.04.2021
43 Clouds 13 1012 63 10000 2.06 120 11:46 21.04.2021
44 Clouds 13 1012 59 10000 4.33 133 11:23 21.04.2021
45 Clouds 14 1013 59 10000 2.57 110 10:40 21.04.2021
46 Clouds 14 1012 63 10000 2.57 0 09:57 21.04.2021
47 Clouds 14 1012 63 10000 2.57 0 09:26 21.04.2021
48 Clouds 14 1013 63 10000 1.54 0 08:50 21.04.2021
49 Clouds 13 1013 63 10000 1.54 0 08:24 21.04.2021
50 Clouds 13 1013 72 10000 3.55 137 07:57 21.04.2021
51 Clear 13 1013 67 10000 1.54 0 07:29 21.04.2021
52 Clear 14 1012 63 10000 1.54 130 06:22 21.04.2021
53 Clear 19 1011 52 10000 2.06 260 02:56 21.04.2021
54 Clear 22 1012 52 10000 3.09 270 00:28 21.04.2021
55 Clear 22 1012 43 10000 4.64 171 23:41 20.04.2021
56 Clear 22 1013 43 10000 1.54 0 22:50 20.04.2021
57 Clear 22 1013 43 10000 1.54 0 22:50 20.04.2021
58 Clear 22 1013 43 10000 1.54 0 22:24 20.04.2021
59 Clear 22 1014 46 10000 2.06 0 21:59 20.04.2021
60 Clear 21 1014 46 10000 2.06 0 21:41 20.04.2021
61 Clear 21 1014 46 10000 2.06 0 21:22 20.04.2021
62 Clear 21 1014 52 10000 4.19 169 20:41 20.04.2021
63 Clear 20 1014 52 10000 3.7 166 20:21 20.04.2021
64 Clouds 19 1014 63 10000 3.7 166 19:51 20.04.2021
65 Clouds 18 1014 63 10000 3.7 166 19:33 20.04.2021
66 Clouds 17 1014 63 10000 3.15 166 18:54 20.04.2021
67 Clouds 16 1014 72 10000 1.54 70 18:35 20.04.2021
68 Haze 15 1014 77 9656 1.54 0 17:43 20.04.2021
69 Haze 14 1014 77 8047 2.23 158 16:57 20.04.2021
70 Haze 14 1014 77 8047 2.23 158 16:36 20.04.2021
71 Haze 13 1013 88 8047 1.79 141 15:43 20.04.2021
72 Haze 13 1013 88 8047 0.97 140 15:25 20.04.2021
73 Haze 14 1013 88 9656 0.97 140 14:52 20.04.2021
74 Clouds 13 1013 82 10000 0.82 150 14:27 20.04.2021
75 Clear 14 1013 82 10000 1.41 164 13:31 20.04.2021
76 Clear 13 1013 82 10000 1.41 164 12:55 20.04.2021
77 Clear 13 1013 82 10000 1.41 164 12:34 20.04.2021
78 Clear 14 1014 82 10000 1.29 158 11:58 20.04.2021
79 Clear 14 1014 82 10000 1.3 158 11:39 20.04.2021
80 Clear 14 1014 82 10000 1.67 147 11:19 20.04.2021
81 Clear 14 1014 82 10000 1.67 147 10:42 20.04.2021
82 Clear 14 1014 82 10000 1.97 150 10:22 20.04.2021
83 Clear 15 1015 77 10000 2.26 143 09:20 20.04.2021
84 Clear 15 1014 77 10000 2.26 143 08:54 20.04.2021
85 Clear 15 1014 77 10000 2.26 148 08:19 20.04.2021
86 Clear 16 1015 77 10000 2.52 147 07:39 20.04.2021
87 Clear 17 1014 63 10000 2.4 159 06:35 20.04.2021
88 Clear 18 1014 59 10000 1.8 177 05:37 20.04.2021
89 Clear 21 1013 52 10000 2.09 213 04:41 20.04.2021
90 Clear 26 1014 28 10000 2.06 260 00:53 20.04.2021
91 Clear 27 1014 28 10000 2.06 260 00:27 20.04.2021
92 Clear 27 1015 31 10000 5.39 232 23:34 19.04.2021
93 Clear 27 1015 36 10000 1.54 0 22:51 19.04.2021
94 Clear 28 1015 36 10000 1.54 0 22:29 19.04.2021
95 Clear 28 1016 16 10000 3.81 222 21:47 19.04.2021
96 Clear 27 1016 16 10000 2.63 208 21:25 19.04.2021
97 Clear 28 1016 16 10000 1.54 160 20:43 19.04.2021
98 Clear 27 1016 16 10000 1.54 160 20:22 19.04.2021
99 Clear 26 1016 21 10000 1.7 193 19:54 19.04.2021
100 Clear 25 1016 21 10000 1.7 193 19:36 19.04.2021
101 Clear 25 1016 21 10000 1.18 169 19:18 19.04.2021
102 Clear 23 1016 21 10000 1.18 169 18:44 19.04.2021
103 Clear 23 1016 21 10000 0.92 164 18:21 19.04.2021
104 Clear 20 1016 42 10000 0.92 164 17:47 19.04.2021
105 Clear 20 1016 42 10000 0.7 89 17:26 19.04.2021
106 Clear 16 1016 59 10000 0.7 89 16:49 19.04.2021
107 Clear 16 1016 59 10000 1.26 78 16:30 19.04.2021
108 Clear 15 1016 55 10000 1.54 100 15:44 19.04.2021
109 Clear 15 1016 55 10000 1.54 100 15:24 19.04.2021
110 Clear 15 1016 77 10000 1.34 85 14:52 19.04.2021
111 Clear 15 1016 77 10000 1.34 85 14:33 19.04.2021
112 Clear 16 1016 72 10000 0.96 75 13:53 19.04.2021
113 Clear 16 1016 72 10000 0.99 59 13:29 19.04.2021
114 Clear 16 1015 72 10000 0.99 59 12:55 19.04.2021
115 Clear 17 1015 72 10000 0.99 59 12:36 19.04.2021
116 Clear 17 1015 72 10000 1.34 48 12:18 19.04.2021
117 Clear 17 1015 72 10000 1.34 48 11:43 19.04.2021
118 Clear 17 1015 72 10000 1.22 45 11:20 19.04.2021
119 Clear 17 1016 67 10000 1.22 45 10:44 19.04.2021
120 Clear 17 1016 67 10000 0.97 59 10:19 19.04.2021
121 Clear 19 1016 67 10000 0.97 59 09:43 19.04.2021
122 Clear 18 1016 67 10000 1.11 72 09:24 19.04.2021
123 Clear 20 1016 59 10000 1.11 72 08:37 19.04.2021
124 Clear 20 1016 48 10000 1.34 12 07:50 19.04.2021
125 Clear 20 1016 48 10000 1.76 338 07:24 19.04.2021
126 Clear 22 1015 25 10000 1.77 339 06:52 19.04.2021
127 Clear 24 1014 25 10000 5.14 290 04:47 19.04.2021
128 Clear 30 1014 4 10000 2.57 0 01:49 19.04.2021
129 Clear 30 1014 5 10000 3.09 0 00:42 19.04.2021
130 Clear 29 1015 6 10000 1.54 0 23:21 18.04.2021
131 Clear 29 1015 6 10000 1.06 259 22:58 18.04.2021
132 Clear 29 1015 6 10000 1.09 218 22:34 18.04.2021
133 Clear 28 1016 10 10000 3.09 0 21:56 18.04.2021
134 Clear 28 1016 10 10000 3.09 0 21:28 18.04.2021
135 Clear 27 1016 13 10000 1.95 129 20:45 18.04.2021
136 Clear 27 1016 13 10000 3.44 84 20:26 18.04.2021
137 Clear 26 1016 8 10000 3.6 350 19:59 18.04.2021
138 Clear 26 1016 8 10000 3.6 350 19:39 18.04.2021
139 Clear 25 1016 8 10000 3.6 350 19:19 18.04.2021
140 Clear 24 1017 33 10000 5.19 51 18:45 18.04.2021
141 Clear 23 1017 33 10000 4.64 22 18:25 18.04.2021
142 Clear 22 1017 55 10000 4.64 22 17:46 18.04.2021
143 Clear 20 1017 55 10000 3.24 9 17:27 18.04.2021
144 Clear 17 1017 77 10000 3.24 9 16:52 18.04.2021
145 Clear 15 1017 77 10000 2.99 10 16:34 18.04.2021
146 Clear 15 1016 76 10000 2.99 10 15:49 18.04.2021
147 Clear 15 1016 76 10000 3.2 4 15:28 18.04.2021
148 Clear 14 1016 76 10000 3.2 4 14:53 18.04.2021
149 Clear 14 1016 76 10000 2.68 20 14:28 18.04.2021
150 Clear 15 1016 77 10000 2.68 20 13:56 18.04.2021
151 Clear 15 1016 77 10000 2.68 20 13:38 18.04.2021
152 Clear 14 1016 77 10000 2.32 10 13:19 18.04.2021
153 Clear 14 1015 82 10000 2.32 10 12:33 18.04.2021
154 Clear 14 1015 77 10000 1.92 357 11:45 18.04.2021
155 Clear 15 1015 77 10000 1.55 348 11:22 18.04.2021
156 Clear 15 1015 77 10000 1.55 348 10:48 18.04.2021
157 Clear 14 1015 77 10000 0.88 356 10:28 18.04.2021
158 Clear 15 1015 72 10000 0.88 356 09:57 18.04.2021
159 Clear 15 1015 72 10000 0.88 356 09:38 18.04.2021
160 Clear 15 1015 72 10000 0.59 19 09:19 18.04.2021
161 Clear 16 1015 72 10000 0.91 37 08:39 18.04.2021
162 Clear 16 1015 72 10000 0.54 73 08:18 18.04.2021
163 Clear 16 1015 72 10000 0.54 73 07:39 18.04.2021
164 Clear 17 1013 67 10000 1.04 134 05:45 18.04.2021
165 Clear 17 1013 67 10000 1.18 217 05:24 18.04.2021
166 Clear 20 1013 63 10000 2.57 270 03:26 18.04.2021
167 Clear 21 1013 59 10000 1.54 250 02:22 18.04.2021
168 Clear 21 1014 56 10000 1.54 0 00:40 18.04.2021
169 Clear 22 1014 52 10000 1.54 240 23:40 17.04.2021
170 Clear 22 1014 52 10000 1.54 240 23:40 17.04.2021
171 Clear 21 1014 52 10000 4.6 239 22:59 17.04.2021
172 Clear 21 1014 52 10000 4.6 239 22:39 17.04.2021
173 Clear 21 1014 52 10000 2.99 227 22:20 17.04.2021
174 Clear 21 1015 46 10000 2.99 227 21:38 17.04.2021
175 Clear 21 1015 46 10000 2.26 222 21:19 17.04.2021
176 Clear 18 1015 52 10000 2.35 229 20:28 17.04.2021
177 Clouds 17 1015 55 10000 1.54 0 19:46 17.04.2021
178 Clouds 17 1015 55 10000 1.54 0 19:22 17.04.2021
179 Clouds 15 1015 63 10000 1.93 228 18:58 17.04.2021
180 Clouds 15 1015 63 10000 1.42 222 18:37 17.04.2021
181 Clouds 14 1015 72 10000 1.42 222 18:00 17.04.2021
182 Clouds 14 1015 72 10000 1.42 222 17:40 17.04.2021
183 Clouds 13 1015 77 10000 1.13 175 16:55 17.04.2021
184 Clouds 12 1015 77 10000 0.87 147 16:28 17.04.2021
185 Clouds 12 1014 77 10000 0.87 147 15:53 17.04.2021
186 Clouds 12 1014 76 10000 0.9 141 14:51 17.04.2021
187 Clouds 12 1014 76 10000 0.89 153 14:32 17.04.2021
188 Clear 12 1014 76 10000 0.92 151 13:49 17.04.2021
189 Clear 12 1014 76 10000 1.04 163 13:25 17.04.2021
190 Clear 12 1014 82 10000 1.04 163 12:42 17.04.2021
191 Clear 12 1014 82 10000 1.18 153 12:20 17.04.2021
192 Clouds 12 1015 88 10000 1.18 153 11:45 17.04.2021
193 Clouds 13 1015 82 10000 1.53 156 11:27 17.04.2021
194 Clear 13 1015 77 10000 1.53 156 10:45 17.04.2021
195 Clouds 13 1015 88 10000 1.54 160 10:26 17.04.2021
196 Clouds 13 1015 82 10000 1.71 161 09:39 17.04.2021
197 Clear 13 1015 82 10000 1.88 155 08:41 17.04.2021
198 Clear 13 1015 82 10000 1.65 157 08:21 17.04.2021
199 Clouds 14 1015 77 10000 3.09 250 06:47 17.04.2021
200 Clear 17 1013 59 10000 3.6 270 03:55 17.04.2021
201 Clear 17 1013 59 10000 3.6 270 03:37 17.04.2021
202 Clear 20 1013 49 10000 1.54 0 00:49 17.04.2021
203 Clear 21 1013 49 10000 1.54 0 00:28 17.04.2021
204 Clear 21 1013 49 10000 1.54 0 23:48 16.04.2021
205 Clear 21 1013 49 10000 1.54 0 23:48 16.04.2021
206 Clear 21 1013 49 10000 1.54 0 23:25 16.04.2021
207 Clouds 21 1013 49 10000 2.57 270 22:46 16.04.2021
208 Clouds 21 1013 49 10000 2.57 270 22:21 16.04.2021
209 Clear 21 1014 46 10000 2.06 0 21:51 16.04.2021
210 Clear 20 1014 46 10000 2.06 0 21:30 16.04.2021
211 Clouds 19 1014 48 10000 3.26 227 20:50 16.04.2021
212 Clouds 19 1014 48 10000 1.97 209 20:25 16.04.2021
213 Clear 18 1014 55 10000 1.97 209 19:54 16.04.2021
214 Clear 17 1014 55 10000 0.99 176 19:29 16.04.2021
215 Haze 16 1014 63 9656 0.99 176 18:43 16.04.2021
216 Haze 15 1014 63 9656 0.64 101 18:20 16.04.2021
217 Haze 14 1014 72 8047 1.54 80 17:43 16.04.2021
218 Haze 13 1014 72 8047 1.54 80 17:19 16.04.2021
219 Haze 12 1014 76 9656 1.2 133 16:42 16.04.2021
220 Haze 12 1014 76 9656 1.42 144 16:23 16.04.2021
221 Clouds 11 1014 76 10000 1.42 144 15:48 16.04.2021
222 Clouds 12 1014 76 10000 0.77 101 15:21 16.04.2021
223 Clouds 12 1014 76 10000 0.77 101 14:42 16.04.2021
224 Clouds 12 1014 76 10000 1.11 129 14:19 16.04.2021
225 Clouds 12 1014 72 10000 1.11 129 13:46 16.04.2021
226 Clouds 12 1014 72 10000 1.11 137 13:20 16.04.2021
227 Clouds 12 1015 82 10000 1.11 137 12:48 16.04.2021
228 Clouds 12 1015 82 10000 1.33 163 12:29 16.04.2021
229 Clouds 12 1015 82 10000 1.33 163 11:54 16.04.2021
230 Clouds 13 1015 82 10000 1.18 148 11:27 16.04.2021
231 Clouds 13 1015 82 10000 1.18 148 10:56 16.04.2021
232 Clouds 12 1015 82 10000 1.18 148 10:37 16.04.2021
233 Clouds 12 1016 82 10000 1.63 161 10:19 16.04.2021
234 Clouds 12 1016 82 10000 1.63 161 09:42 16.04.2021
235 Clouds 13 1016 77 10000 1.23 139 09:20 16.04.2021
236 Clouds 13 1016 76 10000 1.54 230 08:41 16.04.2021
237 Clouds 13 1016 77 10000 1.46 164 08:18 16.04.2021
238 Clouds 13 1016 77 10000 1.46 164 07:36 16.04.2021
239 Clouds 13 1017 77 10000 1.39 187 06:59 16.04.2021
240 Clouds 13 1017 77 10000 1.64 205 06:18 16.04.2021
241 Clouds 14 1015 67 10000 1.54 0 04:22 16.04.2021
242 Clouds 18 1015 55 10000 2.06 250 01:37 16.04.2021
243 Clear 18 1016 48 10000 2.57 250 00:41 16.04.2021
244 Clear 19 1016 48 10000 2.57 250 00:20 16.04.2021
245 Clouds 18 1016 52 10000 1.54 0 23:42 15.04.2021
246 Clouds 19 1016 52 10000 1.54 0 23:23 15.04.2021
247 Clouds 19 1016 48 10000 2.06 260 22:46 15.04.2021
248 Clouds 19 1016 48 10000 2.06 260 22:23 15.04.2021
249 Clear 18 1016 45 10000 3.82 230 21:43 15.04.2021
250 Clear 18 1016 45 10000 2.9 231 21:24 15.04.2021
251 Clear 17 1017 45 10000 3.26 231 20:45 15.04.2021
252 Clear 17 1017 51 10000 1.54 0 20:25 15.04.2021
253 Clouds 16 1017 51 10000 1.54 0 19:47 15.04.2021
254 Clouds 16 1017 51 10000 1.54 0 19:47 15.04.2021
255 Clouds 16 1017 51 10000 1.54 0 19:27 15.04.2021
256 Clouds 15 1017 55 10000 1.54 0 18:45 15.04.2021
257 Clouds 14 1017 55 10000 2.06 0 18:22 15.04.2021
258 Clouds 13 1017 67 10000 1.44 188 17:58 15.04.2021
259 Clouds 13 1017 67 10000 1.44 188 17:39 15.04.2021
260 Clouds 12 1017 67 10000 1.17 179 17:21 15.04.2021
261 Clear 11 1016 71 10000 1.17 179 16:43 15.04.2021
262 Clear 10 1016 71 10000 0.83 178 16:23 15.04.2021
263 Clear 9 1015 71 10000 0.83 178 15:47 15.04.2021
264 Clear 9 1015 71 10000 0.83 183 15:27 15.04.2021
265 Clear 9 1015 71 10000 0.83 183 14:43 15.04.2021
266 Clear 9 1015 71 10000 0.85 194 14:25 15.04.2021
267 Clear 9 1015 76 10000 0.85 194 13:48 15.04.2021
268 Clear 9 1015 76 10000 1.01 186 13:23 15.04.2021
269 Clouds 9 1016 81 10000 2.06 80 12:49 15.04.2021
270 Clouds 9 1016 81 10000 2.06 80 12:26 15.04.2021
271 Clear 10 1016 76 10000 1.38 206 11:48 15.04.2021
272 Clear 10 1016 76 10000 1.4 192 11:27 15.04.2021
273 Clear 10 1016 76 10000 1.4 192 11:27 15.04.2021
274 Clouds 10 1016 71 10000 1.4 192 10:58 15.04.2021
275 Clouds 10 1016 71 10000 1.4 192 10:40 15.04.2021
276 Clouds 11 1016 71 10000 1.63 189 10:21 15.04.2021
277 Clouds 11 1017 67 10000 1.27 188 09:30 15.04.2021
278 Clear 11 1017 67 10000 1.22 185 08:53 15.04.2021
279 Clear 11 1017 67 10000 1.36 208 08:30 15.04.2021
280 Clear 11 1017 67 10000 1.61 202 07:37 15.04.2021
281 Clear 12 1016 67 10000 1.61 202 06:57 15.04.2021
282 Clear 12 1016 67 10000 1.61 202 06:36 15.04.2021
283 Clear 13 1015 58 10000 2.06 260 04:57 15.04.2021
284 Clear 14 1015 55 10000 1.54 250 03:59 15.04.2021
285 Clouds 17 1015 48 10000 5.15 207 00:18 15.04.2021
286 Clouds 16 1015 51 10000 2.57 270 23:35 14.04.2021
287 Clouds 17 1016 48 10000 5.52 207 22:58 14.04.2021
288 Clouds 16 1016 48 10000 5.52 207 22:39 14.04.2021
289 Clouds 17 1016 48 10000 5.2 206 22:20 14.04.2021
290 Clouds 16 1016 51 10000 2.06 260 21:41 14.04.2021
291 Clouds 16 1016 51 10000 2.06 260 21:22 14.04.2021
292 Clouds 15 1017 58 10000 2.06 0 20:48 14.04.2021
293 Clouds 15 1016 52 10000 3.36 151 20:29 14.04.2021
294 Clouds 14 1016 59 10000 3.36 151 19:48 14.04.2021
295 Clouds 14 1015 59 10000 3.34 149 19:19 14.04.2021
296 Clouds 14 1015 59 10000 3.34 149 18:55 14.04.2021
297 Clouds 13 1015 67 10000 3.22 148 18:21 14.04.2021
298 Clouds 13 1015 67 10000 3.22 148 17:57 14.04.2021
299 Clouds 12 1015 67 10000 3.37 135 17:24 14.04.2021
300 Clouds 12 1015 76 10000 3.37 135 16:52 14.04.2021
301 Clouds 11 1015 76 10000 2.37 147 16:24 14.04.2021
302 Clouds 11 1014 71 10000 2.37 147 15:42 14.04.2021
303 Clouds 11 1014 71 10000 2.56 166 15:22 14.04.2021
304 Clouds 11 1014 76 10000 2.56 166 14:46 14.04.2021
305 Clouds 11 1014 76 10000 2.79 152 14:24 14.04.2021
306 Clouds 11 1013 71 10000 2.78 152 13:54 14.04.2021
307 Clouds 12 1014 71 10000 2.81 160 13:23 14.04.2021
308 Clouds 12 1014 76 10000 2.81 160 12:38 14.04.2021
309 Clouds 12 1014 72 10000 1.54 260 11:43 14.04.2021
310 Clouds 12 1014 72 10000 1.54 260 11:25 14.04.2021
311 Clouds 12 1014 72 10000 2.2 182 10:50 14.04.2021
312 Clouds 12 1014 72 10000 2.52 198 10:31 14.04.2021
313 Clouds 13 1013 72 10000 1.54 250 09:42 14.04.2021
314 Clouds 12 1013 72 10000 1.54 250 09:21 14.04.2021
315 Clouds 13 1013 72 10000 2.79 217 08:45 14.04.2021
316 Clouds 13 1013 72 10000 2.54 209 08:21 14.04.2021
317 Clouds 13 1014 72 10000 1.54 0 07:25 14.04.2021
318 Clouds 13 1013 72 10000 1.54 260 06:26 14.04.2021
319 Clouds 13 1012 63 10000 2.57 0 04:53 14.04.2021
320 Clouds 15 1012 67 10000 1.54 0 01:52 14.04.2021
321 Clouds 16 1012 63 10000 1.54 0 00:40 14.04.2021
322 Clouds 17 1012 67 10000 3.7 206 23:55 13.04.2021
323 Clouds 16 1012 63 10000 3.58 207 23:30 13.04.2021
324 Clouds 16 1013 72 10000 3.58 207 22:44 13.04.2021
325 Clouds 16 1013 72 10000 3.22 194 22:19 13.04.2021
326 Clouds 16 1013 67 10000 3.22 194 21:47 13.04.2021
327 Clouds 16 1013 67 10000 3.02 188 21:29 13.04.2021
328 Clouds 16 1013 67 10000 1.54 0 20:43 13.04.2021
329 Clouds 16 1013 67 10000 2.96 166 20:24 13.04.2021
330 Clouds 15 1013 72 10000 1.54 250 19:56 13.04.2021
331 Clouds 15 1013 72 10000 1.54 250 19:25 13.04.2021
332 Clouds 15 1013 72 10000 1.54 250 19:25 13.04.2021
333 Clouds 14 1013 72 10000 1.54 270 18:46 13.04.2021
334 Clouds 14 1013 72 10000 1.54 270 18:28 13.04.2021
335 Clouds 14 1013 77 10000 1.54 270 17:40 13.04.2021
336 Clouds 14 1013 77 10000 1.54 270 17:18 13.04.2021
337 Clouds 13 1012 77 10000 2.08 150 16:45 13.04.2021
338 Clouds 13 1012 77 10000 1.95 164 16:25 13.04.2021
339 Clouds 13 1011 82 10000 1.95 164 15:53 13.04.2021
340 Clouds 13 1011 82 10000 1.77 155 15:34 13.04.2021
341 Clouds 13 1012 77 10000 2.14 152 14:50 13.04.2021
342 Clouds 13 1012 77 10000 2.09 144 14:22 13.04.2021
343 Clouds 13 1011 77 10000 2.09 144 13:45 13.04.2021
344 Clouds 13 1011 77 10000 2.32 144 13:26 13.04.2021
345 Clouds 13 1012 72 10000 2.32 144 12:58 13.04.2021
346 Clouds 14 1012 72 10000 2.32 144 12:37 13.04.2021
347 Clouds 14 1012 72 10000 2.49 142 12:18 13.04.2021
348 Clouds 14 1012 72 10000 2.49 142 11:34 13.04.2021
349 Clouds 14 1012 72 10000 1.54 270 10:56 13.04.2021
350 Clouds 14 1012 72 10000 1.54 270 10:56 13.04.2021
351 Clouds 14 1012 72 10000 1.54 270 10:37 13.04.2021
352 Clouds 14 1012 72 10000 1.54 270 10:18 13.04.2021
353 Clouds 14 1012 77 10000 2.05 142 09:40 13.04.2021
354 Clouds 14 1012 77 10000 1.5 172 09:18 13.04.2021
355 Clouds 13 1012 77 10000 1.56 188 08:42 13.04.2021
356 Clouds 13 1012 77 10000 1.9 206 08:21 13.04.2021
357 Clouds 13 1012 77 10000 1.9 206 08:21 13.04.2021
358 Clouds 13 1011 82 10000 1.9 206 07:36 13.04.2021
359 Clouds 14 1011 77 10000 2.57 260 06:59 13.04.2021
360 Clouds 14 1010 72 10000 1.54 250 05:53 13.04.2021
361 Clouds 17 1009 63 10000 2.06 250 02:52 13.04.2021
362 Clouds 19 1010 55 10000 1.54 250 01:28 13.04.2021
363 Clouds 20 1010 55 10000 5.56 230 23:49 12.04.2021
364 Clouds 20 1010 55 10000 5.56 230 23:49 12.04.2021
365 Clouds 20 1010 55 10000 4.67 223 23:27 12.04.2021
366 Clouds 18 1011 59 10000 4.67 223 22:43 12.04.2021
367 Clouds 18 1011 59 10000 3.8 216 22:25 12.04.2021
368 Clouds 18 1011 63 10000 2.06 260 21:47 12.04.2021
369 Clouds 18 1011 63 10000 2.06 260 21:23 12.04.2021
370 Clouds 18 1011 59 10000 1.54 0 20:45 12.04.2021
371 Clouds 18 1011 59 10000 1.54 0 20:26 12.04.2021
372 Clouds 17 1010 59 10000 1.54 260 19:58 12.04.2021
373 Clouds 17 1010 59 10000 1.54 260 19:39 12.04.2021
374 Clouds 17 1010 59 10000 1.54 260 19:20 12.04.2021
375 Clouds 16 1010 67 10000 1.54 250 18:47 12.04.2021
376 Clouds 16 1010 67 10000 1.54 250 18:29 12.04.2021
377 Clouds 15 1010 67 10000 1.92 196 17:46 12.04.2021
378 Clouds 15 1010 67 10000 1.66 167 17:24 12.04.2021
379 Clouds 15 1009 67 10000 1.66 167 16:49 12.04.2021
380 Clouds 15 1009 67 10000 1.65 160 16:28 12.04.2021
381 Clouds 14 1009 72 10000 1.65 160 15:54 12.04.2021
382 Clouds 14 1009 72 10000 1.65 160 15:33 12.04.2021
383 Clouds 14 1009 72 10000 1.69 167 14:55 12.04.2021
384 Clouds 14 1009 72 10000 1.69 167 14:37 12.04.2021
385 Clouds 14 1009 77 10000 2.02 162 13:59 12.04.2021
386 Clouds 14 1009 77 10000 2.02 162 13:39 12.04.2021
387 Clouds 14 1009 77 10000 2.23 164 13:18 12.04.2021
388 Clouds 14 1009 72 10000 2.23 164 12:38 12.04.2021
389 Clouds 14 1009 72 10000 2 161 12:20 12.04.2021
390 Clouds 14 1009 77 10000 2.25 171 11:27 12.04.2021
391 Clouds 14 1009 77 10000 2.25 171 10:51 12.04.2021
392 Clouds 14 1009 77 10000 2.23 160 10:28 12.04.2021
393 Clouds 14 1009 77 10000 2.23 160 09:52 12.04.2021
394 Clouds 15 1009 77 10000 2.06 0 09:23 12.04.2021
395 Clouds 15 1009 77 10000 1.54 0 08:51 12.04.2021
396 Clouds 15 1009 77 10000 1.54 120 07:55 12.04.2021
397 Clouds 15 1009 77 10000 1.54 120 07:30 12.04.2021
398 Clouds 15 1008 77 10000 1.99 156 06:39 12.04.2021
399 Clear 16 1007 77 10000 1.54 250 05:47 12.04.2021
400 Clear 21 1006 56 10000 2.06 0 02:27 12.04.2021
401 Clear 23 1007 46 10000 3.38 230 00:29 12.04.2021
402 Clear 23 1007 49 10000 3.38 230 23:56 11.04.2021
403 Clear 23 1007 49 10000 3.38 230 23:38 11.04.2021
404 Clear 22 1007 49 10000 3.37 235 23:19 11.04.2021
405 Clear 21 1008 63 10000 3.37 235 22:38 11.04.2021
406 Clear 20 1008 63 10000 3.25 240 22:19 11.04.2021
407 Clouds 18 1009 63 10000 3.25 240 21:42 11.04.2021
408 Clouds 18 1009 63 10000 3.41 240 21:24 11.04.2021
409 Clouds 18 1010 63 10000 1.54 270 20:42 11.04.2021
410 Clouds 17 1010 63 10000 1.54 270 20:23 11.04.2021
411 Clouds 17 1010 63 10000 2.27 240 19:43 11.04.2021
412 Clouds 17 1010 63 10000 1.48 239 19:21 11.04.2021
413 Clouds 16 1009 72 10000 1.48 239 18:58 11.04.2021
414 Clouds 16 1009 72 10000 1.12 206 18:40 11.04.2021
415 Clouds 16 1009 72 10000 1.12 206 18:20 11.04.2021
416 Clouds 15 1009 72 10000 1.12 206 17:41 11.04.2021
417 Clouds 15 1009 72 10000 0.94 198 17:22 11.04.2021
418 Clear 13 1009 82 10000 0.94 198 16:42 11.04.2021
419 Clear 13 1009 82 10000 0.53 251 16:22 11.04.2021
420 Clear 13 1009 82 10000 0.53 251 15:46 11.04.2021
421 Clear 13 1009 82 10000 1.03 236 15:26 11.04.2021
422 Clear 13 1009 82 10000 1.03 236 15:26 11.04.2021
423 Clouds 13 1008 82 10000 1.03 236 14:52 11.04.2021
424 Clouds 13 1008 82 10000 1.4 217 14:27 11.04.2021
425 Clouds 14 1009 82 10000 1.4 217 13:45 11.04.2021
426 Clouds 14 1009 82 10000 0.93 220 13:27 11.04.2021
427 Clouds 14 1009 82 10000 0.93 220 12:44 11.04.2021
428 Clouds 14 1009 82 10000 0.92 170 12:20 11.04.2021
429 Clouds 14 1011 82 10000 3.6 130 11:48 11.04.2021
430 Clouds 14 1011 82 10000 3.6 130 11:22 11.04.2021
431 Clouds 14 1011 77 10000 2.1 177 10:47 11.04.2021
432 Clouds 14 1011 77 10000 1.75 176 10:26 11.04.2021
433 Clear 15 1011 72 10000 1.75 176 09:53 11.04.2021
434 Clear 15 1011 72 10000 1.75 176 09:32 11.04.2021
435 Clear 15 1011 67 10000 1.16 150 08:42 11.04.2021
436 Clear 15 1011 67 10000 1.8 125 08:21 11.04.2021
437 Clear 15 1011 67 10000 2.28 138 07:21 11.04.2021
438 Clear 15 1011 59 10000 1.38 151 06:26 11.04.2021
439 Clear 16 1010 59 10000 1.38 151 05:41 11.04.2021
440 Clear 17 1010 59 10000 1.76 228 05:19 11.04.2021
441 Clear 18 1010 55 10000 2.06 260 04:34 11.04.2021
442 Clear 23 1009 43 10000 1.54 0 01:45 11.04.2021
443 Clear 24 1010 40 10000 2.06 260 00:33 11.04.2021
444 Clear 25 1011 46 10000 3.09 260 23:47 10.04.2021
445 Clear 24 1011 46 10000 3.09 260 23:24 10.04.2021
446 Clear 24 1011 41 10000 2.06 270 22:43 10.04.2021
447 Clear 23 1011 41 10000 2.06 270 22:20 10.04.2021
448 Clear 23 1011 41 10000 2.06 270 22:20 10.04.2021
449 Clear 23 1012 46 10000 2.06 60 21:40 10.04.2021
450 Clear 22 1012 46 10000 2.06 60 21:20 10.04.2021
451 Clear 21 1013 52 10000 3.25 240 20:42 10.04.2021
452 Clear 21 1013 52 10000 3.16 234 20:23 10.04.2021
453 Clear 18 1014 63 10000 1.54 250 19:44 10.04.2021
454 Clear 18 1014 63 10000 1.54 250 19:25 10.04.2021
455 Clear 18 1014 63 10000 1.54 250 19:25 10.04.2021
456 Clouds 17 1014 68 10000 2.56 231 18:50 10.04.2021
457 Clouds 17 1014 72 10000 2.06 130 18:28 10.04.2021
458 Clouds 15 1013 72 10000 2.23 232 17:38 10.04.2021
459 Clouds 15 1013 77 10000 1.21 252 17:18 10.04.2021
460 Clear 13 1013 76 10000 0.51 270 16:28 10.04.2021
461 Clouds 12 1012 76 10000 0.51 270 15:55 10.04.2021
462 Clouds 12 1012 76 10000 0.94 236 15:23 10.04.2021
463 Clear 13 1012 76 10000 0.94 236 14:42 10.04.2021
464 Clear 13 1012 76 10000 0.96 210 14:19 10.04.2021
465 Clear 13 1013 76 10000 0.96 210 13:43 10.04.2021
466 Clear 14 1013 72 10000 1.52 186 12:54 10.04.2021
467 Clear 14 1013 72 10000 0.54 148 12:29 10.04.2021
468 Clear 14 1014 67 10000 0.54 148 11:50 10.04.2021
469 Clear 14 1014 67 10000 0.67 200 11:26 10.04.2021
470 Clear 14 1014 67 10000 0.67 200 10:52 10.04.2021
471 Clear 14 1014 67 10000 1.14 189 10:31 10.04.2021
472 Clear 14 1014 72 10000 1.14 189 09:52 10.04.2021
473 Clear 14 1014 72 10000 1.89 182 09:23 10.04.2021
474 Clear 15 1014 67 10000 1.89 182 08:49 10.04.2021
475 Clear 15 1014 67 10000 1.82 174 08:29 10.04.2021
476 Clear 15 1013 63 10000 1.82 174 07:50 10.04.2021
477 Clear 15 1013 63 10000 1.84 159 07:21 10.04.2021
478 Clear 16 1013 63 10000 0.81 150 06:26 10.04.2021
479 Clear 18 1013 55 10000 2.32 234 04:40 10.04.2021
480 Clear 22 1013 56 10000 2.06 260 02:54 10.04.2021
481 Clear 22 1013 56 10000 2.06 260 02:35 10.04.2021
482 Clear 23 1014 40 10000 3.78 235 00:50 10.04.2021
483 Clear 23 1014 40 10000 5.2 240 00:29 10.04.2021
484 Clear 23 1014 53 10000 2.06 250 23:44 09.04.2021
485 Clear 22 1014 53 10000 2.06 250 23:19 09.04.2021
486 Clear 23 1014 49 10000 4.59 238 22:42 09.04.2021
487 Clear 23 1014 49 10000 3.55 231 22:24 09.04.2021
488 Clear 22 1015 46 10000 3.55 231 21:39 09.04.2021
489 Clear 21 1015 46 10000 3.12 230 21:19 09.04.2021
490 Clear 20 1016 52 10000 3.12 230 20:45 09.04.2021
491 Clear 20 1016 52 10000 2.92 246 20:23 09.04.2021
492 Clear 18 1016 63 10000 2.92 246 19:57 09.04.2021
493 Clear 18 1016 63 10000 2.92 246 19:39 09.04.2021
494 Clear 18 1016 63 10000 2.54 246 19:20 09.04.2021
495 Clouds 17 1015 72 10000 2.54 246 18:41 09.04.2021
496 Clouds 16 1015 72 10000 1.8 242 18:21 09.04.2021
497 Clouds 15 1015 77 10000 1.8 242 17:43 09.04.2021
498 Haze 15 1015 77 9656 1.54 130 17:22 09.04.2021
499 Clear 13 1014 82 10000 0.91 238 16:41 09.04.2021
500 Clear 12 1014 82 10000 0.87 207 16:19 09.04.2021
501 Clouds 12 1014 82 10000 0.87 207 15:40 09.04.2021
502 Clouds 12 1014 82 10000 1.14 211 15:20 09.04.2021
503 Clear 13 1014 82 10000 1.14 211 14:46 09.04.2021
504 Clear 13 1014 82 10000 0.92 194 14:19 09.04.2021
505 Clear 13 1014 88 10000 0.92 194 13:43 09.04.2021
506 Clear 13 1014 88 10000 0.66 209 13:22 09.04.2021
507 Clear 13 1015 82 10000 0.66 209 12:47 09.04.2021
508 Clear 14 1015 77 10000 1.06 208 11:52 09.04.2021
509 Clear 14 1015 77 10000 1.17 190 11:28 09.04.2021
510 Clouds 13 1016 82 10000 1.54 130 10:53 09.04.2021
511 Clouds 13 1016 82 10000 1.54 130 10:34 09.04.2021
512 Clear 14 1015 67 10000 1.21 164 09:55 09.04.2021
513 Clear 15 1015 67 10000 1.93 151 09:27 09.04.2021
514 Clear 15 1015 67 10000 1.93 151 08:55 09.04.2021
515 Clear 15 1015 67 10000 2.02 147 08:25 09.04.2021
516 Clear 15 1015 67 10000 2.73 139 07:21 09.04.2021
517 Clear 15 1015 67 10000 2.73 139 07:21 09.04.2021
518 Clear 16 1015 67 10000 2.5 139 06:26 09.04.2021
519 Clear 19 1013 48 10000 2.23 223 03:57 09.04.2021
520 Clear 20 1013 48 10000 2.23 223 03:39 09.04.2021
521 Clear 22 1015 40 10000 1.54 0 00:39 09.04.2021
522 Clear 22 1015 40 10000 1.54 0 00:21 09.04.2021
523 Clear 23 1015 43 10000 1.54 0 23:32 08.04.2021
524 Clear 23 1016 56 10000 4.12 260 22:51 08.04.2021
525 Clear 23 1016 56 10000 4.12 260 22:27 08.04.2021
526 Clear 22 1016 43 10000 4.12 190 21:58 08.04.2021
527 Clear 22 1017 59 10000 4.12 260 21:40 08.04.2021
528 Clear 22 1017 59 10000 4.12 260 21:21 08.04.2021
529 Clear 22 1017 63 10000 4.12 260 20:56 08.04.2021
530 Clear 21 1017 63 10000 4.12 260 20:35 08.04.2021
531 Clear 20 1017 55 10000 2.56 210 19:58 08.04.2021
532 Clear 19 1017 63 10000 1.91 207 19:27 08.04.2021
533 Clear 18 1017 77 10000 2.06 120 18:58 08.04.2021
534 Clear 17 1017 77 10000 2.06 120 18:39 08.04.2021
535 Clear 17 1017 77 10000 2.06 120 18:19 08.04.2021
536 Clouds 16 1017 88 10000 1.46 166 17:41 08.04.2021
537 Clouds 15 1017 88 10000 1.05 177 17:19 08.04.2021
538 Clouds 14 1017 88 10000 1.54 100 16:44 08.04.2021
539 Clouds 13 1017 88 10000 1.54 100 16:22 08.04.2021
540 Clear 13 1017 82 10000 0.66 190 15:45 08.04.2021
541 Clear 13 1017 82 10000 0.63 197 15:25 08.04.2021
542 Clear 13 1016 82 10000 0.63 197 14:42 08.04.2021
543 Clear 13 1016 82 10000 0.91 173 14:21 08.04.2021
544 Clear 13 1016 82 10000 0.91 173 13:48 08.04.2021
545 Clear 13 1016 82 10000 1.15 165 13:24 08.04.2021
546 Clear 14 1017 77 10000 1.14 165 12:57 08.04.2021
547 Clear 14 1017 77 10000 1.15 165 12:33 08.04.2021
548 Clear 14 1017 82 10000 1.36 164 11:57 08.04.2021
549 Clear 14 1017 82 10000 1.58 150 11:26 08.04.2021
550 Clear 14 1017 82 10000 1.58 150 10:55 08.04.2021
551 Clear 14 1017 82 10000 1.41 150 10:25 08.04.2021
552 Clear 15 1018 77 10000 1.41 150 09:46 08.04.2021
553 Clear 15 1018 77 10000 1.43 161 09:27 08.04.2021
554 Clear 15 1018 82 10000 2.06 230 08:44 08.04.2021
555 Clear 15 1018 82 10000 2.06 230 08:22 08.04.2021
556 Clear 15 1017 72 10000 1.74 164 07:46 08.04.2021
557 Clear 16 1018 72 10000 2.04 162 06:46 08.04.2021
558 Clear 23 1017 59 10000 6.17 250 01:28 08.04.2021
559 Clear 23 1017 56 10000 4.63 240 00:32 08.04.2021
560 Clear 24 1018 49 10000 3.6 250 23:50 07.04.2021
561 Clear 24 1018 40 10000 2.06 270 23:27 07.04.2021
562 Clear 24 1018 40 10000 2.06 270 22:58 07.04.2021
563 Clear 24 1018 40 10000 2.06 270 22:39 07.04.2021
564 Clear 23 1018 40 10000 2.06 270 22:21 07.04.2021
565 Clear 23 1018 46 10000 3.87 232 21:35 07.04.2021
566 Clear 22 1018 49 10000 1.54 0 20:59 07.04.2021
567 Clear 22 1018 49 10000 1.54 0 20:40 07.04.2021
568 Clear 22 1018 49 10000 1.54 0 20:19 07.04.2021
569 Clear 20 1018 56 10000 2.34 218 19:41 07.04.2021
570 Clear 20 1018 56 10000 2.12 220 19:22 07.04.2021
571 Clear 18 1018 63 10000 2.13 220 18:42 07.04.2021
572 Clear 18 1018 63 10000 1.42 209 18:19 07.04.2021
573 Clear 16 1018 67 10000 1.42 209 17:50 07.04.2021
574 Clear 15 1018 67 10000 1.42 209 17:32 07.04.2021
575 Clear 13 1017 76 10000 1.11 200 16:47 07.04.2021
576 Clear 12 1017 76 10000 0.71 196 16:22 07.04.2021
577 Clear 13 1017 76 10000 0.71 196 15:56 07.04.2021
578 Clear 13 1017 76 10000 0.71 196 15:38 07.04.2021
579 Clear 13 1017 76 10000 0.37 213 14:52 07.04.2021
580 Clear 13 1017 76 10000 0.71 255 14:25 07.04.2021
581 Clear 13 1017 76 10000 0.77 229 13:47 07.04.2021
582 Clear 13 1017 76 10000 0.48 280 13:23 07.04.2021
583 Clear 13 1017 76 10000 0.48 280 12:49 07.04.2021
584 Clear 13 1017 76 10000 0.92 207 12:24 07.04.2021
585 Clear 13 1018 72 10000 0.92 207 11:48 07.04.2021
586 Clear 13 1018 72 10000 0.53 166 11:25 07.04.2021
587 Clear 13 1018 72 10000 0.53 166 10:52 07.04.2021
588 Clear 14 1018 77 10000 1.54 140 09:57 07.04.2021
589 Clear 13 1018 77 10000 1.54 140 09:38 07.04.2021
590 Clear 13 1018 77 10000 1.54 140 09:19 07.04.2021
591 Clear 13 1018 67 10000 1.31 211 08:33 07.04.2021
592 Clear 14 1018 82 10000 1.78 194 07:58 07.04.2021
593 Clear 14 1018 82 10000 1.79 195 07:37 07.04.2021
594 Clear 14 1018 82 10000 1.79 195 07:19 07.04.2021
595 Clear 14 1018 63 10000 2.57 280 06:22 07.04.2021
596 Clear 17 1015 67 10000 1.54 270 04:22 07.04.2021
597 Clear 21 1015 52 10000 1.54 260 00:20 07.04.2021
598 Clear 21 1015 52 10000 4.29 219 23:46 06.04.2021
599 Clear 21 1015 52 10000 3.76 209 23:18 06.04.2021
600 Clear 20 1015 56 10000 1.54 0 22:39 06.04.2021
601 Clear 20 1015 56 10000 1.54 0 22:19 06.04.2021
602 Clouds 19 1016 59 10000 2.97 204 21:40 06.04.2021
603 Clouds 19 1016 59 10000 2.55 189 21:22 06.04.2021
604 Clouds 19 1016 55 10000 2.55 189 20:53 06.04.2021
605 Clouds 18 1016 55 10000 2.38 189 20:24 06.04.2021
606 Clear 17 1015 59 10000 2.38 189 19:52 06.04.2021
607 Clear 16 1015 59 10000 2.37 184 19:34 06.04.2021
608 Clouds 16 1014 67 10000 1.54 100 18:57 06.04.2021
609 Clouds 15 1014 67 10000 1.54 100 18:38 06.04.2021
610 Clouds 15 1014 67 10000 1.54 100 18:18 06.04.2021
611 Clouds 14 1015 72 10000 2.11 184 17:40 06.04.2021
612 Clouds 14 1015 77 10000 1.9 174 17:18 06.04.2021
613 Clouds 13 1014 76 10000 1.9 174 16:42 06.04.2021
614 Clouds 12 1013 76 10000 1.07 140 15:53 06.04.2021
615 Clouds 12 1013 76 10000 1.23 155 15:25 06.04.2021
616 Clouds 12 1013 76 10000 1.23 155 14:43 06.04.2021
617 Clouds 12 1013 76 10000 1.24 167 14:24 06.04.2021
618 Clouds 12 1014 82 10000 1.24 167 13:46 06.04.2021
619 Clear 12 1013 76 10000 1.28 157 13:25 06.04.2021
620 Clear 12 1013 76 10000 1.28 157 12:45 06.04.2021
621 Clear 12 1013 76 10000 1.19 154 12:26 06.04.2021
622 Clear 13 1014 82 10000 1.19 154 11:55 06.04.2021
623 Clear 13 1014 82 10000 1.19 154 11:36 06.04.2021
624 Clear 12 1014 82 10000 1.21 154 11:18 06.04.2021
625 Clear 13 1014 82 10000 1.22 158 10:39 06.04.2021
626 Clear 13 1014 82 10000 1.22 158 10:21 06.04.2021
627 Clear 13 1014 77 10000 1.22 158 09:43 06.04.2021
628 Clear 13 1014 77 10000 2.25 178 08:57 06.04.2021
629 Clear 13 1014 82 10000 3.6 280 08:19 06.04.2021
630 Clear 13 1013 77 10000 2.1 154 07:22 06.04.2021
631 Clear 13 1013 77 10000 2.1 154 06:51 06.04.2021
632 Clear 17 1012 55 10000 1.54 250 03:54 06.04.2021
633 Clear 20 1013 55 10000 4.76 233 00:49 06.04.2021
634 Clear 20 1013 55 10000 4.55 230 00:22 06.04.2021
635 Clear 20 1014 59 10000 2.06 250 23:58 05.04.2021
636 Clear 21 1014 59 10000 2.06 250 23:39 05.04.2021
637 Clear 21 1014 59 10000 2.06 250 23:18 05.04.2021
638 Clear 21 1014 52 10000 3.6 260 22:40 05.04.2021
639 Clear 21 1014 46 10000 3.8 218 21:55 05.04.2021
640 Clear 21 1014 46 10000 3.8 218 21:37 05.04.2021
641 Clear 20 1014 46 10000 3.2 203 21:18 05.04.2021
642 Clear 19 1015 55 10000 3.2 203 20:41 05.04.2021
643 Clear 19 1015 55 10000 2.7 184 20:22 05.04.2021
644 Clear 18 1016 63 10000 1.54 0 19:37 05.04.2021
645 Clear 18 1016 63 10000 1.54 0 19:18 05.04.2021
646 Clouds 16 1016 67 10000 2.06 0 18:40 05.04.2021
647 Clouds 16 1016 67 10000 2.06 0 18:19 05.04.2021
648 Clouds 14 1016 82 10000 2.06 130 17:47 05.04.2021
649 Clouds 14 1016 82 10000 2.06 130 17:23 05.04.2021
650 Clouds 13 1015 82 10000 1.74 175 16:47 05.04.2021
651 Clouds 13 1015 82 10000 1.47 146 16:22 05.04.2021
652 Clouds 12 1015 82 10000 1.47 146 15:58 05.04.2021
653 Clouds 12 1015 82 10000 1.64 160 15:38 05.04.2021
654 Clouds 12 1015 82 10000 1.64 160 15:20 05.04.2021
655 Clear 12 1015 82 10000 1.62 143 14:36 05.04.2021
656 Clear 13 1015 72 10000 1.52 144 13:52 05.04.2021
657 Clear 13 1015 72 10000 1.52 154 13:27 05.04.2021
658 Clear 13 1015 76 10000 1.52 154 12:47 05.04.2021
659 Clear 13 1015 76 10000 1.35 170 12:25 05.04.2021
660 Clear 13 1015 72 10000 1.35 170 11:48 05.04.2021
661 Clear 13 1015 72 10000 1.78 161 11:30 05.04.2021
662 Clear 13 1016 72 10000 1.78 161 10:56 05.04.2021
663 Clear 13 1016 72 10000 1.78 161 10:56 05.04.2021
664 Clear 13 1016 72 10000 1.78 161 10:35 05.04.2021
665 Clear 14 1016 67 10000 1.85 135 09:49 05.04.2021
666 Clear 14 1016 67 10000 1.74 142 09:26 05.04.2021
667 Clear 14 1016 72 10000 1.74 142 08:50 05.04.2021
668 Clear 14 1016 72 10000 1.46 166 08:27 05.04.2021
669 Clear 14 1016 67 10000 1.46 166 07:58 05.04.2021
670 Clear 14 1016 67 10000 1.75 178 07:33 05.04.2021
671 Clear 19 1015 48 10000 2.26 226 03:42 05.04.2021
672 Clear 23 1016 43 10000 2.06 250 00:56 05.04.2021
673 Clear 24 1016 43 10000 2.06 250 00:19 05.04.2021
674 Clear 24 1017 43 10000 4.17 234 23:32 04.04.2021
675 Clear 24 1017 43 10000 2.06 250 22:58 04.04.2021
676 Clear 24 1017 43 10000 2.06 250 22:40 04.04.2021
677 Clear 24 1017 43 10000 2.06 250 22:21 04.04.2021
678 Clear 23 1017 35 10000 2.8 220 21:22 04.04.2021
679 Clear 22 1018 40 10000 1.54 0 20:43 04.04.2021
680 Clear 22 1018 40 10000 1.54 0 20:23 04.04.2021
681 Clear 21 1018 52 10000 1.88 189 19:41 04.04.2021
682 Clear 20 1018 52 10000 1.67 179 19:20 04.04.2021
683 Clear 18 1019 63 10000 1.67 179 18:56 04.04.2021
684 Clear 18 1019 63 10000 1.67 179 18:36 04.04.2021
685 Clear 17 1019 63 10000 1.28 175 18:18 04.04.2021
686 Clear 14 1019 72 10000 0.83 155 17:25 04.04.2021
687 Clouds 12 1020 54 1200 0.83 155 16:58 04.04.2021
688 Clouds 11 1020 54 1200 0.83 155 16:40 04.04.2021
689 Clear 11 1018 82 10000 0.66 165 15:56 04.04.2021
690 Clear 11 1018 82 10000 0.67 171 15:32 04.04.2021
691 Clear 11 1018 82 10000 0.69 164 14:42 04.04.2021
692 Clear 11 1018 82 10000 0.74 191 14:24 04.04.2021
693 Clear 12 1018 82 10000 0.67 171 13:28 04.04.2021
694 Clear 12 1019 82 10000 0.67 171 12:52 04.04.2021
695 Clear 12 1019 82 10000 0.95 204 12:28 04.04.2021
696 Clear 12 1019 76 10000 0.95 204 11:51 04.04.2021
697 Clear 12 1019 76 10000 1.35 198 11:31 04.04.2021
698 Clear 13 1020 76 10000 1.35 198 10:56 04.04.2021
699 Clear 13 1020 76 10000 1.14 185 10:32 04.04.2021
700 Clear 13 1020 82 10000 1.14 185 09:52 04.04.2021
701 Clear 13 1020 82 10000 1.09 177 09:24 04.04.2021
702 Clear 13 1020 82 10000 1.09 177 08:50 04.04.2021
703 Clear 13 1020 82 10000 1.56 199 08:32 04.04.2021
704 Clear 13 1020 82 10000 1.56 199 08:32 04.04.2021
705 Clear 14 1020 77 10000 1.82 203 07:22 04.04.2021
706 Clear 15 1019 67 10000 2.26 218 06:34 04.04.2021
707 Clear 16 1018 63 10000 1.54 0 04:56 04.04.2021
708 Clear 22 1019 59 10000 1.54 0 01:28 04.04.2021
709 Clear 22 1019 59 10000 4.07 235 00:19 04.04.2021
710 Clear 24 1019 52 10000 4.07 235 23:47 03.04.2021
711 Clear 24 1019 52 10000 4.44 237 23:23 03.04.2021
712 Clear 22 1020 59 10000 4.44 237 22:50 03.04.2021
713 Clear 22 1020 59 10000 3.94 236 22:21 03.04.2021
714 Haze 21 1020 56 8047 3.94 236 21:47 03.04.2021
715 Haze 21 1020 56 8047 3.4 228 21:24 03.04.2021
716 Haze 20 1020 63 8047 3.4 228 20:49 03.04.2021
717 Haze 19 1020 63 8047 2.18 206 20:28 03.04.2021
718 Haze 15 1020 67 8047 2.05 202 19:51 03.04.2021
719 Haze 15 1020 72 6437 1.44 197 19:25 03.04.2021
720 Haze 13 1020 82 4828 1.54 250 18:52 03.04.2021
721 Haze 13 1020 82 4828 1.54 250 18:32 03.04.2021
722 Haze 13 1020 88 4828 1.55 205 17:53 03.04.2021
723 Haze 13 1020 88 4828 0.84 208 17:26 03.04.2021
724 Mist 12 1020 88 4828 0.84 208 16:54 03.04.2021
725 Mist 12 1019 88 6437 0.6 266 16:25 03.04.2021
726 Mist 12 1019 88 4828 0.6 266 15:51 03.04.2021
727 Mist 12 1019 88 4828 0.6 266 15:31 03.04.2021
728 Mist 13 1018 88 4828 1.7 235 14:45 03.04.2021
729 Mist 13 1018 88 4828 1.17 196 14:25 03.04.2021
730 Mist 12 1018 88 6437 1.17 196 13:54 03.04.2021
731 Mist 12 1018 88 6437 1.17 196 13:34 03.04.2021
732 Mist 13 1018 88 6437 0.81 141 12:58 03.04.2021
733 Mist 12 1019 88 6437 0.81 141 12:33 03.04.2021
734 Mist 13 1019 88 4828 0.96 165 11:44 03.04.2021
735 Mist 13 1019 94 6437 1.2 158 11:26 03.04.2021
736 Mist 13 1019 88 6437 1.2 158 10:45 03.04.2021
737 Mist 13 1019 88 6437 1.35 166 10:26 03.04.2021
738 Mist 13 1019 94 6437 1.35 166 09:42 03.04.2021
739 Mist 13 1019 94 6437 1.44 155 09:23 03.04.2021
740 Haze 13 1019 82 9656 1.52 156 08:38 03.04.2021
741 Clear 13 1018 82 10000 1.34 156 07:47 03.04.2021
742 Clear 14 1018 82 10000 1.77 187 07:26 03.04.2021
743 Clear 18 1017 72 10000 1.54 260 04:24 03.04.2021
744 Clear 21 1016 56 10000 2.85 206 02:56 03.04.2021
745 Clear 21 1016 56 10000 3.45 204 02:31 03.04.2021
746 Clear 23 1016 56 10000 2.06 0 00:51 03.04.2021
747 Clear 23 1016 56 10000 2.06 0 00:18 03.04.2021
748 Clear 24 1020 15 1200 3.87 187 23:44 02.04.2021
749 Clear 24 1020 15 1200 3.96 183 23:19 02.04.2021
750 Clear 23 1016 49 10000 3.96 183 22:44 02.04.2021
751 Clear 23 1016 49 10000 3.52 173 22:25 02.04.2021
752 Clear 23 1017 46 10000 1.54 0 21:41 02.04.2021
753 Clear 23 1017 46 10000 1.54 0 21:19 02.04.2021
754 Clear 22 1017 52 10000 3.14 168 20:45 02.04.2021
755 Clear 21 1017 52 10000 2.85 163 20:25 02.04.2021
756 Clear 19 1017 59 10000 2.85 163 19:42 02.04.2021
757 Clear 19 1017 59 10000 2.72 166 19:23 02.04.2021
758 Clouds 17 1017 72 10000 2.72 166 18:50 02.04.2021
759 Clouds 17 1017 72 10000 1.96 140 18:31 02.04.2021
760 Clouds 16 1017 72 10000 1.96 140 17:59 02.04.2021
761 Clouds 15 1017 72 10000 1.96 140 17:34 02.04.2021
762 Clouds 14 1016 82 10000 2.57 0 16:44 02.04.2021
763 Clouds 14 1015 82 10000 2.06 0 15:51 02.04.2021
764 Clouds 14 1015 82 10000 1.63 133 15:32 02.04.2021
765 Clouds 14 1014 77 10000 1.54 0 14:42 02.04.2021
766 Clouds 14 1014 67 10000 1.95 156 14:21 02.04.2021
767 Clear 14 1014 72 10000 1.54 100 13:39 02.04.2021
768 Clear 14 1014 72 10000 1.54 100 13:19 02.04.2021
769 Clear 15 1013 55 10000 2.57 100 12:40 02.04.2021
770 Clear 15 1013 55 10000 2.57 100 12:19 02.04.2021
771 Clear 15 1013 39 10000 2.59 133 11:49 02.04.2021
772 Clear 15 1013 39 10000 2.26 128 11:19 02.04.2021
773 Clear 15 1013 44 10000 2.26 128 10:44 02.04.2021
774 Clear 15 1013 44 10000 1.59 140 10:25 02.04.2021
775 Clear 17 1013 36 10000 1.59 140 09:52 02.04.2021
776 Clear 17 1013 36 10000 1.35 143 09:26 02.04.2021
777 Clear 17 1013 36 10000 1.35 143 09:26 02.04.2021
778 Clear 18 1012 36 10000 1.35 143 08:49 02.04.2021
779 Clear 18 1012 36 10000 1.16 144 08:28 02.04.2021
780 Clear 19 1011 39 10000 0.67 198 07:23 02.04.2021
781 Clear 20 1011 37 10000 0.67 198 06:46 02.04.2021
782 Clear 24 1010 25 10000 3.13 262 04:18 02.04.2021
783 Clear 27 1010 11 10000 3.88 244 02:20 02.04.2021
784 Clouds 26 1011 16 10000 4.06 231 00:47 02.04.2021
785 Clouds 26 1011 16 10000 4.46 231 00:18 02.04.2021
786 Clouds 26 1011 16 10000 4.46 231 00:18 02.04.2021
787 Clouds 27 1011 9 10000 2.81 231 23:30 01.04.2021
788 Clear 28 1012 8 10000 2.81 231 22:55 01.04.2021
789 Clear 28 1012 8 10000 1.94 216 22:19 01.04.2021
790 Clear 29 1012 6 10000 1.94 216 21:49 01.04.2021
791 Clear 29 1012 6 10000 1.14 229 21:26 01.04.2021
792 Clear 28 1013 8 10000 2.06 30 20:44 01.04.2021
793 Clear 27 1013 8 10000 2.06 30 20:24 01.04.2021
794 Clear 27 1013 9 10000 1.54 0 19:54 01.04.2021
795 Clear 26 1013 9 10000 1.54 0 19:35 01.04.2021
796 Clear 26 1013 9 10000 1.54 0 19:35 01.04.2021
797 Clear 24 1013 11 10000 2.06 0 18:45 01.04.2021
798 Clear 23 1013 11 10000 2.06 0 18:18 01.04.2021
799 Clear 20 1013 13 10000 1.54 30 17:51 01.04.2021
800 Clear 20 1013 13 10000 1.54 30 17:32 01.04.2021
801 Clear 18 1013 20 10000 2.42 6 16:51 01.04.2021
802 Clear 16 1013 20 10000 2.69 5 16:28 01.04.2021
803 Clear 17 1013 20 10000 2.69 5 15:47 01.04.2021
804 Clear 17 1013 20 10000 2.69 6 15:20 01.04.2021
805 Clear 17 1013 17 10000 1.54 50 14:45 01.04.2021
806 Clear 17 1013 17 10000 1.54 50 14:45 01.04.2021
807 Clear 17 1013 17 10000 1.54 50 14:45 01.04.2021
808 Clear 18 1013 17 10000 1.54 50 14:26 01.04.2021
809 Clear 18 1014 19 10000 2.06 20 13:55 01.04.2021
810 Clear 17 1014 19 10000 2.06 20 13:31 01.04.2021
811 Clear 18 1014 17 10000 2.59 13 12:54 01.04.2021
812 Clear 18 1014 17 10000 2.58 9 12:32 01.04.2021
813 Clear 18 1015 25 10000 2.58 9 11:50 01.04.2021
814 Clear 18 1015 25 10000 2.41 14 11:25 01.04.2021
815 Clear 19 1015 19 10000 2.41 14 10:58 01.04.2021
816 Clear 19 1015 19 10000 2.41 14 10:40 01.04.2021
817 Clear 20 1015 19 10000 2.38 20 10:21 01.04.2021
818 Clear 19 1016 39 10000 2.38 20 09:30 01.04.2021
819 Clear 19 1016 39 10000 2.38 20 09:30 01.04.2021
820 Clear 20 1016 30 10000 2.37 16 08:40 01.04.2021
821 Clear 19 1016 30 10000 1.74 16 08:19 01.04.2021
822 Clear 20 1016 30 10000 1.81 28 07:21 01.04.2021
823 Clear 20 1016 23 10000 1.81 28 06:50 01.04.2021
824 Clear 22 1016 11 10000 1.65 232 04:56 01.04.2021
825 Clear 28 1015 10 10000 2.06 280 02:29 01.04.2021
826 Clear 30 1017 6 10000 2.06 0 23:52 31.03.2021
827 Clear 29 1017 6 10000 2.06 0 23:32 31.03.2021
828 Clear 29 1017 8 10000 2.07 234 22:43 31.03.2021
829 Clear 29 1017 8 10000 1.37 263 22:21 31.03.2021
830 Clear 28 1018 10 10000 1.37 263 21:47 31.03.2021
831 Clear 27 1018 11 10000 0.76 301 21:24 31.03.2021
832 Clear 27 1018 13 10000 0.76 302 20:58 31.03.2021
833 Clear 26 1018 13 10000 0.76 301 20:40 31.03.2021
834 Clear 26 1018 13 10000 0.72 101 20:19 31.03.2021
835 Clear 24 1018 27 10000 0.72 101 19:42 31.03.2021
836 Clear 23 1018 27 10000 0.72 76 19:20 31.03.2021
837 Clear 21 1018 43 10000 0.72 76 18:54 31.03.2021
838 Clear 19 1018 43 10000 1.23 35 18:34 31.03.2021
839 Clear 17 1018 67 10000 1.23 35 17:41 31.03.2021
840 Clear 15 1018 67 10000 2.18 21 17:19 31.03.2021
841 Clear 14 1017 76 10000 2.18 21 16:53 31.03.2021
842 Clear 12 1017 76 10000 2.18 21 16:34 31.03.2021
843 Clear 12 1017 76 10000 2.11 26 15:53 31.03.2021
844 Clear 12 1017 76 10000 1.39 30 15:22 31.03.2021
845 Clear 12 1017 76 10000 1.39 30 14:53 31.03.2021
846 Clear 12 1017 76 10000 1.05 38 14:26 31.03.2021
847 Clear 13 1017 76 10000 1.05 38 13:57 31.03.2021
848 Clear 13 1017 76 10000 0.87 10 13:24 31.03.2021
849 Clear 13 1017 77 10000 0.87 10 12:41 31.03.2021
850 Clear 13 1017 77 10000 0.33 334 12:19 31.03.2021
851 Clear 13 1018 82 10000 0.33 334 11:39 31.03.2021
852 Clear 13 1018 82 10000 0.15 69 11:19 31.03.2021
853 Clear 14 1018 77 10000 0.15 69 10:44 31.03.2021
854 Clear 14 1018 77 10000 0.56 70 10:22 31.03.2021
855 Clear 14 1022 11 1200 0.56 70 09:33 31.03.2021
856 Clear 15 1018 77 10000 0.08 17 08:48 31.03.2021
857 Clear 15 1018 77 10000 0.14 304 08:30 31.03.2021
858 Clear 15 1017 72 10000 0.14 304 07:42 31.03.2021
859 Clear 16 1015 67 10000 1.54 260 05:55 31.03.2021
860 Clear 22 1013 46 10000 3.6 270 02:44 31.03.2021
861 Clear 24 1013 46 10000 3.47 217 00:55 31.03.2021
862 Clear 24 1013 46 10000 2.92 217 00:27 31.03.2021
863 Clear 24 1014 40 10000 1.54 0 23:59 30.03.2021
864 Clear 23 1014 40 10000 1.54 0 23:28 30.03.2021
865 Clear 23 1014 38 10000 1.54 0 22:56 30.03.2021
866 Clear 23 1014 38 10000 1.54 0 22:56 30.03.2021
867 Clear 23 1014 38 10000 1.54 0 22:38 30.03.2021
868 Clear 22 1014 38 10000 1.54 0 22:19 30.03.2021
869 Clear 21 1014 49 10000 2.11 201 21:42 30.03.2021
870 Clear 20 1014 49 10000 1.94 185 21:19 30.03.2021
871 Clear 19 1015 55 10000 1.54 0 20:48 30.03.2021
872 Clear 18 1015 55 10000 1.54 0 20:27 30.03.2021
873 Clouds 17 1015 63 10000 1.73 184 19:48 30.03.2021
874 Clouds 17 1015 63 10000 1.57 197 19:23 30.03.2021
875 Clouds 15 1015 67 10000 2.06 80 18:36 30.03.2021
876 Clouds 13 1014 72 10000 2.06 0 17:52 30.03.2021
877 Clouds 13 1014 72 10000 1.54 90 17:32 30.03.2021
878 Clouds 13 1013 76 10000 2.06 100 16:48 30.03.2021
879 Clouds 13 1013 76 10000 2.06 100 16:28 30.03.2021
880 Clouds 13 1013 76 10000 2.57 0 15:43 30.03.2021
881 Clouds 13 1013 76 10000 2.57 0 15:43 30.03.2021
882 Clouds 12 1013 76 10000 2.57 0 15:20 30.03.2021
883 Clouds 12 1013 76 10000 2.57 0 15:20 30.03.2021
884 Mist 12 1012 87 9656 2.06 150 14:55 30.03.2021
885 Clouds 12 1013 76 10000 2.06 0 14:22 30.03.2021
886 Clouds 12 1012 82 10000 2.06 100 13:57 30.03.2021
887 Clouds 12 1012 82 10000 3.6 100 13:36 30.03.2021
888 Clear 13 1012 82 10000 1.54 80 12:45 30.03.2021
889 Clouds 13 1012 82 10000 2.06 0 12:27 30.03.2021
890 Clear 13 1012 82 10000 1.54 0 11:52 30.03.2021
891 Clear 13 1012 82 10000 1.54 0 11:23 30.03.2021
892 Clouds 14 1012 82 10000 2.06 110 10:46 30.03.2021
893 Clouds 14 1012 82 10000 2.06 110 10:25 30.03.2021
894 Clear 13 1012 77 10000 1.57 153 09:44 30.03.2021
895 Clear 13 1012 77 10000 1.92 156 09:26 30.03.2021
896 Clear 14 1011 82 10000 1.54 200 08:54 30.03.2021
897 Clear 14 1011 67 10000 2.63 155 08:36 30.03.2021
898 Clear 14 1011 67 10000 2.63 155 07:51 30.03.2021
899 Clear 15 1011 67 10000 2.25 150 07:22 30.03.2021
900 Clear 16 1009 59 10000 1.87 189 05:26 30.03.2021
901 Clear 17 1009 52 10000 1.54 250 04:58 30.03.2021
902 Clear 24 1010 35 10000 4.21 220 00:30 30.03.2021
903 Clear 24 1011 40 10000 1.54 240 23:33 29.03.2021
904 Clear 24 1012 38 10000 2.57 250 22:45 29.03.2021
905 Clear 25 1012 38 10000 2.57 250 22:26 29.03.2021
906 Clear 25 1012 21 10000 1.54 0 21:47 29.03.2021
907 Clear 24 1012 21 10000 1.54 0 21:27 29.03.2021
908 Clear 24 1013 20 10000 2.34 188 20:48 29.03.2021
909 Clear 24 1013 20 10000 1.83 185 20:27 29.03.2021
910 Clear 23 1013 24 10000 1.83 185 19:49 29.03.2021
911 Clear 22 1013 24 10000 1.63 162 19:22 29.03.2021
912 Clear 20 1013 28 10000 1.54 0 18:44 29.03.2021
913 Clear 20 1013 28 10000 1.54 0 18:26 29.03.2021
914 Clear 17 1014 51 10000 1.47 150 17:50 29.03.2021
915 Clear 16 1014 51 10000 1.33 127 17:30 29.03.2021
916 Clear 12 1014 58 10000 1.33 127 16:41 29.03.2021
917 Clear 12 1014 58 10000 0.94 94 16:20 29.03.2021
918 Clear 13 1014 62 10000 0.94 94 15:36 29.03.2021
919 Clear 13 1014 62 10000 0.93 99 15:18 29.03.2021
920 Clear 13 1014 62 10000 0.93 99 14:45 29.03.2021
921 Clear 13 1015 58 10000 1 64 13:55 29.03.2021
922 Clear 13 1015 58 10000 0.91 86 13:31 29.03.2021
923 Clear 13 1015 58 10000 0.91 86 12:54 29.03.2021
924 Clear 13 1015 58 10000 0.91 86 12:35 29.03.2021
925 Clear 14 1016 51 10000 1.03 108 11:43 29.03.2021
926 Clear 14 1016 51 10000 1.71 71 11:24 29.03.2021
927 Clear 15 1017 45 10000 1.71 71 10:43 29.03.2021
928 Clear 15 1017 45 10000 1.67 108 10:18 29.03.2021
929 Clear 17 1017 42 10000 1.55 92 09:25 29.03.2021
930 Clear 18 1017 45 10000 0.51 64 08:30 29.03.2021
931 Clear 19 1017 39 10000 0.51 64 07:52 29.03.2021
932 Clear 20 1017 34 10000 0.27 270 06:57 29.03.2021
933 Clear 21 1017 30 10000 0.33 286 05:45 29.03.2021
934 Clear 26 1017 13 10000 2.06 260 02:32 29.03.2021
935 Clear 28 1018 14 10000 3.6 260 00:27 29.03.2021
936 Clear 28 1019 14 10000 3.57 247 23:57 28.03.2021
937 Clear 28 1019 14 10000 3.14 245 23:25 28.03.2021
938 Clear 28 1020 13 10000 3.14 245 22:48 28.03.2021
939 Clear 27 1020 13 10000 2.16 247 22:28 28.03.2021
940 Clear 27 1021 13 10000 2.16 247 21:47 28.03.2021
941 Clear 27 1021 13 10000 0.84 264 21:25 28.03.2021
942 Clear 26 1022 16 10000 1.02 259 20:54 28.03.2021
943 Clear 26 1022 16 10000 0.79 261 20:35 28.03.2021
944 Clear 23 1022 23 10000 0.79 261 20:00 28.03.2021
945 Clear 24 1022 23 10000 0.79 261 19:41 28.03.2021
946 Clear 23 1022 23 10000 0.57 269 19:20 28.03.2021
947 Clear 21 1022 24 10000 1.54 40 18:49 28.03.2021
948 Clear 20 1022 24 10000 1.54 40 18:19 28.03.2021
949 Clear 17 1023 47 10000 0.85 17 17:37 28.03.2021
950 Clear 15 1023 47 10000 1.42 26 17:18 28.03.2021
951 Clear 11 1022 44 10000 1.54 30 16:40 28.03.2021
952 Clear 12 1022 44 10000 1.54 30 16:21 28.03.2021
953 Clear 12 1022 47 10000 1.62 21 15:25 28.03.2021
954 Clear 12 1022 47 10000 1.62 21 14:49 28.03.2021
955 Clear 12 1022 47 10000 1.66 26 14:26 28.03.2021
956 Clear 12 1022 58 10000 1.64 25 13:38 28.03.2021
957 Clear 12 1023 76 10000 1.48 44 12:59 28.03.2021
958 Clear 12 1023 76 10000 1.48 44 12:35 28.03.2021
959 Clear 13 1023 76 10000 1.43 55 11:59 28.03.2021
960 Clear 13 1023 76 10000 1.43 55 11:38 28.03.2021
961 Clear 13 1023 72 10000 1.55 66 10:55 28.03.2021
962 Clear 13 1023 72 10000 1.55 66 10:37 28.03.2021
963 Clear 13 1023 72 10000 1.64 74 10:18 28.03.2021
964 Clear 14 1023 72 10000 1.64 74 09:43 28.03.2021
965 Clear 14 1023 72 10000 1.51 82 09:23 28.03.2021
966 Clear 14 1023 72 10000 1.51 82 08:38 28.03.2021
967 Clear 15 1023 77 10000 1.07 78 07:44 28.03.2021
968 Clear 15 1023 67 10000 0.33 208 06:23 28.03.2021
969 Clear 19 1022 42 10000 2.06 260 03:51 28.03.2021
970 Clear 22 1022 28 10000 3.09 260 00:49 28.03.2021
971 Clear 22 1022 28 10000 3.09 260 00:19 28.03.2021
972 Clear 23 1022 28 10000 1.54 0 23:37 27.03.2021
973 Clear 23 1022 19 10000 1.54 0 22:53 27.03.2021
974 Clear 23 1022 19 10000 1.54 0 22:35 27.03.2021
975 Clear 23 1023 27 10000 3.8 238 21:46 27.03.2021
976 Clear 23 1023 27 10000 3.1 237 21:22 27.03.2021
977 Clear 22 1023 28 10000 3.1 237 20:59 27.03.2021
978 Clear 22 1023 28 10000 3.1 237 20:38 27.03.2021
979 Clear 21 1023 28 10000 2.37 245 20:19 27.03.2021
980 Clear 20 1023 35 10000 2.3 246 19:42 27.03.2021
981 Clear 20 1023 35 10000 1.3 253 19:23 27.03.2021
982 Clear 19 1023 45 10000 1.3 253 18:48 27.03.2021
983 Clear 18 1023 45 10000 0.54 239 18:26 27.03.2021
984 Clear 16 1023 55 10000 0.54 239 17:45 27.03.2021
985 Clear 15 1023 55 10000 0.07 218 17:23 27.03.2021
986 Clear 12 1023 66 10000 0.07 218 16:48 27.03.2021
987 Clear 12 1023 66 10000 0.37 13 16:28 27.03.2021
988 Clear 9 1022 81 10000 0.37 13 15:46 27.03.2021
989 Clear 9 1022 81 10000 0.44 50 15:21 27.03.2021
990 Clear 9 1021 76 10000 0.44 50 14:45 27.03.2021
991 Clear 10 1021 71 10000 0.65 74 13:44 27.03.2021
992 Clear 10 1021 71 10000 0.47 43 13:22 27.03.2021
993 Clear 10 1021 76 10000 0.47 43 12:53 27.03.2021
994 Clear 10 1021 76 10000 0.9 68 11:59 27.03.2021
995 Clear 10 1021 76 10000 0.9 68 11:41 27.03.2021
996 Clear 10 1021 76 10000 0.99 89 11:19 27.03.2021
997 Clear 10 1021 87 1200 0.99 89 10:43 27.03.2021
998 Clear 10 1021 87 1200 0.85 106 10:22 27.03.2021
999 Clear 12 1021 71 10000 1.54 100 09:28 27.03.2021
1000 Clear 12 1020 71 10000 0.75 119 08:43 27.03.2021
1001 Clear 11 1020 71 10000 0.89 141 08:21 27.03.2021
1002 Clear 12 1020 71 10000 1.18 130 07:34 27.03.2021
1003 Clear 12 1019 71 10000 0.93 188 06:47 27.03.2021
1004 Clear 12 1019 71 10000 1 222 06:27 27.03.2021
1005 Clear 12 1018 71 10000 1.44 254 04:39 27.03.2021
1006 Clear 16 1016 42 10000 2.57 250 00:50 27.03.2021
1007 Clear 17 1016 42 10000 2.57 250 00:29 27.03.2021
1008 Clear 18 1016 48 10000 2.06 240 23:54 26.03.2021
1009 Clear 17 1016 48 10000 2.06 240 23:54 26.03.2021
1010 Clear 17 1016 48 10000 2.06 240 23:19 26.03.2021
1011 Clear 17 1016 45 10000 2.06 0 22:35 26.03.2021
1012 Clear 17 1016 42 10000 2.06 250 21:37 26.03.2021
1013 Clear 17 1016 42 10000 2.06 250 21:18 26.03.2021
1014 Clear 17 1016 39 10000 2.76 196 20:39 26.03.2021
1015 Clear 16 1016 39 10000 2.29 205 20:20 26.03.2021
1016 Clear 15 1016 44 10000 2.15 208 19:48 26.03.2021
1017 Clear 15 1016 44 10000 1.26 199 19:29 26.03.2021
1018 Clouds 15 1016 47 10000 1.26 199 18:44 26.03.2021
1019 Clouds 14 1016 47 10000 0.94 135 18:26 26.03.2021
1020 Clouds 13 1015 58 10000 1.54 0 17:47 26.03.2021
1021 Clouds 11 1014 62 10000 2.06 0 16:57 26.03.2021
1022 Clouds 10 1014 62 10000 2.06 0 16:33 26.03.2021
1023 Clouds 9 1013 66 10000 1.54 90 15:57 26.03.2021
1024 Clouds 9 1014 71 10000 1.79 97 15:23 26.03.2021
1025 Clouds 8 1013 71 10000 1.79 97 14:33 26.03.2021
1026 Clear 8 1012 71 10000 2.06 109 13:42 26.03.2021
1027 Clouds 9 1012 71 10000 3.35 117 12:58 26.03.2021
1028 Clouds 8 1012 71 10000 3.42 112 12:34 26.03.2021
1029 Clouds 9 1012 71 10000 1.54 100 11:40 26.03.2021
1030 Clouds 9 1012 71 10000 1.54 100 11:19 26.03.2021
1031 Clear 9 1012 71 10000 2.85 111 10:41 26.03.2021
1032 Clouds 9 1012 71 10000 1.54 290 09:58 26.03.2021
1033 Clouds 9 1012 71 10000 1.54 290 09:40 26.03.2021
1034 Clouds 9 1012 71 10000 1.54 290 09:40 26.03.2021
1035 Clouds 10 1011 71 10000 2.06 250 08:46 26.03.2021
1036 Clouds 10 1011 71 10000 2.06 250 08:25 26.03.2021
1037 Clouds 10 1011 66 10000 2.57 260 07:42 26.03.2021
1038 Clouds 10 1011 66 10000 2.57 260 07:21 26.03.2021
1039 Clouds 10 1011 66 10000 2.06 0 06:55 26.03.2021
1040 Clouds 11 1011 71 10000 3.58 224 05:31 26.03.2021
1041 Clouds 11 1009 62 10000 4.12 260 03:19 26.03.2021
1042 Clouds 13 1009 51 10000 3.6 260 00:33 26.03.2021
1043 Clouds 13 1009 55 10000 2.06 250 23:49 25.03.2021
1044 Clouds 14 1010 55 10000 1.54 0 23:30 25.03.2021
1045 Clouds 14 1011 51 10000 3 190 22:40 25.03.2021
1046 Clouds 14 1011 51 10000 3 190 22:18 25.03.2021
1047 Clouds 14 1011 42 10000 3 190 21:45 25.03.2021
1048 Clouds 14 1011 42 10000 3.47 164 21:24 25.03.2021
1049 Clouds 14 1012 51 10000 1.54 0 20:38 25.03.2021
1050 Clouds 14 1012 51 10000 1.54 0 20:18 25.03.2021
1051 Clouds 14 1012 51 10000 1.54 0 19:40 25.03.2021
1052 Clouds 14 1012 51 10000 1.54 0 19:21 25.03.2021
1053 Clouds 14 1012 62 10000 1.54 0 18:43 25.03.2021
1054 Clouds 13 1012 67 10000 2.06 160 18:25 25.03.2021
1055 Clouds 13 1012 62 10000 2.57 0 17:38 25.03.2021
1056 Clouds 12 1012 67 10000 2.06 0 16:59 25.03.2021
1057 Clouds 12 1012 67 10000 2.06 0 16:37 25.03.2021
1058 Clouds 12 1012 67 10000 2.06 0 16:19 25.03.2021
1059 Clouds 10 1011 66 10000 2.06 110 15:41 25.03.2021
1060 Clouds 10 1011 66 10000 2.06 110 15:19 25.03.2021
1061 Clouds 10 1012 76 10000 2.06 100 14:41 25.03.2021
1062 Clouds 11 1012 67 10000 3.32 141 13:40 25.03.2021
1063 Clouds 10 1012 67 10000 2.97 148 13:20 25.03.2021
1064 Clear 10 1012 67 10000 2.06 100 12:38 25.03.2021
1065 Clear 10 1012 67 10000 2.06 100 12:19 25.03.2021
1066 Clear 11 1013 54 10000 1.54 0 11:45 25.03.2021
1067 Clear 10 1013 54 10000 1.54 0 11:26 25.03.2021
1068 Clear 10 1013 58 10000 2.55 149 10:50 25.03.2021
1069 Clear 11 1013 58 10000 2.34 158 10:24 25.03.2021
1070 Clear 11 1013 58 10000 2.34 158 09:54 25.03.2021
1071 Clear 11 1013 58 10000 2.56 174 09:36 25.03.2021
1072 Clear 12 1013 54 10000 2.56 174 08:42 25.03.2021
1073 Clouds 12 1015 39 1200 2.65 206 07:57 25.03.2021
1074 Clear 13 1013 47 10000 2.06 200 06:59 25.03.2021
1075 Clear 14 1013 47 10000 2.06 200 06:25 25.03.2021
1076 Clear 14 1013 44 10000 1.54 270 05:47 25.03.2021
1077 Clear 18 1012 24 10000 2.57 260 02:48 25.03.2021
1078 Clear 21 1012 20 10000 5.14 260 00:21 25.03.2021
1079 Clear 21 1012 17 10000 4.12 260 23:51 24.03.2021
1080 Clear 21 1012 17 10000 4.12 260 23:28 24.03.2021
1081 Clear 21 1013 15 10000 2.06 240 22:48 24.03.2021
1082 Clear 22 1013 15 10000 2.06 240 22:27 24.03.2021
1083 Clear 22 1014 14 10000 1.54 0 21:42 24.03.2021
1084 Clear 21 1014 14 10000 1.54 0 21:23 24.03.2021
1085 Clear 21 1015 15 10000 3.29 224 20:43 24.03.2021
1086 Clear 21 1015 15 10000 2.75 227 20:20 24.03.2021
1087 Clear 20 1015 18 10000 2.75 227 19:48 24.03.2021
1088 Clear 20 1015 18 10000 2.05 207 19:28 24.03.2021
1089 Clear 20 1015 18 10000 2.05 207 18:49 24.03.2021
1090 Clear 19 1015 18 10000 1.16 171 18:23 24.03.2021
1091 Clear 17 1015 22 10000 2.57 100 17:51 24.03.2021
1092 Clear 17 1015 22 10000 2.57 100 17:31 24.03.2021
1093 Clear 16 1014 15 10000 1.54 0 16:52 24.03.2021
1094 Clear 16 1014 15 10000 1.54 0 16:29 24.03.2021
1095 Clear 14 1014 15 10000 2.06 340 15:50 24.03.2021
1096 Clear 14 1015 18 10000 1.54 350 15:30 24.03.2021
1097 Clear 14 1014 17 10000 1.54 0 14:48 24.03.2021
1098 Clear 14 1014 17 10000 1.54 0 14:26 24.03.2021
1099 Clear 14 1014 20 10000 2.57 0 13:55 24.03.2021
1100 Clear 14 1014 20 10000 2.57 0 13:28 24.03.2021
1101 Clear 15 1014 17 10000 3.09 0 12:44 24.03.2021
1102 Clear 15 1014 17 10000 3.09 0 12:23 24.03.2021
1103 Clear 15 1014 16 10000 2.57 10 11:49 24.03.2021
1104 Clear 15 1014 17 10000 1.54 0 10:59 24.03.2021
1105 Clear 15 1014 17 10000 1.54 0 10:40 24.03.2021
1106 Clear 15 1014 17 10000 1.54 0 10:21 24.03.2021
1107 Clear 15 1014 15 10000 2.06 360 09:52 24.03.2021
1108 Clear 15 1014 15 10000 2.06 360 09:22 24.03.2021
1109 Clear 15 1014 17 10000 2.57 0 08:51 24.03.2021
1110 Clear 15 1014 14 10000 2.57 10 08:26 24.03.2021
1111 Clear 16 1013 16 10000 3.6 10 07:40 24.03.2021
1112 Clear 16 1013 29 10000 2.06 270 06:54 24.03.2021
1113 Clear 16 1012 29 10000 1.54 290 05:35 24.03.2021
1114 Clear 20 1008 34 10000 4.12 250 00:55 24.03.2021
1115 Clear 20 1008 34 10000 4.12 250 00:25 24.03.2021
1116 Clear 20 1009 34 10000 4.12 250 23:22 23.03.2021
1117 Clear 19 1009 39 10000 2.57 250 22:58 23.03.2021
1118 Clear 19 1009 39 10000 2.57 250 22:40 23.03.2021
1119 Clear 19 1011 34 10000 2.57 250 21:58 23.03.2021
1120 Clear 19 1011 34 10000 2.57 250 21:39 23.03.2021
1121 Clear 19 1011 34 10000 2.57 250 21:19 23.03.2021
1122 Clear 18 1011 32 10000 2.06 300 20:40 23.03.2021
1123 Clear 17 1011 32 10000 2.06 300 20:22 23.03.2021
1124 Clear 17 1012 34 10000 2.57 0 19:44 23.03.2021
1125 Clear 16 1012 34 10000 2.57 0 19:23 23.03.2021
1126 Clear 15 1012 36 10000 1.54 0 18:43 23.03.2021
1127 Clear 14 1013 67 10000 5.14 260 18:20 23.03.2021
1128 Clear 13 1013 71 10000 1.54 0 17:44 23.03.2021
1129 Clear 13 1013 71 10000 1.54 0 17:21 23.03.2021
1130 Clear 13 1013 71 10000 1.54 0 17:21 23.03.2021
1131 Clouds 11 1012 71 10000 1.18 305 16:26 23.03.2021
1132 Clouds 10 1012 76 10000 1.18 305 15:55 23.03.2021
1133 Clouds 10 1012 76 10000 1.18 305 15:36 23.03.2021
1134 Clouds 9 1012 76 10000 0.79 292 14:50 23.03.2021
1135 Clouds 9 1012 76 10000 0.26 124 14:21 23.03.2021
1136 Clouds 10 1012 76 10000 0.26 124 13:49 23.03.2021
1137 Clouds 10 1013 82 10000 1.28 141 13:25 23.03.2021
1138 Clouds 10 1013 76 10000 1.28 141 12:47 23.03.2021
1139 Clouds 10 1013 76 10000 2.37 131 12:27 23.03.2021
1140 Clouds 10 1014 76 10000 2.37 131 11:51 23.03.2021
1141 Clouds 10 1014 76 10000 2.8 122 11:33 23.03.2021
1142 Clouds 11 1015 76 10000 2.8 122 10:44 23.03.2021
1143 Clouds 11 1015 76 10000 2.59 116 10:22 23.03.2021
1144 Clouds 10 1015 76 10000 2.57 116 09:55 23.03.2021
1145 Clear 10 1015 76 10000 2.17 124 09:29 23.03.2021
1146 Clear 12 1015 76 10000 2.17 124 08:57 23.03.2021
1147 Clear 11 1015 76 10000 2.48 136 08:38 23.03.2021
1148 Clear 11 1015 76 10000 2.48 136 08:20 23.03.2021
1149 Clear 12 1016 71 10000 3.22 139 07:28 23.03.2021
1150 Clear 12 1016 71 10000 3.22 139 06:54 23.03.2021
1151 Clear 12 1016 71 10000 3.31 150 06:18 23.03.2021
1152 Clear 14 1016 55 10000 2.06 0 03:20 23.03.2021
1153 Clear 18 1017 37 10000 1.54 250 00:42 23.03.2021
1154 Clear 19 1017 42 10000 2.57 250 23:24 22.03.2021
1155 Clear 19 1018 45 10000 2.06 0 22:46 22.03.2021
1156 Clear 19 1018 45 10000 2.06 0 22:22 22.03.2021
1157 Clear 19 1019 43 10000 3.96 201 21:52 22.03.2021
1158 Clear 19 1019 43 10000 3.96 201 21:52 22.03.2021
1159 Clear 19 1019 43 10000 3.8 201 21:29 22.03.2021
1160 Clear 19 1019 45 10000 1.54 0 20:57 22.03.2021
1161 Clear 18 1019 45 10000 1.54 0 20:37 22.03.2021
1162 Clear 18 1019 45 10000 1.54 0 20:18 22.03.2021
1163 Clear 17 1020 48 10000 3.16 195 19:40 22.03.2021
1164 Clear 17 1020 48 10000 2.54 196 19:21 22.03.2021
1165 Clear 17 1020 48 10000 2.54 196 19:21 22.03.2021
1166 Clear 16 1020 51 10000 1.54 0 18:45 22.03.2021
1167 Clear 16 1020 51 10000 1.54 0 18:27 22.03.2021
1168 Clear 14 1020 58 10000 2.06 0 17:51 22.03.2021
1169 Clear 13 1020 58 10000 2.06 0 17:24 22.03.2021
1170 Clear 13 1020 58 10000 1.65 160 16:58 22.03.2021
1171 Clear 12 1020 58 10000 1.65 160 16:40 22.03.2021
1172 Clear 11 1019 62 10000 1.54 100 15:58 22.03.2021
1173 Clear 11 1019 62 10000 1.54 100 15:37 22.03.2021
1174 Clear 10 1019 62 10000 1.54 100 15:18 22.03.2021
1175 Clear 10 1019 66 10000 1.39 126 14:49 22.03.2021
1176 Clear 10 1019 66 10000 1.68 115 14:29 22.03.2021
1177 Clear 11 1019 71 10000 2.57 100 13:39 22.03.2021
1178 Clear 11 1019 71 10000 2.57 100 13:19 22.03.2021
1179 Clear 11 1019 66 10000 1.89 122 12:45 22.03.2021
1180 Clear 11 1019 66 10000 1.85 121 12:22 22.03.2021
1181 Clear 12 1019 62 10000 1.85 121 11:46 22.03.2021
1182 Clear 13 1019 62 10000 1.33 114 11:22 22.03.2021
1183 Clear 13 1019 51 10000 1.33 114 10:44 22.03.2021
1184 Clear 13 1019 51 10000 0.58 113 10:24 22.03.2021
1185 Clear 13 1019 29 10000 0.58 113 09:43 22.03.2021
1186 Clear 14 1019 29 10000 0.29 89 09:22 22.03.2021
1187 Clear 14 1018 27 10000 0.29 89 08:44 22.03.2021
1188 Clear 14 1018 27 10000 1.91 8 08:24 22.03.2021
1189 Clear 15 1018 31 10000 1.54 0 07:45 22.03.2021
1190 Clear 15 1018 29 10000 3.86 358 06:57 22.03.2021
1191 Clear 15 1018 29 10000 5.19 344 06:35 22.03.2021
1192 Clear 18 1016 30 10000 4.95 337 02:33 22.03.2021
1193 Clear 18 1017 32 10000 2.06 250 00:33 22.03.2021
1194 Clear 18 1017 34 10000 3.09 260 23:54 21.03.2021
1195 Clear 18 1017 34 10000 3.09 260 23:20 21.03.2021
1196 Clear 18 1018 39 10000 3.09 260 22:56 21.03.2021
1197 Clear 18 1018 39 10000 3.09 260 22:29 21.03.2021
1198 Clear 18 1018 42 10000 1.54 0 21:41 21.03.2021
1199 Clear 18 1018 42 10000 1.54 0 21:23 21.03.2021
1200 Clear 18 1019 48 10000 3.08 240 20:46 21.03.2021
1201 Clear 17 1019 48 10000 2.52 223 20:27 21.03.2021
1202 Clear 17 1019 55 10000 2.51 223 19:56 21.03.2021
1203 Clear 16 1019 55 10000 1.53 216 19:23 21.03.2021
1204 Clouds 15 1019 59 10000 1.97 227 18:53 21.03.2021
1205 Clouds 15 1019 59 10000 0.82 166 18:31 21.03.2021
1206 Clear 14 1019 71 10000 0.82 166 17:54 21.03.2021
1207 Clear 13 1019 71 10000 0.82 166 17:36 21.03.2021
1208 Clear 12 1019 71 10000 0.64 107 17:18 21.03.2021
1209 Clouds 11 1019 62 10000 0.64 107 16:41 21.03.2021
1210 Clouds 11 1019 62 10000 0.5 348 16:22 21.03.2021
1211 Clear 10 1019 71 10000 0.5 348 15:42 21.03.2021
1212 Clear 8 1019 71 10000 0.27 12 15:20 21.03.2021
1213 Clear 9 1019 66 10000 0.27 12 14:46 21.03.2021
1214 Clear 9 1019 66 10000 0.57 61 14:27 21.03.2021
1215 Clear 9 1018 71 10000 0.57 61 13:55 21.03.2021
1216 Clear 9 1018 71 10000 0.59 46 13:33 21.03.2021
1217 Clear 10 1018 71 10000 0.21 328 12:42 21.03.2021
1218 Clear 11 1018 71 10000 0.76 109 12:24 21.03.2021
1219 Clear 11 1019 67 10000 0.76 109 11:41 21.03.2021
1220 Clear 12 1019 67 10000 1.45 91 11:20 21.03.2021
1221 Clear 12 1019 62 10000 1.45 91 10:44 21.03.2021
1222 Clear 12 1019 62 10000 1.92 85 10:26 21.03.2021
1223 Clear 12 1019 62 10000 1.92 85 09:47 21.03.2021
1224 Clear 12 1019 62 10000 2.51 76 09:29 21.03.2021
1225 Clear 12 1019 30 10000 2.51 76 08:54 21.03.2021
1226 Clear 13 1019 30 10000 1.67 45 08:28 21.03.2021
1227 Clear 13 1019 29 10000 1.67 45 07:50 21.03.2021
1228 Clear 12 1019 29 10000 1.55 354 07:23 21.03.2021
1229 Clear 13 1019 51 10000 0.5 47 05:59 21.03.2021
1230 Clear 16 1018 42 10000 1.54 250 02:48 21.03.2021
1231 Clear 18 1019 52 10000 2.57 260 00:57 21.03.2021
1232 Clear 18 1019 52 10000 2.57 260 00:37 21.03.2021
1233 Clear 18 1019 52 10000 2.57 260 00:19 21.03.2021
1234 Clear 18 1019 45 10000 3.6 270 23:42 20.03.2021
1235 Clear 18 1019 45 10000 3.6 270 23:18 20.03.2021
1236 Clear 18 1020 42 10000 3.44 208 22:24 20.03.2021
1237 Clouds 18 1021 48 10000 2.06 0 21:48 20.03.2021
1238 Clouds 17 1021 48 10000 2.06 0 21:26 20.03.2021
1239 Clouds 17 1021 52 10000 1.54 260 20:49 20.03.2021
1240 Clouds 16 1021 52 10000 1.54 260 20:25 20.03.2021
1241 Clouds 16 1022 55 10000 1.54 0 19:56 20.03.2021
1242 Clear 15 1022 58 10000 3.09 240 19:38 20.03.2021
1243 Clear 15 1022 58 10000 3.09 240 19:20 20.03.2021
1244 Clouds 14 1022 67 10000 1.54 0 18:44 20.03.2021
1245 Clouds 14 1022 67 10000 1.54 0 18:21 20.03.2021
1246 Clouds 13 1021 82 10000 2.37 158 17:42 20.03.2021
1247 Clouds 13 1021 82 10000 2.19 188 17:22 20.03.2021
1248 Clouds 13 1021 88 10000 2.19 188 16:43 20.03.2021
1249 Clouds 13 1021 88 10000 2.21 190 16:19 20.03.2021
1250 Clouds 12 1020 82 10000 2.06 120 15:44 20.03.2021
1251 Clouds 12 1020 77 10000 1.54 110 15:25 20.03.2021
1252 Clouds 12 1020 82 10000 1.89 196 14:40 20.03.2021
1253 Clouds 12 1020 82 10000 1.89 196 14:19 20.03.2021
1254 Clouds 13 1020 82 10000 1.89 196 13:31 20.03.2021
1255 Clouds 13 1020 82 10000 1.7 164 12:42 20.03.2021
1256 Clouds 13 1020 82 10000 1.61 174 12:23 20.03.2021
1257 Clouds 13 1020 94 10000 1.61 174 11:44 20.03.2021
1258 Clouds 13 1020 94 10000 0.96 191 11:23 20.03.2021
1259 Clouds 13 1021 94 10000 0.96 191 10:47 20.03.2021
1260 Clouds 12 1021 94 10000 2.08 212 10:25 20.03.2021
1261 Clouds 13 1021 82 10000 1.54 0 09:54 20.03.2021
1262 Clouds 13 1021 82 10000 2.7 223 09:26 20.03.2021
1263 Clouds 13 1020 88 10000 2.7 223 08:56 20.03.2021
1264 Clouds 13 1020 88 10000 2.78 231 08:28 20.03.2021
1265 Clear 13 1020 88 10000 2.78 231 07:50 20.03.2021
1266 Clear 13 1020 88 10000 2.78 231 07:30 20.03.2021
1267 Clear 13 1020 88 10000 3.05 234 06:46 20.03.2021
1268 Clear 14 1019 88 10000 2.36 268 05:37 20.03.2021
1269 Clear 15 1019 77 10000 2.06 250 03:46 20.03.2021
1270 Clear 18 1019 68 10000 2.06 0 02:42 20.03.2021
1271 Clear 20 1019 48 10000 2.57 260 23:56 19.03.2021
1272 Clear 19 1019 48 10000 2.57 260 23:29 19.03.2021
1273 Clear 20 1020 45 10000 4.12 270 22:46 19.03.2021
1274 Clear 20 1020 45 10000 4.12 270 22:26 19.03.2021
1275 Clear 20 1020 46 10000 2.06 260 21:53 19.03.2021
1276 Clear 20 1020 46 10000 2.06 260 21:21 19.03.2021
1277 Clear 19 1020 37 10000 2.91 231 20:57 19.03.2021
1278 Clear 20 1020 37 10000 2.91 231 20:39 19.03.2021
1279 Clear 19 1020 37 10000 2.36 221 20:21 19.03.2021
1280 Clear 19 1021 45 10000 2.36 221 19:43 19.03.2021
1281 Clear 18 1021 45 10000 1.55 167 19:19 19.03.2021
1282 Clear 17 1021 48 10000 1.54 90 18:40 19.03.2021
1283 Clear 16 1021 48 10000 1.54 90 18:18 19.03.2021
1284 Clear 16 1021 48 10000 1.54 90 18:18 19.03.2021
1285 Clear 15 1021 67 10000 1.77 134 17:51 19.03.2021
1286 Clear 14 1021 67 10000 1.17 117 17:27 19.03.2021
1287 Clear 13 1021 71 10000 1.17 117 16:52 19.03.2021
1288 Clear 12 1021 71 10000 1 113 16:27 19.03.2021
1289 Clear 10 1021 81 10000 1 113 15:47 19.03.2021
1290 Clear 10 1021 81 10000 0.69 110 15:22 19.03.2021
1291 Clear 10 1021 76 10000 0.69 110 14:46 19.03.2021
1292 Clear 10 1021 76 10000 1.26 125 14:26 19.03.2021
1293 Clear 10 1020 82 10000 1.26 125 13:40 19.03.2021
1294 Clear 11 1020 82 10000 1.58 101 12:57 19.03.2021
1295 Clear 11 1020 82 10000 1.59 101 12:35 19.03.2021
1296 Clear 11 1021 76 10000 0.54 149 11:44 19.03.2021
1297 Clear 12 1021 82 10000 1.1 179 10:54 19.03.2021
1298 Clear 12 1021 82 10000 1.34 126 10:31 19.03.2021
1299 Clear 12 1021 71 10000 1.34 126 09:49 19.03.2021
1300 Clear 11 1021 71 10000 1.11 118 09:30 19.03.2021
1301 Clear 12 1021 76 10000 1.11 118 08:58 19.03.2021
1302 Clear 12 1021 76 10000 1.37 160 08:39 19.03.2021
1303 Clear 12 1021 76 10000 1.37 160 08:18 19.03.2021
1304 Clear 12 1021 71 10000 1.37 160 07:37 19.03.2021
1305 Clear 13 1020 71 10000 1.93 151 06:51 19.03.2021
1306 Clear 15 1019 55 10000 1.54 250 02:45 19.03.2021
1307 Clear 19 1019 48 10000 4.63 242 00:58 19.03.2021
1308 Clear 19 1019 45 10000 4.4 242 23:48 18.03.2021
1309 Clear 19 1019 45 10000 4.47 243 23:25 18.03.2021
1310 Clear 19 1020 48 10000 2.06 250 22:39 18.03.2021
1311 Clear 19 1020 48 10000 2.06 250 22:20 18.03.2021
1312 Clear 18 1020 52 10000 1.54 260 21:39 18.03.2021
1313 Clear 18 1020 52 10000 2.42 226 20:54 18.03.2021
1314 Clear 18 1020 52 10000 2.42 226 20:35 18.03.2021
1315 Clear 17 1021 55 10000 2.52 238 19:58 18.03.2021
1316 Clear 16 1021 55 10000 2.52 238 19:40 18.03.2021
1317 Clear 16 1021 55 10000 2.43 219 19:19 18.03.2021
1318 Clear 14 1021 63 10000 0.77 212 18:35 18.03.2021
1319 Clear 13 1021 76 10000 0.77 212 17:51 18.03.2021
1320 Clear 12 1021 76 10000 1.52 224 17:26 18.03.2021
1321 Clear 11 1020 76 10000 1.52 224 16:49 18.03.2021
1322 Clear 11 1020 76 10000 0.91 195 16:30 18.03.2021
1323 Clear 10 1020 82 10000 0.91 195 15:49 18.03.2021
1324 Clear 10 1020 82 10000 1.08 227 15:29 18.03.2021
1325 Clear 9 1019 82 10000 1.08 227 14:58 18.03.2021
1326 Clear 9 1019 82 10000 1.08 227 14:40 18.03.2021
1327 Clear 9 1019 82 10000 1.08 227 14:40 18.03.2021
1328 Clear 10 1019 82 10000 1.19 240 13:56 18.03.2021
1329 Clear 10 1019 82 10000 1.14 241 13:27 18.03.2021
1330 Clear 9 1019 82 10000 0.61 216 12:47 18.03.2021
1331 Clear 10 1019 76 10000 0.48 204 12:28 18.03.2021
1332 Clear 10 1019 82 10000 0.48 204 11:55 18.03.2021
1333 Clear 10 1019 82 10000 0.48 204 11:34 18.03.2021
1334 Clear 10 1020 82 10000 1.01 241 10:51 18.03.2021
1335 Clear 10 1020 82 10000 1.99 238 10:29 18.03.2021
1336 Clear 10 1019 76 10000 1.99 238 09:58 18.03.2021
1337 Clear 10 1019 76 10000 1.36 228 09:30 18.03.2021
1338 Clear 10 1020 76 10000 1.36 228 08:59 18.03.2021
1339 Clear 10 1020 76 10000 1.36 228 08:41 18.03.2021
1340 Clear 10 1020 76 10000 1.65 214 08:23 18.03.2021
1341 Clear 11 1019 82 10000 1.65 214 07:43 18.03.2021
1342 Clear 11 1019 76 10000 1.69 203 06:43 18.03.2021
1343 Clear 11 1019 76 10000 1.52 211 06:23 18.03.2021
1344 Clear 11 1019 76 10000 2.62 234 05:25 18.03.2021
1345 Clear 17 1018 48 10000 3.09 260 00:40 18.03.2021
1346 Clear 17 1018 37 10000 3.56 231 23:19 17.03.2021
1347 Clear 18 1018 37 10000 1.54 0 22:38 17.03.2021
1348 Clear 17 1018 37 10000 1.54 0 22:20 17.03.2021
1349 Clear 17 1020 36 10000 2.95 217 21:50 17.03.2021
1350 Clear 17 1020 36 10000 1.78 199 21:31 17.03.2021
1351 Clear 16 1020 39 10000 1.54 0 20:49 17.03.2021
1352 Clear 15 1020 39 10000 1.54 0 20:27 17.03.2021
1353 Clear 15 1020 44 10000 1.54 0 19:59 17.03.2021
1354 Clear 15 1020 44 10000 1.54 0 19:40 17.03.2021
1355 Clear 14 1020 44 10000 1.54 0 19:19 17.03.2021
1356 Clear 14 1020 50 10000 1.15 219 18:50 17.03.2021
1357 Clear 13 1020 50 10000 1.14 229 18:32 17.03.2021
1358 Clear 12 1021 54 10000 1.14 229 17:42 17.03.2021
1359 Clear 11 1021 54 10000 0.21 211 17:22 17.03.2021
1360 Clear 9 1021 66 10000 0.21 211 16:43 17.03.2021
1361 Clear 8 1021 66 10000 0.62 287 16:21 17.03.2021
1362 Clear 7 1020 71 10000 0.62 287 15:49 17.03.2021
1363 Clear 7 1020 71 10000 0.54 87 15:29 17.03.2021
1364 Clear 7 1020 71 10000 0.54 87 14:40 17.03.2021
1365 Clear 7 1020 71 10000 0.79 147 14:20 17.03.2021
1366 Clear 7 1019 71 10000 0.79 147 13:55 17.03.2021
1367 Clear 7 1019 71 10000 0.76 171 13:26 17.03.2021
1368 Clear 7 1019 71 10000 0.9 179 12:49 17.03.2021
1369 Clear 7 1019 71 10000 1.1 183 12:28 17.03.2021
1370 Clear 7 1020 71 10000 1.1 183 11:43 17.03.2021
1371 Clear 7 1020 71 10000 1.07 162 11:23 17.03.2021
1372 Clear 7 1020 66 10000 1.07 162 10:53 17.03.2021
1373 Clear 7 1020 66 10000 1.65 124 10:25 17.03.2021
1374 Clear 8 1020 71 10000 1.65 124 09:48 17.03.2021
1375 Clear 7 1020 71 10000 1.65 124 09:48 17.03.2021
1376 Clear 8 1020 71 10000 1.57 113 09:21 17.03.2021
1377 Clear 8 1020 62 10000 1.57 113 08:56 17.03.2021
1378 Clear 8 1020 62 10000 1.57 113 08:36 17.03.2021
1379 Clear 8 1020 62 10000 1.35 161 07:48 17.03.2021
1380 Clear 8 1020 62 10000 0.9 134 07:30 17.03.2021
1381 Clear 8 1020 62 10000 1.07 121 06:42 17.03.2021
1382 Clear 10 1018 50 10000 2.36 228 04:21 17.03.2021
1383 Clear 11 1019 50 10000 1.54 0 03:24 17.03.2021
1384 Clear 14 1017 39 10000 1.54 0 00:40 17.03.2021
1385 Clear 14 1017 41 10000 3.67 188 23:33 16.03.2021
1386 Clear 14 1018 29 10000 1.54 0 22:51 16.03.2021
1387 Clear 15 1018 29 10000 1.54 0 22:33 16.03.2021
1388 Clear 14 1018 29 10000 3.12 183 21:51 16.03.2021
1389 Clear 14 1018 29 10000 2.8 189 21:32 16.03.2021
1390 Clear 14 1018 33 10000 2.8 189 20:59 16.03.2021
1391 Clear 14 1018 33 10000 2.8 189 20:41 16.03.2021
1392 Clear 14 1018 33 10000 2.72 160 20:18 16.03.2021
1393 Clear 12 1018 38 10000 2.72 160 19:42 16.03.2021
1394 Clear 12 1018 38 10000 2.4 107 19:23 16.03.2021
1395 Clear 11 1018 40 10000 2.06 0 18:45 16.03.2021
1396 Clear 10 1018 40 10000 2.06 0 18:27 16.03.2021
1397 Clear 10 1018 50 10000 2.06 100 17:50 16.03.2021
1398 Clear 9 1018 50 10000 2.06 100 17:32 16.03.2021
1399 Clear 8 1017 49 10000 0.9 20 16:53 16.03.2021
1400 Clear 7 1017 49 10000 1.63 342 16:31 16.03.2021
1401 Clear 7 1016 53 10000 1.54 20 15:47 16.03.2021
1402 Clear 5 1016 53 10000 1.54 20 15:22 16.03.2021
1403 Clear 5 1016 53 10000 1.54 20 15:22 16.03.2021
1404 Clear 6 1015 49 10000 2.54 340 14:59 16.03.2021
1405 Clear 6 1015 49 10000 2.54 340 14:40 16.03.2021
1406 Clear 6 1015 49 10000 3.72 336 14:21 16.03.2021
1407 Clear 6 1015 49 10000 1.54 290 13:55 16.03.2021
1408 Clear 7 1015 49 10000 1.54 290 13:28 16.03.2021
1409 Clear 7 1014 46 10000 3.56 318 12:55 16.03.2021
1410 Clear 7 1014 46 10000 4.04 310 12:36 16.03.2021
1411 Clear 7 1014 46 10000 1.54 0 11:56 16.03.2021
1412 Clear 7 1014 46 10000 1.54 0 11:32 16.03.2021
1413 Clear 6 1014 57 10000 2.57 260 10:46 16.03.2021
1414 Clear 7 1014 57 10000 2.57 260 10:21 16.03.2021
1415 Clear 7 1014 61 10000 4.1 344 09:40 16.03.2021
1416 Clear 7 1014 61 10000 3.49 326 09:20 16.03.2021
1417 Clear 7 1014 53 10000 1.54 280 08:52 16.03.2021
1418 Clear 7 1014 53 10000 1.54 280 08:33 16.03.2021
1419 Clear 7 1014 46 10000 1.54 0 07:51 16.03.2021
1420 Clear 8 1014 46 10000 1.54 0 07:24 16.03.2021
1421 Clear 8 1013 50 10000 3.77 328 06:38 16.03.2021
1422 Clear 8 1012 43 10000 2.57 270 05:36 16.03.2021
1423 Clouds 11 1012 47 10000 2.06 270 02:46 16.03.2021
1424 Clouds 12 1012 47 10000 2.06 270 02:25 16.03.2021
1425 Clouds 11 1012 50 10000 1.54 0 00:38 16.03.2021
1426 Clouds 12 1013 47 10000 4.63 260 23:54 15.03.2021
1427 Clouds 13 1013 47 10000 4.63 260 23:19 15.03.2021
1428 Clear 13 1014 50 10000 2.57 0 22:43 15.03.2021
1429 Clear 12 1014 50 10000 2.57 0 22:24 15.03.2021
1430 Clear 13 1015 50 10000 4.12 260 21:49 15.03.2021
1431 Clear 12 1015 50 10000 4.12 260 21:28 15.03.2021
1432 Clouds 12 1016 66 10000 6.18 243 20:54 15.03.2021
1433 Clouds 11 1016 66 10000 6.18 243 20:36 15.03.2021
1434 Clouds 11 1016 66 10000 7.21 237 20:18 15.03.2021
1435 Clouds 11 1016 87 10000 7.21 237 19:43 15.03.2021
1436 Clouds 11 1016 87 10000 4.89 221 19:22 15.03.2021
1437 Mist 10 1016 82 9656 4.89 221 18:47 15.03.2021
1438 Mist 10 1016 87 2816 2.23 156 18:23 15.03.2021
1439 Rain 10 1016 82 10000 2.06 90 17:55 15.03.2021
1440 Clouds 10 1017 87 10000 2.57 90 17:28 15.03.2021
1441 Mist 10 1017 87 2012 2.06 0 16:49 15.03.2021
1442 Rain 9 1017 87 4023 2.57 0 16:20 15.03.2021
1443 Rain 10 1017 76 10000 2.71 125 15:39 15.03.2021
1444 Rain 10 1017 76 10000 2.65 151 15:20 15.03.2021
1445 Rain 10 1017 71 10000 1.54 120 14:41 15.03.2021
1446 Clouds 10 1017 71 10000 1.54 120 14:21 15.03.2021
1447 Clouds 10 1017 71 10000 1.54 110 13:46 15.03.2021
1448 Clouds 10 1017 71 10000 1.54 110 13:24 15.03.2021
1449 Clouds 10 1018 71 10000 2.74 140 12:47 15.03.2021
1450 Clouds 10 1018 71 10000 2.27 156 12:18 15.03.2021
1451 Clouds 10 1019 71 10000 2.27 156 11:47 15.03.2021
1452 Clouds 10 1019 71 10000 2.02 165 11:29 15.03.2021
1453 Clouds 10 1020 76 10000 2.02 165 10:45 15.03.2021
1454 Clouds 10 1020 76 10000 1.96 161 10:27 15.03.2021
1455 Clouds 11 1020 76 10000 1.96 161 09:51 15.03.2021
1456 Clouds 10 1020 76 10000 1.76 165 09:31 15.03.2021
1457 Clouds 11 1020 76 10000 1.76 165 08:49 15.03.2021
1458 Clouds 11 1020 76 10000 1.71 180 08:28 15.03.2021
1459 Clouds 10 1021 71 10000 2.06 250 07:49 15.03.2021
1460 Clouds 10 1021 71 10000 2.06 250 07:30 15.03.2021
1461 Clouds 11 1020 67 10000 2.11 198 06:39 15.03.2021
1462 Clouds 11 1020 71 10000 2.77 205 05:31 15.03.2021
1463 Clouds 14 1021 63 10000 2.57 260 01:26 15.03.2021
1464 Clouds 16 1022 51 10000 1.54 0 23:54 14.03.2021
1465 Clouds 16 1022 51 10000 1.54 0 23:19 14.03.2021
1466 Clouds 16 1022 51 10000 4.64 220 22:46 14.03.2021
1467 Clouds 16 1022 51 10000 3.85 217 22:19 14.03.2021
1468 Clouds 16 1023 45 10000 3.85 217 21:45 14.03.2021
1469 Clouds 16 1023 45 10000 2.91 202 21:18 14.03.2021
1470 Clouds 15 1024 51 10000 1.54 130 20:43 14.03.2021
1471 Clouds 15 1024 51 10000 1.54 130 20:24 14.03.2021
1472 Clouds 15 1025 55 10000 2.67 213 19:43 14.03.2021
1473 Clouds 14 1025 55 10000 2.01 196 19:23 14.03.2021
1474 Clouds 14 1025 55 10000 2.18 174 18:48 14.03.2021
1475 Clouds 13 1025 55 10000 2.36 150 18:22 14.03.2021
1476 Clouds 13 1024 62 10000 2.06 0 17:40 14.03.2021
1477 Clouds 12 1024 62 10000 2.06 0 17:22 14.03.2021
1478 Clouds 11 1023 62 10000 1.54 100 16:46 14.03.2021
1479 Clouds 11 1023 62 10000 1.54 100 16:46 14.03.2021
1480 Clouds 11 1023 62 10000 1.54 100 16:27 14.03.2021
1481 Clouds 11 1024 62 10000 2.23 120 15:53 14.03.2021
1482 Clouds 11 1024 62 10000 2.26 119 15:34 14.03.2021
1483 Clouds 11 1024 67 10000 2.26 119 14:41 14.03.2021
1484 Clouds 11 1024 67 10000 2.11 124 14:21 14.03.2021
1485 Clouds 11 1024 67 10000 2.11 124 13:49 14.03.2021
1486 Clouds 11 1024 67 10000 2.3 124 13:28 14.03.2021
1487 Clouds 11 1024 71 10000 2.06 100 12:47 14.03.2021
1488 Clouds 11 1024 71 10000 2.06 100 12:28 14.03.2021
1489 Clouds 11 1025 71 10000 1.54 100 11:54 14.03.2021
1490 Clouds 11 1025 71 10000 1.54 100 11:35 14.03.2021
1491 Clouds 10 1025 76 10000 2.06 90 10:56 14.03.2021
1492 Clouds 10 1025 76 10000 2.06 90 10:37 14.03.2021
1493 Clouds 10 1025 76 10000 3.03 120 10:18 14.03.2021
1494 Clouds 10 1025 76 10000 3.03 120 09:43 14.03.2021
1495 Clouds 10 1025 76 10000 3.43 125 09:22 14.03.2021
1496 Clouds 10 1025 76 10000 3.43 125 08:48 14.03.2021
1497 Clouds 11 1025 71 10000 3.75 129 08:29 14.03.2021
1498 Clouds 10 1025 71 10000 3.75 129 07:46 14.03.2021
1499 Clear 11 1024 67 10000 3.41 123 06:51 14.03.2021
1500 Clear 12 1024 67 10000 1.28 200 05:32 14.03.2021
1501 Clear 16 1023 55 10000 1.54 250 00:52 14.03.2021
1502 Clear 16 1023 55 10000 1.54 250 00:19 14.03.2021
1503 Clear 16 1023 51 10000 5.3 239 23:52 13.03.2021
1504 Clear 16 1023 51 10000 5.38 237 23:30 13.03.2021
1505 Clear 16 1024 51 10000 3.09 250 22:54 13.03.2021
1506 Clear 16 1024 51 10000 3.09 250 22:32 13.03.2021
1507 Clear 16 1024 42 10000 3.55 230 21:48 13.03.2021
1508 Clear 16 1024 42 10000 1.73 196 21:26 13.03.2021
1509 Clear 15 1024 48 10000 1.73 196 20:52 13.03.2021
1510 Clear 15 1024 48 10000 1.28 151 20:31 13.03.2021
1511 Clear 14 1025 51 10000 2.57 0 19:54 13.03.2021
1512 Clear 14 1025 51 10000 2.57 0 19:31 13.03.2021
1513 Clouds 13 1025 54 10000 2.06 0 18:58 13.03.2021
1514 Clouds 13 1025 54 10000 2.06 0 18:39 13.03.2021
1515 Clouds 12 1025 54 10000 2.06 0 18:18 13.03.2021
1516 Clear 10 1025 62 10000 2.06 100 17:42 13.03.2021
1517 Clear 10 1025 62 10000 2.06 100 17:24 13.03.2021
1518 Clear 9 1024 66 10000 1.43 102 16:44 13.03.2021
1519 Clear 7 1024 66 10000 2 76 16:24 13.03.2021
1520 Clouds 7 1023 71 10000 2 76 15:41 13.03.2021
1521 Clouds 7 1023 76 10000 1.61 59 14:51 13.03.2021
1522 Clear 7 1023 76 10000 1.24 71 14:32 13.03.2021
1523 Clear 7 1022 71 10000 1.24 71 13:54 13.03.2021
1524 Clear 7 1022 71 10000 0.39 64 13:25 13.03.2021
1525 Clouds 7 1022 71 10000 0.61 55 12:47 13.03.2021
1526 Clouds 7 1022 71 10000 0.41 290 12:28 13.03.2021
1527 Clouds 8 1022 66 10000 0.41 290 11:51 13.03.2021
1528 Clouds 8 1022 66 10000 1.37 264 11:30 13.03.2021
1529 Clouds 8 1022 66 10000 1.37 264 11:30 13.03.2021
1530 Clouds 9 1023 66 10000 1.54 80 10:51 13.03.2021
1531 Clouds 9 1023 66 10000 1.54 80 10:30 13.03.2021
1532 Clear 9 1022 62 10000 1.77 256 09:48 13.03.2021
1533 Clear 9 1022 62 10000 1.88 274 09:24 13.03.2021
1534 Clear 10 1022 62 10000 1.88 274 08:44 13.03.2021
1535 Clear 9 1022 62 10000 2.53 278 08:20 13.03.2021
1536 Clear 10 1022 71 10000 2.53 278 07:55 13.03.2021
1537 Clouds 10 1022 71 10000 2.26 263 06:54 13.03.2021
1538 Clear 12 1021 54 10000 2.57 250 02:56 13.03.2021
1539 Clear 13 1020 44 10000 3.09 270 01:20 13.03.2021
1540 Clear 13 1020 47 10000 4.12 260 00:20 13.03.2021
1541 Clouds 13 1020 58 10000 5.23 238 23:33 12.03.2021
1542 Clouds 13 1020 44 10000 3.09 270 22:50 12.03.2021
1543 Rain 13 1020 44 10000 3.09 270 22:29 12.03.2021
1544 Clouds 13 1021 41 10000 2.06 0 21:54 12.03.2021
1545 Clouds 13 1021 41 10000 2.06 0 21:36 12.03.2021
1546 Clouds 13 1021 41 10000 2.06 0 21:18 12.03.2021
1547 Clear 14 1021 44 10000 1.54 260 20:41 12.03.2021
1548 Clear 13 1021 44 10000 1.54 260 20:19 12.03.2021
1549 Clear 12 1021 47 10000 2.89 240 19:43 12.03.2021
1550 Clear 12 1021 47 10000 1.92 238 19:24 12.03.2021
1551 Clear 11 1021 50 10000 1.91 221 18:38 12.03.2021
1552 Clear 11 1021 50 10000 1.06 237 18:19 12.03.2021
1553 Clear 9 1021 57 10000 1.54 20 17:41 12.03.2021
1554 Clear 9 1021 57 10000 1.54 20 17:23 12.03.2021
1555 Clear 8 1020 71 10000 0.61 267 16:43 12.03.2021
1556 Clear 7 1020 71 10000 0.24 270 16:18 12.03.2021
1557 Clear 5 1020 70 10000 0.37 323 15:37 12.03.2021
1558 Clear 6 1019 76 10000 1.54 20 14:49 12.03.2021
1559 Clear 6 1019 76 10000 1.54 20 14:22 12.03.2021
1560 Clear 6 1019 76 10000 0.49 307 13:55 12.03.2021
1561 Clear 6 1019 76 10000 0.49 307 13:37 12.03.2021
1562 Clear 6 1019 76 10000 0.44 259 13:18 12.03.2021
1563 Clear 6 1019 71 10000 0.28 235 12:43 12.03.2021
1564 Clear 6 1019 71 10000 0.85 243 12:25 12.03.2021
1565 Clear 6 1019 66 10000 0.85 243 11:52 12.03.2021
1566 Clear 6 1019 66 10000 0.97 226 11:24 12.03.2021
1567 Clear 6 1019 66 10000 0.97 226 10:55 12.03.2021
1568 Clear 8 1019 66 10000 1.03 220 10:27 12.03.2021
1569 Clear 8 1019 66 10000 1.54 0 09:57 12.03.2021
1570 Clear 8 1019 66 10000 1.54 0 09:26 12.03.2021
1571 Clear 8 1019 62 10000 1.54 0 08:46 12.03.2021
1572 Clear 7 1019 62 10000 1.54 0 08:26 12.03.2021
1573 Clear 8 1019 57 10000 1.85 246 07:40 12.03.2021
1574 Clear 9 1019 54 10000 1.9 251 06:57 12.03.2021
1575 Clear 9 1019 54 10000 2.54 242 06:29 12.03.2021
1576 Clear 11 1017 47 10000 2.57 260 02:58 12.03.2021
1577 Clouds 12 1017 44 10000 5.04 236 00:51 12.03.2021
1578 Clouds 13 1017 44 10000 2.57 0 23:34 11.03.2021
1579 Clouds 12 1018 50 10000 5.08 234 22:51 11.03.2021
1580 Clouds 13 1018 50 10000 4.74 226 22:32 11.03.2021
1581 Clouds 13 1018 44 10000 4.72 226 21:57 11.03.2021
1582 Clouds 12 1018 44 10000 4.72 226 21:39 11.03.2021
1583 Clouds 11 1018 44 10000 3.57 220 21:20 11.03.2021
1584 Clouds 11 1019 54 10000 3.57 220 20:44 11.03.2021
1585 Clouds 11 1019 54 10000 2.8 208 20:21 11.03.2021
1586 Clouds 11 1019 54 10000 2.06 130 19:46 11.03.2021
1587 Clouds 11 1019 54 10000 2.06 130 19:27 11.03.2021
1588 Clouds 10 1019 62 10000 2.13 212 18:49 11.03.2021
1589 Clouds 10 1019 62 10000 1.43 213 18:31 11.03.2021
1590 Clouds 9 1018 71 10000 2.06 0 17:45 11.03.2021
1591 Clouds 8 1018 71 10000 2.06 0 17:27 11.03.2021
1592 Clouds 7 1017 76 10000 1.14 208 16:31 11.03.2021
1593 Clear 6 1017 76 10000 1.14 208 15:49 11.03.2021
1594 Clear 6 1017 76 10000 1 199 15:26 11.03.2021
1595 Clouds 6 1017 76 10000 1.54 0 14:57 11.03.2021
1596 Clouds 6 1017 76 10000 1.54 0 14:37 11.03.2021
1597 Clouds 6 1017 76 10000 1.54 0 14:18 11.03.2021
1598 Clouds 6 1016 76 10000 2.06 90 13:42 11.03.2021
1599 Clouds 6 1016 76 10000 2.06 90 13:20 11.03.2021
1600 Clouds 6 1017 81 10000 1.54 100 12:44 11.03.2021
1601 Rain 6 1017 81 10000 1.54 100 12:26 11.03.2021
1602 Clouds 6 1017 81 10000 1.54 0 11:45 11.03.2021
1603 Clouds 6 1017 81 10000 1.54 0 11:27 11.03.2021
1604 Clouds 7 1017 87 6437 1.54 90 10:48 11.03.2021
1605 Rain 7 1017 87 6437 1.54 90 10:22 11.03.2021
1606 Rain 7 1017 81 9656 0.51 241 09:45 11.03.2021
1607 Rain 7 1017 76 10000 1.75 234 09:25 11.03.2021
1608 Rain 7 1017 71 10000 1.75 234 08:48 11.03.2021
1609 Clouds 7 1017 71 10000 2.63 235 08:23 11.03.2021
1610 Clouds 7 1017 76 6437 1.54 290 07:44 11.03.2021
1611 Rain 9 1017 66 10000 3.93 262 06:51 11.03.2021
1612 Clouds 9 1017 66 10000 3.88 246 06:32 11.03.2021
1613 Clouds 10 1017 71 10000 3.88 246 05:45 11.03.2021
1614 Clouds 12 1016 54 10000 1.54 260 01:39 11.03.2021
1615 Clouds 11 1017 76 10000 6.8 240 23:53 10.03.2021
1616 Clouds 11 1017 76 10000 7.04 240 23:22 10.03.2021
1617 Clouds 11 1017 76 10000 7.04 240 23:22 10.03.2021
1618 Clouds 11 1017 81 6437 7.04 240 22:39 10.03.2021
1619 Clouds 13 1018 51 10000 1.54 0 21:57 10.03.2021
1620 Clouds 13 1018 51 10000 1.54 0 21:38 10.03.2021
1621 Clouds 13 1018 51 10000 1.54 0 21:20 10.03.2021
1622 Clouds 14 1018 47 10000 6.9 240 20:42 10.03.2021
1623 Clouds 13 1018 47 10000 5.74 244 20:21 10.03.2021
1624 Clouds 12 1019 62 10000 5.71 244 19:40 10.03.2021
1625 Clouds 12 1019 62 10000 5.13 250 19:21 10.03.2021
1626 Clouds 11 1019 67 10000 5.1 250 18:44 10.03.2021
1627 Clouds 11 1019 71 10000 3.74 258 18:23 10.03.2021
1628 Clouds 10 1018 81 10000 2.57 100 17:43 10.03.2021
1629 Clouds 9 1018 81 10000 2.57 100 17:21 10.03.2021
1630 Clouds 9 1018 87 10000 2.06 100 16:57 10.03.2021
1631 Rain 9 1018 87 10000 2.06 100 16:37 10.03.2021
1632 Clouds 8 1018 87 10000 2.06 100 16:19 10.03.2021
1633 Rain 8 1018 87 6437 1.54 0 15:41 10.03.2021
1634 Mist 8 1018 87 6437 1.54 0 15:22 10.03.2021
1635 Rain 8 1017 87 4828 2.06 0 14:41 10.03.2021
1636 Rain 8 1017 87 4828 2.06 0 14:41 10.03.2021
1637 Rain 8 1017 87 4828 2.06 0 14:19 10.03.2021
1638 Rain 8 1018 81 10000 2.06 80 13:46 10.03.2021
1639 Rain 8 1018 81 10000 2.06 80 13:25 10.03.2021
1640 Clouds 8 1019 87 10000 3.15 183 12:45 10.03.2021
1641 Clouds 8 1019 87 10000 3.3 182 12:19 10.03.2021
1642 Rain 9 1020 87 4023 1.54 260 11:32 10.03.2021
1643 Rain 10 1020 66 10000 2.04 198 10:59 10.03.2021
1644 Clouds 10 1020 66 10000 2.04 198 10:38 10.03.2021
1645 Clouds 10 1020 66 10000 2.31 232 10:20 10.03.2021
1646 Clouds 10 1020 71 10000 2.31 232 09:42 10.03.2021
1647 Clouds 10 1020 71 10000 2.74 241 09:22 10.03.2021
1648 Clouds 10 1021 67 10000 2.74 241 08:57 10.03.2021
1649 Clouds 10 1021 67 10000 2.74 241 08:39 10.03.2021
1650 Clouds 10 1021 67 10000 3.15 250 08:20 10.03.2021
1651 Clouds 11 1021 67 10000 3.6 258 07:31 10.03.2021
1652 Clouds 10 1021 67 10000 1.54 260 06:57 10.03.2021
1653 Clouds 11 1021 67 10000 1.54 260 06:32 10.03.2021
1654 Clear 13 1019 58 10000 6.45 257 02:42 10.03.2021
1655 Clear 16 1020 36 10000 9.12 258 23:52 09.03.2021
1656 Clear 16 1020 36 10000 8.02 247 23:25 09.03.2021
1657 Clear 16 1020 39 10000 2.06 260 22:44 09.03.2021
1658 Clear 16 1020 39 10000 2.06 260 22:26 09.03.2021
1659 Clear 16 1021 42 10000 1.54 240 21:55 09.03.2021
1660 Clear 16 1021 42 10000 1.54 240 21:36 09.03.2021
1661 Clear 16 1021 42 10000 1.54 240 21:18 09.03.2021
1662 Clouds 16 1021 44 10000 4.97 245 20:41 09.03.2021
1663 Clouds 15 1021 44 10000 2.52 216 20:21 09.03.2021
1664 Clouds 14 1021 55 10000 2.52 216 19:53 09.03.2021
1665 Clouds 14 1021 55 10000 2.04 156 19:27 09.03.2021
1666 Clouds 13 1021 62 10000 1.45 169 18:51 09.03.2021
1667 Clouds 13 1021 62 10000 1.82 132 18:29 09.03.2021
1668 Clouds 11 1020 62 10000 2.06 90 17:54 09.03.2021
1669 Clouds 11 1020 62 10000 2.06 90 17:35 09.03.2021
1670 Clouds 10 1020 66 10000 1.47 108 16:55 09.03.2021
1671 Clear 9 1020 76 10000 2.06 100 16:37 09.03.2021
1672 Clear 8 1020 76 10000 0.8 112 16:19 09.03.2021
1673 Clear 7 1020 71 10000 0.8 112 15:44 09.03.2021
1674 Clear 7 1020 71 10000 0.75 168 15:23 09.03.2021
1675 Clear 7 1020 71 10000 0.75 168 14:40 09.03.2021
1676 Clear 7 1020 71 10000 0.79 160 14:22 09.03.2021
1677 Clear 8 1019 66 10000 0.79 160 13:39 09.03.2021
1678 Clear 8 1019 66 10000 1.23 225 13:20 09.03.2021
1679 Clear 9 1019 62 10000 1.54 10 12:42 09.03.2021
1680 Clear 9 1019 62 10000 1.54 10 12:22 09.03.2021
1681 Clear 9 1020 66 10000 1.07 263 11:42 09.03.2021
1682 Clear 9 1020 66 10000 0.74 285 11:21 09.03.2021
1683 Clear 10 1021 71 10000 0.73 285 10:57 09.03.2021
1684 Clear 10 1021 71 10000 0.74 285 10:38 09.03.2021
1685 Clear 10 1021 71 10000 0.71 39 10:20 09.03.2021
1686 Clear 11 1021 71 10000 0.71 39 10:20 09.03.2021
1687 Clear 11 1021 71 10000 0.71 39 09:44 09.03.2021
1688 Clear 11 1021 71 10000 1.16 46 09:26 09.03.2021
1689 Clear 10 1021 71 10000 1.16 46 08:48 09.03.2021
1690 Clear 11 1021 71 10000 0.73 96 08:29 09.03.2021
1691 Clear 12 1022 62 10000 0.73 96 07:40 09.03.2021
1692 Clear 11 1022 62 10000 0.6 170 07:21 09.03.2021
1693 Clear 12 1021 62 10000 0.6 170 06:38 09.03.2021
1694 Clear 13 1022 58 10000 1.54 260 05:48 09.03.2021
1695 Clear 16 1021 39 10000 3.09 270 00:43 09.03.2021
1696 Clear 17 1020 45 10000 3.6 270 23:45 08.03.2021
1697 Clear 17 1020 45 10000 3.6 270 23:27 08.03.2021
1698 Clear 17 1021 48 10000 2.06 250 22:58 08.03.2021
1699 Clear 17 1021 48 10000 2.06 250 22:40 08.03.2021
1700 Clear 17 1021 48 10000 2.06 250 22:21 08.03.2021
1701 Clouds 17 1022 52 10000 3.75 235 21:43 08.03.2021
1702 Clouds 17 1022 52 10000 3.39 232 21:24 08.03.2021
1703 Clouds 17 1022 55 10000 1.54 270 20:39 08.03.2021
1704 Clouds 16 1022 55 10000 1.54 270 20:19 08.03.2021
1705 Clouds 16 1022 55 10000 3.14 215 19:40 08.03.2021
1706 Clear 15 1022 59 10000 2.23 178 18:57 08.03.2021
1707 Clear 15 1022 59 10000 1.23 169 18:37 08.03.2021
1708 Clear 14 1022 59 10000 1.23 169 18:18 08.03.2021
1709 Clouds 14 1021 67 10000 1.23 169 17:43 08.03.2021
1710 Clouds 13 1021 67 10000 0.96 202 17:22 08.03.2021
1711 Clouds 12 1021 72 10000 1.24 213 16:41 08.03.2021
1712 Clouds 12 1021 72 10000 1.24 213 16:21 08.03.2021
1713 Clouds 12 1020 72 10000 1.24 213 15:41 08.03.2021
1714 Clouds 12 1020 72 10000 1.44 172 15:22 08.03.2021
1715 Clouds 12 1020 72 10000 2.01 152 14:21 08.03.2021
1716 Clouds 12 1020 72 10000 2.01 152 13:57 08.03.2021
1717 Clouds 12 1020 76 10000 2.3 155 13:23 08.03.2021
1718 Clouds 12 1019 72 10000 1.54 90 12:58 08.03.2021
1719 Clouds 12 1019 72 10000 1.54 110 12:35 08.03.2021
1720 Clouds 12 1019 72 10000 1.54 0 11:50 08.03.2021
1721 Clouds 12 1019 72 10000 1.54 0 11:30 08.03.2021
1722 Clouds 12 1019 67 10000 1.99 157 10:57 08.03.2021
1723 Clouds 12 1019 67 10000 1.99 157 10:39 08.03.2021
1724 Clouds 12 1019 67 10000 2.23 153 10:18 08.03.2021
1725 Clouds 13 1019 67 10000 2.81 153 09:27 08.03.2021
1726 Clouds 13 1019 67 10000 1.54 120 08:52 08.03.2021
1727 Clouds 13 1019 67 10000 1.54 120 08:25 08.03.2021
1728 Clouds 13 1019 67 10000 2.73 155 07:22 08.03.2021
1729 Clouds 13 1019 72 10000 3.36 165 06:33 08.03.2021
1730 Clouds 14 1017 67 10000 2.57 260 02:57 08.03.2021
1731 Clear 17 1016 52 10000 3.6 197 00:43 08.03.2021
1732 Clear 17 1016 59 10000 3.72 194 23:53 07.03.2021
1733 Clear 17 1016 59 10000 2.2 163 23:22 07.03.2021
1734 Clouds 16 1017 55 10000 2.2 163 22:50 07.03.2021
1735 Clouds 16 1017 55 10000 1.87 181 22:29 07.03.2021
1736 Clouds 16 1018 55 10000 1.87 181 21:58 07.03.2021
1737 Clouds 16 1018 55 10000 1.87 181 21:39 07.03.2021
1738 Clouds 16 1018 55 10000 1.26 177 21:21 07.03.2021
1739 Clouds 15 1018 59 10000 2.06 0 20:41 07.03.2021
1740 Clouds 15 1018 59 10000 2.06 0 20:23 07.03.2021
1741 Clouds 15 1018 59 10000 1.54 0 19:56 07.03.2021
1742 Clouds 15 1018 59 10000 1.54 0 19:37 07.03.2021
1743 Clouds 14 1018 59 10000 1.71 166 19:19 07.03.2021
1744 Clouds 14 1018 67 10000 0.98 139 18:40 07.03.2021
1745 Clouds 14 1018 67 10000 1.47 170 18:19 07.03.2021
1746 Clouds 13 1017 72 10000 1.54 130 17:39 07.03.2021
1747 Clouds 13 1017 72 10000 1.54 130 17:20 07.03.2021
1748 Clouds 13 1017 72 10000 1.52 194 16:54 07.03.2021
1749 Clouds 12 1017 72 10000 1.52 194 16:36 07.03.2021
1750 Clouds 12 1017 72 10000 1.52 194 16:36 07.03.2021
1751 Clouds 12 1017 72 10000 1.34 160 16:18 07.03.2021
1752 Clouds 11 1016 72 10000 1.34 160 15:41 07.03.2021
1753 Clouds 11 1016 72 10000 1.19 181 15:20 07.03.2021
1754 Clouds 11 1016 71 10000 1.38 181 14:30 07.03.2021
1755 Clouds 11 1016 71 10000 1.38 181 14:30 07.03.2021
1756 Clouds 11 1016 76 10000 1.54 110 13:59 07.03.2021
1757 Clouds 11 1016 76 10000 1.54 110 13:39 07.03.2021
1758 Clear 12 1016 76 10000 1.18 146 13:18 07.03.2021
1759 Clouds 12 1016 76 10000 1.18 146 12:43 07.03.2021
1760 Clouds 12 1016 76 10000 2.35 147 12:24 07.03.2021
1761 Clouds 12 1017 72 10000 2.05 153 11:25 07.03.2021
1762 Clouds 12 1017 76 10000 2.05 153 10:59 07.03.2021
1763 Clouds 11 1017 76 10000 2.05 153 10:39 07.03.2021
1764 Clouds 11 1017 76 10000 2.13 130 10:19 07.03.2021
1765 Clouds 11 1017 72 10000 2.13 130 09:40 07.03.2021
1766 Clouds 12 1017 72 10000 2.61 131 09:21 07.03.2021
1767 Clouds 12 1017 72 10000 2.61 131 08:45 07.03.2021
1768 Clouds 12 1017 77 10000 1.98 132 08:23 07.03.2021
1769 Clouds 13 1017 77 10000 1.84 107 07:25 07.03.2021
1770 Clear 15 1015 59 10000 2.06 250 02:40 07.03.2021
1771 Clear 18 1015 52 10000 1.54 0 00:45 07.03.2021
1772 Clear 19 1015 52 10000 1.54 0 23:44 06.03.2021
1773 Clear 19 1015 52 10000 1.54 0 23:23 06.03.2021
1774 Clear 19 1016 40 10000 3.62 206 22:47 06.03.2021
1775 Clear 19 1016 40 10000 3.32 194 22:27 06.03.2021
1776 Clear 20 1016 45 10000 2.06 0 21:58 06.03.2021
1777 Clear 19 1016 45 10000 2.06 0 21:22 06.03.2021
1778 Clear 18 1017 52 10000 1.54 0 20:52 06.03.2021
1779 Clear 18 1017 52 10000 1.54 0 20:27 06.03.2021
1780 Clear 17 1017 55 10000 2.57 140 19:49 06.03.2021
1781 Clear 17 1017 55 10000 2.57 140 19:22 06.03.2021
1782 Clear 16 1018 67 10000 3.09 100 18:56 06.03.2021
1783 Clear 15 1018 67 10000 3.09 100 18:37 06.03.2021
1784 Clear 15 1018 67 10000 3.09 100 18:18 06.03.2021
1785 Clear 14 1018 76 10000 2.06 90 17:44 06.03.2021
1786 Clear 13 1018 76 10000 2.06 90 17:22 06.03.2021
1787 Clouds 11 1017 82 10000 1.54 0 16:43 06.03.2021
1788 Clouds 11 1017 82 10000 1.54 0 16:25 06.03.2021
1789 Clear 10 1017 82 10000 1.52 131 15:51 06.03.2021
1790 Clear 10 1017 82 10000 2.09 137 15:31 06.03.2021
1791 Clear 10 1017 82 10000 2.09 137 14:54 06.03.2021
1792 Clear 10 1017 82 10000 2.45 103 14:30 06.03.2021
1793 Clear 10 1016 82 10000 2.88 104 13:42 06.03.2021
1794 Clear 10 1016 82 10000 1.66 88 13:21 06.03.2021
1795 Clear 11 1017 87 10000 1.66 88 12:44 06.03.2021
1796 Clear 11 1017 87 10000 1.49 194 12:20 06.03.2021
1797 Clear 11 1017 87 10000 1.49 194 12:20 06.03.2021
1798 Clear 11 1017 82 10000 1.49 194 11:56 06.03.2021
1799 Clear 12 1017 82 10000 2 180 11:22 06.03.2021
1800 Clear 12 1017 76 10000 2 180 10:49 06.03.2021
1801 Clear 12 1017 76 10000 1.71 184 10:28 06.03.2021
1802 Clear 12 1017 76 10000 1.71 184 09:50 06.03.2021
1803 Clear 12 1017 76 10000 2.17 197 09:21 06.03.2021
1804 Clear 13 1017 67 10000 2.17 197 08:52 06.03.2021
1805 Clear 13 1017 67 10000 2.19 152 08:22 06.03.2021
1806 Clear 14 1017 72 10000 2.19 152 07:41 06.03.2021
1807 Clear 14 1017 72 10000 1.47 166 07:20 06.03.2021
1808 Clear 16 1016 67 10000 0.93 205 05:40 06.03.2021
1809 Clear 19 1016 32 10000 3.09 250 02:51 06.03.2021
1810 Clear 22 1016 26 10000 3.97 240 01:27 06.03.2021
1811 Clear 22 1017 27 10000 2.06 250 00:44 06.03.2021
1812 Clear 23 1017 33 10000 1.54 250 23:39 05.03.2021
1813 Clear 23 1017 33 10000 1.54 250 23:39 05.03.2021
1814 Clear 23 1017 33 10000 1.54 250 23:18 05.03.2021
1815 Clear 22 1018 33 10000 2.06 250 22:43 05.03.2021
1816 Clear 22 1018 33 10000 2.06 250 22:20 05.03.2021
1817 Clear 23 1019 18 10000 2.45 228 21:42 05.03.2021
1818 Clear 23 1019 18 10000 1.64 207 21:23 05.03.2021
1819 Clear 23 1020 23 10000 1.64 207 20:43 05.03.2021
1820 Clear 23 1020 23 10000 0.47 176 20:23 05.03.2021
1821 Clear 21 1021 30 10000 0.47 178 19:44 05.03.2021
1822 Clear 21 1021 30 10000 0.28 216 19:22 05.03.2021
1823 Clear 19 1021 34 10000 0.46 141 18:44 05.03.2021
1824 Clear 18 1021 34 10000 0.32 114 18:25 05.03.2021
1825 Clear 15 1021 51 10000 0.33 115 17:51 05.03.2021
1826 Clear 14 1021 51 10000 0.83 65 17:32 05.03.2021
1827 Clear 9 1021 71 10000 0.82 66 16:43 05.03.2021
1828 Clear 10 1021 71 10000 0.89 61 16:23 05.03.2021
1829 Clear 9 1021 76 10000 0.89 61 15:54 05.03.2021
1830 Clear 9 1021 76 10000 0.56 3 15:27 05.03.2021
1831 Clear 9 1021 76 10000 0.78 332 14:47 05.03.2021
1832 Clear 9 1021 76 10000 0.93 317 14:27 05.03.2021
1833 Clear 10 1021 76 10000 0.93 317 13:44 05.03.2021
1834 Clear 10 1021 76 10000 0.94 323 13:21 05.03.2021
1835 Clear 10 1022 71 10000 0.94 323 12:45 05.03.2021
1836 Clear 11 1022 62 10000 1.54 40 11:40 05.03.2021
1837 Clear 11 1022 62 10000 1.54 40 11:20 05.03.2021
1838 Clear 11 1023 82 10000 0.8 21 10:57 05.03.2021
1839 Clear 12 1022 62 10000 1.54 30 10:37 05.03.2021
1840 Clear 12 1022 62 10000 1.54 30 10:19 05.03.2021
1841 Clear 11 1023 76 10000 0.62 97 09:42 05.03.2021
1842 Clear 11 1023 76 10000 0.6 124 09:23 05.03.2021
1843 Clear 12 1023 82 10000 0.6 121 08:39 05.03.2021
1844 Clear 12 1023 82 10000 0.28 157 08:20 05.03.2021
1845 Clear 12 1024 76 10000 0.28 157 07:35 05.03.2021
1846 Clear 13 1024 76 10000 0.52 162 06:43 05.03.2021
1847 Clear 13 1024 76 10000 1.15 237 06:25 05.03.2021
1848 Clear 17 1023 45 10000 3.6 260 01:35 05.03.2021
1849 Clear 18 1024 45 10000 1.54 250 23:55 04.03.2021
1850 Clear 18 1024 45 10000 1.54 250 23:25 04.03.2021
1851 Clear 17 1024 45 10000 3.09 260 22:31 04.03.2021
1852 Clear 18 1024 42 10000 2.24 199 21:55 04.03.2021
1853 Clear 17 1024 42 10000 2.23 199 21:33 04.03.2021
1854 Clear 17 1024 42 10000 1.39 179 20:58 04.03.2021
1855 Clear 17 1024 42 10000 1.39 179 20:39 04.03.2021
1856 Clear 16 1024 42 10000 0.3 91 20:21 04.03.2021
1857 Clear 16 1024 51 10000 0.3 91 19:50 04.03.2021
1858 Clear 15 1024 51 10000 0.15 125 19:23 04.03.2021
1859 Clear 14 1024 58 10000 2.06 0 18:52 04.03.2021
1860 Clear 14 1024 58 10000 2.06 0 18:52 04.03.2021
1861 Clear 13 1024 58 10000 2.06 0 18:30 04.03.2021
1862 Clear 12 1024 62 10000 0.85 181 17:50 04.03.2021
1863 Clear 12 1024 62 10000 1.45 177 17:31 04.03.2021
1864 Clear 10 1023 71 10000 1.45 177 16:56 04.03.2021
1865 Clear 9 1023 71 10000 1.45 177 16:38 04.03.2021
1866 Clear 9 1023 71 10000 0.99 63 16:19 04.03.2021
1867 Clear 8 1022 71 10000 0.99 63 15:45 04.03.2021
1868 Clear 7 1022 71 10000 1.6 21 15:24 04.03.2021
1869 Clear 7 1022 76 10000 1.6 21 14:40 04.03.2021
1870 Clear 7 1021 76 10000 1.15 20 13:59 04.03.2021
1871 Clear 7 1021 76 10000 1.15 20 13:40 04.03.2021
1872 Clear 7 1021 76 10000 0.57 12 13:19 04.03.2021
1873 Clear 7 1020 71 10000 0.57 12 12:41 04.03.2021
1874 Clear 8 1020 71 10000 1.54 30 11:51 04.03.2021
1875 Clear 8 1020 71 10000 1.54 30 11:32 04.03.2021
1876 Clear 8 1019 81 10000 0.52 355 10:58 04.03.2021
1877 Clear 9 1019 81 10000 0.52 355 10:36 04.03.2021
1878 Clear 9 1018 76 10000 0.13 158 09:51 04.03.2021
1879 Clear 9 1018 76 10000 0.63 191 09:27 04.03.2021
1880 Clear 9 1018 71 10000 0.63 191 08:49 04.03.2021
1881 Clear 9 1018 71 10000 1.18 189 08:24 04.03.2021
1882 Clear 9 1017 71 10000 1.18 189 07:36 04.03.2021
1883 Clear 10 1016 66 10000 0.51 175 06:31 04.03.2021
1884 Clouds 11 1015 58 10000 2.06 0 05:57 04.03.2021
1885 Clouds 13 1012 51 10000 2.57 0 02:29 04.03.2021
1886 Clear 12 1011 62 10000 5.14 80 23:57 03.03.2021
1887 Clouds 10 1011 71 10000 5.14 90 22:39 03.03.2021
1888 Clouds 10 1011 71 10000 5.14 90 22:20 03.03.2021
1889 Rain 10 1012 81 6437 6.69 80 21:41 03.03.2021
1890 Rain 10 1012 81 6437 6.69 80 21:23 03.03.2021
1891 Rain 10 1013 71 4828 6.38 128 20:54 03.03.2021
1892 Rain 10 1013 71 4828 6.38 128 20:35 03.03.2021
1893 Rain 12 1012 54 10000 5.92 152 19:51 03.03.2021
1894 Rain 12 1011 71 10000 5.88 153 19:30 03.03.2021
1895 Clouds 12 1011 71 10000 1.54 0 18:58 03.03.2021
1896 Clouds 12 1011 71 10000 1.54 0 18:39 03.03.2021
1897 Clouds 11 1010 71 10000 2.06 120 17:58 03.03.2021
1898 Clouds 11 1010 71 10000 2.06 120 17:22 03.03.2021
1899 Clouds 10 1009 50 10000 2.57 100 16:55 03.03.2021
1900 Clouds 9 1009 50 10000 2.57 100 16:27 03.03.2021
1901 Clouds 9 1009 50 10000 2.8 115 15:59 03.03.2021
1902 Clear 8 1008 50 10000 2.06 0 15:33 03.03.2021
1903 Clear 9 1008 57 10000 1.54 80 14:51 03.03.2021
1904 Clear 8 1008 57 10000 1.54 80 14:28 03.03.2021
1905 Clear 8 1008 71 10000 1.54 90 13:48 03.03.2021
1906 Clear 8 1008 71 10000 1.54 90 13:29 03.03.2021
1907 Clear 9 1008 76 10000 1.09 105 12:43 03.03.2021
1908 Clear 9 1008 76 10000 0.93 139 12:23 03.03.2021
1909 Clear 9 1009 81 10000 0.93 139 11:46 03.03.2021
1910 Clear 9 1009 81 10000 1.07 113 11:27 03.03.2021
1911 Clear 10 1010 81 10000 1.07 113 10:46 03.03.2021
1912 Clear 10 1010 81 10000 1.07 193 10:23 03.03.2021
1913 Clear 10 1010 76 10000 1.07 193 09:45 03.03.2021
1914 Clear 11 1011 71 10000 1.54 188 08:59 03.03.2021
1915 Clear 11 1011 71 10000 1.54 188 08:39 03.03.2021
1916 Clear 11 1011 71 10000 1.74 165 08:20 03.03.2021
1917 Clear 12 1011 71 10000 2.18 173 07:39 03.03.2021
1918 Clear 12 1011 62 10000 2.18 173 06:47 03.03.2021
1919 Clear 13 1011 54 10000 2.37 139 05:45 03.03.2021
1920 Clear 14 1011 48 10000 2.14 151 04:50 03.03.2021
1921 Clear 15 1011 48 10000 1.88 206 04:25 03.03.2021
1922 Clear 21 1010 20 10000 4.17 222 00:44 03.03.2021
1923 Clear 22 1011 17 10000 3.6 280 23:55 02.03.2021
1924 Clear 21 1011 17 10000 3.6 280 23:21 02.03.2021
1925 Clear 23 1012 8 10000 2.06 0 22:41 02.03.2021
1926 Clear 23 1012 8 10000 2.06 0 22:18 02.03.2021
1927 Clear 23 1013 11 10000 3.74 180 21:40 02.03.2021
1928 Clear 23 1013 11 10000 3.11 147 21:21 02.03.2021
1929 Clear 22 1014 10 10000 2.06 130 20:46 02.03.2021
1930 Clear 21 1014 10 10000 2.06 130 20:22 02.03.2021
1931 Clear 21 1014 11 10000 2.06 0 19:51 02.03.2021
1932 Clear 20 1014 11 10000 2.06 0 19:32 02.03.2021
1933 Clear 19 1014 13 10000 2.57 70 18:58 02.03.2021
1934 Clear 18 1014 13 10000 2.57 70 18:40 02.03.2021
1935 Clear 18 1014 13 10000 2.57 70 18:21 02.03.2021
1936 Clear 15 1015 21 10000 1.54 30 17:49 02.03.2021
1937 Clear 14 1015 21 10000 1.54 30 17:29 02.03.2021
1938 Clear 11 1014 25 10000 1.54 20 16:49 02.03.2021
1939 Clear 10 1014 25 10000 1.54 20 16:22 02.03.2021
1940 Clear 9 1014 32 10000 1.5 34 15:49 02.03.2021
1941 Clear 9 1014 32 10000 0.99 353 15:22 02.03.2021
1942 Clear 9 1015 32 10000 0.64 348 14:23 02.03.2021
1943 Clear 9 1015 32 10000 0.64 348 13:49 02.03.2021
1944 Clear 9 1015 32 10000 0.7 356 13:31 02.03.2021
1945 Clear 10 1015 34 10000 0.56 32 12:55 02.03.2021
1946 Clear 10 1015 34 10000 1.04 35 12:29 02.03.2021
1947 Clear 10 1016 30 10000 1.04 35 11:54 02.03.2021
1948 Clear 10 1016 30 10000 1.04 35 11:34 02.03.2021
1949 Clear 11 1017 37 10000 0.65 26 10:58 02.03.2021
1950 Clear 11 1017 37 10000 0.65 26 10:32 02.03.2021
1951 Clear 11 1017 32 10000 0.7 358 09:59 02.03.2021
1952 Clear 11 1017 32 10000 0.7 358 09:40 02.03.2021
1953 Clear 11 1017 32 10000 1.1 41 09:18 02.03.2021
1954 Clear 12 1017 28 10000 1.1 41 08:38 02.03.2021
1955 Clear 12 1018 24 10000 0.71 58 07:58 02.03.2021
1956 Clear 12 1018 24 10000 1.46 69 07:26 02.03.2021
1957 Clear 14 1018 23 10000 1.46 69 06:33 02.03.2021
1958 Clear 15 1018 21 10000 0.75 8 05:45 02.03.2021
1959 Clear 16 1018 21 10000 1.36 287 05:27 02.03.2021
1960 Clear 20 1018 13 10000 1.54 260 01:44 02.03.2021
1961 Clear 20 1018 13 10000 1.54 260 01:44 02.03.2021
1962 Clear 20 1018 13 10000 1.54 260 01:44 02.03.2021
1963 Clear 20 1018 13 10000 1.54 260 01:44 02.03.2021
1964 Clear 21 1018 13 10000 1.54 260 01:25 02.03.2021
1965 Clear 22 1018 10 10000 2.06 0 00:21 02.03.2021
1966 Clear 22 1019 8 10000 3.27 211 23:22 01.03.2021
1967 Clear 23 1020 7 10000 2.06 80 22:40 01.03.2021
1968 Clear 23 1020 7 10000 2.06 80 22:21 01.03.2021
1969 Clear 22 1021 10 10000 1.9 174 21:45 01.03.2021
1970 Clear 22 1021 10 10000 1.87 110 21:23 01.03.2021
1971 Clear 22 1021 10 10000 1.87 110 21:23 01.03.2021
1972 Clear 21 1022 10 10000 2.57 0 20:47 01.03.2021
1973 Clear 21 1022 10 10000 2.57 0 20:27 01.03.2021
1974 Clear 20 1022 12 10000 2.57 0 19:54 01.03.2021
1975 Clear 19 1022 12 10000 2.57 0 19:33 01.03.2021
1976 Clear 17 1022 13 10000 2.06 0 18:46 01.03.2021
1977 Clear 16 1022 13 10000 2.06 0 18:24 01.03.2021
1978 Clear 15 1023 19 10000 1.54 20 17:56 01.03.2021
1979 Clear 14 1023 19 10000 1.54 20 17:37 01.03.2021
1980 Clear 14 1023 19 10000 1.54 20 17:18 01.03.2021
1981 Clear 12 1023 24 10000 1.54 20 16:40 01.03.2021
1982 Clear 10 1023 24 10000 1.54 20 16:22 01.03.2021
1983 Clear 11 1023 29 10000 1.87 9 15:40 01.03.2021
1984 Clear 10 1023 29 10000 1.96 9 15:20 01.03.2021
1985 Clear 10 1023 24 10000 1.96 9 14:44 01.03.2021
1986 Clear 10 1023 24 10000 1.73 5 14:26 01.03.2021
1987 Clear 11 1023 22 10000 2.06 20 13:40 01.03.2021
1988 -273 0 0 0 0 0 13:21 01.03.2021
1989 Clear 11 1023 22 10000 2.06 20 13:21 01.03.2021
1990 Clear 10 1023 19 10000 2.06 10 12:51 01.03.2021
1991 Clear 11 1023 19 10000 2.06 10 12:30 01.03.2021
1992 Clear 11 1023 28 10000 1.47 18 11:58 01.03.2021
1993 Clear 10 1023 28 10000 1.48 18 11:34 01.03.2021
1994 Clear 11 1023 26 10000 1.49 28 10:44 01.03.2021
1995 Clear 11 1023 26 10000 1.99 28 10:23 01.03.2021
1996 Clear 12 1023 18 10000 1.54 40 09:58 01.03.2021
1997 Clear 13 1023 18 10000 1.54 40 09:40 01.03.2021
1998 Clear 12 1023 18 10000 1.54 40 09:20 01.03.2021
1999 Clear 12 1022 30 10000 2.07 34 08:47 01.03.2021
2000 Clear 13 1022 33 10000 2.08 50 07:50 01.03.2021
2001 Clear 14 1022 33 10000 2.02 99 06:52 01.03.2021
2002 Clear 16 1020 25 10000 2.36 252 03:24 01.03.2021
2003 Clear 21 1020 16 10000 2.57 238 00:44 01.03.2021
2004 Clear 22 1020 15 10000 1.54 250 23:35 28.02.2021
2005 Clear 21 1020 18 10000 1.5 232 22:51 28.02.2021
2006 Clear 21 1020 18 10000 1.42 218 22:22 28.02.2021
2007 Clear 20 1021 17 10000 2.06 160 21:49 28.02.2021
2008 Clear 20 1021 17 10000 2.06 160 21:28 28.02.2021
2009 Clear 19 1021 20 10000 0.95 220 20:56 28.02.2021
2010 Clear 19 1021 20 10000 0.46 236 20:36 28.02.2021
2011 Clear 18 1021 27 10000 0.46 236 19:47 28.02.2021
2012 Clear 17 1021 27 10000 0.36 42 19:28 28.02.2021
2013 Clear 16 1021 44 10000 0.42 341 18:59 28.02.2021
2014 Clear 16 1021 44 10000 0.41 338 18:38 28.02.2021
2015 Clear 15 1021 44 10000 1.19 15 18:19 28.02.2021
2016 Clear 14 1020 66 10000 1.19 15 17:46 28.02.2021
2017 Clear 12 1020 66 10000 1.85 24 17:27 28.02.2021
2018 Clear 11 1020 71 10000 1.85 24 16:51 28.02.2021
2019 Clear 11 1020 71 10000 1.85 24 16:30 28.02.2021
2020 Clear 10 1019 71 10000 1.93 34 15:53 28.02.2021
2021 Clear 10 1019 71 10000 2.37 24 15:31 28.02.2021
2022 Clear 10 1018 71 10000 2.37 24 14:59 28.02.2021
2023 Clear 11 1018 71 10000 2.37 24 14:40 28.02.2021
2024 Clear 11 1018 71 10000 2.46 19 14:20 28.02.2021
2025 Clear 11 1017 71 10000 2.46 19 13:47 28.02.2021
2026 Clear 11 1017 71 10000 2.3 7 13:19 28.02.2021
2027 Clear 11 1017 71 10000 2.3 7 13:19 28.02.2021
2028 Clear 11 1017 66 10000 2.3 7 12:55 28.02.2021
2029 Clear 11 1017 66 10000 2.32 8 12:55 28.02.2021
2030 Clear 11 1017 66 10000 2.3 7 12:37 28.02.2021
2031 Clear 11 1017 66 10000 2.5 20 12:19 28.02.2021
2032 Clear 11 1017 67 10000 2.5 20 11:42 28.02.2021
2033 Clear 11 1017 67 10000 2.23 28 11:24 28.02.2021
2034 Clear 12 1017 67 10000 2.24 28 10:54 28.02.2021
2035 Clear 12 1017 67 10000 1.81 2 10:28 28.02.2021
2036 Clear 12 1016 62 10000 1.81 2 09:51 28.02.2021
2037 Clear 12 1016 62 10000 1.68 2 09:32 28.02.2021
2038 Clear 13 1015 47 10000 1.54 120 08:50 28.02.2021
2039 Clear 13 1015 47 10000 1.54 120 08:31 28.02.2021
2040 Clear 14 1015 21 10000 2.06 20 07:54 28.02.2021
2041 Clear 14 1015 21 10000 2.06 20 07:36 28.02.2021
2042 Clear 15 1014 23 10000 1.54 0 06:55 28.02.2021
2043 Clear 15 1014 20 10000 2.06 0 05:25 28.02.2021
2044 Clear 17 1012 18 10000 1.54 0 03:44 28.02.2021
2045 Clear 20 1012 28 10000 3.6 190 01:59 28.02.2021
2046 Clear 20 1011 24 10000 1.54 0 00:53 28.02.2021
2047 Clear 21 1011 24 10000 1.54 0 00:34 28.02.2021
2048 Clear 21 1011 28 10000 3.09 0 23:47 27.02.2021
2049 Clear 21 1011 28 10000 3.09 0 23:20 27.02.2021
2050 Clear 21 1012 27 10000 2.06 0 22:49 27.02.2021
2051 Clear 21 1012 27 10000 2.06 0 22:22 27.02.2021
2052 Clear 21 1013 37 10000 2.06 0 21:50 27.02.2021
2053 Clear 21 1013 37 10000 2.06 0 21:32 27.02.2021
2054 Clear 19 1014 45 10000 2.06 0 20:52 27.02.2021
2055 Clear 18 1014 45 10000 2.06 0 20:33 27.02.2021
2056 Clear 18 1014 55 10000 3.6 140 19:55 27.02.2021
2057 Clear 18 1014 55 10000 3.6 140 19:37 27.02.2021
2058 Clear 17 1014 55 10000 3.6 140 19:19 27.02.2021
2059 Clear 16 1014 67 10000 2.57 100 18:37 27.02.2021
2060 Clear 16 1014 67 10000 2.57 100 18:18 27.02.2021
2061 Clear 15 1014 66 10000 2.06 0 17:43 27.02.2021
2062 Clear 14 1014 66 10000 2.06 0 17:20 27.02.2021
2063 Clear 13 1013 71 10000 1.54 130 16:50 27.02.2021
2064 Clear 12 1013 71 10000 1.54 130 16:30 27.02.2021
2065 Clear 13 1013 71 10000 1.54 130 16:30 27.02.2021
2066 Clear 11 1013 76 10000 0.95 287 15:49 27.02.2021
2067 Clear 10 1013 76 10000 1.2 289 15:30 27.02.2021
2068 Clouds 11 1013 76 10000 1.2 289 14:41 27.02.2021
2069 Clouds 10 1013 76 10000 0.48 275 14:23 27.02.2021
2070 Clouds 11 1013 66 10000 1.54 0 13:47 27.02.2021
2071 Clouds 11 1013 66 10000 1.54 0 13:26 27.02.2021
2072 Clear 10 1013 76 10000 0.61 237 12:51 27.02.2021
2073 Clear 10 1013 76 10000 0.62 251 12:27 27.02.2021
2074 Clear 11 1013 76 10000 0.62 251 11:55 27.02.2021
2075 Clear 11 1013 76 10000 0.62 251 11:36 27.02.2021
2076 Clear 11 1013 76 10000 0.36 235 11:18 27.02.2021
2077 Clear 11 1014 76 10000 0.36 235 10:41 27.02.2021
2078 Clear 11 1014 76 10000 0.67 224 10:18 27.02.2021
2079 Clear 12 1013 76 10000 0.67 224 09:43 27.02.2021
2080 Clear 12 1013 76 10000 0.57 165 09:21 27.02.2021
2081 Clear 12 1014 71 10000 0.57 165 08:39 27.02.2021
2082 Clear 12 1014 71 10000 0.76 122 08:19 27.02.2021
2083 Clear 13 1014 71 10000 0.76 122 07:34 27.02.2021
2084 Clear 17 1013 34 10000 1.54 260 02:56 27.02.2021
2085 Clear 21 1014 20 10000 1.54 250 00:37 27.02.2021
2086 Clear 22 1014 21 10000 3.64 234 23:51 26.02.2021
2087 Clear 22 1014 21 10000 3.29 225 23:26 26.02.2021
2088 Clear 22 1015 12 10000 1.54 0 22:44 26.02.2021
2089 Clear 22 1015 12 10000 1.54 0 22:23 26.02.2021
2090 Clear 22 1016 13 10000 2.61 216 21:39 26.02.2021
2091 Clear 22 1016 13 10000 1.97 198 21:19 26.02.2021
2092 Clear 21 1017 11 10000 1.54 120 20:44 26.02.2021
2093 Clear 21 1017 11 10000 1.54 120 20:21 26.02.2021
2094 Clear 20 1018 14 10000 1.54 0 19:42 26.02.2021
2095 Clear 19 1018 14 10000 1.54 0 19:22 26.02.2021
2096 Clear 17 1018 17 10000 0.83 145 18:42 26.02.2021
2097 Clear 17 1018 17 10000 0.88 92 18:21 26.02.2021
2098 Clear 14 1018 32 10000 0.88 92 17:40 26.02.2021
2099 Clear 13 1018 32 10000 1.14 60 17:22 26.02.2021
2100 Clear 9 1017 40 10000 1.14 60 16:52 26.02.2021
2101 Clear 9 1017 40 10000 1.15 48 16:31 26.02.2021
2102 Clear 9 1017 34 10000 1.15 48 15:57 26.02.2021
2103 Clear 9 1017 34 10000 1.15 48 15:38 26.02.2021
2104 Clear 9 1017 34 10000 1.21 21 15:19 26.02.2021
2105 Clear 9 1017 29 10000 1.21 21 14:45 26.02.2021
2106 Clear 9 1017 29 10000 1.46 356 14:25 26.02.2021
2107 Clear 10 1017 27 10000 1.47 357 13:42 26.02.2021
2108 Clear 10 1017 27 10000 1.83 358 13:23 26.02.2021
2109 Clear 11 1017 24 10000 1.83 358 12:39 26.02.2021
2110 Clear 11 1017 28 10000 1.94 354 11:55 26.02.2021
2111 Clear 11 1017 28 10000 1.95 354 11:37 26.02.2021
2112 Clear 12 1017 26 10000 1.96 13 10:48 26.02.2021
2113 Clear 13 1018 26 10000 2.29 4 09:59 26.02.2021
2114 Clear 13 1018 26 10000 2.29 4 09:39 26.02.2021
2115 Clear 13 1018 26 10000 2.08 8 09:21 26.02.2021
2116 Clear 14 1018 23 10000 2.11 15 08:29 26.02.2021
2117 Clear 14 1018 31 10000 2.11 15 07:52 26.02.2021
2118 Clear 14 1018 47 10000 1.61 28 06:43 26.02.2021
2119 Clear 14 1018 47 10000 1.61 28 06:43 26.02.2021
2120 Clear 15 1017 39 10000 1.45 7 05:32 26.02.2021
2121 Clear 16 1016 19 10000 1.67 277 03:49 26.02.2021
2122 Clear 19 1016 13 10000 2.57 260 02:36 26.02.2021
2123 Clear 22 1017 15 10000 3.1 264 00:23 26.02.2021
2124 Clear 22 1017 14 10000 1.54 0 23:29 25.02.2021
2125 Clear 21 1018 17 10000 1.81 262 22:50 25.02.2021
2126 Clear 21 1018 17 10000 1.19 272 22:31 25.02.2021
2127 Clear 20 1020 21 10000 1.19 272 21:47 25.02.2021
2128 Clear 20 1020 21 10000 0.51 269 21:28 25.02.2021
2129 Clear 19 1020 21 10000 1.54 0 20:43 25.02.2021
2130 Clear 19 1020 21 10000 1.54 0 20:23 25.02.2021
2131 Clear 18 1020 22 10000 0.76 118 19:53 25.02.2021
2132 Clear 17 1020 22 10000 0.94 349 19:22 25.02.2021
2133 Clear 16 1021 39 10000 0.94 349 18:59 25.02.2021
2134 Clear 16 1021 39 10000 0.94 349 18:33 25.02.2021
2135 Haze 14 1021 76 4828 2.19 355 17:57 25.02.2021
2136 Haze 13 1021 76 4828 2.85 359 17:30 25.02.2021
2137 Haze 11 1020 76 4828 2.85 359 16:54 25.02.2021
2138 Mist 10 1020 87 3219 2.64 4 16:31 25.02.2021
2139 Mist 10 1020 87 4023 2.64 4 15:39 25.02.2021
2140 Mist 10 1019 82 6437 1.54 110 15:19 25.02.2021
2141 Mist 10 1019 82 6437 1.54 110 15:19 25.02.2021
2142 Mist 11 1019 87 4828 1.88 8 14:32 25.02.2021
2143 Mist 11 1019 87 4828 1.88 8 13:58 25.02.2021
2144 Mist 11 1019 87 4828 2.26 14 13:40 25.02.2021
2145 Mist 10 1019 87 4828 1.9 26 13:19 25.02.2021
2146 Mist 11 1018 82 6437 1.71 11 12:23 25.02.2021
2147 Haze 11 1018 82 8047 1.71 11 11:51 25.02.2021
2148 Haze 12 1018 82 8047 1.52 12 11:31 25.02.2021
2149 Mist 12 1018 88 4828 1.55 12 10:51 25.02.2021
2150 Mist 12 1018 88 4828 1.64 49 10:32 25.02.2021
2151 Mist 12 1018 88 8047 1.54 0 09:45 25.02.2021
2152 Mist 12 1018 88 8047 1.54 0 09:22 25.02.2021
2153 Clear 13 1018 82 10000 0.95 97 08:30 25.02.2021
2154 Clear 13 1018 72 10000 0.95 97 07:58 25.02.2021
2155 Clear 14 1018 72 10000 0.95 97 07:38 25.02.2021
2156 Clear 13 1017 72 10000 0.61 150 06:57 25.02.2021
2157 Clear 14 1016 67 10000 1.23 198 05:24 25.02.2021
2158 Clear 20 1015 52 10000 1.54 0 01:43 25.02.2021
2159 Clear 21 1015 49 10000 3.56 232 00:48 25.02.2021
2160 Clear 21 1015 49 10000 3.62 221 00:19 25.02.2021
2161 Clear 22 1015 25 10000 3.62 221 23:36 24.02.2021
2162 Clear 22 1016 27 10000 3.62 203 22:50 24.02.2021
2163 Clear 23 1016 27 10000 3.39 192 22:30 24.02.2021
2164 Clear 22 1017 27 10000 2.06 0 21:49 24.02.2021
2165 Clear 22 1017 27 10000 2.06 0 21:30 24.02.2021
2166 Clear 21 1017 28 10000 2.67 183 20:49 24.02.2021
2167 Clear 21 1017 28 10000 2.28 168 20:26 24.02.2021
2168 Clear 20 1018 30 10000 1.54 0 19:42 24.02.2021
2169 Clear 19 1018 30 10000 1.54 0 19:20 24.02.2021
2170 Clear 18 1018 34 10000 1.49 166 18:53 24.02.2021
2171 Clear 17 1018 34 10000 0.91 136 18:30 24.02.2021
2172 Clear 15 1018 47 10000 1.54 110 17:42 24.02.2021
2173 Clear 15 1018 47 10000 1.54 110 17:23 24.02.2021
2174 Clear 12 1017 58 10000 1.13 113 16:48 24.02.2021
2175 Clear 11 1017 58 10000 1.16 112 16:21 24.02.2021
2176 Clear 11 1017 71 10000 1.16 112 15:55 24.02.2021
2177 Clear 11 1017 71 10000 1.15 124 15:34 24.02.2021
2178 Clear 11 1017 82 10000 1.15 124 14:50 24.02.2021
2179 Clear 11 1017 82 10000 1.27 133 14:29 24.02.2021
2180 Clear 11 1016 87 10000 1.27 133 13:55 24.02.2021
2181 Clear 11 1016 87 10000 1.27 133 13:37 24.02.2021
2182 Clear 11 1016 87 10000 1.12 147 13:18 24.02.2021
2183 Clear 11 1017 87 10000 1.43 145 12:38 24.02.2021
2184 Clear 11 1017 87 10000 1.06 152 12:20 24.02.2021
2185 Clear 13 1017 77 10000 1.06 152 11:36 24.02.2021
2186 Clear 13 1017 67 10000 1.27 147 10:47 24.02.2021
2187 Clear 13 1017 67 10000 1.42 144 10:26 24.02.2021
2188 Clear 14 1016 67 10000 1.5 144 09:30 24.02.2021
2189 Clear 14 1017 63 10000 1.49 144 08:52 24.02.2021
2190 Clear 14 1017 63 10000 1.5 144 08:33 24.02.2021
2191 Clear 16 1017 63 10000 1.4 153 07:47 24.02.2021
2192 Clear 15 1017 63 10000 1.27 153 07:19 24.02.2021
2193 Clear 17 1016 59 10000 1.36 170 05:49 24.02.2021
2194 Clear 20 1015 28 10000 2.06 260 02:35 24.02.2021
2195 Clear 23 1015 23 10000 2.57 0 23:55 23.02.2021
2196 Clear 24 1015 23 10000 3.52 232 22:51 23.02.2021
2197 Clear 24 1015 23 10000 2.91 227 22:23 23.02.2021
2198 Clear 24 1016 13 10000 1.54 0 21:56 23.02.2021
2199 Clear 24 1016 13 10000 1.54 0 21:37 23.02.2021
2200 Clear 24 1016 13 10000 1.54 0 21:18 23.02.2021
2201 Clear 23 1017 16 10000 2.27 217 20:45 23.02.2021
2202 Clear 23 1017 16 10000 1.64 201 20:27 23.02.2021
2203 Clear 22 1017 20 10000 1.54 110 19:47 23.02.2021
2204 Clear 21 1017 20 10000 1.54 110 19:26 23.02.2021
2205 Clear 20 1017 24 10000 1.06 194 18:47 23.02.2021
2206 Clear 19 1017 24 10000 0.56 138 18:29 23.02.2021
2207 Clear 18 1017 29 10000 0.56 138 17:54 23.02.2021
2208 Clear 16 1017 29 10000 0.94 74 17:29 23.02.2021
2209 Clear 12 1017 33 10000 0.94 74 16:47 23.02.2021
2210 Clear 13 1017 33 10000 1.12 72 16:25 23.02.2021
2211 Clear 12 1017 40 10000 1.12 72 15:52 23.02.2021
2212 Clear 12 1017 40 10000 1.12 72 15:34 23.02.2021
2213 Clear 12 1017 35 10000 1.16 80 14:59 23.02.2021
2214 Clear 12 1017 35 10000 1.16 80 14:40 23.02.2021
2215 Clear 13 1017 35 10000 1.24 83 14:20 23.02.2021
2216 Clear 12 1017 30 10000 1.24 83 13:43 23.02.2021
2217 Clear 12 1017 30 10000 1.45 75 13:21 23.02.2021
2218 Clear 12 1017 38 10000 1.15 60 12:49 23.02.2021
2219 Clear 13 1017 26 10000 1.08 47 12:20 23.02.2021
2220 Clear 14 1017 25 10000 1.54 10 11:46 23.02.2021
2221 Clear 14 1017 25 10000 1.54 10 11:20 23.02.2021
2222 Clear 15 1018 23 10000 1.54 10 10:40 23.02.2021
2223 Clear 15 1018 23 10000 1.54 10 10:21 23.02.2021
2224 Clear 15 1018 23 10000 1.54 10 09:43 23.02.2021
2225 Clear 15 1018 23 10000 1.54 10 09:22 23.02.2021
2226 Clear 16 1018 36 10000 1.27 34 08:48 23.02.2021
2227 Clear 16 1018 36 10000 1.5 46 08:21 23.02.2021
2228 Clear 16 1018 41 10000 1.5 46 07:49 23.02.2021
2229 Clear 18 1018 36 10000 0.96 337 05:31 23.02.2021
2230 Clear 18 1018 30 10000 0.96 337 04:32 23.02.2021
2231 Clear 22 1018 15 10000 1.54 260 02:34 23.02.2021
2232 Clear 25 1018 10 10000 2.34 235 00:20 23.02.2021
2233 Clear 26 1019 11 10000 2.32 236 23:47 22.02.2021
2234 Clear 26 1019 11 10000 1.22 240 23:20 22.02.2021
2235 Clear 26 1020 10 10000 0.53 215 22:41 22.02.2021
2236 Clear 26 1020 10 10000 0.53 215 22:20 22.02.2021
2237 Clear 25 1021 10 10000 0.53 215 21:45 22.02.2021
2238 Clear 25 1021 10 10000 0.53 215 21:45 22.02.2021
2239 Clear 24 1021 10 10000 0.46 205 21:23 22.02.2021
2240 Clear 23 1022 12 10000 1.54 0 20:52 22.02.2021
2241 Clear 23 1022 12 10000 1.54 0 20:29 22.02.2021
2242 Clear 22 1023 15 10000 1.54 0 19:53 22.02.2021
2243 Clear 21 1023 15 10000 1.54 0 19:35 22.02.2021
2244 Clear 20 1023 20 10000 1.44 346 18:57 22.02.2021
2245 Clear 19 1023 20 10000 1.44 346 18:39 22.02.2021
2246 Clear 18 1023 20 10000 1.61 354 18:20 22.02.2021
2247 Clear 15 1023 30 10000 2.1 0 17:26 22.02.2021
2248 Clear 11 1023 46 10000 2.1 0 16:55 22.02.2021
2249 Clear 11 1023 46 10000 2.1 0 16:35 22.02.2021
2250 Clear 10 1023 49 10000 1.98 11 15:47 22.02.2021
2251 Clear 10 1023 49 10000 1.99 9 15:28 22.02.2021
2252 Clear 10 1023 53 10000 1.99 9 14:48 22.02.2021
2253 Clear 10 1023 53 10000 1.73 7 14:28 22.02.2021
2254 Clear 9 1023 57 10000 1.73 7 13:47 22.02.2021
2255 Clear 10 1023 43 10000 1.82 15 12:59 22.02.2021
2256 Clear 10 1023 43 10000 1.88 10 12:40 22.02.2021
2257 Clear 10 1023 43 10000 1.88 10 12:20 22.02.2021
2258 Clear 11 1024 43 10000 1.88 10 11:42 22.02.2021
2259 Clear 11 1024 43 10000 1.92 17 11:24 22.02.2021
2260 Clear 11 1024 37 10000 1.93 17 10:47 22.02.2021
2261 Clear 11 1024 37 10000 1.93 22 10:26 22.02.2021
2262 Clear 12 1024 47 10000 1.93 22 09:45 22.02.2021
2263 Clear 12 1024 47 10000 1.94 26 09:25 22.02.2021
2264 Clear 13 1024 54 10000 1.95 26 08:51 22.02.2021
2265 Clear 13 1024 54 10000 2.13 11 08:29 22.02.2021
2266 Clear 14 1024 62 10000 2.13 11 07:57 22.02.2021
2267 Clear 14 1024 62 10000 1.83 25 07:26 22.02.2021
2268 Clear 13 1024 58 10000 1.83 25 06:45 22.02.2021
2269 Clear 14 1024 55 10000 1.5 39 05:45 22.02.2021
2270 Clear 16 1023 34 10000 2.06 270 03:29 22.02.2021
2271 Clear 17 1023 24 10000 1.54 0 02:51 22.02.2021
2272 Clear 21 1023 15 10000 3.6 260 00:46 22.02.2021
2273 Clear 22 1023 15 10000 3.6 260 00:23 22.02.2021
2274 Clear 22 1024 11 10000 1.54 240 23:33 21.02.2021
2275 Clear 22 1024 15 10000 1.8 244 22:53 21.02.2021
2276 Clear 22 1024 15 10000 1.27 241 22:23 21.02.2021
2277 Clear 21 1026 16 10000 1.27 241 21:45 21.02.2021
2278 Clear 21 1026 16 10000 1.05 295 21:27 21.02.2021
2279 Clear 20 1026 16 10000 1.05 295 20:44 21.02.2021
2280 Clear 20 1026 16 10000 1.37 328 20:20 21.02.2021
2281 Clear 19 1026 20 10000 1.37 328 19:53 21.02.2021
2282 Clear 19 1026 20 10000 1.16 320 19:33 21.02.2021
2283 Clear 17 1026 27 10000 2.24 343 18:52 21.02.2021
2284 Clear 16 1026 27 10000 2.57 353 18:26 21.02.2021
2285 Clear 16 1026 27 10000 2.57 353 18:26 21.02.2021
2286 Clear 14 1026 37 10000 2.57 353 17:39 21.02.2021
2287 Clear 13 1026 37 10000 2.6 11 17:18 21.02.2021
2288 Clear 11 1025 46 10000 2.6 11 16:43 21.02.2021
2289 Clear 10 1025 46 10000 2.51 10 16:24 21.02.2021
2290 Clear 9 1024 46 10000 2.47 12 15:25 21.02.2021
2291 Clear 9 1024 43 10000 2.47 12 14:56 21.02.2021
2292 Clear 9 1024 43 10000 2.47 12 14:37 21.02.2021
2293 Clear 11 1024 43 10000 2.65 9 13:54 21.02.2021
2294 Clear 11 1024 43 10000 2.45 352 13:29 21.02.2021
2295 Clear 12 1023 43 10000 2.45 352 12:49 21.02.2021
2296 Clear 12 1023 43 10000 3.06 349 12:26 21.02.2021
2297 Clear 12 1023 37 10000 3.06 349 11:42 21.02.2021
2298 Clear 12 1023 37 10000 3.06 359 10:50 21.02.2021
2299 Clear 12 1023 37 10000 2.52 4 10:22 21.02.2021
2300 Clear 13 1023 35 10000 2.52 4 09:51 21.02.2021
2301 Clear 13 1023 35 10000 3.01 357 09:26 21.02.2021
2302 Clear 13 1023 28 10000 3.01 357 08:43 21.02.2021
2303 Clear 13 1023 28 10000 2.94 351 08:19 21.02.2021
2304 Clear 13 1023 23 10000 1.54 0 07:28 21.02.2021
2305 Clear 14 1022 25 10000 2.57 0 06:45 21.02.2021
2306 Clear 17 1019 24 10000 4.12 320 02:44 21.02.2021
2307 Clear 17 1019 20 10000 2.57 0 01:59 21.02.2021
2308 Clear 19 1019 17 10000 4.12 340 00:36 21.02.2021
2309 Clear 19 1019 17 10000 4.12 340 00:18 21.02.2021
2310 Clear 19 1020 24 10000 4.63 320 22:59 20.02.2021
2311 Clear 19 1020 24 10000 4.63 320 22:38 20.02.2021
2312 Clear 19 1020 24 10000 4.63 320 22:19 20.02.2021
2313 Clear 18 1020 26 10000 4.12 320 21:41 20.02.2021
2314 Clear 18 1020 26 10000 4.12 320 21:19 20.02.2021
2315 Clear 18 1021 26 10000 3.6 340 20:42 20.02.2021
2316 Clear 17 1021 26 10000 3.6 340 20:21 20.02.2021
2317 Clear 17 1021 48 10000 4.44 357 19:49 20.02.2021
2318 Clear 16 1021 48 10000 2.73 343 19:23 20.02.2021
2319 Clear 15 1021 62 10000 2.73 343 18:38 20.02.2021
2320 Clear 14 1021 62 10000 0.91 28 18:19 20.02.2021
2321 Clear 13 1021 58 10000 0.91 28 17:37 20.02.2021
2322 Clear 9 1020 66 10000 0.81 27 16:54 20.02.2021
2323 Clear 9 1020 66 10000 0.81 27 16:32 20.02.2021
2324 Clear 9 1020 71 10000 1.06 110 15:47 20.02.2021
2325 Clear 9 1020 71 10000 1.07 121 15:23 20.02.2021
2326 Clear 9 1019 81 10000 1.07 121 14:46 20.02.2021
2327 Clear 9 1019 81 10000 0.85 130 14:23 20.02.2021
2328 Clear 9 1019 81 10000 0.85 130 13:41 20.02.2021
2329 Clear 9 1019 81 10000 0.43 225 13:23 20.02.2021
2330 Clear 10 1019 81 10000 0.42 226 12:50 20.02.2021
2331 Clear 10 1019 81 10000 0.4 218 12:23 20.02.2021
2332 Clear 10 1020 76 10000 0.4 218 11:44 20.02.2021
2333 Clear 10 1020 76 10000 0.4 218 11:44 20.02.2021
2334 Clear 10 1020 76 10000 0.46 283 11:24 20.02.2021
2335 Clear 11 1020 76 10000 0.46 283 10:49 20.02.2021
2336 Clear 11 1020 76 10000 0.94 263 09:55 20.02.2021
2337 Clear 12 1020 76 10000 0.49 225 09:28 20.02.2021
2338 Clear 12 1021 76 10000 0.49 225 08:43 20.02.2021
2339 Clear 12 1021 76 10000 0.44 161 08:18 20.02.2021
2340 Clear 15 1020 29 10000 2.29 247 03:32 20.02.2021
2341 Clear 18 1020 24 10000 2.06 250 02:25 20.02.2021
2342 Clear 19 1020 26 10000 1.54 0 01:49 20.02.2021
2343 Clear 20 1020 24 10000 1.54 0 00:45 20.02.2021
2344 Clear 21 1021 23 10000 2.06 250 23:55 19.02.2021
2345 Clear 20 1021 23 10000 2.06 250 23:18 19.02.2021
2346 Clear 20 1022 18 10000 2.14 230 22:27 19.02.2021
2347 Clear 20 1023 18 10000 2.14 230 21:58 19.02.2021
2348 Clear 20 1023 18 10000 2.14 230 21:32 19.02.2021
2349 Clear 19 1024 18 10000 1.62 214 20:49 19.02.2021
2350 Clear 19 1024 18 10000 0.93 177 20:30 19.02.2021
2351 Clear 18 1024 20 10000 0.93 177 19:57 19.02.2021
2352 Clear 17 1024 20 10000 0.72 154 19:27 19.02.2021
2353 Clear 16 1025 21 10000 2.06 110 18:57 19.02.2021
2354 Clear 16 1025 21 10000 2.06 110 18:34 19.02.2021
2355 Clear 14 1025 32 10000 1.54 10 17:51 19.02.2021
2356 Clear 13 1025 32 10000 1.54 10 17:23 19.02.2021
2357 Clear 8 1025 49 10000 0.63 75 16:39 19.02.2021
2358 Clear 8 1025 49 10000 0.66 55 16:20 19.02.2021
2359 Clear 8 1024 43 10000 0.66 55 15:45 19.02.2021
2360 Clear 8 1024 43 10000 0.53 72 15:27 19.02.2021
2361 Clear 9 1024 37 10000 1.54 20 14:41 19.02.2021
2362 Clear 9 1024 37 10000 1.54 20 14:23 19.02.2021
2363 Clear 9 1024 35 10000 0.66 87 13:44 19.02.2021
2364 Clear 9 1024 35 10000 0.55 41 13:24 19.02.2021
2365 Clear 9 1024 40 10000 0.55 41 12:44 19.02.2021
2366 Clear 9 1024 40 10000 0.57 7 12:23 19.02.2021
2367 Clear 10 1025 37 10000 0.57 7 11:51 19.02.2021
2368 Clear 10 1025 37 10000 0.46 14 11:26 19.02.2021
2369 Clear 10 1026 50 10000 0.46 14 10:51 19.02.2021
2370 Clear 10 1026 50 10000 0.62 44 10:22 19.02.2021
2371 Clear 10 1026 71 10000 0.62 44 09:48 19.02.2021
2372 Clear 11 1026 71 10000 0.63 68 09:26 19.02.2021
2373 Clear 12 1027 66 10000 0.63 68 08:53 19.02.2021
2374 Clear 12 1027 66 10000 1.08 80 08:24 19.02.2021
2375 Clear 12 1027 71 10000 1.08 80 07:49 19.02.2021
2376 Clear 12 1027 71 10000 0.85 85 07:30 19.02.2021
2377 Clear 13 1027 62 10000 0.85 85 06:54 19.02.2021
2378 Clear 13 1026 58 10000 0.31 222 05:30 19.02.2021
2379 Clear 14 1026 41 10000 2.06 260 04:41 19.02.2021
2380 Clear 17 1025 18 10000 1.54 0 01:48 19.02.2021
2381 Clear 18 1025 19 10000 3.6 260 00:37 19.02.2021
2382 Clear 19 1025 15 10000 1.54 240 23:56 18.02.2021
2383 Clear 19 1025 15 10000 1.54 240 23:35 18.02.2021
2384 Clear 19 1026 15 10000 2.64 234 22:51 18.02.2021
2385 Clear 19 1026 15 10000 2.23 229 22:30 18.02.2021
2386 Clear 18 1026 15 10000 1.54 0 21:55 18.02.2021
2387 Clear 18 1026 15 10000 1.54 0 21:27 18.02.2021
2388 Clear 18 1027 16 10000 1.54 0 20:57 18.02.2021
2389 Clear 18 1027 16 10000 1.54 0 20:38 18.02.2021
2390 Clear 18 1027 16 10000 1.54 0 20:18 18.02.2021
2391 Clear 17 1027 25 10000 1.61 196 19:41 18.02.2021
2392 Clear 16 1027 25 10000 0.6 278 19:19 18.02.2021
2393 Clear 15 1027 25 10000 0.6 278 18:43 18.02.2021
2394 Clear 14 1027 25 10000 1.44 0 18:25 18.02.2021
2395 Clear 13 1026 46 10000 1.44 0 17:43 18.02.2021
2396 Clear 12 1026 46 10000 1.96 4 17:23 18.02.2021
2397 Clear 10 1025 53 10000 1.95 4 16:44 18.02.2021
2398 Clear 10 1025 53 10000 1.84 8 16:26 18.02.2021
2399 Clear 9 1024 49 10000 1.84 8 15:42 18.02.2021
2400 Clear 9 1024 49 10000 2.05 8 15:22 18.02.2021
2401 Clear 10 1023 49 10000 2.05 8 14:50 18.02.2021
2402 Clear 10 1023 49 10000 2.05 8 14:30 18.02.2021
2403 Clear 10 1022 46 10000 2.24 0 13:49 18.02.2021
2404 Clear 10 1022 46 10000 2.35 359 13:21 18.02.2021
2405 Clear 10 1022 46 10000 2.36 360 12:54 18.02.2021
2406 Clear 11 1022 46 10000 2.54 13 12:28 18.02.2021
2407 Clear 11 1022 40 10000 2.55 13 11:47 18.02.2021
2408 Clear 11 1022 40 10000 2.54 13 11:47 18.02.2021
2409 Clear 12 1022 40 10000 2.08 23 11:27 18.02.2021
2410 Clear 12 1021 37 10000 2.08 23 10:57 18.02.2021
2411 Clear 12 1021 37 10000 2.08 23 10:36 18.02.2021
2412 Clear 12 1021 37 10000 1.99 20 10:18 18.02.2021
2413 Clear 13 1020 33 10000 2.25 18 09:28 18.02.2021
2414 Clear 13 1020 28 10000 2.23 18 08:49 18.02.2021
2415 Clear 14 1020 28 10000 2.7 8 08:31 18.02.2021
2416 Clear 13 1020 30 10000 2.7 9 07:48 18.02.2021
2417 Clear 13 1020 30 10000 2.71 2 07:20 18.02.2021
2418 Clear 15 1018 25 10000 3.36 4 05:42 18.02.2021
2419 Clear 15 1018 25 10000 3.36 4 05:42 18.02.2021
2420 Clear 15 1018 25 10000 3.36 4 05:42 18.02.2021
2421 Clear 15 1018 25 10000 3.36 4 05:42 18.02.2021
2422 Clear 19 1015 34 10000 6.69 270 00:29 18.02.2021
2423 Clear 19 1014 32 10000 3.09 250 23:38 17.02.2021
2424 Clear 19 1014 32 10000 3.09 250 23:38 17.02.2021
2425 Clear 19 1015 21 10000 3.88 2 22:59 17.02.2021
2426 Clear 19 1015 21 10000 3.88 2 22:39 17.02.2021
2427 Clear 19 1015 21 10000 2.97 333 22:21 17.02.2021
2428 Clear 18 1016 27 10000 4.12 250 21:44 17.02.2021
2429 Clear 18 1016 27 10000 4.12 250 21:20 17.02.2021
2430 Clear 17 1016 26 10000 1.54 0 20:42 17.02.2021
2431 Clear 17 1016 26 10000 1.54 0 20:23 17.02.2021
2432 Clear 17 1017 25 10000 3.09 0 19:38 17.02.2021
2433 Clear 15 1017 31 10000 1.54 0 18:59 17.02.2021
2434 Clear 15 1017 31 10000 1.54 0 18:40 17.02.2021
2435 Clear 14 1017 38 10000 2.06 0 17:59 17.02.2021
2436 Clear 13 1017 38 10000 2.06 0 17:36 17.02.2021
2437 Clear 12 1017 38 10000 2.06 0 17:18 17.02.2021
2438 Clear 12 1016 76 10000 1.93 7 16:42 17.02.2021
2439 Clear 10 1016 76 10000 1.81 3 16:22 17.02.2021
2440 Clear 10 1016 81 10000 1.81 3 15:43 17.02.2021
2441 Clear 10 1016 81 10000 1.61 9 15:22 17.02.2021
2442 Clear 10 1016 71 10000 1.61 9 14:45 17.02.2021
2443 Clear 11 1016 71 10000 1.89 8 14:26 17.02.2021
2444 Clear 11 1015 76 10000 1.89 8 13:45 17.02.2021
2445 Clear 12 1015 76 10000 2.34 355 13:27 17.02.2021
2446 Clear 11 1015 76 10000 2.38 1 12:44 17.02.2021
2447 Clear 11 1015 76 10000 2.74 350 12:22 17.02.2021
2448 Clear 12 1015 62 10000 2.74 350 11:38 17.02.2021
2449 Clear 12 1015 62 10000 3.11 343 11:18 17.02.2021
2450 Clear 14 1015 25 10000 2.57 360 10:44 17.02.2021
2451 Clear 14 1015 25 10000 2.57 360 10:24 17.02.2021
2452 Clear 13 1015 23 10000 2.57 0 09:44 17.02.2021
2453 Clear 13 1015 23 10000 2.57 0 09:25 17.02.2021
2454 Clear 13 1015 27 10000 2.06 300 08:43 17.02.2021
2455 Clear 13 1015 27 10000 2.06 300 08:22 17.02.2021
2456 Clear 14 1015 23 10000 2.57 350 07:34 17.02.2021
2457 Clear 14 1015 22 10000 3.6 330 06:19 17.02.2021
2458 Clear 16 1014 59 10000 6.17 270 02:42 17.02.2021
2459 Clear 18 1013 22 10000 3.6 320 02:21 17.02.2021
2460 Clear 19 1013 32 10000 4.12 270 00:33 17.02.2021
2461 Clear 19 1013 42 10000 2.57 250 23:57 16.02.2021
2462 Clear 19 1013 42 10000 2.57 250 23:38 16.02.2021
2463 Clear 19 1014 39 10000 3.6 260 22:45 16.02.2021
2464 Clear 19 1014 39 10000 3.6 260 22:25 16.02.2021
2465 Clear 19 1014 39 10000 3.6 260 22:25 16.02.2021
2466 Clear 19 1015 45 10000 2.06 0 21:58 16.02.2021
2467 Clear 18 1015 45 10000 2.06 0 21:39 16.02.2021
2468 Clear 18 1015 45 10000 2.06 0 21:20 16.02.2021
2469 Clear 17 1015 52 10000 1.54 250 20:45 16.02.2021
2470 Clear 17 1015 52 10000 1.54 250 20:21 16.02.2021
2471 Clear 16 1016 59 10000 7.06 318 19:47 16.02.2021
2472 Clear 16 1016 59 10000 5.61 314 19:27 16.02.2021
2473 Clear 14 1016 72 10000 5.61 314 18:42 16.02.2021
2474 Clear 14 1016 72 10000 4 311 18:23 16.02.2021
2475 Clear 14 1016 76 10000 4 311 17:53 16.02.2021
2476 Clear 12 1016 76 10000 3.01 318 17:27 16.02.2021
2477 Mist 12 1015 87 9656 3.02 318 16:53 16.02.2021
2478 Mist 12 1015 87 9656 3.02 318 16:53 16.02.2021
2479 Mist 11 1015 87 9656 2.29 319 16:30 16.02.2021
2480 Haze 10 1015 82 9656 2.29 319 15:57 16.02.2021
2481 Clouds 10 1015 87 10000 2.29 319 15:36 16.02.2021
2482 Clouds 11 1015 87 10000 1.21 303 15:18 16.02.2021
2483 Clouds 10 1015 82 10000 1.21 303 14:40 16.02.2021
2484 Clouds 11 1015 82 10000 0.62 295 14:21 16.02.2021
2485 Clouds 10 1014 82 10000 0.62 295 13:46 16.02.2021
2486 Clouds 10 1014 82 10000 1.25 37 13:18 16.02.2021
2487 Clouds 11 1015 76 10000 1.03 9 12:42 16.02.2021
2488 Clouds 11 1015 76 10000 0.73 55 12:20 16.02.2021
2489 Clouds 11 1015 76 10000 0.73 55 11:43 16.02.2021
2490 Clouds 11 1015 76 10000 2.06 0 11:21 16.02.2021
2491 Haze 11 1015 88 9656 3.09 90 10:49 16.02.2021
2492 Haze 12 1015 88 9656 3.09 90 10:30 16.02.2021
2493 Clouds 12 1015 77 10000 2.57 80 09:54 16.02.2021
2494 Clouds 12 1015 72 10000 2.57 100 09:28 16.02.2021
2495 Clouds 12 1016 72 10000 2.06 90 08:52 16.02.2021
2496 Clouds 12 1016 72 10000 2.06 90 08:31 16.02.2021
2497 Clouds 12 1016 76 10000 1.54 0 07:58 16.02.2021
2498 Clear 12 1016 67 10000 2.43 128 06:58 16.02.2021
2499 Clear 13 1016 77 10000 2.57 230 03:20 16.02.2021
2500 Clear 17 1016 55 10000 4.12 260 00:35 16.02.2021
2501 Clear 17 1016 48 10000 2.2 221 23:30 15.02.2021
2502 Clear 17 1017 48 10000 1.54 0 22:51 15.02.2021
2503 Clear 17 1017 48 10000 1.54 0 22:30 15.02.2021
2504 Clear 17 1017 48 10000 1.54 0 22:30 15.02.2021
2505 Clear 17 1018 48 10000 1.61 192 21:55 15.02.2021
2506 Clear 17 1018 48 10000 1.61 192 21:36 15.02.2021
2507 Clear 16 1018 48 10000 2.14 158 21:18 15.02.2021
2508 Clear 16 1018 55 10000 2.06 70 20:41 15.02.2021
2509 Clear 16 1018 55 10000 2.06 70 20:19 15.02.2021
2510 Clear 15 1018 58 10000 1.54 100 19:43 15.02.2021
2511 Clear 15 1018 58 10000 1.54 100 19:21 15.02.2021
2512 Clear 13 1018 54 10000 1.54 90 18:42 15.02.2021
2513 Clear 13 1018 54 10000 1.54 90 18:21 15.02.2021
2514 Clear 12 1018 50 10000 1.54 70 17:41 15.02.2021
2515 Clear 12 1018 50 10000 1.54 70 17:21 15.02.2021
2516 Clear 11 1017 50 10000 1.41 107 16:53 15.02.2021
2517 Clear 10 1017 50 10000 1.17 72 16:26 15.02.2021
2518 Clear 11 1016 47 10000 1.54 100 15:49 15.02.2021
2519 Clear 11 1016 47 10000 1.54 100 15:22 15.02.2021
2520 Clear 11 1016 62 10000 1.46 64 14:54 15.02.2021
2521 Clear 11 1016 47 10000 1.43 67 14:22 15.02.2021
2522 Clear 11 1016 50 10000 1.43 67 13:58 15.02.2021
2523 Clear 11 1016 50 10000 1.43 67 13:39 15.02.2021
2524 Clear 11 1016 50 10000 1.58 21 13:18 15.02.2021
2525 Clear 11 1016 44 10000 1.58 21 12:38 15.02.2021
2526 Clear 11 1016 44 10000 2.89 357 12:19 15.02.2021
2527 Clear 12 1016 41 10000 1.54 100 11:41 15.02.2021
2528 Clear 12 1016 41 10000 1.54 100 11:19 15.02.2021
2529 Clear 13 1016 31 10000 3.81 339 10:46 15.02.2021
2530 Clear 13 1016 31 10000 4.41 341 10:22 15.02.2021
2531 Clear 14 1016 27 10000 2.57 300 09:53 15.02.2021
2532 Clear 14 1016 27 10000 2.57 300 09:33 15.02.2021
2533 Clear 14 1016 27 10000 2.57 300 09:33 15.02.2021
2534 Clear 14 1016 27 10000 3.6 300 08:44 15.02.2021
2535 Clear 14 1016 27 10000 2.06 0 07:38 15.02.2021
2536 Clear 14 1015 20 10000 3.09 0 06:53 15.02.2021
2537 Clear 14 1015 20 10000 3.09 0 06:34 15.02.2021
2538 Clear 17 1014 15 10000 2.06 280 02:28 15.02.2021
2539 Clear 19 1013 12 10000 8.54 329 00:41 15.02.2021
2540 Clear 20 1013 19 10000 3.09 0 23:33 14.02.2021
2541 Clear 20 1013 22 10000 2.06 0 22:55 14.02.2021
2542 Clear 20 1013 22 10000 2.06 0 22:36 14.02.2021
2543 Clear 20 1013 22 10000 2.06 0 22:18 14.02.2021
2544 Clear 19 1014 24 10000 2.57 0 21:43 14.02.2021
2545 Clear 19 1014 24 10000 2.57 0 21:23 14.02.2021
2546 Clear 19 1014 24 10000 2.57 0 21:23 14.02.2021
2547 Clear 18 1015 26 10000 3.09 290 20:42 14.02.2021
2548 Clear 18 1015 26 10000 3.09 290 20:22 14.02.2021
2549 Clear 17 1015 29 10000 1.54 0 19:40 14.02.2021
2550 Clear 16 1015 31 10000 6.5 337 18:51 14.02.2021
2551 Clear 16 1015 31 10000 6.5 337 18:51 14.02.2021
2552 Clear 15 1015 31 10000 7.56 334 18:29 14.02.2021
2553 Clear 14 1014 38 10000 2.06 0 17:51 14.02.2021
2554 Clear 13 1014 38 10000 2.06 0 17:33 14.02.2021
2555 Clear 13 1014 38 10000 8.03 327 16:51 14.02.2021
2556 Clear 13 1014 38 10000 7.57 330 16:26 14.02.2021
2557 Clear 13 1013 38 10000 7.57 330 15:49 14.02.2021
2558 Clear 13 1013 38 10000 7.68 335 15:30 14.02.2021
2559 Clear 13 1013 38 10000 2.06 0 14:47 14.02.2021
2560 Clear 13 1013 38 10000 2.06 0 14:26 14.02.2021
2561 Clear 14 1012 36 10000 7.1 342 13:44 14.02.2021
2562 Clear 14 1012 36 10000 6.04 332 13:26 14.02.2021
2563 Clear 14 1011 31 10000 4.12 330 12:38 14.02.2021
2564 Clear 14 1011 31 10000 4.12 330 12:18 14.02.2021
2565 Clear 14 1011 33 10000 3.09 0 11:47 14.02.2021
2566 Clear 14 1011 33 10000 3.09 0 11:20 14.02.2021
2567 Clear 14 1011 36 10000 7.14 333 10:34 14.02.2021
2568 Clear 13 1011 36 10000 7.53 338 09:55 14.02.2021
2569 Clear 14 1011 36 10000 7.53 338 09:37 14.02.2021
2570 Clear 13 1011 36 10000 8.47 344 09:19 14.02.2021
2571 Clear 14 1011 31 10000 4.63 330 08:25 14.02.2021
2572 Clear 14 1012 31 10000 4.12 320 07:48 14.02.2021
2573 Clear 14 1011 67 10000 2.57 300 06:37 14.02.2021
2574 Clear 14 1010 59 10000 2.06 110 04:52 14.02.2021
2575 Clouds 14 1009 55 10000 3.3 24 03:23 14.02.2021
2576 Clear 16 1010 59 10000 1.95 6 01:42 14.02.2021
2577 Clear 16 1011 59 10000 1.24 283 00:46 14.02.2021
2578 Clear 16 1012 59 10000 2.57 0 23:59 13.02.2021
2579 Clear 16 1012 59 10000 2.57 0 23:38 13.02.2021
2580 Clear 16 1012 59 10000 2.57 0 23:20 13.02.2021
2581 Clear 16 1012 59 10000 2.57 0 23:20 13.02.2021
2582 Clouds 17 1013 55 10000 1.54 0 22:33 13.02.2021
2583 Clouds 17 1013 55 10000 3.98 250 21:53 13.02.2021
2584 Clouds 16 1014 59 10000 3.98 250 21:35 13.02.2021
2585 Clouds 15 1015 59 10000 3.33 258 20:49 13.02.2021
2586 Clouds 15 1015 59 10000 2.43 244 20:28 13.02.2021
2587 Clouds 14 1015 63 10000 2.43 244 19:49 13.02.2021
2588 Clouds 14 1015 63 10000 2.43 244 19:49 13.02.2021
2589 Clouds 14 1015 63 10000 2.43 244 19:49 13.02.2021
2590 Clouds 14 1015 63 10000 2.46 240 19:25 13.02.2021
2591 Clouds 13 1015 71 10000 1.54 60 18:52 13.02.2021
2592 Clouds 13 1015 71 10000 1.54 60 18:33 13.02.2021
2593 Clouds 12 1014 76 10000 2.06 222 17:45 13.02.2021
2594 Clouds 12 1014 76 10000 1.08 199 17:26 13.02.2021
2595 Clouds 12 1014 76 10000 1.08 199 16:59 13.02.2021
2596 Clouds 12 1014 76 10000 1.08 199 16:41 13.02.2021
2597 Clouds 11 1014 82 10000 0.42 188 15:57 13.02.2021
2598 Clear 11 1013 76 10000 1.54 80 15:27 13.02.2021
2599 Clouds 11 1013 76 10000 2.06 140 14:42 13.02.2021
2600 Clouds 11 1014 76 10000 0.78 86 14:24 13.02.2021
2601 Clouds 11 1014 76 10000 0.79 86 13:44 13.02.2021
2602 Clouds 11 1014 76 10000 1.33 118 13:23 13.02.2021
2603 Clouds 10 1014 82 10000 1.33 118 12:38 13.02.2021
2604 Clouds 11 1013 82 10000 1.54 0 12:18 13.02.2021
2605 Clear 11 1014 76 10000 2.06 90 11:40 13.02.2021
2606 Clear 11 1014 76 10000 2.06 90 11:18 13.02.2021
2607 Clear 11 1014 71 10000 2.3 111 10:43 13.02.2021
2608 Clear 11 1014 71 10000 1.7 124 10:23 13.02.2021
2609 Clear 12 1015 76 10000 1.7 124 09:50 13.02.2021
2610 Clear 12 1015 76 10000 2.56 116 09:29 13.02.2021
2611 Clear 12 1014 76 10000 2.56 116 08:52 13.02.2021
2612 Clear 11 1014 76 10000 2.66 119 08:30 13.02.2021
2613 Clear 12 1013 72 10000 2.66 119 07:45 13.02.2021
2614 Clear 12 1013 72 10000 1.54 0 06:35 13.02.2021
2615 Clear 14 1013 63 10000 0.9 335 05:19 13.02.2021
2616 Clear 15 1012 48 10000 3.11 300 03:47 13.02.2021
2617 Clear 19 1011 37 10000 3.09 260 01:31 13.02.2021
2618 Clear 19 1011 34 10000 2.06 260 00:23 13.02.2021
2619 Clear 19 1011 37 10000 3.6 250 23:48 12.02.2021
2620 Clear 19 1011 37 10000 3.6 250 23:20 12.02.2021
2621 Clear 18 1011 45 10000 3.6 270 22:40 12.02.2021
2622 Clear 19 1011 45 10000 3.6 270 22:18 12.02.2021
2623 Clear 18 1012 30 10000 2.57 0 21:45 12.02.2021
2624 Clear 18 1013 42 10000 4.63 280 21:25 12.02.2021
2625 Clear 17 1013 34 10000 4.63 280 20:46 12.02.2021
2626 Clear 17 1013 34 10000 4.63 280 20:27 12.02.2021
2627 Clear 16 1014 34 10000 4.63 330 19:55 12.02.2021
2628 Clear 15 1014 34 10000 4.63 330 19:30 12.02.2021
2629 Clear 14 1013 72 10000 5.69 345 18:54 12.02.2021
2630 Clear 14 1013 72 10000 3.3 307 18:28 12.02.2021
2631 Clouds 13 1013 77 10000 3.3 307 17:43 12.02.2021
2632 Clouds 12 1013 82 10000 2.13 240 17:20 12.02.2021
2633 Clouds 12 1014 88 10000 3.01 201 16:25 12.02.2021
2634 Haze 12 1014 88 8047 3.01 201 15:46 12.02.2021
2635 Haze 12 1014 88 8047 2.84 189 15:20 12.02.2021
2636 Clouds 12 1014 82 4828 2.84 189 14:40 12.02.2021
2637 Haze 12 1014 82 6437 2.25 196 13:58 12.02.2021
2638 Haze 12 1014 72 6437 1.54 110 13:40 12.02.2021
2639 Haze 13 1014 72 8047 1.83 164 12:56 12.02.2021
2640 Haze 12 1014 72 8047 1.83 164 12:36 12.02.2021
2641 Haze 12 1015 76 8047 1.94 144 11:58 12.02.2021
2642 Haze 12 1015 76 8047 1.94 144 11:37 12.02.2021
2643 Haze 12 1015 76 8047 1.71 138 11:18 12.02.2021
2644 Haze 12 1015 76 8047 1.71 138 10:40 12.02.2021
2645 Clouds 12 1016 82 10000 1.47 163 09:48 12.02.2021
2646 Clouds 12 1015 76 10000 1.88 214 09:24 12.02.2021
2647 Clouds 12 1015 82 10000 1.88 214 08:49 12.02.2021
2648 Clouds 13 1015 82 10000 2.78 133 08:27 12.02.2021
2649 Clouds 12 1015 77 10000 2.78 133 07:53 12.02.2021
2650 Clouds 12 1015 77 10000 2.47 116 07:31 12.02.2021
2651 Clouds 12 1015 82 10000 2.9 134 06:55 12.02.2021
2652 Clouds 13 1016 77 10000 1.18 152 05:43 12.02.2021
2653 Clouds 13 1015 76 10000 1.88 233 04:22 12.02.2021
2654 Clear 16 1016 59 10000 2.57 0 01:28 12.02.2021
2655 Haze 18 1015 55 9656 2.5 216 23:40 11.02.2021
2656 Haze 18 1015 55 9656 2.52 215 23:22 11.02.2021
2657 Clear 19 1016 48 10000 2.52 215 22:46 11.02.2021
2658 Clear 19 1016 48 10000 2.54 232 22:24 11.02.2021
2659 Haze 18 1017 48 9656 2.54 232 21:54 11.02.2021
2660 Haze 18 1017 48 9656 2.54 232 21:36 11.02.2021
2661 Haze 18 1017 48 9656 1.54 221 21:18 11.02.2021
2662 Haze 18 1017 48 9656 1.54 221 21:18 11.02.2021
2663 Haze 17 1017 48 9656 1.54 221 20:41 11.02.2021
2664 Haze 17 1017 48 9656 1.26 225 20:21 11.02.2021
2665 Haze 16 1018 59 9656 1.54 270 19:47 11.02.2021
2666 Haze 15 1018 59 9656 1.54 270 19:27 11.02.2021
2667 Haze 14 1018 71 8047 1.22 259 18:49 11.02.2021
2668 Haze 13 1018 71 8047 0.82 249 18:25 11.02.2021
2669 Haze 12 1018 81 9656 0.82 249 17:51 11.02.2021
2670 Haze 11 1018 81 9656 0.42 102 17:22 11.02.2021
2671 Haze 9 1017 81 8047 0.42 102 16:53 11.02.2021
2672 Haze 9 1017 81 8047 0.36 78 16:35 11.02.2021
2673 Haze 9 1017 81 9656 0.36 78 15:59 11.02.2021
2674 Haze 9 1017 81 9656 0.36 78 15:40 11.02.2021
2675 Haze 9 1017 81 9656 0.36 78 15:40 11.02.2021
2676 Haze 9 1017 81 9656 0.29 159 15:20 11.02.2021
2677 Haze 9 1017 87 9656 0.28 159 14:40 11.02.2021
2678 Haze 9 1017 87 9656 0.88 120 14:21 11.02.2021
2679 Haze 9 1017 87 9656 0.88 120 13:38 11.02.2021
2680 Haze 9 1017 87 9656 0.36 206 13:19 11.02.2021
2681 Haze 9 1017 87 9656 0.36 206 12:44 11.02.2021
2682 Haze 9 1017 87 9656 0.21 223 12:21 11.02.2021
2683 Haze 10 1017 81 9656 0.2 223 11:42 11.02.2021
2684 Haze 10 1017 81 9656 0.71 314 11:20 11.02.2021
2685 Haze 10 1017 82 9656 0.71 314 10:44 11.02.2021
2686 Haze 10 1017 82 9656 0.75 299 10:25 11.02.2021
2687 Haze 11 1017 82 9656 0.75 299 09:45 11.02.2021
2688 Haze 11 1017 82 9656 0.75 256 09:19 11.02.2021
2689 Haze 11 1017 76 9656 0.75 256 08:50 11.02.2021
2690 Haze 11 1017 76 9656 0.65 143 08:21 11.02.2021
2691 Clear 12 1017 82 10000 0.86 102 06:52 11.02.2021
2692 Clear 12 1017 82 10000 0.86 101 06:33 11.02.2021
2693 Clear 12 1017 76 10000 1.58 268 04:55 11.02.2021
2694 Clear 14 1015 67 10000 2.06 270 02:28 11.02.2021
2695 Clear 16 1015 59 10000 1.54 0 00:47 11.02.2021
2696 Clear 16 1015 59 10000 1.54 0 00:19 11.02.2021
2697 Clouds 16 1016 55 10000 2.06 250 23:39 10.02.2021
2698 Clouds 16 1016 59 10000 3.06 232 22:52 10.02.2021
2699 Clouds 16 1016 59 10000 2.91 226 22:28 10.02.2021
2700 Clouds 16 1017 55 10000 2.91 226 21:57 10.02.2021
2701 Clouds 15 1017 55 10000 2.91 226 21:38 10.02.2021
2702 Clouds 15 1017 55 10000 2.89 231 21:19 10.02.2021
2703 Clouds 15 1018 63 10000 2.89 231 20:40 10.02.2021
2704 Clouds 15 1018 63 10000 2.34 223 20:22 10.02.2021
2705 Haze 14 1018 72 8047 2.34 223 19:45 10.02.2021
2706 Haze 14 1018 72 8047 2.26 209 19:24 10.02.2021
2707 Haze 14 1018 76 9656 2.09 195 18:40 10.02.2021
2708 Haze 13 1018 76 9656 1.24 190 18:22 10.02.2021
2709 Haze 13 1018 76 8047 1.24 190 17:51 10.02.2021
2710 Haze 11 1018 76 8047 0.31 172 17:23 10.02.2021
2711 Haze 10 1017 76 8047 0.31 172 16:53 10.02.2021
2712 Clouds 10 1017 82 10000 0.39 142 16:29 10.02.2021
2713 Clouds 10 1017 76 10000 0.39 142 15:54 10.02.2021
2714 Clouds 10 1017 76 10000 0.76 156 15:23 10.02.2021
2715 Clouds 10 1016 76 10000 0.76 156 14:47 10.02.2021
2716 Clouds 10 1016 76 10000 1.02 198 14:27 10.02.2021
2717 Clouds 10 1016 76 10000 1.02 198 13:51 10.02.2021
2718 Clouds 11 1016 76 10000 1.07 241 13:28 10.02.2021
2719 Clouds 11 1016 71 10000 0.98 236 12:48 10.02.2021
2720 Clouds 11 1016 71 10000 1.06 260 12:29 10.02.2021
2721 Clouds 11 1017 71 10000 1.06 260 11:54 10.02.2021
2722 Clouds 11 1017 71 10000 1.06 260 11:36 10.02.2021
2723 Clouds 11 1017 76 10000 1.72 248 11:18 10.02.2021
2724 Clouds 11 1017 76 10000 1.37 229 10:22 10.02.2021
2725 Clouds 11 1017 76 10000 1.37 230 09:45 10.02.2021
2726 Clouds 11 1017 76 10000 1.45 213 09:26 10.02.2021
2727 Clouds 11 1017 76 10000 1.45 213 08:51 10.02.2021
2728 Clouds 11 1017 76 10000 1.39 201 08:30 10.02.2021
2729 Clouds 12 1017 71 10000 0.99 222 07:31 10.02.2021
2730 Clouds 12 1017 71 10000 1.05 268 06:21 10.02.2021
2731 Clouds 15 1015 63 10000 3.81 215 01:21 10.02.2021
2732 Clouds 15 1015 55 10000 3.16 203 23:45 09.02.2021
2733 Clouds 15 1015 55 10000 2.19 196 23:27 09.02.2021
2734 Clouds 15 1016 55 10000 2.19 196 22:45 09.02.2021
2735 Clouds 15 1016 55 10000 1.26 166 22:23 09.02.2021
2736 Clouds 14 1017 62 10000 1.54 0 21:48 09.02.2021
2737 Clouds 14 1017 62 10000 1.54 0 21:21 09.02.2021
2738 Clouds 14 1018 62 10000 2.06 0 20:44 09.02.2021
2739 Clouds 14 1018 62 10000 1.54 0 20:25 09.02.2021
2740 Clouds 13 1018 62 10000 1.46 143 19:44 09.02.2021
2741 Clouds 13 1018 62 10000 0.8 178 19:23 09.02.2021
2742 Clouds 13 1018 62 10000 1.2 200 18:49 09.02.2021
2743 Clouds 13 1018 62 10000 0.81 180 18:30 09.02.2021
2744 Clouds 12 1018 67 10000 0.81 180 17:50 09.02.2021
2745 Clouds 12 1018 67 10000 0.81 180 17:50 09.02.2021
2746 Clouds 12 1017 67 10000 1.2 212 17:27 09.02.2021
2747 Clouds 12 1016 67 10000 1.2 212 16:54 09.02.2021
2748 Clouds 11 1016 67 10000 1.98 198 16:20 09.02.2021
2749 Clouds 11 1016 67 10000 1.98 198 15:58 09.02.2021
2750 Clouds 11 1016 67 10000 1.98 198 15:40 09.02.2021
2751 Clouds 11 1016 67 10000 0.88 167 15:21 09.02.2021
2752 Clouds 11 1015 67 10000 2.06 70 14:43 09.02.2021
2753 Clouds 11 1015 67 10000 2.06 70 14:23 09.02.2021
2754 Clouds 11 1016 67 10000 1.54 0 13:43 09.02.2021
2755 Clouds 12 1016 67 10000 1.54 0 13:20 09.02.2021
2756 Clouds 12 1016 67 10000 1.62 143 12:47 09.02.2021
2757 Clouds 11 1016 67 10000 0.61 181 12:27 09.02.2021
2758 Clouds 11 1016 67 10000 0.61 181 11:44 09.02.2021
2759 Clouds 11 1016 67 10000 2.17 217 11:22 09.02.2021
2760 Clouds 11 1017 67 10000 2.17 217 10:57 09.02.2021
2761 Clouds 12 1017 67 10000 1.41 172 10:23 09.02.2021
2762 Clouds 12 1017 71 10000 1.4 172 09:59 09.02.2021
2763 Clouds 12 1017 71 10000 1.41 172 09:40 09.02.2021
2764 Clouds 12 1017 71 10000 1.61 164 09:20 09.02.2021
2765 Clouds 12 1017 71 10000 1.54 0 08:30 09.02.2021
2766 Clouds 12 1017 71 10000 1.7 157 07:54 09.02.2021
2767 Clouds 11 1017 76 10000 1.88 152 05:40 09.02.2021
2768 Clear 12 1015 71 10000 1.54 260 03:49 09.02.2021
2769 Clear 14 1015 67 10000 1.54 250 02:26 09.02.2021
2770 Clear 17 1014 59 10000 2.06 0 00:32 09.02.2021
2771 Clear 18 1014 52 10000 3.2 178 23:54 08.02.2021
2772 Clear 18 1014 52 10000 3.35 186 23:20 08.02.2021
2773 Clear 18 1015 51 10000 2.06 0 22:43 08.02.2021
2774 Clear 17 1015 51 10000 2.06 0 22:23 08.02.2021
2775 Clear 17 1016 51 10000 2.92 168 21:53 08.02.2021
2776 Clear 17 1016 51 10000 2.92 168 21:31 08.02.2021
2777 Haze 16 1016 63 9656 2.1 163 20:59 08.02.2021
2778 Haze 16 1016 63 9656 2.1 163 20:38 08.02.2021
2779 Haze 16 1016 63 9656 2.06 187 20:19 08.02.2021
2780 Haze 15 1016 67 6437 2.06 187 19:42 08.02.2021
2781 Haze 13 1016 67 6437 1.56 184 19:22 08.02.2021
2782 Haze 12 1016 76 4828 1.56 184 18:46 08.02.2021
2783 Haze 12 1016 76 4828 1.14 186 18:19 08.02.2021
2784 Haze 10 1016 76 4828 1.14 186 17:44 08.02.2021
2785 Haze 11 1016 76 4828 0.65 197 17:24 08.02.2021
2786 Haze 11 1015 76 4828 0.65 197 16:44 08.02.2021
2787 Haze 11 1015 76 6437 0.78 137 16:21 08.02.2021
2788 Mist 11 1014 87 6437 0.78 137 15:43 08.02.2021
2789 Mist 11 1014 87 6437 0.48 127 15:20 08.02.2021
2790 Haze 11 1014 82 6437 0.48 127 14:52 08.02.2021
2791 Haze 11 1014 82 6437 0.64 136 14:32 08.02.2021
2792 Mist 11 1014 87 9656 2.06 80 13:57 08.02.2021
2793 Haze 11 1014 82 6437 0.64 136 13:33 08.02.2021
2794 Mist 11 1014 87 4828 0.77 151 12:55 08.02.2021
2795 Mist 11 1014 87 4828 0.77 151 12:37 08.02.2021
2796 Mist 10 1014 87 4023 1.03 158 11:49 08.02.2021
2797 Mist 10 1014 87 3219 1.1 160 11:22 08.02.2021
2798 Mist 10 1014 87 1207 1.1 160 10:45 08.02.2021
2799 Mist 11 1014 87 1207 1.08 154 10:24 08.02.2021
2800 Mist 11 1014 87 1207 1.54 0 09:54 08.02.2021
2801 Mist 11 1014 87 2012 1.08 154 09:36 08.02.2021
2802 Mist 11 1014 87 1207 0.91 195 08:50 08.02.2021
2803 Mist 11 1014 87 1207 1.34 165 08:21 08.02.2021
2804 Mist 11 1014 93 1207 1.34 165 07:36 08.02.2021
2805 Mist 12 1014 82 2816 1.44 167 06:30 08.02.2021
2806 Clear 14 1013 77 10000 1.54 260 03:58 08.02.2021
2807 Clear 18 1012 59 10000 2.06 250 01:51 08.02.2021
2808 Haze 21 1012 55 8047 1.54 0 00:23 08.02.2021
2809 Haze 21 1012 55 6437 2.68 217 23:52 07.02.2021
2810 Haze 21 1012 55 6437 2.32 218 23:27 07.02.2021
2811 Haze 21 1012 45 8047 2.32 218 22:55 07.02.2021
2812 Haze 21 1012 45 8047 2.32 218 22:37 07.02.2021
2813 Haze 21 1012 45 8047 2.38 201 22:19 07.02.2021
2814 Haze 20 1013 52 9656 2.38 201 21:49 07.02.2021
2815 Haze 19 1013 52 9656 2.01 180 21:22 07.02.2021
2816 Haze 19 1014 59 9656 2.01 180 20:49 07.02.2021
2817 Haze 18 1014 59 9656 1.84 156 20:27 07.02.2021
2818 Haze 17 1015 71 8047 1.84 156 19:45 07.02.2021
2819 Haze 16 1015 71 8047 1.31 143 19:27 07.02.2021
2820 Haze 14 1015 82 8047 1.32 150 18:44 07.02.2021
2821 Haze 14 1015 82 8047 0.78 143 18:26 07.02.2021
2822 Mist 12 1015 87 4828 0.78 143 17:57 07.02.2021
2823 Mist 10 1015 87 4828 0.78 143 17:38 07.02.2021
2824 Mist 9 1014 87 4023 0.5 137 17:18 07.02.2021
2825 Fog 9 1014 93 402 0.5 137 16:41 07.02.2021
2826 Fog 9 1014 93 402 0.35 109 16:20 07.02.2021
2827 Mist 8 1014 87 2816 0.35 109 15:44 07.02.2021
2828 Mist 8 1014 93 2816 1.54 0 15:21 07.02.2021
2829 Clouds 9 1014 66 10000 0.88 111 14:44 07.02.2021
2830 Clouds 9 1014 66 10000 1.1 110 14:26 07.02.2021
2831 Clear 9 1014 76 10000 1.11 110 13:50 07.02.2021
2832 Clear 9 1014 76 10000 1.49 114 13:30 07.02.2021
2833 Clear 10 1014 66 10000 1.25 120 12:42 07.02.2021
2834 Clear 10 1014 66 10000 0.99 116 12:22 07.02.2021
2835 Clear 11 1014 62 10000 1 116 11:46 07.02.2021
2836 Clear 11 1014 62 10000 1.02 115 11:26 07.02.2021
2837 Haze 11 1014 76 9656 1.02 115 10:44 07.02.2021
2838 Haze 11 1014 76 9656 1.14 129 10:23 07.02.2021
2839 Clear 12 1015 76 10000 1.14 129 09:44 07.02.2021
2840 Clear 12 1015 76 10000 1.17 128 09:21 07.02.2021
2841 Clear 12 1015 71 10000 0.82 126 08:23 07.02.2021
2842 Clear 14 1015 67 10000 0.91 169 06:34 07.02.2021
2843 Clear 14 1015 58 10000 0.77 181 05:57 07.02.2021
2844 Clear 17 1014 45 10000 1.6 258 03:50 07.02.2021
2845 Clear 23 1014 35 10000 1.54 0 01:27 07.02.2021
2846 Clear 22 1014 37 10000 2.71 242 00:35 07.02.2021
2847 Clear 22 1015 37 10000 2.19 243 23:46 06.02.2021
2848 Clear 23 1015 37 10000 2.06 0 22:41 06.02.2021
2849 Clear 23 1016 28 10000 2.32 249 21:42 06.02.2021
2850 Clear 22 1016 28 10000 1.99 248 21:22 06.02.2021
2851 Clear 21 1017 34 10000 1.99 248 20:52 06.02.2021
2852 Clear 20 1017 34 10000 1.37 246 20:25 06.02.2021
2853 Clear 19 1017 42 10000 1.54 100 19:57 06.02.2021
2854 Clear 18 1017 42 10000 1.54 100 19:32 06.02.2021
2855 Clear 16 1017 51 10000 1.54 90 18:52 06.02.2021
2856 Clear 15 1017 51 10000 1.54 90 18:32 06.02.2021
2857 Clear 13 1017 76 10000 0.74 318 17:56 06.02.2021
2858 Clear 11 1017 76 10000 0.74 318 17:38 06.02.2021
2859 Clear 11 1017 76 10000 0.59 342 17:19 06.02.2021
2860 Clear 8 1016 71 10000 0.59 342 16:41 06.02.2021
2861 Clear 9 1016 71 10000 0.47 356 16:23 06.02.2021
2862 Clear 8 1016 81 10000 0.47 356 15:48 06.02.2021
2863 Clear 8 1016 81 10000 0.86 46 15:25 06.02.2021
2864 Clear 9 1016 81 10000 0.84 46 14:46 06.02.2021
2865 Clear 9 1016 81 10000 0.94 45 14:28 06.02.2021
2866 Clear 9 1016 81 10000 0.94 45 13:53 06.02.2021
2867 Clear 9 1016 81 10000 1.17 53 13:34 06.02.2021
2868 Clear 9 1016 76 10000 0.76 15 12:23 06.02.2021
2869 Clear 10 1016 76 10000 0.76 15 11:57 06.02.2021
2870 Clear 10 1016 76 10000 0.76 15 11:38 06.02.2021
2871 Clear 10 1016 76 10000 0.55 37 11:19 06.02.2021
2872 Clear 10 1016 82 10000 0.55 37 10:44 06.02.2021
2873 Clear 10 1016 82 10000 0.51 100 10:24 06.02.2021
2874 Clear 11 1016 82 10000 0.51 100 09:37 06.02.2021
2875 Clear 11 1016 82 10000 0.69 90 09:18 06.02.2021
2876 Clear 11 1017 76 10000 0.69 90 08:52 06.02.2021
2877 Clear 12 1017 76 10000 0.33 69 08:28 06.02.2021
2878 Clear 12 1016 71 10000 0.34 116 06:41 06.02.2021
2879 Clear 13 1016 71 10000 0.79 216 05:33 06.02.2021
2880 Clear 15 1016 48 10000 2.23 241 02:43 06.02.2021
2881 Clear 19 1017 42 10000 1.54 0 00:56 06.02.2021
2882 Clear 19 1017 42 10000 1.54 0 00:37 06.02.2021
2883 Clear 20 1017 42 10000 1.54 0 00:18 06.02.2021
2884 Clear 21 1017 30 10000 1.54 250 23:29 05.02.2021
2885 Clear 20 1018 34 10000 1.54 250 22:49 05.02.2021
2886 Clear 20 1018 34 10000 1.54 250 22:25 05.02.2021
2887 Clear 20 1018 34 10000 1.54 250 22:25 05.02.2021
2888 Clear 20 1019 37 10000 1.54 240 21:56 05.02.2021
2889 Clear 19 1019 37 10000 1.54 240 21:36 05.02.2021
2890 Clear 19 1020 45 10000 2.55 247 20:56 05.02.2021
2891 Clear 19 1020 45 10000 2.53 242 20:20 05.02.2021
2892 Clear 18 1020 42 10000 2.26 240 19:45 05.02.2021
2893 Clear 17 1020 42 10000 1.8 243 19:18 05.02.2021
2894 Clear 15 1020 51 10000 1.54 260 18:40 05.02.2021
2895 Clear 15 1020 51 10000 1.54 260 18:19 05.02.2021
2896 Clear 12 1020 58 10000 0.81 281 17:38 05.02.2021
2897 Clear 12 1020 58 10000 0.83 341 17:19 05.02.2021
2898 Clear 9 1020 62 10000 0.83 341 16:43 05.02.2021
2899 Clear 9 1020 62 10000 1.07 356 16:21 05.02.2021
2900 Clear 9 1019 71 10000 1.54 10 15:50 05.02.2021
2901 Clear 9 1019 71 10000 1.54 10 15:23 05.02.2021
2902 Clear 9 1020 71 10000 1.23 17 14:39 05.02.2021
2903 Clear 9 1020 71 10000 1.12 48 14:21 05.02.2021
2904 Clear 9 1020 81 10000 1.12 48 13:52 05.02.2021
2905 Clear 9 1020 81 10000 1 71 13:32 05.02.2021
2906 Haze 9 1021 81 9656 0.81 48 12:45 05.02.2021
2907 Haze 9 1021 81 9656 0.76 81 12:24 05.02.2021
2908 Haze 9 1021 76 9656 0.76 81 11:40 05.02.2021
2909 Haze 10 1021 76 9656 0.96 64 11:21 05.02.2021
2910 Clear 10 1021 82 10000 0.96 64 10:49 05.02.2021
2911 Clear 10 1021 82 10000 1.01 56 10:26 05.02.2021
2912 Clear 11 1021 76 10000 1.02 55 09:43 05.02.2021
2913 Clear 12 1021 76 10000 0.22 54 09:25 05.02.2021
2914 Clear 12 1021 76 10000 0.28 49 08:51 05.02.2021
2915 Clear 12 1021 71 10000 0.25 203 07:53 05.02.2021
2916 Clear 12 1021 71 10000 0.52 136 07:34 05.02.2021
2917 Clear 12 1020 71 10000 0.6 137 06:48 05.02.2021
2918 Clear 12 1020 71 10000 0.59 222 05:36 05.02.2021
2919 Clear 14 1018 55 10000 2.06 260 02:52 05.02.2021
2920 Clear 15 1018 55 10000 2.06 260 02:24 05.02.2021
2921 Clear 18 1018 48 10000 3.24 251 00:39 05.02.2021
2922 Clear 18 1018 48 10000 2.92 242 00:19 05.02.2021
2923 Clear 18 1019 48 10000 2.92 242 23:55 04.02.2021
2924 Clear 18 1019 48 10000 2.92 242 23:36 04.02.2021
2925 Clear 18 1019 48 10000 2.48 237 23:18 04.02.2021
2926 Clear 18 1019 48 10000 2.48 237 22:46 04.02.2021
2927 Clear 17 1019 48 10000 1.85 246 22:25 04.02.2021
2928 Clouds 17 1020 55 10000 1.85 246 21:42 04.02.2021
2929 Clouds 16 1020 55 10000 1.64 234 21:19 04.02.2021
2930 Clouds 16 1021 55 10000 1.64 234 20:46 04.02.2021
2931 Clouds 16 1021 55 10000 1.61 218 20:28 04.02.2021
2932 Clouds 15 1021 67 10000 1.61 218 19:43 04.02.2021
2933 Clouds 13 1020 67 10000 1.87 203 18:57 04.02.2021
2934 Clouds 13 1020 67 10000 0.34 117 18:26 04.02.2021
2935 Clouds 12 1020 76 10000 1.54 0 17:53 04.02.2021
2936 Clouds 11 1020 76 10000 1.54 0 17:27 04.02.2021
2937 Clouds 12 1019 71 10000 0.61 141 16:56 04.02.2021
2938 Clouds 12 1019 71 10000 0.61 141 16:38 04.02.2021
2939 Clouds 11 1019 71 10000 0.73 101 16:18 04.02.2021
2940 Clouds 11 1019 76 10000 0.73 101 15:40 04.02.2021
2941 Clouds 11 1019 76 10000 0.85 129 15:20 04.02.2021
2942 Clouds 11 1019 76 10000 0.85 129 15:20 04.02.2021
2943 Clouds 10 1019 76 10000 0.85 129 14:48 04.02.2021
2944 Clouds 10 1019 76 10000 0.99 77 14:21 04.02.2021
2945 Clouds 10 1018 76 10000 0.99 77 13:45 04.02.2021
2946 Clouds 10 1018 76 10000 1.11 123 13:26 04.02.2021
2947 Clouds 10 1018 76 10000 1.11 176 12:54 04.02.2021
2948 Clouds 10 1018 82 10000 0.63 121 11:57 04.02.2021
2949 Clouds 10 1018 82 10000 0.63 121 11:37 04.02.2021
2950 Clouds 11 1018 82 10000 1.29 133 11:18 04.02.2021
2951 Clear 11 1018 82 10000 1.29 133 10:36 04.02.2021
2952 Clouds 11 1018 76 10000 2.05 115 09:46 04.02.2021
2953 Clouds 11 1018 76 10000 2.26 104 09:23 04.02.2021
2954 Clouds 12 1018 76 10000 2.26 104 08:59 04.02.2021
2955 Clouds 11 1018 76 10000 2.06 90 08:28 04.02.2021
2956 Clouds 12 1018 76 10000 2.06 100 07:59 04.02.2021
2957 Clear 12 1018 72 10000 1.61 104 07:35 04.02.2021
2958 Clear 13 1017 72 10000 1.86 131 06:54 04.02.2021
2959 Clear 13 1017 72 10000 1.86 131 06:35 04.02.2021
2960 Clear 14 1017 67 10000 1.54 0 03:52 04.02.2021
2961 Clear 16 1016 67 10000 2.51 224 02:24 04.02.2021
2962 Clear 18 1016 52 10000 1.54 250 00:35 04.02.2021
2963 Clear 19 1017 52 10000 2.06 250 23:39 03.02.2021
2964 Clear 19 1017 52 10000 1.54 250 22:43 03.02.2021
2965 Clear 19 1017 52 10000 1.54 250 22:22 03.02.2021
2966 Clear 19 1018 52 10000 2.42 245 21:57 03.02.2021
2967 Clear 19 1018 52 10000 2.42 245 21:36 03.02.2021
2968 Clear 18 1018 52 10000 1.75 233 21:18 03.02.2021
2969 Clear 18 1018 48 10000 1.75 233 20:43 03.02.2021
2970 Clear 18 1018 48 10000 1.39 228 20:24 03.02.2021
2971 Clear 18 1019 55 10000 1.39 228 19:43 03.02.2021
2972 Clear 17 1019 55 10000 1.42 209 19:21 03.02.2021
2973 Clear 16 1018 63 10000 1.35 176 18:48 03.02.2021
2974 Clear 15 1018 63 10000 0.43 145 18:20 03.02.2021
2975 Clear 14 1018 76 10000 0.43 145 17:52 03.02.2021
2976 Clear 13 1018 76 10000 0.26 54 17:33 03.02.2021
2977 Clear 11 1018 87 10000 0.26 54 16:57 03.02.2021
2978 Clear 9 1018 87 10000 0.26 54 16:30 03.02.2021
2979 Clouds 10 1018 87 10000 0.3 293 15:46 03.02.2021
2980 Clouds 10 1018 87 10000 0.39 234 15:26 03.02.2021
2981 Clear 10 1018 81 10000 0.39 234 14:54 03.02.2021
2982 Clear 10 1018 81 10000 0.31 250 14:30 03.02.2021
2983 Clear 10 1017 82 10000 0.31 250 13:56 03.02.2021
2984 Clear 11 1017 82 10000 0.62 7 13:29 03.02.2021
2985 Clear 11 1018 87 10000 0.62 7 12:55 03.02.2021
2986 Clear 11 1018 87 10000 0.39 35 12:36 03.02.2021
2987 Clear 11 1018 87 10000 0.7 95 12:18 03.02.2021
2988 Clear 11 1018 87 10000 0.7 95 11:38 03.02.2021
2989 Clear 11 1018 87 10000 0.61 88 11:19 03.02.2021
2990 Clear 11 1018 82 10000 0.55 60 10:27 03.02.2021
2991 Clear 12 1018 88 10000 0.55 60 09:53 03.02.2021
2992 Clear 12 1018 88 10000 0.55 60 09:34 03.02.2021
2993 Clear 13 1018 82 10000 0.85 139 08:55 03.02.2021
2994 Clear 13 1018 82 10000 0.85 139 08:37 03.02.2021
2995 Clear 13 1018 82 10000 1.03 128 07:48 03.02.2021
2996 Clear 14 1018 82 10000 0.94 132 06:42 03.02.2021
2997 Clear 14 1018 82 10000 0.94 132 06:42 03.02.2021
2998 Clear 15 1017 72 10000 1.46 194 04:55 03.02.2021
2999 Clear 15 1017 72 10000 1.46 194 04:37 03.02.2021
3000 Clear 15 1017 72 10000 1.76 209 03:49 03.02.2021
3001 Clear 16 1017 59 10000 1.74 226 02:38 03.02.2021
3002 Clear 20 1017 48 10000 2.06 260 01:24 03.02.2021
3003 Clear 21 1017 48 10000 2.57 260 00:23 03.02.2021
3004 Clear 21 1017 45 10000 1.54 0 23:42 02.02.2021
3005 Clear 20 1017 45 10000 1.54 0 23:23 02.02.2021
3006 Clear 20 1017 40 10000 1.54 250 22:43 02.02.2021
3007 Clear 20 1017 40 10000 1.54 250 22:19 02.02.2021
3008 Clear 21 1018 43 10000 3.09 234 21:44 02.02.2021
3009 Clear 21 1018 43 10000 2.54 230 21:23 02.02.2021
3010 Clear 20 1019 42 10000 2.54 230 20:49 02.02.2021
3011 Clear 20 1019 42 10000 1.33 194 20:21 02.02.2021
3012 Clear 19 1019 55 10000 1.33 194 19:51 02.02.2021
3013 Clear 19 1019 55 10000 1.33 194 19:33 02.02.2021
3014 Clouds 18 1019 63 10000 0.94 178 18:57 02.02.2021
3015 Clouds 17 1019 63 10000 0.94 178 18:38 02.02.2021
3016 Clouds 17 1019 63 10000 0.47 81 18:20 02.02.2021
3017 Clear 15 1018 76 10000 0.47 81 17:38 02.02.2021
3018 Clear 14 1018 76 10000 0.34 287 17:19 02.02.2021
3019 Clear 12 1018 82 10000 0.34 287 16:48 02.02.2021
3020 Clear 12 1018 82 10000 0.13 258 16:27 02.02.2021
3021 Clear 13 1017 76 10000 0.13 258 15:56 02.02.2021
3022 Clear 13 1017 76 10000 0.13 258 15:30 02.02.2021
3023 Clouds 13 1017 67 10000 0.11 59 14:53 02.02.2021
3024 Clouds 14 1017 67 10000 0.11 59 14:34 02.02.2021
3025 Clouds 13 1017 72 10000 0.47 169 13:59 02.02.2021
3026 Clouds 13 1017 72 10000 0.47 169 13:41 02.02.2021
3027 Clouds 14 1017 72 10000 0.54 99 13:22 02.02.2021
3028 Clouds 14 1018 67 10000 0.34 41 12:50 02.02.2021
3029 Clouds 14 1018 67 10000 0.32 87 11:56 02.02.2021
3030 Clouds 14 1018 67 10000 0.7 96 11:36 02.02.2021
3031 Clouds 14 1018 67 10000 0.7 96 11:18 02.02.2021
3032 Clouds 14 1018 72 10000 0.7 96 10:43 02.02.2021
3033 Clouds 14 1018 72 10000 0.58 91 10:25 02.02.2021
3034 Clouds 14 1018 67 10000 0.58 91 09:41 02.02.2021
3035 Clouds 14 1018 67 10000 0.95 197 09:20 02.02.2021
3036 Clouds 15 1019 67 10000 0.95 197 08:36 02.02.2021
3037 Clouds 15 1018 59 10000 0.99 190 07:46 02.02.2021
3038 Clear 14 1018 59 10000 0.71 244 06:49 02.02.2021
3039 Clear 15 1018 59 10000 1.11 255 06:31 02.02.2021
3040 Clear 15 1018 59 10000 1.11 255 06:31 02.02.2021
3041 Clear 15 1018 55 10000 1.11 255 05:50 02.02.2021
3042 Clear 16 1016 45 10000 1.25 246 03:35 02.02.2021
3043 Clear 18 1016 37 10000 1.89 244 02:24 02.02.2021
3044 Clear 20 1016 26 10000 2.02 224 00:38 02.02.2021
3045 Clear 21 1017 26 10000 2.03 225 23:55 01.02.2021
3046 Clouds 20 1017 28 10000 1.54 281 22:57 01.02.2021
3047 Clouds 21 1017 28 10000 1.54 281 22:57 01.02.2021
3048 Clouds 20 1017 28 10000 1.54 281 22:39 01.02.2021
3049 Clouds 20 1017 28 10000 0.44 259 22:19 01.02.2021
3050 Clouds 19 1018 34 10000 1.54 110 21:45 01.02.2021
3051 Clouds 18 1018 34 10000 1.54 110 21:22 01.02.2021
3052 Clouds 17 1019 39 10000 2.06 80 20:42 01.02.2021
3053 Clouds 17 1019 39 10000 2.06 80 20:24 01.02.2021
3054 Clouds 16 1020 59 10000 2.33 73 19:47 01.02.2021
3055 Clouds 16 1020 59 10000 0.17 289 19:21 01.02.2021
3056 Clouds 16 1020 59 10000 0.17 289 19:21 01.02.2021
3057 Clouds 15 1020 51 10000 1.08 276 18:55 01.02.2021
3058 Clouds 15 1020 51 10000 1.08 276 18:32 01.02.2021
3059 Clouds 15 1019 55 10000 1.52 33 17:57 01.02.2021
3060 Clouds 15 1019 55 10000 1.52 33 17:39 01.02.2021
3061 Clouds 15 1019 55 10000 1.13 346 17:18 01.02.2021
3062 Clouds 14 1018 58 10000 1.13 346 16:33 01.02.2021
3063 Clouds 15 1017 48 10000 1.01 275 15:56 01.02.2021
3064 Clouds 15 1017 48 10000 1.65 69 15:37 01.02.2021
3065 Clouds 15 1017 48 10000 1.65 69 15:19 01.02.2021
3066 Clouds 15 1017 41 10000 1.65 69 14:46 01.02.2021
3067 Clouds 14 1017 41 10000 0.69 303 14:18 01.02.2021
3068 Clouds 15 1016 39 10000 0.69 303 13:42 01.02.2021
3069 Clouds 15 1016 39 10000 1.43 13 13:22 01.02.2021
3070 Clouds 15 1016 34 10000 1.54 50 12:44 01.02.2021
3071 Clouds 15 1016 34 10000 1.54 50 12:44 01.02.2021
3072 Clouds 15 1016 34 10000 1.54 50 12:23 01.02.2021
3073 Clear 15 1017 34 10000 1.09 355 11:43 01.02.2021
3074 Clear 15 1017 34 10000 1.5 336 11:20 01.02.2021
3075 Clear 15 1018 41 10000 1.54 40 10:46 01.02.2021
3076 Clear 15 1018 41 10000 1.54 40 10:21 01.02.2021
3077 Clear 15 1018 41 10000 1.53 3 09:47 01.02.2021
3078 Clear 15 1018 41 10000 1.23 10 09:25 01.02.2021
3079 Clear 15 1019 41 10000 1.23 10 08:56 01.02.2021
3080 Clear 15 1019 41 10000 0.92 27 08:21 01.02.2021
3081 Clear 15 1019 51 10000 0.73 271 06:43 01.02.2021
3082 Clear 16 1019 48 10000 1.34 331 04:32 01.02.2021
3083 Clear 17 1018 32 10000 1.46 292 02:37 01.02.2021
3084 Clear 20 1019 21 10000 1.54 30 23:47 31.01.2021
3085 Clear 20 1019 23 10000 1.54 0 22:56 31.01.2021
3086 Clear 20 1019 23 10000 1.54 0 22:37 31.01.2021
3087 Clear 20 1019 23 10000 1.54 0 22:18 31.01.2021
3088 Clear 19 1020 24 10000 1.54 0 21:42 31.01.2021
3089 Clear 19 1020 24 10000 1.54 0 21:19 31.01.2021
3090 Clear 18 1021 34 10000 0.75 281 20:42 31.01.2021
3091 Clear 17 1021 34 10000 0.74 340 20:20 31.01.2021
3092 Clear 16 1022 39 10000 0.7 295 19:38 31.01.2021
3093 Clear 16 1022 39 10000 1.41 7 19:19 31.01.2021
3094 Clear 14 1022 44 10000 1.41 7 18:55 31.01.2021
3095 Clear 14 1022 44 10000 1.41 7 18:37 31.01.2021
3096 Clear 13 1022 44 10000 1.24 10 18:18 31.01.2021
3097 Clear 11 1022 50 10000 1.24 10 17:39 31.01.2021
3098 Clear 11 1022 50 10000 1.4 17 17:20 31.01.2021
3099 Clear 9 1022 57 10000 1.54 30 16:42 31.01.2021
3100 Clear 8 1022 57 10000 1.54 30 16:20 31.01.2021
3101 Clear 8 1021 61 10000 1.54 20 15:49 31.01.2021
3102 Clear 9 1021 61 10000 1.54 20 15:25 31.01.2021
3103 Clear 8 1021 57 10000 1.61 353 14:36 31.01.2021
3104 Clear 8 1021 57 10000 2.09 6 14:18 31.01.2021
3105 Clear 9 1021 57 10000 2.09 6 13:44 31.01.2021
3106 Clear 9 1021 57 10000 1.52 3 13:19 31.01.2021
3107 Clear 9 1021 62 10000 1.54 10 12:47 31.01.2021
3108 Clear 9 1021 62 10000 1.54 10 12:21 31.01.2021
3109 Clear 9 1022 62 10000 1.54 350 11:40 31.01.2021
3110 Clear 9 1022 62 10000 1.54 350 11:21 31.01.2021
3111 Clear 9 1022 62 10000 1.99 19 10:48 31.01.2021
3112 Clear 9 1022 62 10000 1.72 13 10:29 31.01.2021
3113 Clear 10 1022 62 10000 1.72 13 09:47 31.01.2021
3114 Clear 10 1022 81 10000 1.95 12 08:58 31.01.2021
3115 Clear 10 1022 81 10000 1.95 12 08:32 31.01.2021
3116 Clear 11 1021 76 10000 1.24 336 06:54 31.01.2021
3117 Clear 11 1021 76 10000 1.52 305 05:31 31.01.2021
3118 Clear 16 1020 36 10000 2.29 243 00:40 31.01.2021
3119 Clear 16 1020 36 10000 1.85 244 00:21 31.01.2021
3120 Clear 16 1021 39 10000 1.57 253 23:28 30.01.2021
3121 Clear 15 1022 44 10000 1.57 253 22:56 30.01.2021
3122 Clear 15 1022 44 10000 1.24 277 22:29 30.01.2021
3123 Clear 14 1023 47 10000 1.24 277 21:39 30.01.2021
3124 Clear 14 1023 47 10000 0.99 267 21:20 30.01.2021
3125 Clear 13 1023 51 10000 0.99 267 20:44 30.01.2021
3126 Clear 13 1023 51 10000 0.33 206 20:26 30.01.2021
3127 Clear 13 1023 54 10000 1.54 0 19:44 30.01.2021
3128 Clear 12 1023 54 10000 1.54 0 19:25 30.01.2021
3129 Clear 10 1023 62 10000 2.06 0 18:42 30.01.2021
3130 Clear 10 1023 62 10000 2.06 0 18:21 30.01.2021
3131 Clear 9 1022 76 10000 1.05 54 17:58 30.01.2021
3132 Clear 7 1022 76 10000 1.05 20 17:19 30.01.2021
3133 Clear 6 1021 76 10000 1.05 20 16:47 30.01.2021
3134 Clear 5 1021 76 10000 0.86 353 16:25 30.01.2021
3135 Clear 5 1020 81 10000 1.54 10 15:57 30.01.2021
3136 Clear 5 1020 81 10000 1.54 10 15:38 30.01.2021
3137 Clear 5 1020 81 10000 1.54 10 15:20 30.01.2021
3138 Clear 6 1020 81 10000 0.82 354 14:47 30.01.2021
3139 Clear 6 1020 81 10000 1.21 29 14:21 30.01.2021
3140 Clear 6 1020 81 10000 1.21 29 13:32 30.01.2021
3141 Clear 6 1020 81 10000 1.5 46 12:49 30.01.2021
3142 Clear 5 1020 81 10000 1.03 72 12:29 30.01.2021
3143 Clear 6 1020 81 10000 1.03 72 11:57 30.01.2021
3144 Clear 6 1020 81 10000 0.78 78 11:28 30.01.2021
3145 Clear 6 1020 81 10000 0.78 78 10:48 30.01.2021
3146 Clear 6 1020 87 10000 0.54 57 09:51 30.01.2021
3147 Clear 7 1020 87 10000 0.68 54 09:30 30.01.2021
3148 Clear 8 1020 81 10000 0.68 54 08:47 30.01.2021
3149 Clear 8 1019 76 10000 0.5 102 07:49 30.01.2021
3150 Clear 8 1018 81 10000 1.11 102 06:51 30.01.2021
3151 Clear 8 1017 71 10000 0.98 113 05:59 30.01.2021
3152 Clouds 10 1016 66 10000 2.06 100 03:35 30.01.2021
3153 Clouds 10 1016 66 10000 1.53 91 02:25 30.01.2021
3154 Clouds 11 1015 66 10000 1.54 100 01:30 30.01.2021
3155 Clouds 11 1015 66 10000 1.54 0 00:44 30.01.2021
3156 Clouds 11 1015 66 10000 1.54 0 00:21 30.01.2021
3157 Clouds 11 1015 66 10000 3.41 232 23:46 29.01.2021
3158 Clouds 11 1015 66 10000 3.03 210 23:24 29.01.2021
3159 Clouds 11 1015 87 10000 3.03 210 22:45 29.01.2021
3160 Rain 10 1015 87 10000 1.83 188 22:20 29.01.2021
3161 Rain 10 1015 81 4828 1.83 188 21:43 29.01.2021
3162 Clouds 10 1015 76 10000 1.54 187 21:25 29.01.2021
3163 Rain 10 1015 76 6437 1.54 187 20:42 29.01.2021
3164 Rain 10 1015 87 2414 1.1 194 20:21 29.01.2021
3165 Rain 11 1015 71 10000 1.1 194 19:39 29.01.2021
3166 Rain 11 1015 71 10000 1.27 143 19:19 29.01.2021
3167 Clouds 11 1015 76 10000 1.27 143 18:44 29.01.2021
3168 Rain 9 1014 82 4828 1.11 119 17:45 29.01.2021
3169 Clouds 9 1014 82 4023 0.91 105 17:22 29.01.2021
3170 Clouds 9 1013 81 10000 0.91 105 16:47 29.01.2021
3171 Clouds 9 1013 81 10000 0.91 126 16:24 29.01.2021
3172 Rain 9 1012 87 10000 0.9 127 15:54 29.01.2021
3173 Clouds 9 1012 87 10000 0.9 127 15:36 29.01.2021
3174 Clouds 9 1012 81 10000 1.58 129 14:57 29.01.2021
3175 Clouds 9 1012 81 10000 2.43 153 14:21 29.01.2021
3176 Rain 10 1012 82 10000 2.43 153 13:45 29.01.2021
3177 Clouds 10 1012 82 10000 2.86 138 13:26 29.01.2021
3178 Clouds 10 1012 82 10000 1.54 0 12:30 29.01.2021
3179 Clouds 10 1012 94 10000 4.63 210 11:58 29.01.2021
3180 Rain 9 1013 87 8047 3.09 180 11:40 29.01.2021
3181 Mist 10 1012 87 2816 3.58 182 11:18 29.01.2021
3182 Rain 9 1012 87 4023 1.54 0 10:41 29.01.2021
3183 Rain 9 1012 87 3219 4.63 182 10:19 29.01.2021
3184 Rain 9 1012 87 10000 2.06 0 09:37 29.01.2021
3185 Mist 9 1013 87 6437 2.06 100 08:50 29.01.2021
3186 Rain 10 1013 87 6437 2.57 80 08:26 29.01.2021
3187 Rain 10 1013 87 6437 1.27 106 07:44 29.01.2021
3188 Rain 9 1013 87 8047 1.54 30 07:23 29.01.2021
3189 Rain 9 1013 87 4828 3.13 210 06:35 29.01.2021
3190 Rain 11 1012 67 10000 3.6 130 04:42 29.01.2021
3191 Clouds 15 1013 45 10000 1.54 0 00:51 29.01.2021
3192 Clouds 16 1013 45 10000 1.54 0 00:23 29.01.2021
3193 Clouds 17 1013 29 10000 3.09 0 23:55 28.01.2021
3194 Clouds 16 1013 29 10000 3.09 0 23:36 28.01.2021
3195 Clouds 17 1013 29 10000 3.09 0 23:18 28.01.2021
3196 Clouds 17 1014 34 10000 1.54 0 22:41 28.01.2021
3197 Clouds 17 1014 34 10000 1.54 0 22:21 28.01.2021
3198 Clear 17 1015 34 10000 1.54 0 21:44 28.01.2021
3199 Clear 17 1015 34 10000 1.54 0 21:26 28.01.2021
3200 Clear 16 1016 29 10000 2.57 130 20:46 28.01.2021
3201 Clear 15 1016 29 10000 2.57 130 20:19 28.01.2021
3202 Clear 16 1016 29 10000 2.57 130 20:19 28.01.2021
3203 Clear 16 1016 29 10000 2.57 130 20:19 28.01.2021
3204 Clear 15 1016 31 10000 2.57 0 19:54 28.01.2021
3205 Clear 14 1016 31 10000 2.57 0 19:32 28.01.2021
3206 Clear 13 1016 44 10000 2.57 80 18:54 28.01.2021
3207 Clear 13 1016 44 10000 2.57 80 18:36 28.01.2021
3208 Clear 12 1016 44 10000 2.57 80 18:18 28.01.2021
3209 Clear 11 1016 62 10000 2.74 120 17:43 28.01.2021
3210 Clear 10 1016 62 10000 2.21 109 17:24 28.01.2021
3211 Clear 7 1016 71 10000 2.21 109 16:43 28.01.2021
3212 Clear 6 1016 71 10000 2.08 110 16:21 28.01.2021
3213 Clear 7 1016 66 10000 2.08 110 15:38 28.01.2021
3214 Clear 7 1016 76 10000 1.69 115 14:58 28.01.2021
3215 Clear 7 1016 76 10000 1.69 115 14:39 28.01.2021
3216 Clear 7 1016 76 10000 1.69 115 14:39 28.01.2021
3217 Clear 7 1016 76 10000 1.29 116 14:20 28.01.2021
3218 Clear 8 1016 76 10000 1.29 116 13:43 28.01.2021
3219 Clear 8 1017 76 10000 1.51 125 12:52 28.01.2021
3220 Clear 8 1017 76 10000 1.55 113 12:33 28.01.2021
3221 Clear 9 1017 76 10000 1.87 111 11:59 28.01.2021
3222 Clear 8 1017 76 10000 1.87 111 11:40 28.01.2021
3223 Clear 9 1017 76 10000 1 111 11:19 28.01.2021
3224 Clear 8 1017 71 10000 1 111 10:50 28.01.2021
3225 Clear 8 1017 71 10000 1.89 118 10:27 28.01.2021
3226 Clear 9 1018 71 10000 1.54 90 09:44 28.01.2021
3227 Clear 9 1018 71 10000 1.54 90 09:22 28.01.2021
3228 Clear 10 1018 66 10000 2.33 110 08:54 28.01.2021
3229 Clear 10 1018 66 10000 2.35 118 08:18 28.01.2021
3230 Clear 10 1018 66 10000 2.06 100 07:44 28.01.2021
3231 Clear 10 1018 62 10000 1.54 0 06:49 28.01.2021
3232 Clear 10 1018 62 10000 1.54 120 05:56 28.01.2021
3233 Clear 11 1018 58 10000 2.61 152 03:52 28.01.2021
3234 Clear 13 1018 51 10000 4.12 160 01:38 28.01.2021
3235 Clouds 14 1019 44 10000 1.54 0 23:48 27.01.2021
3236 Clouds 14 1019 44 10000 1.54 0 23:23 27.01.2021
3237 Clouds 14 1020 47 10000 3.09 0 22:42 27.01.2021
3238 Clouds 14 1020 47 10000 3.09 0 22:22 27.01.2021
3239 Clouds 13 1021 44 10000 3.09 0 21:43 27.01.2021
3240 Clouds 13 1021 44 10000 3.09 0 21:23 27.01.2021
3241 Clouds 12 1022 50 10000 2.57 0 20:52 27.01.2021
3242 Clouds 12 1022 50 10000 2.57 0 20:24 27.01.2021
3243 Clouds 12 1023 47 10000 3.6 90 19:50 27.01.2021
3244 Clouds 11 1023 47 10000 3.6 90 19:23 27.01.2021
3245 Clouds 10 1022 47 10000 2.57 90 18:46 27.01.2021
3246 Clouds 10 1022 47 10000 2.57 90 18:26 27.01.2021
3247 Clouds 10 1022 46 10000 2.57 100 17:56 27.01.2021
3248 Clouds 9 1022 46 10000 2.57 100 17:38 27.01.2021
3249 Clouds 9 1022 50 10000 2.06 0 16:58 27.01.2021
3250 Clouds 9 1022 50 10000 2.06 0 16:39 27.01.2021
3251 Clouds 8 1022 50 10000 2.06 0 16:21 27.01.2021
3252 Clouds 8 1021 50 10000 2.06 90 15:49 27.01.2021
3253 Clouds 8 1021 50 10000 2.06 90 15:29 27.01.2021
3254 Clouds 8 1021 50 10000 2.06 100 14:39 27.01.2021
3255 Clouds 8 1021 50 10000 2.06 100 14:19 27.01.2021
3256 Clouds 8 1021 50 10000 2.06 100 13:40 27.01.2021
3257 Clouds 8 1021 53 10000 2.57 100 12:46 27.01.2021
3258 Clouds 8 1021 53 10000 2.57 100 12:25 27.01.2021
3259 Clouds 8 1022 53 10000 2.06 0 11:52 27.01.2021
3260 Clouds 8 1022 53 10000 2.06 0 11:26 27.01.2021
3261 Clouds 8 1021 53 10000 1.54 100 10:51 27.01.2021
3262 Clouds 8 1021 53 10000 1.54 100 10:26 27.01.2021
3263 Clouds 8 1021 53 10000 2.06 90 09:56 27.01.2021
3264 Clouds 8 1021 53 10000 2.06 90 09:29 27.01.2021
3265 Clouds 8 1021 53 10000 2.06 100 08:47 27.01.2021
3266 Clear 8 1020 50 10000 1.54 90 07:58 27.01.2021
3267 Clear 8 1020 50 10000 1.54 90 07:39 27.01.2021
3268 Clear 7 1020 43 10000 1.54 90 06:47 27.01.2021
3269 Clouds 8 1019 43 10000 1.54 0 05:56 27.01.2021
3270 Clouds 8 1019 43 10000 1.54 0 05:35 27.01.2021
3271 Clear 10 1018 37 10000 2.73 191 02:46 27.01.2021
3272 Clear 10 1018 37 10000 3.49 202 02:21 27.01.2021
3273 Clear 12 1017 33 10000 3.49 202 01:46 27.01.2021
3274 Clear 12 1017 30 10000 3.41 220 00:30 27.01.2021
3275 Clear 12 1016 24 10000 3.42 220 23:40 26.01.2021
3276 Clear 12 1016 24 10000 2.65 224 23:22 26.01.2021
3277 Clear 13 1016 30 10000 1.54 0 22:44 26.01.2021
3278 Clear 12 1016 30 10000 1.54 0 22:20 26.01.2021
3279 Clear 12 1017 28 10000 2.17 240 21:53 26.01.2021
3280 Clear 12 1017 28 10000 2.01 261 21:26 26.01.2021
3281 Clear 12 1017 28 10000 2.06 0 20:56 26.01.2021
3282 Clear 11 1017 28 10000 2.06 0 20:36 26.01.2021
3283 Clear 11 1017 28 10000 2.06 0 20:18 26.01.2021
3284 Clear 10 1016 32 10000 2.06 0 19:42 26.01.2021
3285 Clear 10 1016 32 10000 2.06 0 19:19 26.01.2021
3286 Clear 9 1015 40 10000 1.54 0 18:43 26.01.2021
3287 Clear 8 1015 40 10000 1.54 0 18:23 26.01.2021
3288 Clear 8 1015 40 10000 1.54 0 18:23 26.01.2021
3289 Clear 7 1014 53 10000 2.8 339 17:48 26.01.2021
3290 Clear 6 1014 53 10000 2.17 349 17:25 26.01.2021
3291 Clear 5 1013 60 10000 2.17 349 16:53 26.01.2021
3292 Clear 4 1013 60 10000 2.08 333 16:22 26.01.2021
3293 Clear 4 1012 60 10000 2.08 333 15:57 26.01.2021
3294 Clear 4 1012 60 10000 2.08 333 15:38 26.01.2021
3295 Clear 5 1012 60 10000 2.05 334 15:18 26.01.2021
3296 Clear 4 1011 56 10000 2.05 334 14:35 26.01.2021
3297 Clear 4 1011 56 10000 2.28 327 13:59 26.01.2021
3298 Clear 5 1011 56 10000 2.49 323 13:30 26.01.2021
3299 Clear 5 1010 61 10000 2.49 323 12:56 26.01.2021
3300 Clear 4 1010 61 10000 2.5 324 12:37 26.01.2021
3301 Clear 5 1010 61 10000 2.86 314 12:19 26.01.2021
3302 Clear 5 1009 65 10000 1.54 260 11:49 26.01.2021
3303 Clear 5 1009 65 10000 1.54 260 11:19 26.01.2021
3304 Clear 5 1009 70 10000 3.28 312 10:34 26.01.2021
3305 Clear 5 1009 70 10000 3.59 306 09:57 26.01.2021
3306 Clear 5 1009 70 10000 3.59 306 09:39 26.01.2021
3307 Clear 5 1009 70 10000 3.36 312 09:21 26.01.2021
3308 Clear 6 1009 61 10000 3.34 312 08:44 26.01.2021
3309 Clear 6 1008 61 10000 3.6 308 07:56 26.01.2021
3310 Clear 6 1008 61 10000 3.81 304 07:19 26.01.2021
3311 Clouds 6 1006 68 10000 4.3 301 05:51 26.01.2021
3312 Clear 7 1007 49 10000 4.3 301 05:32 26.01.2021
3313 Clear 8 1007 43 10000 1.54 0 03:32 26.01.2021
3314 Clouds 11 1005 35 10000 4.12 270 00:59 26.01.2021
3315 Clouds 11 1005 35 10000 4.12 270 00:26 26.01.2021
3316 Clouds 12 1005 41 10000 4.63 260 23:33 25.01.2021
3317 Clouds 12 1006 41 10000 3.09 250 22:50 25.01.2021
3318 Clouds 12 1006 41 10000 3.09 250 22:29 25.01.2021
3319 Clouds 11 1007 35 10000 3.09 270 21:46 25.01.2021
3320 Clouds 11 1007 35 10000 3.09 270 21:20 25.01.2021
3321 Clouds 11 1008 47 10000 3.09 260 20:44 25.01.2021
3322 Clouds 11 1008 47 10000 3.09 260 20:24 25.01.2021
3323 Clear 10 1009 43 10000 3.09 270 19:48 25.01.2021
3324 Clear 10 1009 43 10000 3.09 270 19:24 25.01.2021
3325 Clear 10 1009 62 10000 5.77 287 18:47 25.01.2021
3326 Clear 9 1009 62 10000 5.42 300 18:25 25.01.2021
3327 Clear 8 1008 76 10000 5.42 300 17:49 25.01.2021
3328 Clear 8 1008 76 10000 5.02 310 17:26 25.01.2021
3329 Clouds 7 1008 81 10000 5.02 310 16:57 25.01.2021
3330 Clouds 7 1008 81 10000 5.02 310 16:39 25.01.2021
3331 Clouds 6 1008 81 10000 4.28 312 16:20 25.01.2021
3332 Clouds 7 1007 81 10000 4.28 312 15:41 25.01.2021
3333 Clouds 7 1007 81 10000 4.02 306 15:22 25.01.2021
3334 Clouds 8 1006 93 10000 4.02 306 14:39 25.01.2021
3335 Clouds 8 1006 93 10000 4.02 306 14:39 25.01.2021
3336 Clouds 7 1006 93 10000 2.01 263 14:18 25.01.2021
3337 Clouds 8 1007 87 10000 2.01 263 13:45 25.01.2021
3338 Clouds 8 1007 87 10000 1.89 242 13:25 25.01.2021
3339 Mist 8 1007 87 8047 1.54 40 12:45 25.01.2021
3340 Rain 8 1007 87 8047 1.54 40 12:19 25.01.2021
3341 Rain 8 1008 87 2414 3.76 275 11:47 25.01.2021
3342 Rain 9 1008 81 10000 1.54 255 11:18 25.01.2021
3343 Clouds 9 1009 81 10000 1.54 255 10:39 25.01.2021
3344 Clouds 9 1009 81 10000 2.01 252 10:18 25.01.2021
3345 Clouds 9 1010 87 10000 2.01 252 09:42 25.01.2021
3346 Mist 9 1010 87 8047 2.77 237 09:23 25.01.2021
3347 Clouds 10 1011 71 10000 1.54 0 08:27 25.01.2021
3348 Clouds 10 1012 66 10000 3.09 270 07:31 25.01.2021
3349 Clouds 10 1012 62 10000 2.06 260 06:53 25.01.2021
3350 Clouds 11 1012 62 10000 3.74 231 03:46 25.01.2021
3351 Clear 13 1012 51 10000 2.06 260 01:30 25.01.2021
3352 Clear 13 1012 51 10000 2.06 260 01:30 25.01.2021
3353 Clear 14 1012 44 10000 4.38 204 23:41 24.01.2021
3354 Clear 14 1012 44 10000 3.43 204 23:19 24.01.2021
3355 Clear 14 1012 51 10000 3.43 204 22:42 24.01.2021
3356 Clear 14 1012 51 10000 2.56 195 22:21 24.01.2021
3357 Clear 13 1013 54 10000 1.54 0 21:48 24.01.2021
3358 Clear 13 1013 54 10000 1.54 0 21:24 24.01.2021
3359 Clear 12 1015 62 10000 1.54 80 20:45 24.01.2021
3360 Clear 11 1015 62 10000 1.54 80 20:22 24.01.2021
3361 Clear 11 1014 71 10000 2.57 90 19:53 24.01.2021
3362 Clear 11 1014 71 10000 2.57 90 19:27 24.01.2021
3363 Clear 10 1014 81 10000 1.54 100 18:58 24.01.2021
3364 Clear 9 1014 81 10000 1.54 100 18:39 24.01.2021
3365 Clear 9 1014 81 10000 1.54 100 18:20 24.01.2021
3366 Clear 7 1014 87 10000 0.76 166 17:50 24.01.2021
3367 Clear 7 1014 87 10000 0.12 260 17:29 24.01.2021
3368 Clear 6 1013 87 10000 0.12 260 16:58 24.01.2021
3369 Clear 6 1013 87 10000 0.12 260 16:39 24.01.2021
3370 Clear 5 1013 87 10000 0.52 262 16:19 24.01.2021
3371 Mist 5 1012 87 9656 0.52 262 15:43 24.01.2021
3372 Mist 5 1012 87 9656 0.71 245 15:19 24.01.2021
3373 Mist 5 1012 87 8047 0.73 244 14:43 24.01.2021
3374 Mist 5 1012 87 8047 0.64 256 13:48 24.01.2021
3375 Mist 5 1012 87 8047 0.64 256 13:30 24.01.2021
3376 Mist 6 1012 93 6437 0.73 291 12:50 24.01.2021
3377 Mist 6 1012 93 6437 0.9 276 12:21 24.01.2021
3378 Clear 6 1013 87 10000 0.9 276 11:54 24.01.2021
3379 Clear 6 1013 87 10000 0.97 268 11:25 24.01.2021
3380 Clouds 6 1012 87 10000 0.97 268 10:54 24.01.2021
3381 Clouds 7 1012 87 10000 0.36 297 10:30 24.01.2021
3382 Clouds 7 1012 87 10000 0.36 299 10:30 24.01.2021
3383 Clouds 7 1012 81 10000 0.36 297 09:46 24.01.2021
3384 Clouds 7 1012 81 10000 0.94 37 09:19 24.01.2021
3385 Clouds 8 1013 87 10000 1.36 23 08:31 24.01.2021
3386 Rain 8 1012 81 10000 1.54 10 03:48 24.01.2021
3387 Rain 10 1012 87 4023 2.06 0 02:18 24.01.2021
3388 Clouds 11 1011 58 10000 1.59 162 00:39 24.01.2021
3389 Clouds 11 1011 58 10000 2.48 177 00:19 24.01.2021
3390 Clouds 11 1011 62 10000 2.48 177 23:33 23.01.2021
3391 Clouds 11 1012 71 10000 1.54 0 22:59 23.01.2021
3392 Clouds 11 1012 71 10000 1.54 0 22:40 23.01.2021
3393 Clouds 11 1013 71 10000 1.54 130 21:59 23.01.2021
3394 Clouds 11 1013 71 10000 1.54 130 21:23 23.01.2021
3395 Clouds 10 1014 82 10000 2.94 107 20:55 23.01.2021
3396 Clouds 11 1014 82 10000 2.94 107 20:37 23.01.2021
3397 Rain 10 1014 82 10000 2.5 114 20:19 23.01.2021
3398 Rain 10 1014 71 10000 2.5 114 19:43 23.01.2021
3399 Rain 10 1014 71 10000 1.51 239 19:20 23.01.2021
3400 Clouds 10 1013 76 10000 1.54 0 18:42 23.01.2021
3401 Clouds 10 1013 76 10000 1.54 0 18:21 23.01.2021
3402 Clouds 10 1013 76 10000 1.4 216 17:43 23.01.2021
3403 Clouds 9 1013 76 10000 1.16 187 17:24 23.01.2021
3404 Clouds 9 1013 76 10000 1.54 120 16:45 23.01.2021
3405 Clouds 9 1013 71 10000 0.55 188 15:58 23.01.2021
3406 Clouds 8 1013 71 10000 0.72 201 15:30 23.01.2021
3407 Clear 8 1013 81 10000 0.72 201 14:46 23.01.2021
3408 Clear 8 1013 81 10000 0.24 334 14:25 23.01.2021
3409 Clouds 8 1013 76 10000 0.24 334 13:50 23.01.2021
3410 Clouds 8 1013 76 10000 0.85 274 13:26 23.01.2021
3411 Clouds 8 1014 71 10000 0.85 274 12:46 23.01.2021
3412 Clouds 9 1014 71 10000 1.7 259 12:25 23.01.2021
3413 Clouds 9 1014 66 10000 1.7 259 11:44 23.01.2021
3414 Clouds 9 1014 66 10000 2.08 270 11:18 23.01.2021
3415 Clouds 9 1014 71 10000 3.02 266 10:27 23.01.2021
3416 Clouds 9 1014 71 10000 3.02 266 09:54 23.01.2021
3417 Clouds 9 1014 71 10000 3.12 265 09:29 23.01.2021
3418 Clouds 9 1014 76 10000 3.12 265 08:45 23.01.2021
3419 Clear 10 1014 71 10000 3.43 252 07:50 23.01.2021
3420 Clear 11 1014 71 10000 3.22 246 06:59 23.01.2021
3421 Clouds 12 1014 62 10000 1.54 270 03:35 23.01.2021
3422 Clouds 14 1013 55 10000 1.54 240 00:34 23.01.2021
3423 Clouds 14 1013 59 10000 2.57 0 23:36 22.01.2021
3424 Clouds 15 1014 59 10000 5.61 224 22:45 22.01.2021
3425 Clouds 16 1014 59 10000 5.11 206 22:22 22.01.2021
3426 Clouds 16 1014 59 10000 5.11 206 21:45 22.01.2021
3427 Clouds 16 1014 59 10000 4.94 185 21:26 22.01.2021
3428 Clouds 16 1016 59 10000 2.06 120 20:55 22.01.2021
3429 Clouds 16 1016 59 10000 2.06 120 20:33 22.01.2021
3430 Clouds 15 1016 63 10000 2.06 0 19:48 22.01.2021
3431 Clouds 15 1017 63 10000 2.57 100 19:21 22.01.2021
3432 Clouds 14 1017 67 10000 2.06 0 18:55 22.01.2021
3433 Clouds 14 1017 67 10000 1.54 80 18:28 22.01.2021
3434 Clouds 13 1017 72 10000 2.06 100 17:58 22.01.2021
3435 Clouds 13 1017 72 10000 2.06 100 17:39 22.01.2021
3436 Clouds 12 1016 67 10000 2.06 100 16:59 22.01.2021
3437 Clouds 12 1016 67 10000 2.06 100 16:36 22.01.2021
3438 Clouds 12 1016 72 10000 2.06 100 15:55 22.01.2021
3439 Clouds 12 1016 72 10000 2.06 90 15:26 22.01.2021
3440 Clouds 12 1016 76 10000 2.06 80 14:50 22.01.2021
3441 Clouds 12 1016 76 10000 2.06 80 14:28 22.01.2021
3442 Clouds 12 1016 67 10000 2.85 120 13:46 22.01.2021
3443 Clouds 12 1016 67 10000 2.36 125 13:27 22.01.2021
3444 Clouds 11 1017 71 10000 3.32 129 12:44 22.01.2021
3445 Clouds 11 1017 76 10000 3.5 126 12:20 22.01.2021
3446 Clear 11 1017 76 10000 3.5 126 11:45 22.01.2021
3447 Clear 11 1017 76 10000 3.28 132 10:51 22.01.2021
3448 Clear 11 1017 76 10000 2.88 135 10:29 22.01.2021
3449 Clear 12 1017 71 10000 2.86 135 09:55 22.01.2021
3450 Clear 11 1017 71 10000 3.01 133 09:21 22.01.2021
3451 Clear 12 1017 67 10000 3.01 133 08:50 22.01.2021
3452 Clear 12 1017 67 10000 3.09 130 08:25 22.01.2021
3453 Clear 13 1017 67 10000 2.52 133 07:31 22.01.2021
3454 Clear 16 1016 42 10000 2.25 210 02:46 22.01.2021
3455 Clear 19 1015 37 10000 1.54 250 00:39 22.01.2021
3456 Clear 20 1016 37 10000 2.06 250 23:51 21.01.2021
3457 Clear 20 1016 37 10000 2.06 250 23:29 21.01.2021
3458 Clear 21 1016 32 10000 2.06 0 22:51 21.01.2021
3459 Clear 21 1016 32 10000 2.06 0 22:30 21.01.2021
3460 Clear 20 1017 35 10000 2.06 250 21:43 21.01.2021
3461 Clear 20 1017 35 10000 2.06 250 21:20 21.01.2021
3462 Haze 20 1017 35 9656 2.06 130 20:48 21.01.2021
3463 Haze 20 1017 35 9656 2.06 130 20:29 21.01.2021
3464 Clear 19 1018 37 10000 1.73 165 19:52 21.01.2021
3465 Clear 19 1018 37 10000 1.37 146 19:30 21.01.2021
3466 Clear 18 1017 39 10000 1.37 146 18:59 21.01.2021
3467 Clear 17 1017 39 10000 1.36 147 18:40 21.01.2021
3468 Clear 17 1017 39 10000 1.56 98 18:20 21.01.2021
3469 Clear 15 1017 51 10000 1.55 98 17:51 21.01.2021
3470 Clear 14 1017 51 10000 1.45 49 17:20 21.01.2021
3471 Clear 12 1017 54 10000 1.45 49 16:49 21.01.2021
3472 Clear 13 1017 54 10000 1.77 54 16:27 21.01.2021
3473 Clear 13 1017 54 10000 1.77 54 15:59 21.01.2021
3474 Clear 13 1017 54 10000 1.77 54 15:35 21.01.2021
3475 Clear 12 1016 58 10000 1.54 47 14:54 21.01.2021
3476 Clear 12 1016 58 10000 1.54 47 14:35 21.01.2021
3477 Clear 12 1016 58 10000 1.3 52 13:52 21.01.2021
3478 Clear 12 1016 58 10000 1.83 13 13:33 21.01.2021
3479 Clear 13 1016 54 10000 1.83 13 12:58 21.01.2021
3480 Clear 13 1016 54 10000 1.83 13 12:39 21.01.2021
3481 Clear 13 1016 54 10000 2.42 352 12:21 21.01.2021
3482 Clear 13 1016 44 10000 2.42 352 11:49 21.01.2021
3483 Clear 13 1016 44 10000 2.16 5 11:27 21.01.2021
3484 Clear 14 1015 51 10000 2.16 5 10:51 21.01.2021
3485 Clear 14 1015 51 10000 2.16 5 10:31 21.01.2021
3486 Clear 14 1016 54 10000 2.02 24 09:44 21.01.2021
3487 Clear 14 1016 54 10000 2.16 17 09:25 21.01.2021
3488 Clear 15 1016 44 10000 2.16 17 08:45 21.01.2021
3489 Clear 14 1016 44 10000 1.8 20 08:24 21.01.2021
3490 Clear 15 1016 44 10000 1.83 6 07:28 21.01.2021
3491 Clear 15 1015 42 10000 1.83 5 06:54 21.01.2021
3492 Clear 16 1015 39 10000 0.52 65 05:22 21.01.2021
3493 Clear 20 1013 25 10000 2.06 90 02:58 21.01.2021
3494 Clear 24 1012 25 10000 1.54 250 00:57 21.01.2021
3495 Clear 24 1012 23 10000 1.24 26 23:56 20.01.2021
3496 Clear 24 1012 23 10000 1.24 26 23:33 20.01.2021
3497 Clear 24 1013 27 10000 2.14 23 22:59 20.01.2021
3498 Clear 24 1013 27 10000 2.14 23 22:41 20.01.2021
3499 Clear 23 1013 27 10000 2.71 30 22:21 20.01.2021
3500 Clear 23 1014 25 10000 2.7 30 21:41 20.01.2021
3501 Clear 23 1014 25 10000 3.07 17 21:21 20.01.2021
3502 Clear 23 1015 25 10000 1.54 10 20:49 20.01.2021
3503 Clear 22 1015 25 10000 1.54 10 20:19 20.01.2021
3504 Clear 21 1016 28 10000 1.54 0 19:45 20.01.2021
3505 Clear 20 1016 28 10000 1.54 0 19:26 20.01.2021
3506 Clear 19 1015 34 10000 2.58 4 18:42 20.01.2021
3507 Clear 19 1015 34 10000 2.58 4 18:42 20.01.2021
3508 Clear 18 1015 34 10000 2.9 10 18:18 20.01.2021
3509 Clear 15 1015 47 10000 2.9 10 17:42 20.01.2021
3510 Clear 14 1015 47 10000 2.59 33 17:23 20.01.2021
3511 Clear 14 1014 44 10000 2.56 34 16:44 20.01.2021
3512 Clear 15 1014 41 10000 3.18 14 15:55 20.01.2021
3513 Clear 15 1014 41 10000 3.18 14 15:36 20.01.2021
3514 Clear 14 1014 47 10000 3.46 17 14:51 20.01.2021
3515 Clear 13 1014 47 10000 2.92 26 14:28 20.01.2021
3516 Clear 14 1013 50 10000 2.92 26 13:59 20.01.2021
3517 Clear 14 1013 50 10000 2.92 26 13:36 20.01.2021
3518 Clear 15 1013 47 10000 2.61 24 12:54 20.01.2021
3519 Clear 15 1013 47 10000 3.69 6 12:22 20.01.2021
3520 Clear 15 1013 47 10000 3.69 6 11:39 20.01.2021
3521 Clear 15 1013 47 10000 3.69 6 11:39 20.01.2021
3522 Clear 15 1013 47 10000 3.16 16 11:19 20.01.2021
3523 Clear 15 1012 44 10000 3.16 16 10:45 20.01.2021
3524 Clear 16 1012 44 10000 3.06 23 10:22 20.01.2021
3525 Clouds 16 1012 38 10000 3.06 23 09:38 20.01.2021
3526 Clouds 16 1012 38 10000 3.41 28 09:18 20.01.2021
3527 Clouds 16 1012 39 10000 3.41 28 08:41 20.01.2021
3528 Clouds 16 1012 39 10000 3.68 52 08:20 20.01.2021
3529 Clouds 16 1012 36 10000 3.18 51 07:37 20.01.2021
3530 Clouds 16 1012 32 10000 3.18 51 06:59 20.01.2021
3531 Clouds 17 1009 20 10000 1.54 0 03:37 20.01.2021
3532 Clouds 19 1009 13 10000 5.66 70 01:51 20.01.2021
3533 Clear 19 1008 13 10000 5.66 80 00:58 20.01.2021
3534 Clear 21 1007 13 10000 4.63 70 23:54 19.01.2021
3535 Clear 20 1007 13 10000 4.63 70 23:34 19.01.2021
3536 Clear 20 1007 13 10000 4.63 70 23:34 19.01.2021
3537 Clear 19 1007 32 10000 5.22 35 22:58 19.01.2021
3538 Clear 19 1007 32 10000 5.23 35 22:40 19.01.2021
3539 Clear 19 1007 32 10000 3.8 59 22:21 19.01.2021
3540 Clear 18 1007 39 10000 3.8 59 21:55 19.01.2021
3541 Clear 18 1007 39 10000 3.8 59 21:34 19.01.2021
3542 Clear 17 1008 48 10000 1.54 340 20:50 19.01.2021
3543 Clear 17 1008 48 10000 1.54 340 20:29 19.01.2021
3544 Clear 16 1008 59 10000 4.33 39 19:56 19.01.2021
3545 Clear 15 1008 59 10000 4.33 39 19:37 19.01.2021
3546 Clear 15 1008 59 10000 3.69 22 19:18 19.01.2021
3547 Clear 13 1007 67 10000 3.64 37 18:39 19.01.2021
3548 Clear 13 1007 67 10000 3.4 20 18:20 19.01.2021
3549 Clouds 12 1007 71 10000 2.06 10 17:42 19.01.2021
3550 Clouds 12 1007 71 10000 2.65 32 17:20 19.01.2021
3551 Clouds 11 1006 71 10000 1.54 0 16:40 19.01.2021
3552 Clouds 11 1006 71 10000 1.54 0 16:21 19.01.2021
3553 Clouds 11 1006 71 10000 2.36 16 15:51 19.01.2021
3554 Clouds 11 1006 71 10000 1.19 41 15:32 19.01.2021
3555 Clouds 12 1006 71 10000 1.54 0 14:47 19.01.2021
3556 Clouds 12 1006 71 10000 1.54 0 14:26 19.01.2021
3557 Clouds 12 1006 71 10000 1.54 100 13:52 19.01.2021
3558 Clouds 13 1006 71 10000 1.54 100 13:24 19.01.2021
3559 Clouds 13 1007 71 10000 2.06 0 12:55 19.01.2021
3560 Clouds 13 1007 71 10000 2.06 0 12:30 19.01.2021
3561 Clouds 12 1007 72 10000 2.45 102 11:54 19.01.2021
3562 Clouds 13 1007 72 10000 2.45 102 11:30 19.01.2021
3563 Clouds 13 1007 72 10000 1.76 118 10:59 19.01.2021
3564 Clouds 12 1007 76 10000 3.09 90 10:40 19.01.2021
3565 Clouds 13 1007 76 10000 3.09 90 10:18 19.01.2021
3566 Clouds 13 1007 72 10000 2.06 0 09:46 19.01.2021
3567 Clouds 13 1007 72 10000 2.06 0 09:46 19.01.2021
3568 Clouds 13 1007 72 10000 2.06 0 09:20 19.01.2021
3569 Haze 13 1007 82 6437 1.54 0 08:34 19.01.2021
3570 Haze 13 1008 82 6437 2.06 0 07:53 19.01.2021
3571 Haze 13 1008 82 6437 2.06 0 07:18 19.01.2021
3572 Haze 16 1008 82 8047 0.49 186 04:48 19.01.2021
3573 Clear 20 1007 40 10000 1.93 271 02:23 19.01.2021
3574 Clear 24 1007 17 10000 2.75 261 00:41 19.01.2021
3575 Clear 25 1007 14 10000 2.43 234 23:57 18.01.2021
3576 Clear 25 1007 14 10000 1.86 230 23:28 18.01.2021
3577 Clear 25 1008 17 10000 1.86 230 22:44 18.01.2021
3578 Clear 24 1008 17 10000 1.25 245 22:23 18.01.2021
3579 Clear 24 1009 16 10000 1.25 245 21:47 18.01.2021
3580 Clear 23 1009 16 10000 0.82 229 21:23 18.01.2021
3581 Clear 23 1011 21 10000 0.82 229 20:57 18.01.2021
3582 Clear 23 1011 21 10000 0.82 229 20:34 18.01.2021
3583 Clear 22 1011 23 10000 0.63 199 19:54 18.01.2021
3584 Clear 21 1011 23 10000 0.63 199 19:35 18.01.2021
3585 Clear 19 1011 36 10000 0.52 306 18:53 18.01.2021
3586 Clear 18 1011 36 10000 0.52 306 18:33 18.01.2021
3587 Clear 15 1011 44 10000 0.9 70 17:52 18.01.2021
3588 Clear 14 1011 44 10000 0.9 70 17:32 18.01.2021
3589 Clear 11 1010 47 10000 1.24 74 16:55 18.01.2021
3590 Clear 12 1010 47 10000 1.49 71 16:35 18.01.2021
3591 Clear 12 1011 50 10000 1.49 72 15:58 18.01.2021
3592 Clear 12 1011 50 10000 1.49 72 15:40 18.01.2021
3593 Clear 12 1011 50 10000 1.3 85 15:19 18.01.2021
3594 Clear 12 1011 58 10000 1.3 85 14:42 18.01.2021
3595 Clear 12 1011 58 10000 1.12 87 14:24 18.01.2021
3596 Clear 13 1011 51 10000 1.11 86 13:45 18.01.2021
3597 Clear 13 1011 51 10000 0.77 72 13:24 18.01.2021
3598 Clear 13 1012 47 10000 0.77 72 12:49 18.01.2021
3599 Clear 13 1012 47 10000 1.01 101 12:19 18.01.2021
3600 Clear 14 1012 39 10000 1.54 100 11:48 18.01.2021
3601 Clear 13 1013 58 10000 0.74 119 11:27 18.01.2021
3602 Clear 14 1013 54 10000 0.74 119 10:53 18.01.2021
3603 Clear 14 1013 54 10000 0.23 128 10:35 18.01.2021
3604 Clear 16 1013 34 10000 0.23 130 09:43 18.01.2021
3605 Clear 15 1013 34 10000 0.16 181 09:19 18.01.2021
3606 Clear 15 1013 41 10000 0.16 181 08:48 18.01.2021
3607 Clear 16 1014 39 10000 0.35 212 07:55 18.01.2021
3608 Clear 16 1014 39 10000 1.07 174 07:21 18.01.2021
3609 Clear 18 1013 30 10000 0.32 302 04:58 18.01.2021
3610 Clear 20 1013 30 10000 0.9 320 04:31 18.01.2021
3611 Clear 20 1013 21 10000 0.91 319 03:59 18.01.2021
3612 Clear 20 1013 21 10000 0.91 319 03:39 18.01.2021
3613 Clear 21 1013 21 10000 1.46 293 03:19 18.01.2021
3614 Clear 22 1013 16 10000 2.06 0 02:37 18.01.2021
3615 Clear 28 1013 15 10000 1.54 270 00:46 18.01.2021
3616 Clear 28 1013 15 10000 1.54 270 00:27 18.01.2021
3617 Clear 28 1014 10 10000 1.35 187 23:46 17.01.2021
3618 Clear 28 1014 10 10000 1.08 159 23:20 17.01.2021
3619 Clear 28 1014 11 10000 1.08 159 22:39 17.01.2021
3620 Clear 28 1014 11 10000 0.63 150 22:20 17.01.2021
3621 Clear 28 1015 13 10000 0.63 150 21:40 17.01.2021
3622 Clear 28 1015 13 10000 0.31 316 21:22 17.01.2021
3623 Clear 27 1017 13 10000 0.31 316 20:48 17.01.2021
3624 Clear 26 1017 13 10000 0.98 317 20:28 17.01.2021
3625 Clear 25 1017 18 10000 0.98 317 19:42 17.01.2021
3626 Clear 24 1017 18 10000 0.61 4 19:23 17.01.2021
3627 Clear 22 1017 26 10000 0.61 4 18:44 17.01.2021
3628 Clear 22 1017 26 10000 1.22 3 18:26 17.01.2021
3629 Clear 18 1017 36 10000 1.24 4 17:48 17.01.2021
3630 Clear 17 1017 36 10000 1.57 15 17:26 17.01.2021
3631 Clear 15 1016 54 10000 1.57 15 16:44 17.01.2021
3632 Clear 15 1016 54 10000 1.71 22 16:24 17.01.2021
3633 Clear 14 1016 47 10000 1.7 22 15:43 17.01.2021
3634 Clear 14 1016 47 10000 1.75 18 15:25 17.01.2021
3635 Clear 16 1015 47 10000 1.75 18 14:49 17.01.2021
3636 Clear 16 1015 47 10000 1.74 12 14:26 17.01.2021
3637 Clear 15 1015 50 10000 1.74 12 13:47 17.01.2021
3638 Clear 15 1015 50 10000 1.65 22 13:29 17.01.2021
3639 Clear 15 1015 47 10000 1.41 27 12:55 17.01.2021
3640 Clear 16 1015 47 10000 1.66 11 12:32 17.01.2021
3641 Clear 17 1015 51 10000 1.66 11 11:59 17.01.2021
3642 Clear 17 1015 51 10000 1.78 15 11:24 17.01.2021
3643 Clear 17 1015 41 10000 1.78 15 10:49 17.01.2021
3644 Clear 17 1015 41 10000 1.7 16 10:21 17.01.2021
3645 Clear 17 1015 41 10000 1.69 16 09:44 17.01.2021
3646 Clear 18 1015 44 10000 1.62 24 08:46 17.01.2021
3647 Clear 17 1015 42 10000 1.5 20 07:46 17.01.2021
3648 Clear 21 1014 34 10000 0.47 86 04:29 17.01.2021
3649 Clear 22 1013 27 10000 0.17 163 02:49 17.01.2021
3650 Clear 27 1013 12 10000 1.03 235 00:52 17.01.2021
3651 Clear 28 1013 12 10000 0.91 194 00:20 17.01.2021
3652 Clear 30 1013 12 10000 0.91 194 23:52 16.01.2021
3653 Clear 30 1013 12 10000 0.75 150 23:20 16.01.2021
3654 Clear 29 1013 13 10000 0.75 150 22:49 16.01.2021
3655 Clear 29 1013 13 10000 0.99 114 22:18 16.01.2021
3656 Clear 28 1014 12 10000 0.99 114 21:43 16.01.2021
3657 Clear 28 1014 12 10000 0.62 111 21:22 16.01.2021
3658 Clear 27 1015 14 10000 1.54 90 20:47 16.01.2021
3659 Clear 26 1015 14 10000 1.54 90 20:23 16.01.2021
3660 Clear 25 1016 17 10000 0.26 344 19:48 16.01.2021
3661 Clear 24 1016 17 10000 0.83 125 19:29 16.01.2021
3662 Clear 22 1015 30 10000 0.48 141 18:46 16.01.2021
3663 Clear 21 1015 30 10000 0.65 57 18:27 16.01.2021
3664 Clear 18 1015 41 10000 0.65 57 17:50 16.01.2021
3665 Clear 17 1015 41 10000 0.65 57 17:30 16.01.2021
3666 Clear 14 1015 38 10000 1.07 21 16:51 16.01.2021
3667 Clear 14 1015 38 10000 1.2 27 16:33 16.01.2021
3668 Clear 14 1015 38 10000 1.2 27 15:56 16.01.2021
3669 Clear 14 1015 38 10000 1.2 27 15:37 16.01.2021
3670 Clear 14 1015 44 10000 1.06 28 14:33 16.01.2021
3671 Clear 17 1015 33 10000 1.08 28 13:53 16.01.2021
3672 Clear 17 1015 33 10000 1.16 39 13:31 16.01.2021
3673 Clear 17 1015 38 10000 0.94 69 12:48 16.01.2021
3674 Clear 17 1015 38 10000 1.04 39 12:27 16.01.2021
3675 Clear 16 1015 27 10000 1.04 39 11:55 16.01.2021
3676 Clear 16 1015 27 10000 0.95 44 11:27 16.01.2021
3677 Clear 17 1015 25 10000 0.95 44 10:59 16.01.2021
3678 Clear 18 1015 25 10000 0.95 44 10:41 16.01.2021
3679 Clear 17 1015 34 10000 1.37 26 09:54 16.01.2021
3680 Clear 17 1015 34 10000 1.08 27 09:20 16.01.2021
3681 Clear 18 1016 34 10000 1.26 38 08:19 16.01.2021
3682 Clear 19 1016 32 10000 0.93 44 06:52 16.01.2021
3683 Clear 20 1016 32 10000 0.69 42 05:32 16.01.2021
3684 Clear 22 1016 18 10000 0.39 308 03:38 16.01.2021
3685 Clear 23 1016 16 10000 0.44 248 02:47 16.01.2021
3686 Clear 29 1017 11 10000 2.29 243 00:47 16.01.2021
3687 Clear 30 1017 11 10000 2.15 233 00:23 16.01.2021
3688 Clear 30 1017 11 10000 2.15 233 23:39 15.01.2021
3689 Clear 30 1018 12 10000 1.64 249 22:42 15.01.2021
3690 Clear 29 1018 12 10000 1.63 282 22:21 15.01.2021
3691 Clear 29 1019 13 10000 1.63 282 21:44 15.01.2021
3692 Clear 28 1020 17 10000 1.16 289 20:49 15.01.2021
3693 Clear 27 1020 17 10000 0.45 304 20:24 15.01.2021
3694 Clear 26 1021 27 10000 0.45 304 19:58 15.01.2021
3695 Clear 26 1021 27 10000 0.45 304 19:39 15.01.2021
3696 Clear 24 1021 27 10000 0.94 18 19:21 15.01.2021
3697 Clear 23 1021 32 10000 1.02 32 18:42 15.01.2021
3698 Clear 21 1021 32 10000 1.9 19 18:18 15.01.2021
3699 Clear 18 1021 38 10000 1.88 19 17:42 15.01.2021
3700 Clear 18 1021 38 10000 2.29 5 17:22 15.01.2021
3701 Clear 16 1021 54 10000 2.29 5 16:49 15.01.2021
3702 Clear 16 1021 54 10000 2.52 357 16:24 15.01.2021
3703 Clear 15 1020 54 10000 2.52 357 15:41 15.01.2021
3704 Clear 16 1020 54 10000 2.2 7 15:22 15.01.2021
3705 Clear 16 1020 54 10000 2.2 7 14:50 15.01.2021
3706 Clear 17 1020 54 10000 1.94 13 14:27 15.01.2021
3707 Clear 17 1020 58 10000 1.94 13 13:44 15.01.2021
3708 Clear 17 1020 58 10000 1.98 12 13:23 15.01.2021
3709 Clear 17 1021 54 10000 2.26 12 12:59 15.01.2021
3710 Clear 17 1021 54 10000 2.26 12 12:36 15.01.2021
3711 Clear 17 1021 54 10000 1.64 12 12:18 15.01.2021
3712 Clear 17 1021 54 10000 1.64 12 11:41 15.01.2021
3713 Clear 18 1021 51 10000 1.8 8 10:58 15.01.2021
3714 Clear 18 1021 51 10000 1.8 8 10:39 15.01.2021
3715 Clear 18 1021 51 10000 1.87 357 10:19 15.01.2021
3716 Clear 17 1021 54 10000 1.87 357 09:47 15.01.2021
3717 Clear 17 1021 54 10000 2.12 8 09:27 15.01.2021
3718 Clear 18 1021 51 10000 2.19 11 08:27 15.01.2021
3719 Clear 19 1022 51 10000 2.19 11 07:42 15.01.2021
3720 Clear 18 1022 51 10000 2.1 22 07:21 15.01.2021
3721 Clear 19 1021 42 10000 2.15 13 05:56 15.01.2021
3722 Clear 23 1019 25 10000 0.33 272 02:26 15.01.2021
3723 Clear 25 1019 22 10000 1.54 260 00:37 15.01.2021
3724 Clear 28 1019 22 10000 1.46 246 23:30 14.01.2021
3725 Clear 29 1019 17 10000 1.54 0 22:52 14.01.2021
3726 Clear 28 1019 17 10000 1.54 0 22:28 14.01.2021
3727 Clear 27 1020 19 10000 0.67 233 21:58 14.01.2021
3728 Clear 27 1020 19 10000 0.67 233 21:39 14.01.2021
3729 Clear 27 1020 19 10000 1.03 296 21:20 14.01.2021
3730 Clear 26 1021 22 10000 1.03 296 20:43 14.01.2021
3731 Clear 24 1022 28 10000 1.65 321 19:59 14.01.2021
3732 Clear 23 1022 28 10000 1.65 321 19:38 14.01.2021
3733 Clear 24 1022 28 10000 1.4 338 19:18 14.01.2021
3734 Clear 20 1021 42 10000 1.4 338 18:44 14.01.2021
3735 Clear 18 1021 50 10000 1.82 11 17:59 14.01.2021
3736 Clear 18 1021 50 10000 1.82 11 17:59 14.01.2021
3737 Clear 15 1021 50 10000 1.82 11 17:38 14.01.2021
3738 Clear 16 1021 50 10000 2.09 24 17:19 14.01.2021
3739 Clear 13 1020 54 10000 2.09 24 16:37 14.01.2021
3740 Clear 12 1020 58 10000 2.2 16 15:55 14.01.2021
3741 Clear 13 1020 58 10000 2.2 16 15:37 14.01.2021
3742 Clear 13 1020 62 10000 1.92 13 14:50 14.01.2021
3743 Clear 13 1020 62 10000 2.04 10 14:31 14.01.2021
3744 Clear 13 1020 62 10000 2.04 10 13:57 14.01.2021
3745 Clear 13 1020 62 10000 2.04 10 13:57 14.01.2021
3746 Clear 13 1020 62 10000 2.04 10 13:39 14.01.2021
3747 Clear 12 1020 62 10000 2.38 358 13:18 14.01.2021
3748 Clear 12 1020 66 10000 2.38 359 12:38 14.01.2021
3749 Clear 12 1020 66 10000 1.9 358 12:18 14.01.2021
3750 Clear 13 1020 71 10000 1.9 358 11:41 14.01.2021
3751 Clear 13 1020 71 10000 1.4 12 11:20 14.01.2021
3752 Clear 13 1021 66 10000 1.4 12 10:49 14.01.2021
3753 Clear 13 1021 66 10000 1.31 25 10:22 14.01.2021
3754 Clear 14 1021 67 10000 1.31 25 09:44 14.01.2021
3755 Clear 14 1021 67 10000 1.48 17 09:22 14.01.2021
3756 Clear 13 1021 67 10000 1.48 17 08:48 14.01.2021
3757 Clear 13 1021 67 10000 1.16 19 08:22 14.01.2021
3758 Clear 14 1021 67 10000 1.16 19 07:45 14.01.2021
3759 Clear 15 1021 62 10000 1.08 23 06:46 14.01.2021
3760 Clear 15 1021 58 10000 0.75 339 05:45 14.01.2021
3761 Clear 22 1021 23 10000 2.06 0 00:44 14.01.2021
3762 Clear 23 1021 15 10000 2.18 246 23:54 13.01.2021
3763 Clear 23 1021 15 10000 1.54 246 23:22 13.01.2021
3764 Clear 23 1021 14 10000 1.54 0 22:29 13.01.2021
3765 Clear 22 1022 16 10000 0.71 248 21:57 13.01.2021
3766 Clear 22 1022 16 10000 0.7 248 21:38 13.01.2021
3767 Clear 21 1023 17 10000 0.43 330 20:59 13.01.2021
3768 Clear 21 1023 17 10000 0.43 330 20:37 13.01.2021
3769 Clear 20 1023 17 10000 0.54 72 20:18 13.01.2021
3770 Clear 20 1024 22 10000 0.54 72 19:42 13.01.2021
3771 Clear 20 1024 22 10000 0.83 13 19:20 13.01.2021
3772 Clear 17 1024 31 10000 1.24 341 18:41 13.01.2021
3773 Clear 14 1024 33 10000 1.54 10 17:51 13.01.2021
3774 Clear 13 1024 33 10000 1.54 10 17:26 13.01.2021
3775 Clear 11 1024 57 10000 1.59 357 16:59 13.01.2021
3776 Clear 10 1024 57 10000 1.62 2 16:22 13.01.2021
3777 Clear 10 1024 57 10000 1.62 2 16:22 13.01.2021
3778 Clear 10 1023 57 10000 1.62 2 15:59 13.01.2021
3779 Clear 10 1023 57 10000 1.62 2 15:39 13.01.2021
3780 Clear 9 1023 53 10000 1.54 15 14:52 13.01.2021
3781 Clear 10 1023 53 10000 1.73 25 14:18 13.01.2021
3782 Clear 10 1023 46 10000 1.73 25 13:37 13.01.2021
3783 Clear 10 1023 46 10000 1.74 10 13:18 13.01.2021
3784 Clear 10 1024 57 10000 1.54 40 12:43 13.01.2021
3785 Clear 10 1024 57 10000 1.54 40 12:22 13.01.2021
3786 Clear 10 1024 71 10000 1.39 36 11:47 13.01.2021
3787 Clear 10 1024 71 10000 1.45 59 11:26 13.01.2021
3788 Clear 11 1025 66 10000 1.45 59 10:46 13.01.2021
3789 Clear 11 1025 66 10000 1.34 66 10:25 13.01.2021
3790 Clear 11 1025 71 10000 1.34 66 09:40 13.01.2021
3791 Clear 12 1025 66 10000 1.01 52 08:57 13.01.2021
3792 Clear 12 1025 66 10000 1.01 52 08:34 13.01.2021
3793 Clear 12 1024 66 10000 0.44 22 07:57 13.01.2021
3794 Clear 12 1024 66 10000 0.58 327 07:27 13.01.2021
3795 Clear 13 1024 54 10000 0.81 297 05:27 13.01.2021
3796 Clear 14 1024 44 10000 1.8 292 04:18 13.01.2021
3797 Clear 15 1023 33 10000 1.8 292 03:41 13.01.2021
3798 Clear 15 1023 33 10000 1.61 261 03:19 13.01.2021
3799 Clear 19 1023 30 10000 1.54 250 00:44 13.01.2021
3800 Clear 20 1023 17 10000 1.8 243 23:40 12.01.2021
3801 Clear 21 1023 16 10000 1.15 216 22:57 12.01.2021
3802 Clear 21 1023 16 10000 1.15 216 22:36 12.01.2021
3803 Clear 21 1023 16 10000 0.99 193 22:18 12.01.2021
3804 Clear 21 1024 14 10000 0.99 193 21:42 12.01.2021
3805 Clear 21 1024 14 10000 0.69 211 21:23 12.01.2021
3806 Clear 20 1025 18 10000 1.54 0 20:46 12.01.2021
3807 Clear 19 1025 18 10000 1.54 0 20:26 12.01.2021
3808 Clear 19 1025 18 10000 1.54 0 20:26 12.01.2021
3809 Clear 18 1025 18 10000 0.72 150 19:43 12.01.2021
3810 Clear 17 1025 20 10000 2.57 60 18:57 12.01.2021
3811 Clear 16 1025 20 10000 2.57 60 18:38 12.01.2021
3812 Clear 16 1025 20 10000 2.57 60 18:20 12.01.2021
3813 Clear 12 1024 43 10000 0.47 80 17:34 12.01.2021
3814 Clear 9 1024 46 10000 0.91 32 16:54 12.01.2021
3815 Clear 10 1024 46 10000 0.91 32 16:36 12.01.2021
3816 Clear 10 1024 46 10000 0.9 23 16:18 12.01.2021
3817 Clear 10 1023 37 10000 0.83 49 15:29 12.01.2021
3818 Clear 11 1023 35 10000 1.54 30 14:57 12.01.2021
3819 Clear 10 1023 35 10000 1.54 30 14:39 12.01.2021
3820 Clear 10 1023 35 10000 1.54 30 14:18 12.01.2021
3821 Clear 10 1023 35 10000 1.54 20 13:45 12.01.2021
3822 Clear 11 1023 40 10000 1.67 65 12:39 12.01.2021
3823 Clear 11 1023 35 10000 1.06 45 11:55 12.01.2021
3824 Clear 11 1023 35 10000 1.33 27 11:36 12.01.2021
3825 Clear 11 1023 35 10000 1.54 20 10:45 12.01.2021
3826 Clear 12 1023 35 10000 1.54 20 10:20 12.01.2021
3827 Clear 11 1022 54 10000 1.3 25 09:55 12.01.2021
3828 Clear 11 1022 54 10000 1.3 35 09:24 12.01.2021
3829 Clear 12 1022 43 10000 1.3 35 08:42 12.01.2021
3830 Clear 12 1022 43 10000 1.18 38 08:21 12.01.2021
3831 Clear 12 1023 67 10000 1.18 38 07:34 12.01.2021
3832 Clear 13 1022 58 10000 0.54 352 06:22 12.01.2021
3833 Clear 13 1022 51 10000 0.54 352 05:30 12.01.2021
3834 Clear 15 1021 31 10000 2.83 290 03:26 12.01.2021
3835 Clear 17 1021 22 10000 2.13 261 02:18 12.01.2021
3836 Clear 20 1020 18 10000 2.18 256 01:27 12.01.2021
3837 Clear 22 1020 15 10000 1.54 0 23:51 11.01.2021
3838 Clear 22 1020 15 10000 1.54 0 23:23 11.01.2021
3839 Clear 22 1020 18 10000 0.76 216 22:58 11.01.2021
3840 Clear 22 1020 18 10000 0.76 216 22:39 11.01.2021
3841 Clear 22 1020 18 10000 0.47 104 22:18 11.01.2021
3842 Clear 21 1021 17 10000 0.47 104 21:37 11.01.2021
3843 Clear 20 1021 17 10000 1.07 98 21:18 11.01.2021
3844 Clear 20 1022 19 10000 0.35 110 20:41 11.01.2021
3845 Clear 19 1022 19 10000 1.09 82 20:23 11.01.2021
3846 Clear 19 1023 27 10000 1.09 82 19:55 11.01.2021
3847 Clear 18 1023 27 10000 1.02 32 19:25 11.01.2021
3848 Clear 15 1022 29 10000 1.02 32 18:45 11.01.2021
3849 Clear 15 1022 29 10000 1.34 6 18:26 11.01.2021
3850 Clear 12 1022 57 10000 1.34 6 17:54 11.01.2021
3851 Clear 11 1022 57 10000 1.34 6 17:36 11.01.2021
3852 Clear 11 1022 57 10000 1.34 6 17:36 11.01.2021
3853 Clear 11 1022 57 10000 1.69 19 17:18 11.01.2021
3854 Clear 9 1021 53 10000 1.69 19 16:39 11.01.2021
3855 Clear 9 1021 53 10000 1.75 20 16:20 11.01.2021
3856 Clear 10 1021 53 10000 1.75 20 15:47 11.01.2021
3857 Clear 10 1021 53 10000 1.95 357 15:26 11.01.2021
3858 Clear 9 1021 53 10000 1.95 357 14:40 11.01.2021
3859 Clear 10 1021 49 10000 2.13 356 13:58 11.01.2021
3860 Clear 9 1021 49 10000 2.13 356 13:38 11.01.2021
3861 Clear 9 1021 49 10000 2.23 350 13:18 11.01.2021
3862 Clear 10 1021 57 10000 2.12 349 12:36 11.01.2021
3863 Clear 10 1021 53 10000 1.81 19 11:57 11.01.2021
3864 Clear 10 1021 53 10000 1.81 19 11:36 11.01.2021
3865 Clear 10 1021 46 10000 2.1 32 10:53 11.01.2021
3866 Clear 10 1021 46 10000 1.54 39 10:27 11.01.2021
3867 Clear 10 1021 54 10000 1.54 39 09:45 11.01.2021
3868 Clear 10 1021 54 10000 1.44 58 09:24 11.01.2021
3869 Clear 11 1022 66 10000 1.44 58 08:47 11.01.2021
3870 Clear 11 1022 66 10000 1.09 75 08:21 11.01.2021
3871 Clear 11 1022 71 10000 1.09 75 07:40 11.01.2021
3872 Clear 12 1022 71 10000 0.54 36 07:19 11.01.2021
3873 Clear 12 1022 66 10000 0.54 36 06:46 11.01.2021
3874 Clear 18 1020 22 10000 2.06 260 01:53 11.01.2021
3875 Clear 20 1020 16 10000 2.57 260 00:40 11.01.2021
3876 Clear 21 1020 16 10000 2.89 245 23:46 10.01.2021
3877 Clear 21 1021 17 10000 2.04 235 22:49 10.01.2021
3878 Clear 20 1021 17 10000 1.63 227 22:28 10.01.2021
3879 Clear 20 1021 17 10000 1.63 227 21:57 10.01.2021
3880 Clear 20 1021 17 10000 1.63 227 21:37 10.01.2021
3881 Clear 20 1021 17 10000 0.95 213 21:18 10.01.2021
3882 Clear 20 1021 17 10000 0.95 213 21:18 10.01.2021
3883 Clear 20 1022 19 10000 0.95 213 20:44 10.01.2021
3884 Clear 19 1022 19 10000 1.04 274 20:26 10.01.2021
3885 Clear 18 1023 19 10000 1.54 30 19:38 10.01.2021
3886 Clear 18 1023 19 10000 1.54 30 19:20 10.01.2021
3887 Clear 17 1023 27 10000 1.07 306 18:44 10.01.2021
3888 Clear 16 1023 27 10000 0.67 19 18:20 10.01.2021
3889 Clear 12 1022 32 10000 1.54 20 17:26 10.01.2021
3890 Clear 10 1021 46 10000 1.29 9 16:50 10.01.2021
3891 Clear 10 1021 46 10000 1.55 8 16:30 10.01.2021
3892 Clear 10 1020 37 10000 1.55 8 15:41 10.01.2021
3893 Clear 10 1020 37 10000 1.53 15 15:22 10.01.2021
3894 Clear 10 1020 40 10000 1.53 15 14:41 10.01.2021
3895 Clear 10 1020 40 10000 1.55 23 14:22 10.01.2021
3896 Clear 11 1020 35 10000 1.54 40 13:46 10.01.2021
3897 Clear 10 1020 35 10000 1.54 40 13:27 10.01.2021
3898 Clear 11 1020 28 10000 1.54 20 12:59 10.01.2021
3899 Clear 11 1020 28 10000 1.54 20 12:40 10.01.2021
3900 Clear 12 1020 40 10000 1.63 21 11:57 10.01.2021
3901 Clear 12 1020 40 10000 1.96 8 11:21 10.01.2021
3902 Clear 13 1020 37 10000 1.96 8 10:52 10.01.2021
3903 Clear 11 1020 37 10000 1.83 6 10:24 10.01.2021
3904 Clear 12 1020 50 10000 1.83 6 09:46 10.01.2021
3905 Clear 12 1020 50 10000 1.83 6 09:46 10.01.2021
3906 Clear 13 1019 47 10000 1.7 12 08:50 10.01.2021
3907 Clear 13 1019 47 10000 1.93 28 08:18 10.01.2021
3908 Clear 13 1019 47 10000 2.12 23 07:27 10.01.2021
3909 Clear 14 1019 44 10000 1.54 100 06:18 10.01.2021
3910 Clear 14 1018 47 10000 2.21 14 05:34 10.01.2021
3911 Clear 17 1017 24 10000 1.51 314 02:42 10.01.2021
3912 Clear 22 1016 21 10000 1.84 267 00:38 10.01.2021
3913 Clear 22 1016 25 10000 1.54 250 23:42 09.01.2021
3914 Clear 22 1016 25 10000 1.54 250 23:23 09.01.2021
3915 Clear 21 1017 24 10000 0.9 284 22:44 09.01.2021
3916 Clear 21 1017 24 10000 0.87 288 22:18 09.01.2021
3917 Clear 20 1018 30 10000 0.87 288 21:41 09.01.2021
3918 Clear 20 1018 30 10000 0.38 4 21:23 09.01.2021
3919 Clear 20 1019 36 10000 0.38 4 20:59 09.01.2021
3920 Clear 19 1019 36 10000 0.38 4 20:38 09.01.2021
3921 Clear 17 1019 55 10000 1.54 0 19:44 09.01.2021
3922 Clear 16 1019 55 10000 1.54 0 19:22 09.01.2021
3923 Clear 15 1019 58 10000 2.57 0 18:39 09.01.2021
3924 Clear 14 1019 58 10000 2.57 0 18:20 09.01.2021
3925 Clear 12 1018 66 10000 1.26 35 17:46 09.01.2021
3926 Clear 12 1018 66 10000 1.91 34 17:27 09.01.2021
3927 Clear 11 1017 62 10000 2.06 90 16:33 09.01.2021
3928 Clear 10 1017 62 10000 2.06 90 15:52 09.01.2021
3929 Clear 10 1017 62 10000 2.06 90 15:32 09.01.2021
3930 Clear 11 1017 62 10000 1.62 43 14:41 09.01.2021
3931 Clear 11 1017 62 10000 0.84 359 14:20 09.01.2021
3932 Haze 11 1017 76 8047 0.84 359 13:49 09.01.2021
3933 Haze 12 1017 76 8047 1.01 2 13:30 09.01.2021
3934 Clear 13 1017 62 10000 1.01 2 12:49 09.01.2021
3935 Clear 12 1017 62 10000 1.77 332 12:24 09.01.2021
3936 Haze 14 1018 71 9656 2.06 120 11:56 09.01.2021
3937 Haze 15 1018 71 9656 2.06 120 11:30 09.01.2021
3938 Haze 15 1018 76 6437 2.06 100 10:52 09.01.2021
3939 Haze 15 1018 76 6437 2.06 100 10:33 09.01.2021
3940 Clear 16 1017 39 10000 2.37 342 09:53 09.01.2021
3941 Clear 17 1017 39 10000 2.63 349 09:29 09.01.2021
3942 Clear 16 1018 39 10000 2.63 349 08:47 09.01.2021
3943 Clear 16 1018 32 10000 2.57 0 07:38 09.01.2021
3944 Clear 16 1018 32 10000 2.57 0 07:38 09.01.2021
3945 Clear 17 1019 44 10000 1.54 0 06:40 09.01.2021
3946 Clear 17 1018 67 10000 2.17 340 04:53 09.01.2021
3947 Haze 15 1018 76 9656 0.79 73 03:25 09.01.2021
3948 Haze 14 1018 72 8047 0.79 73 02:38 09.01.2021
3949 Haze 15 1018 72 8047 0.95 219 02:19 09.01.2021
3950 Clear 20 1017 48 10000 3.22 252 00:46 09.01.2021
3951 Clear 20 1017 48 10000 3.21 250 00:22 09.01.2021
3952 Haze 21 1018 48 9656 1.54 270 23:30 08.01.2021
3953 Clear 21 1018 45 10000 1.69 239 22:38 08.01.2021
3954 Clear 20 1019 45 10000 0.55 216 21:46 08.01.2021
3955 Clear 20 1020 45 10000 1.54 100 20:58 08.01.2021
3956 Clear 19 1020 45 10000 1.54 100 20:33 08.01.2021
3957 Clear 18 1021 47 10000 1.54 90 19:57 08.01.2021
3958 Clear 17 1021 47 10000 1.54 90 19:24 08.01.2021
3959 Clear 15 1021 58 10000 0.27 101 18:53 08.01.2021
3960 Clear 14 1021 58 10000 0.27 101 18:31 08.01.2021
3961 Clear 9 1021 71 10000 0.77 63 17:50 08.01.2021
3962 Clear 9 1021 71 10000 1.03 76 17:24 08.01.2021
3963 Haze 8 1020 87 9656 1.03 76 16:47 08.01.2021
3964 Haze 8 1020 81 9656 0.23 75 15:48 08.01.2021
3965 Haze 9 1020 81 9656 0.25 2 15:27 08.01.2021
3966 Clear 10 1019 76 10000 0.24 2 14:37 08.01.2021
3967 Clear 10 1019 66 10000 0.52 85 13:48 08.01.2021
3968 Clear 10 1019 66 10000 0.72 68 13:21 08.01.2021
3969 Clear 10 1019 87 10000 0.72 68 12:51 08.01.2021
3970 Clear 10 1019 87 10000 0.6 334 12:22 08.01.2021
3971 Clear 10 1019 87 10000 0.6 334 11:48 08.01.2021
3972 Clear 10 1019 87 10000 0.54 38 11:29 08.01.2021
3973 Mist 10 1018 87 9656 0.54 38 10:56 08.01.2021
3974 Mist 10 1018 87 9656 0.54 38 10:38 08.01.2021
3975 Mist 10 1019 82 8047 0.52 37 09:53 08.01.2021
3976 Mist 10 1019 82 8047 0.52 37 09:34 08.01.2021
3977 Mist 11 1019 82 9656 0.57 335 08:41 08.01.2021
3978 Clear 11 1018 87 10000 0.51 133 07:29 08.01.2021
3979 Mist 12 1018 82 9656 0.19 76 06:43 08.01.2021
3980 Clear 21 1017 23 10000 2.06 250 00:35 08.01.2021
3981 Clear 22 1017 23 10000 1.84 240 23:42 07.01.2021
3982 Clear 22 1018 48 10000 2.06 280 22:51 07.01.2021
3983 Clear 21 1018 48 10000 2.06 280 22:33 07.01.2021
3984 Clear 22 1018 24 10000 1.54 0 21:50 07.01.2021
3985 Clear 21 1018 24 10000 1.54 0 21:30 07.01.2021
3986 Clear 20 1019 39 10000 1.2 285 20:52 07.01.2021
3987 Clear 19 1019 39 10000 0.26 309 20:34 07.01.2021
3988 Clear 18 1020 44 10000 0.26 307 19:47 07.01.2021
3989 Clear 17 1020 44 10000 0.84 343 19:24 07.01.2021
3990 Clear 16 1020 62 10000 0.84 343 18:47 07.01.2021
3991 Clear 14 1020 62 10000 1.29 2 18:20 07.01.2021
3992 Clear 9 1020 76 10000 1.29 2 17:35 07.01.2021
3993 Clear 7 1019 76 10000 1.5 30 16:57 07.01.2021
3994 Clear 7 1019 76 10000 1.5 30 16:32 07.01.2021
3995 Clear 7 1018 76 10000 1.27 41 15:57 07.01.2021
3996 Clear 7 1018 76 10000 1.18 16 15:31 07.01.2021
3997 Clear 7 1018 76 10000 1.18 16 15:31 07.01.2021
3998 Clear 8 1018 81 10000 1.18 16 14:34 07.01.2021
3999 Clear 9 1023 20 1200 1.15 356 13:59 07.01.2021
4000 Clear 9 1023 20 1200 1.15 356 13:31 07.01.2021
4001 Mist 10 1019 100 3219 1.13 8 12:57 07.01.2021
4002 Clear 9 1019 81 10000 1 358 12:29 07.01.2021
4003 Clear 9 1019 81 10000 0.99 358 11:51 07.01.2021
4004 Clear 9 1019 81 10000 0.73 82 11:30 07.01.2021
4005 Clear 9 1019 87 10000 0.73 82 10:47 07.01.2021
4006 Clear 10 1019 81 10000 1.15 84 10:19 07.01.2021
4007 Clear 10 1019 81 10000 1.15 84 09:44 07.01.2021
4008 Clear 10 1019 81 10000 0.57 85 09:18 07.01.2021
4009 Clear 11 1019 81 10000 0.73 86 08:26 07.01.2021
4010 Clear 12 1019 81 10000 0.73 86 07:45 07.01.2021
4011 Clear 13 1019 76 10000 0.37 110 06:59 07.01.2021
4012 Clear 15 1019 72 10000 0.38 162 04:22 07.01.2021
4013 Clear 21 1018 28 10000 2.63 236 00:28 07.01.2021
4014 Clear 22 1018 30 10000 1.5 250 23:38 06.01.2021
4015 Clear 21 1018 35 10000 2.4 246 22:37 06.01.2021
4016 Clear 21 1019 37 10000 2.1 260 21:44 06.01.2021
4017 Clear 21 1019 37 10000 2.1 260 21:23 06.01.2021
4018 Clear 20 1020 48 10000 2.08 243 20:53 06.01.2021
4019 Clear 19 1021 48 10000 0.98 233 20:24 06.01.2021
4020 Clear 18 1021 48 10000 0.98 233 19:59 06.01.2021
4021 Clear 18 1021 48 10000 0.98 233 19:36 06.01.2021
4022 Clear 17 1021 54 10000 0.35 223 19:18 06.01.2021
4023 Clear 16 1021 54 10000 0.12 213 18:41 06.01.2021
4024 Clear 14 1020 62 10000 0.58 52 18:22 06.01.2021
4025 Clear 11 1020 62 10000 0.58 52 17:42 06.01.2021
4026 Clear 11 1020 76 10000 0.27 114 17:23 06.01.2021
4027 Clear 10 1020 76 10000 0.27 114 16:42 06.01.2021
4028 Clear 10 1020 76 10000 1.29 35 16:19 06.01.2021
4029 Clear 10 1020 76 10000 1.29 35 15:52 06.01.2021
4030 Clear 10 1020 76 10000 1.19 307 15:31 06.01.2021
4031 Clear 10 1019 76 10000 1.19 307 14:51 06.01.2021
4032 Haze 10 1019 87 9656 1.07 331 14:21 06.01.2021
4033 Haze 9 1019 87 9656 1.07 331 13:47 06.01.2021
4034 Haze 10 1019 81 8047 1.08 329 13:24 06.01.2021
4035 Haze 9 1019 81 8047 1.08 329 12:49 06.01.2021
4036 Haze 10 1019 81 8047 1.48 325 12:26 06.01.2021
4037 Haze 10 1019 81 8047 1.48 325 11:39 06.01.2021
4038 Mist 10 1020 81 8047 0.66 353 11:20 06.01.2021
4039 Mist 11 1020 81 8047 1.34 79 10:29 06.01.2021
4040 Mist 11 1019 81 8047 1.33 80 09:52 06.01.2021
4041 Haze 11 1020 81 8047 0.6 77 09:21 06.01.2021
4042 Haze 11 1020 81 8047 0.6 77 08:41 06.01.2021
4043 Mist 11 1020 81 6437 0.45 3 07:59 06.01.2021
4044 Mist 11 1020 81 4023 0.93 328 07:27 06.01.2021
4045 Clear 12 1020 81 10000 0.82 348 05:52 06.01.2021
4046 Clear 12 1019 76 10000 0.91 24 04:41 06.01.2021
4047 Clear 14 1019 71 10000 1.04 343 02:47 06.01.2021
4048 Clear 14 1019 71 10000 1.47 300 02:26 06.01.2021
4049 Clear 16 1019 63 10000 1.47 300 01:35 06.01.2021
4050 Haze 18 1019 63 8047 1.5 250 23:39 05.01.2021
4051 Haze 18 1018 59 8047 1.5 225 22:53 05.01.2021
4052 Haze 18 1018 59 8047 1.5 225 22:34 05.01.2021
4053 Haze 17 1019 63 8047 0.91 224 21:59 05.01.2021
4054 Haze 17 1020 62 8047 0.24 293 21:19 05.01.2021
4055 Haze 16 1021 76 6437 0.23 91 20:30 05.01.2021
4056 Clear 11 1024 39 1200 8.2 310 19:45 05.01.2021
4057 Haze 10 1021 81 8047 0.58 116 19:24 05.01.2021
4058 Haze 10 1021 81 8047 0.66 111 18:50 05.01.2021
4059 Haze 10 1021 81 8047 0.93 80 18:28 05.01.2021
4060 Mist 10 1021 87 1207 1.5 0 17:54 05.01.2021
4061 Mist 11 1021 87 1207 1.5 0 17:32 05.01.2021
4062 Mist 11 1021 81 2816 1.5 100 16:57 05.01.2021
4063 Mist 11 1020 87 4023 1.5 100 16:36 05.01.2021
4064 Mist 11 1020 81 6437 1.32 89 16:18 05.01.2021
4065 Mist 11 1020 81 6437 1.32 89 15:40 05.01.2021
4066 Mist 11 1020 93 4828 0.14 50 14:48 05.01.2021
4067 Fog 11 1020 87 402 0.95 271 14:18 05.01.2021
4068 Mist 11 1020 87 6437 0.95 271 13:44 05.01.2021
4069 Mist 11 1020 81 8047 1.5 20 13:20 05.01.2021
4070 Mist 11 1020 81 8047 1.5 20 12:46 05.01.2021
4071 Mist 11 1021 87 8047 0.44 295 12:21 05.01.2021
4072 -273 0 0 0 0 0 11:37 05.01.2021
4073 -273 0 0 0 0 0 11:34 05.01.2021
4074 Mist 12 1021 87 8047 0.44 295 11:31 05.01.2021
4075 Haze 12 1020 81 9656 0.13 232 10:45 05.01.2021
4076 Clouds 12 1021 81 10000 0.5 75 10:24 05.01.2021
4077 Clouds 12 1021 81 10000 0.5 75 09:47 05.01.2021
4078 Clouds 12 1021 81 10000 0.36 141 09:26 05.01.2021
4079 Clouds 12 1020 76 10000 0.83 105 08:23 05.01.2021
4080 Clear 13 1021 81 10000 1.49 103 06:39 05.01.2021
4081 Clouds 14 1020 76 10000 0.47 144 03:42 05.01.2021
4082 Clear 16 1020 67 10000 1.5 240 00:45 05.01.2021
4083 Clear 16 1020 67 10000 2.1 280 23:44 04.01.2021
4084 Clear 16 1020 63 10000 3.75 248 23:24 04.01.2021
4085 Clear 17 1020 63 10000 3.75 248 22:49 04.01.2021
4086 Clear 17 1021 63 10000 2.1 260 22:22 04.01.2021
4087 Clear 17 1021 63 10000 2.1 260 21:45 04.01.2021
4088 Haze 16 1022 71 8047 2.23 226 21:25 04.01.2021
4089 Haze 16 1022 71 8047 2.23 226 20:43 04.01.2021
4090 Haze 16 1022 71 8047 1.47 188 20:23 04.01.2021
4091 Haze 14 1023 76 6437 1.47 188 19:51 04.01.2021
4092 Haze 14 1023 81 6437 1.05 184 19:24 04.01.2021
4093 Haze 13 1023 76 8047 1.05 184 18:48 04.01.2021
4094 Haze 12 1023 81 6437 0.39 134 18:24 04.01.2021
4095 Haze 10 1023 81 6437 0.39 134 17:42 04.01.2021
4096 Haze 10 1023 81 6437 0.79 57 17:24 04.01.2021
4097 Mist 9 1022 81 6437 0.79 57 16:46 04.01.2021
4098 Mist 9 1022 81 6437 0.24 343 16:27 04.01.2021
4099 Mist 9 1022 87 8047 0.24 343 15:49 04.01.2021
4100 Clouds 9 1022 76 10000 1.07 280 15:28 04.01.2021
4101 Clouds 10 1022 76 10000 1.07 280 14:42 04.01.2021
4102 Haze 9 1021 87 9656 1.33 265 13:47 04.01.2021
4103 Haze 9 1021 81 9656 1.54 247 13:24 04.01.2021
4104 Haze 10 1021 81 9656 1.08 246 12:42 04.01.2021
4105 Haze 10 1022 81 9656 0.52 201 11:58 04.01.2021
4106 Haze 10 1022 81 9656 0.73 92 11:22 04.01.2021
4107 Mist 11 1021 81 9656 0.73 92 10:53 04.01.2021
4108 Mist 11 1021 81 9656 0.75 92 10:29 04.01.2021
4109 Haze 11 1021 81 9656 0.75 92 09:53 04.01.2021
4110 Clear 11 1021 81 10000 0.67 44 09:22 04.01.2021
4111 Clear 11 1021 81 10000 0.67 44 08:47 04.01.2021
4112 Clear 12 1021 81 10000 0.9 341 08:18 04.01.2021
4113 Clear 12 1021 81 10000 0.9 341 07:42 04.01.2021
4114 Clouds 12 1022 87 10000 1.14 263 05:33 04.01.2021
4115 Clouds 12 1022 87 10000 1.79 261 04:31 04.01.2021
4116 Clear 16 1021 55 10000 1.34 212 00:48 04.01.2021
4117 Clear 16 1021 55 10000 1.5 0 23:49 03.01.2021
4118 Clear 16 1021 55 10000 1.5 0 23:25 03.01.2021
4119 Clear 16 1021 55 10000 1.5 130 22:56 03.01.2021
4120 Clear 16 1021 55 10000 1.5 130 22:33 03.01.2021
4121 Clear 16 1022 59 10000 1.5 0 21:57 03.01.2021
4122 Clouds 15 1023 62 10000 1.5 0 21:29 03.01.2021
4123 Clouds 15 1023 62 10000 1.5 0 20:50 03.01.2021
4124 Clouds 14 1023 62 10000 1.5 0 20:32 03.01.2021
4125 Clouds 14 1024 71 10000 0.93 142 19:58 03.01.2021
4126 Clouds 14 1024 71 10000 0.93 142 19:37 03.01.2021
4127 Clouds 13 1024 71 10000 1.5 100 19:18 03.01.2021
4128 Clouds 12 1024 71 10000 1.5 100 18:41 03.01.2021
4129 Mist 12 1024 81 4828 1.08 145 18:20 03.01.2021
4130 Mist 11 1024 81 4828 1.08 145 17:48 03.01.2021
4131 Mist 11 1024 81 4023 0.77 88 17:23 03.01.2021
4132 Mist 11 1023 81 3219 0.77 88 16:44 03.01.2021
4133 Mist 9 1023 87 3219 0.21 26 16:20 03.01.2021
4134 Mist 10 1023 87 3219 0.21 26 15:48 03.01.2021
4135 Mist 10 1023 87 3219 0.77 138 15:29 03.01.2021
4136 Mist 10 1023 81 4023 0.77 138 14:57 03.01.2021
4137 Haze 10 1023 81 6437 0.86 116 14:30 03.01.2021
4138 Haze 10 1023 81 8047 0.86 116 13:45 03.01.2021
4139 Haze 10 1023 81 9656 0.7 95 13:23 03.01.2021
4140 Haze 10 1023 81 9656 0.78 103 12:36 03.01.2021
4141 Clouds 10 1023 81 10000 0.91 109 11:43 03.01.2021
4142 Clouds 10 1023 87 10000 0.82 153 11:24 03.01.2021
4143 Clouds 10 1023 87 10000 0.82 153 10:52 03.01.2021
4144 Clouds 10 1023 87 10000 0.91 159 10:30 03.01.2021
4145 Mist 10 1023 81 9656 0.91 159 09:41 03.01.2021
4146 Haze 10 1023 81 9656 0.85 132 09:22 03.01.2021
4147 Clear 11 1023 81 10000 0.51 149 07:50 03.01.2021
4148 Clear 12 1023 76 10000 0.66 177 05:59 03.01.2021
4149 Clear 14 1023 63 10000 1.5 260 02:28 03.01.2021
4150 Clear 14 1023 63 10000 1.5 260 01:47 03.01.2021
4151 Clear 14 1023 63 10000 1.5 260 01:47 03.01.2021
4152 Clear 16 1023 45 10000 3.05 219 00:20 03.01.2021
4153 Clear 17 1023 45 10000 2.31 197 23:30 02.01.2021
4154 Clear 18 1023 48 10000 2.31 197 22:58 02.01.2021
4155 Clear 17 1023 48 10000 2.31 197 22:32 02.01.2021
4156 Clear 17 1024 51 10000 2.23 169 21:52 02.01.2021
4157 Clear 17 1024 51 10000 2.23 169 21:32 02.01.2021
4158 Clear 16 1024 55 10000 2.35 153 20:56 02.01.2021
4159 Clear 16 1024 55 10000 2.35 153 20:38 02.01.2021
4160 Clouds 16 1025 47 10000 1.5 0 20:19 02.01.2021
4161 Clouds 15 1025 47 10000 1.5 0 19:40 02.01.2021
4162 Clouds 15 1025 44 10000 2.09 128 19:18 02.01.2021
4163 Clouds 13 1025 44 10000 2.09 128 18:40 02.01.2021
4164 Clouds 13 1025 44 10000 1.69 114 18:21 02.01.2021
4165 Clouds 11 1025 50 10000 1.69 114 17:45 02.01.2021
4166 Clouds 10 1025 53 10000 1.22 104 17:22 02.01.2021
4167 Clouds 9 1025 38 10000 1.22 104 16:38 02.01.2021
4168 Clear 9 1024 39 10000 1.04 89 16:19 02.01.2021
4169 Clear 9 1024 39 10000 1.04 89 15:41 02.01.2021
4170 Clear 9 1023 39 10000 0.42 2 15:21 02.01.2021
4171 Clear 9 1023 39 10000 0.42 2 14:37 02.01.2021
4172 Clear 9 1023 39 10000 1.02 84 13:58 02.01.2021
4173 Clear 9 1023 39 10000 1.02 84 13:38 02.01.2021
4174 Clear 8 1023 57 10000 1.19 75 12:54 02.01.2021
4175 Clear 9 1023 57 10000 1.99 100 12:32 02.01.2021
4176 Clear 9 1023 37 10000 1.99 100 11:48 02.01.2021
4177 Clear 9 1023 57 10000 1.16 91 11:22 02.01.2021
4178 Clear 9 1023 57 10000 1.16 91 10:51 02.01.2021
4179 Clear 9 1023 57 10000 1 62 10:28 02.01.2021
4180 Clear 10 1022 34 10000 1 62 09:54 02.01.2021
4181 Clear 10 1022 34 10000 1.18 349 09:28 02.01.2021
4182 Clear 11 1023 34 10000 1.18 349 08:50 02.01.2021
4183 Clear 11 1023 35 10000 0.15 49 08:28 02.01.2021
4184 Clear 12 1022 54 10000 0.15 49 07:49 02.01.2021
4185 Clear 11 1022 54 10000 0.72 314 07:22 02.01.2021
4186 Clear 12 1021 58 10000 0.61 336 06:46 02.01.2021
4187 Clear 13 1021 71 10000 0.59 29 05:45 02.01.2021
4188 Clear 18 1019 20 10000 3.2 247 00:59 02.01.2021
4189 Clear 19 1019 20 10000 3.3 249 00:37 02.01.2021
4190 Clear 19 1018 21 10000 3.47 250 23:57 01.01.2021
4191 Clear 19 1018 21 10000 2.65 251 23:22 01.01.2021
4192 Clear 19 1018 24 10000 2.65 251 22:48 01.01.2021
4193 Clear 19 1018 24 10000 2.26 241 22:26 01.01.2021
4194 Clear 19 1019 25 10000 2.26 241 21:58 01.01.2021
4195 Clear 19 1019 25 10000 2.26 241 21:39 01.01.2021
4196 Clear 18 1020 25 10000 2.1 140 21:19 01.01.2021
4197 Clear 18 1020 25 10000 2.1 140 20:43 01.01.2021
4198 Clear 17 1020 27 10000 1.5 0 20:18 01.01.2021
4199 Clear 17 1020 27 10000 1.5 0 19:41 01.01.2021
4200 Clear 16 1020 43 10000 1 345 19:20 01.01.2021
4201 Clear 15 1020 43 10000 1 345 18:42 01.01.2021
4202 Clear 13 1019 57 10000 1.48 356 18:23 01.01.2021
4203 Clear 12 1019 57 10000 1.48 356 17:46 01.01.2021
4204 Haze 11 1019 65 6437 1.84 21 17:23 01.01.2021
4205 Clear 9 1018 65 10000 1.84 21 16:48 01.01.2021
4206 Clear 9 1018 65 10000 2.35 20 16:25 01.01.2021
4207 Clear 9 1017 61 10000 2.35 20 15:40 01.01.2021
4208 Haze 10 1017 57 9656 2.24 2 14:48 01.01.2021
4209 Haze 10 1017 57 9656 1.93 5 14:27 01.01.2021
4210 Haze 11 1016 61 8047 1.93 5 13:40 01.01.2021
4211 Haze 11 1016 57 6437 2.55 5 12:57 01.01.2021
4212 Haze 10 1016 57 6437 2.51 359 12:36 01.01.2021
4213 Haze 10 1016 57 8047 2.23 357 11:43 01.01.2021
4214 Haze 10 1015 53 8047 2.16 358 11:23 01.01.2021
4215 Haze 10 1015 53 8047 2.16 358 10:59 01.01.2021
4216 Haze 11 1015 53 8047 2.16 358 10:33 01.01.2021
4217 Clear 12 1015 37 10000 2.44 13 09:39 01.01.2021
4218 Clear 13 1015 37 10000 2.64 17 08:52 01.01.2021
4219 Clear 13 1015 37 10000 2.79 3 08:25 01.01.2021
4220 Clear 15 1014 33 10000 3.33 357 04:52 01.01.2021
4221 Clear 16 1013 33 10000 3.49 349 02:25 01.01.2021
4222 Clear 18 1013 25 10000 4.1 310 00:41 01.01.2021
4223 Clear 19 1013 29 10000 1.5 0 00:21 01.01.2021
4224 Clear 19 1013 25 10000 2.6 310 23:22 31.12.2020
4225 Clear 19 1013 25 10000 2.6 310 22:56 31.12.2020
4226 Clear 18 1013 25 10000 2.6 310 22:38 31.12.2020
4227 Clear 18 1014 31 10000 2.6 270 22:19 31.12.2020
4228 Clear 17 1014 31 10000 2.6 270 21:46 31.12.2020
4229 Clear 17 1014 33 10000 2.1 270 21:23 31.12.2020
4230 Clear 16 1014 33 10000 2.1 270 20:48 31.12.2020
4231 Clear 15 1015 47 10000 1.5 0 20:18 31.12.2020
4232 Clear 14 1015 47 10000 1.5 0 19:46 31.12.2020
4233 Clear 14 1015 47 10000 1.5 0 19:24 31.12.2020
4234 Clouds 12 1016 43 10000 4.6 337 18:44 31.12.2020
4235 Clouds 11 1016 53 10000 1.77 327 18:24 31.12.2020
4236 Clear 9 1015 52 10000 1.5 270 17:44 31.12.2020
4237 Clear 9 1015 52 10000 1.5 270 17:44 31.12.2020
4238 Clear 9 1015 52 10000 1.5 270 17:23 31.12.2020
4239 Clear 7 1016 56 10000 1.07 16 16:43 31.12.2020
4240 Clear 7 1016 56 10000 1.07 16 16:43 31.12.2020
4241 Clear 7 1016 56 10000 1.07 16 16:43 31.12.2020
4242 Clouds 7 1016 65 10000 1.85 32 16:23 31.12.2020
4243 Clouds 7 1016 65 10000 1.85 32 15:49 31.12.2020
4244 Clouds 7 1016 65 10000 2.57 22 15:22 31.12.2020
4245 Clouds 7 1016 65 10000 2.57 22 15:22 31.12.2020
4246 Clear 6 1016 70 10000 2.57 22 14:57 31.12.2020
4247 Clear 6 1016 70 10000 2.57 22 14:39 31.12.2020
4248 Clear 7 1017 65 10000 0.8 16 14:21 31.12.2020
4249 Clear 7 1017 65 10000 0.8 16 13:39 31.12.2020
4250 Clear 7 1018 65 10000 1.74 122 13:21 31.12.2020
4251 Clear 8 1018 65 10000 1.74 122 12:54 31.12.2020
4252 Clear 8 1018 65 10000 1.4 135 12:35 31.12.2020
4253 Clear 8 1018 65 10000 0.83 132 11:52 31.12.2020
4254 Clear 8 1018 65 10000 0.83 132 11:32 31.12.2020
4255 Clear 8 1018 65 10000 0.4 48 11:32 31.12.2020
4256 Clear 9 1019 66 10000 0.4 48 10:50 31.12.2020
4257 Clear 9 1019 66 10000 0.4 48 10:30 31.12.2020
4258 Clear 10 1019 61 10000 1.02 83 09:58 31.12.2020
4259 Clear 10 1019 61 10000 1.02 83 09:38 31.12.2020
4260 Clear 10 1020 66 10000 0.35 33 09:20 31.12.2020
4261 Clear 10 1020 66 10000 0.35 33 08:45 31.12.2020
4262 Clear 10 1020 66 10000 0.58 60 08:27 31.12.2020
4263 Clear 10 1020 66 10000 0.58 60 07:51 31.12.2020
4264 Clear 11 1021 57 10000 0.89 110 06:46 31.12.2020
4265 Clear 12 1021 54 10000 0.16 160 05:29 31.12.2020
4266 Clear 13 1021 31 10000 0.77 129 03:24 31.12.2020
4267 Clear 14 1021 31 10000 1.78 237 02:26 31.12.2020
4268 Clear 16 1021 22 10000 1.5 260 01:49 31.12.2020
4269 Clear 16 1021 22 10000 1.5 260 01:31 31.12.2020
4270 Clear 17 1021 20 10000 1.5 250 00:51 31.12.2020
4271 Clear 19 1021 13 10000 2.69 254 23:55 30.12.2020
4272 Clear 19 1021 16 10000 2.23 262 23:20 30.12.2020
4273 Clear 19 1021 16 10000 2.23 262 22:52 30.12.2020
4274 Clear 19 1021 16 10000 2.23 262 22:32 30.12.2020
4275 Clear 18 1022 16 10000 0.93 214 21:49 30.12.2020
4276 Clear 18 1024 25 10000 0.4 215 21:25 30.12.2020
4277 Clear 18 1024 25 10000 0.4 215 20:52 30.12.2020
4278 Clear 18 1024 25 10000 0.46 278 20:25 30.12.2020
4279 Clear 17 1024 25 10000 0.46 278 19:42 30.12.2020
4280 Clear 16 1024 25 10000 0.33 8 19:23 30.12.2020
4281 Clear 15 1024 35 10000 0.33 8 18:57 30.12.2020
4282 Clear 14 1024 35 10000 0.06 181 18:37 30.12.2020
4283 Clear 13 1024 40 10000 0.67 43 18:19 30.12.2020
4284 Clear 9 1024 49 10000 0.67 43 17:41 30.12.2020
4285 Clear 10 1023 48 10000 1.3 18 17:20 30.12.2020
4286 Clear 8 1023 48 10000 1.3 18 16:41 30.12.2020
4287 Clear 7 1023 52 10000 1.79 43 15:50 30.12.2020
4288 Clear 7 1023 52 10000 1.66 35 15:29 30.12.2020
4289 Clear 8 1023 45 10000 1.5 30 14:45 30.12.2020
4290 Clear 9 1023 45 10000 1.5 30 14:26 30.12.2020
4291 Clear 8 1023 52 10000 1.32 15 13:59 30.12.2020
4292 Clear 7 1023 65 10000 1.31 3 12:56 30.12.2020
4293 Clear 8 1023 65 10000 1.58 21 12:26 30.12.2020
4294 Clear 7 1023 70 10000 1.58 21 11:39 30.12.2020
4295 Clear 8 1022 65 10000 2.04 15 11:21 30.12.2020
4296 Clear 8 1022 65 10000 2.04 15 11:21 30.12.2020
4297 Clear 8 1022 65 10000 2.04 15 10:56 30.12.2020
4298 Clear 9 1022 65 10000 2.04 15 10:37 30.12.2020
4299 Clear 9 1022 70 10000 2.06 9 10:18 30.12.2020
4300 Clear 10 1022 70 10000 2.06 9 09:41 30.12.2020
4301 Clear 10 1023 70 10000 1.99 11 08:36 30.12.2020
4302 Clear 10 1023 66 10000 2.01 7 07:50 30.12.2020
4303 Clear 10 1023 66 10000 2.64 343 07:24 30.12.2020
4304 Clear 11 1022 57 10000 2.43 342 06:40 30.12.2020
4305 Clear 12 1021 54 10000 2.22 332 05:47 30.12.2020
4306 Clear 12 1021 54 10000 2.24 359 05:28 30.12.2020
4307 Clear 14 1021 36 10000 2.47 12 03:41 30.12.2020
4308 Clear 15 1020 27 10000 2.1 0 03:23 30.12.2020
4309 Clear 15 1020 27 10000 2.1 0 02:32 30.12.2020
4310 Clear 16 1020 27 10000 2.1 0 01:44 30.12.2020
4311 Clear 16 1020 23 10000 3.1 0 01:26 30.12.2020
4312 Clear 17 1020 23 10000 3.1 0 00:41 30.12.2020
4313 Clear 17 1019 27 10000 3.1 0 00:22 30.12.2020
4314 Clear 17 1019 27 10000 3.1 0 23:43 29.12.2020
4315 Clear 17 1019 27 10000 3.1 0 23:24 29.12.2020
4316 Clear 16 1019 27 10000 3.6 350 22:49 29.12.2020
4317 Clear 16 1019 27 10000 3.6 350 22:31 29.12.2020
4318 Clear 16 1019 44 10000 2.41 334 21:56 29.12.2020
4319 Clear 16 1019 44 10000 2.41 334 21:37 29.12.2020
4320 Clear 15 1020 54 10000 1.13 291 21:18 29.12.2020
4321 Clear 15 1020 54 10000 1.13 291 20:41 29.12.2020
4322 Clear 13 1020 58 10000 0.9 338 20:22 29.12.2020
4323 Clear 13 1020 58 10000 0.9 338 19:43 29.12.2020
4324 Clear 12 1020 58 10000 1.87 11 19:21 29.12.2020
4325 Clear 11 1020 66 10000 1.32 8 18:50 29.12.2020
4326 Clear 8 1019 81 10000 1.71 15 18:28 29.12.2020
4327 Clear 7 1019 81 10000 1.71 15 17:46 29.12.2020
4328 Clear 7 1018 75 10000 1.69 3 17:21 29.12.2020
4329 Clear 7 1018 75 10000 1.69 3 17:21 29.12.2020
4330 Clear 6 1018 75 10000 1.69 3 16:54 29.12.2020
4331 Clear 5 1018 81 10000 1.76 352 16:26 29.12.2020
4332 Clear 6 1018 81 10000 1.76 352 15:42 29.12.2020
4333 Clear 6 1018 81 10000 2 348 15:23 29.12.2020
4334 Clear 7 1017 81 10000 2 348 14:45 29.12.2020
4335 Clear 6 1017 81 10000 1.98 332 14:27 29.12.2020
4336 Clear 6 1016 81 10000 2.1 10 13:55 29.12.2020
4337 Clear 6 1016 81 10000 2.1 10 13:24 29.12.2020
4338 Clear 6 1016 81 10000 1.51 336 12:45 29.12.2020
4339 Clear 6 1015 81 10000 1.28 2 12:26 29.12.2020
4340 Clear 6 1015 81 10000 1.28 2 11:58 29.12.2020
4341 Clear 7 1015 81 10000 1.35 19 11:32 29.12.2020
4342 Clear 6 1015 81 10000 1.35 19 10:40 29.12.2020
4343 Clear 7 1015 66 10000 1.57 5 10:20 29.12.2020
4344 Clear 6 1015 66 10000 1.57 5 09:40 29.12.2020
4345 Clear 6 1015 66 10000 1.5 0 09:18 29.12.2020
4346 Clear 7 1015 66 10000 1.5 0 08:47 29.12.2020
4347 Clouds 7 1015 70 10000 2.1 50 07:40 29.12.2020
4348 Clouds 8 1014 70 10000 3.6 90 06:58 29.12.2020
4349 Clouds 8 1013 70 10000 2.1 90 05:44 29.12.2020
4350 Rain 7 1012 81 3219 3.41 235 01:58 29.12.2020
4351 Rain 8 1012 87 2816 2.1 20 00:26 29.12.2020
4352 Rain 8 1011 81 4023 2.1 0 23:38 28.12.2020
4353 Rain 9 1011 71 10000 2.6 140 22:48 28.12.2020
4354 Clouds 10 1012 76 10000 1.5 100 22:20 28.12.2020
4355 Clouds 10 1012 76 10000 1.5 100 21:41 28.12.2020
4356 Rain 10 1013 81 3219 4.4 222 21:20 28.12.2020
4357 Rain 11 1013 71 10000 2.1 0 20:40 28.12.2020
4358 Rain 11 1014 76 10000 3.1 120 20:21 28.12.2020
4359 Clouds 10 1014 81 10000 3.6 100 19:42 28.12.2020
4360 Clouds 10 1014 81 10000 3.6 100 19:22 28.12.2020
4361 Clouds 9 1013 81 10000 1.5 0 18:49 28.12.2020
4362 Clouds 8 1013 81 10000 1.5 0 18:28 28.12.2020
4363 Clouds 9 1012 87 10000 1.5 0 17:42 28.12.2020
4364 Clouds 8 1012 81 10000 1.97 233 17:20 28.12.2020
4365 Clouds 8 1012 81 10000 1.97 233 16:34 28.12.2020
4366 Mist 8 1011 87 4828 1.58 171 15:59 28.12.2020
4367 Rain 8 1011 87 4828 1.58 171 15:41 28.12.2020
4368 Rain 8 1011 87 10000 2.6 90 14:54 28.12.2020
4369 Clouds 9 1011 87 10000 1.5 0 13:54 28.12.2020
4370 Rain 9 1011 87 10000 0.93 81 13:25 28.12.2020
4371 Rain 8 1011 87 10000 0.93 81 13:25 28.12.2020
4372 Rain 9 1011 87 6437 1.5 90 12:41 28.12.2020
4373 Rain 9 1011 81 10000 1.68 257 12:22 28.12.2020
4374 Clouds 9 1011 87 10000 1.68 257 11:45 28.12.2020
4375 Clouds 9 1011 87 10000 3.55 258 11:24 28.12.2020
4376 Rain 9 1012 87 6437 3.55 258 10:49 28.12.2020
4377 Rain 10 1012 87 6437 6.05 222 10:27 28.12.2020
4378 Rain 10 1012 82 10000 2.1 160 09:46 28.12.2020
4379 Rain 11 1012 76 10000 1.5 120 09:20 28.12.2020
4380 Clouds 12 1012 76 10000 4.15 148 07:40 28.12.2020
4381 Clouds 12 1012 76 10000 3.35 149 06:50 28.12.2020
4382 Clouds 12 1013 71 10000 1.82 181 04:37 28.12.2020
4383 Clouds 13 1012 72 10000 2.1 260 02:44 28.12.2020
4384 Clear 17 1012 48 10000 3.75 231 00:53 28.12.2020
4385 Clear 17 1012 48 10000 3.75 231 00:53 28.12.2020
4386 Clear 18 1012 52 10000 3.55 239 23:49 27.12.2020
4387 Clear 17 1013 59 10000 3.42 236 23:20 27.12.2020
4388 Clear 16 1014 67 10000 3.1 237 21:58 27.12.2020
4389 Clear 15 1014 67 10000 2.32 157 21:27 27.12.2020
4390 Clear 14 1016 67 10000 2.32 157 20:53 27.12.2020
4391 Clear 14 1016 67 10000 2.59 124 19:49 27.12.2020
4392 Clear 14 1016 67 10000 3.44 113 19:23 27.12.2020
4393 Clear 13 1017 71 10000 1.27 135 18:47 27.12.2020
4394 Haze 13 1016 76 8047 1.01 86 18:20 27.12.2020
4395 Haze 12 1016 76 8047 1.01 86 17:54 27.12.2020
4396 Haze 12 1016 76 8047 1.01 86 17:34 27.12.2020
4397 Haze 12 1016 76 8047 2.6 100 16:54 27.12.2020
4398 Clouds 12 1017 82 10000 0.4 150 16:21 27.12.2020
4399 Clouds 12 1017 82 10000 0.48 356 15:30 27.12.2020
4400 Clouds 12 1017 82 10000 0.48 356 14:49 27.12.2020
4401 Clouds 13 1017 82 10000 0.55 104 14:31 27.12.2020
4402 Clouds 12 1016 82 10000 0.55 104 13:36 27.12.2020
4403 Clouds 12 1016 82 10000 0.55 104 13:36 27.12.2020
4404 Mist 12 1016 87 8047 1.5 0 12:55 27.12.2020
4405 Mist 12 1016 87 8047 1.5 0 12:24 27.12.2020
4406 Mist 12 1017 87 6437 1.12 124 11:42 27.12.2020
4407 Mist 12 1017 87 4828 1.5 0 11:20 27.12.2020
4408 Mist 12 1017 87 4828 1.5 0 10:40 27.12.2020
4409 Mist 12 1016 87 4828 1.5 0 10:19 27.12.2020
4410 Clouds 12 1017 87 10000 1.5 100 09:36 27.12.2020
4411 Clear 11 1017 76 10000 1.82 122 08:28 27.12.2020
4412 Clear 12 1017 82 10000 0.68 108 07:28 27.12.2020
4413 Clear 13 1017 82 10000 0.28 136 05:59 27.12.2020
4414 Clear 14 1017 82 10000 0.28 136 05:38 27.12.2020
4415 Clear 14 1017 77 10000 0.86 170 03:25 27.12.2020
4416 Clear 15 1017 67 10000 2.1 270 02:25 27.12.2020
4417 Clear 18 1018 39 10000 2.6 260 00:56 27.12.2020
4418 Clear 19 1018 37 10000 2.77 221 23:44 26.12.2020
4419 Clear 19 1018 37 10000 2.54 213 23:24 26.12.2020
4420 Clear 19 1018 34 10000 2.54 213 22:46 26.12.2020
4421 Clear 19 1020 39 10000 2.13 191 22:19 26.12.2020
4422 Clear 19 1020 39 10000 2.13 191 21:53 26.12.2020
4423 Clear 19 1020 39 10000 1.95 179 21:29 26.12.2020
4424 Clear 18 1021 42 10000 1.95 179 20:46 26.12.2020
4425 Clear 18 1021 42 10000 1.8 182 20:24 26.12.2020
4426 Clear 17 1021 39 10000 1.8 182 19:50 26.12.2020
4427 Clear 16 1021 44 10000 1.5 100 19:22 26.12.2020
4428 Clear 15 1021 44 10000 1.5 100 18:36 26.12.2020
4429 Clear 10 1021 57 10000 0.72 105 17:48 26.12.2020
4430 Clear 10 1021 57 10000 0.62 70 17:29 26.12.2020
4431 Clear 8 1021 65 10000 0.62 70 16:40 26.12.2020
4432 Clear 8 1021 70 10000 0.7 55 16:21 26.12.2020
4433 Clear 9 1020 66 10000 0.37 15 15:24 26.12.2020
4434 Clear 9 1020 66 10000 0.37 15 14:46 26.12.2020
4435 Clear 9 1020 70 10000 0.42 80 14:22 26.12.2020
4436 Clear 9 1020 70 10000 0.42 80 13:42 26.12.2020
4437 Clear 9 1020 70 10000 0.42 80 13:42 26.12.2020
4438 Clear 9 1021 76 10000 1.07 80 13:23 26.12.2020
4439 Clear 9 1021 76 10000 0.65 71 12:44 26.12.2020
4440 Clear 9 1021 76 10000 0.2 30 12:21 26.12.2020
4441 Clear 10 1021 66 10000 0.2 30 11:51 26.12.2020
4442 Clear 10 1021 66 10000 0.32 107 11:21 26.12.2020
4443 Clear 11 1020 62 10000 0.32 107 10:53 26.12.2020
4444 Clear 11 1021 71 10000 0.64 129 10:27 26.12.2020
4445 Clear 11 1021 71 10000 0.64 129 09:49 26.12.2020
4446 Clear 11 1021 71 10000 0.64 129 09:49 26.12.2020
4447 Clear 12 1021 71 10000 0.74 118 09:25 26.12.2020
4448 Clear 12 1021 71 10000 0.83 89 08:29 26.12.2020
4449 Clear 12 1021 71 10000 0.83 89 07:50 26.12.2020
4450 Clear 14 1020 62 10000 0.46 120 06:31 26.12.2020
4451 Clear 16 1019 45 10000 1.81 247 03:19 26.12.2020
4452 Clear 18 1019 37 10000 2.6 260 01:32 26.12.2020
4453 Clear 21 1018 28 10000 2.6 260 00:26 26.12.2020
4454 Clear 22 1018 23 10000 3.42 257 23:40 25.12.2020
4455 Clear 22 1018 23 10000 2.26 264 23:22 25.12.2020
4456 Clear 22 1018 23 10000 2.26 264 22:42 25.12.2020
4457 Clear 22 1019 26 10000 1.5 0 21:58 25.12.2020
4458 Clear 21 1019 26 10000 1.5 0 21:34 25.12.2020
4459 Clear 21 1021 26 10000 0.86 289 20:56 25.12.2020
4460 Clear 21 1021 26 10000 0.86 289 20:37 25.12.2020
4461 Clear 19 1022 29 10000 0.3 349 19:48 25.12.2020
4462 Clear 18 1021 31 10000 1.5 0 19:21 25.12.2020
4463 Clear 17 1021 31 10000 1.5 0 18:39 25.12.2020
4464 Clear 14 1021 35 10000 1.01 355 17:53 25.12.2020
4465 Clear 13 1021 35 10000 1.01 355 17:34 25.12.2020
4466 Clear 12 1020 37 10000 1.5 20 16:33 25.12.2020
4467 Clear 11 1020 37 10000 1.5 10 15:59 25.12.2020
4468 Clear 11 1020 37 10000 1.5 10 15:36 25.12.2020
4469 Clear 11 1020 37 10000 1.5 40 14:58 25.12.2020
4470 Clear 11 1020 37 10000 1.5 40 14:30 25.12.2020
4471 Clear 12 1020 40 10000 1.5 0 13:45 25.12.2020
4472 Clear 12 1020 40 10000 1.5 0 13:26 25.12.2020
4473 Clear 12 1020 40 10000 1.9 357 12:46 25.12.2020
4474 Clear 12 1020 40 10000 1.9 357 12:46 25.12.2020
4475 Clear 12 1020 40 10000 2.09 348 12:24 25.12.2020
4476 Clear 12 1020 37 10000 1.5 30 11:45 25.12.2020
4477 Clear 12 1020 40 10000 1.5 40 11:20 25.12.2020
4478 Clear 12 1020 40 10000 1.5 40 10:30 25.12.2020
4479 Clear 12 1021 40 10000 2.13 356 09:49 25.12.2020
4480 Clear 13 1021 46 10000 2.16 4 08:49 25.12.2020
4481 Clear 13 1021 43 10000 1.63 2 08:29 25.12.2020
4482 Clear 14 1021 33 10000 1.5 10 06:49 25.12.2020
4483 Clear 13 1021 31 10000 1.5 350 05:24 25.12.2020
4484 Clear 15 1021 16 10000 2.1 90 02:19 25.12.2020
4485 Clouds 15 1023 33 10000 0.97 346 00:20 25.12.2020
4486 Clouds 15 1023 33 10000 3.54 50 23:30 24.12.2020
4487 Clouds 15 1025 44 10000 3.54 50 22:54 24.12.2020
4488 Clouds 15 1025 44 10000 2.44 37 22:24 24.12.2020
4489 Clouds 15 1026 41 10000 2.44 37 21:45 24.12.2020
4490 Clouds 15 1026 15 10000 3.71 45 20:58 24.12.2020
4491 Clouds 16 1025 13 10000 2.6 10 19:48 24.12.2020
4492 Clear 14 1026 14 10000 2.05 23 18:21 24.12.2020
4493 Clear 14 1025 14 10000 1.5 10 17:38 24.12.2020
4494 Clear 13 1025 15 10000 2.24 16 17:20 24.12.2020
4495 Clear 13 1025 15 10000 2.24 16 17:20 24.12.2020
4496 Clear 13 1025 15 10000 1.51 329 16:25 24.12.2020
4497 Clear 12 1024 19 10000 1.51 329 15:49 24.12.2020
4498 Clear 13 1023 15 10000 1.45 345 15:25 24.12.2020
4499 Clear 13 1023 15 10000 1.45 345 14:56 24.12.2020
4500 Clear 12 1023 15 10000 1.45 345 14:38 24.12.2020
4501 Clear 13 1022 15 10000 1.5 0 14:19 24.12.2020
4502 Clear 13 1022 15 10000 1.5 0 13:39 24.12.2020
4503 Clear 13 1022 8 10000 2.1 0 13:18 24.12.2020
4504 Clear 14 1022 8 10000 2.1 0 12:40 24.12.2020
4505 Clear 13 1023 16 10000 2.07 6 12:18 24.12.2020
4506 Clear 14 1023 7 10000 3.1 0 11:38 24.12.2020
4507 Clear 14 1023 7 10000 2.6 0 11:19 24.12.2020
4508 Clear 14 1023 7 10000 2.6 0 10:46 24.12.2020
4509 Clear 14 1023 7 10000 2.6 0 10:27 24.12.2020
4510 Clear 15 1023 7 10000 3.1 0 09:50 24.12.2020
4511 Clear 15 1023 8 10000 3.03 7 08:58 24.12.2020
4512 Clear 14 1024 11 10000 1.5 50 07:57 24.12.2020
4513 Clear 14 1024 11 10000 1.5 50 07:37 24.12.2020
4514 Clear 14 1024 26 10000 1.97 19 06:34 24.12.2020
4515 Clear 15 1022 38 10000 2.98 24 04:24 24.12.2020
4516 Clear 17 1021 30 10000 1.59 7 01:53 24.12.2020
4517 Clear 18 1021 30 10000 1.59 7 01:53 24.12.2020
4518 Clear 18 1021 30 10000 1.23 316 01:28 24.12.2020
4519 Clear 19 1020 30 10000 1.23 316 00:55 24.12.2020
4520 Clear 20 1020 28 10000 1.38 319 00:19 24.12.2020
4521 Clear 20 1020 28 10000 1.38 319 23:40 23.12.2020
4522 Haze 20 1020 34 9656 1.29 302 23:21 23.12.2020
4523 Haze 20 1020 34 9656 1.29 302 22:50 23.12.2020
4524 Haze 20 1020 34 9656 0.99 302 22:29 23.12.2020
4525 Haze 20 1020 37 9656 0.99 302 21:49 23.12.2020
4526 Haze 19 1020 37 9656 1.11 334 21:23 23.12.2020
4527 Haze 18 1021 51 6437 1.11 334 20:47 23.12.2020
4528 Haze 18 1021 51 6437 1.11 334 20:47 23.12.2020
4529 Haze 17 1021 51 6437 0.46 288 20:28 23.12.2020
4530 Haze 16 1021 62 4828 0.46 288 19:59 23.12.2020
4531 Haze 14 1021 62 4828 0.46 288 19:38 23.12.2020
4532 Haze 14 1020 71 4828 1.01 353 19:19 23.12.2020
4533 Haze 12 1020 71 4828 0.74 2 18:46 23.12.2020
4534 Haze 12 1020 71 4828 0.87 8 18:21 23.12.2020
4535 Clear 5 1030 79 1200 0.87 8 17:37 23.12.2020
4536 Haze 11 1020 76 4023 1.03 15 17:19 23.12.2020
4537 Haze 10 1020 76 4023 1.03 15 16:42 23.12.2020
4538 Haze 10 1019 81 6437 0.17 51 16:24 23.12.2020
4539 Haze 10 1019 81 6437 0.17 51 15:50 23.12.2020
4540 Haze 10 1019 81 6437 1.5 360 15:27 23.12.2020
4541 Haze 11 1019 81 6437 1.5 360 14:58 23.12.2020
4542 Haze 11 1019 81 6437 1.5 360 14:39 23.12.2020
4543 Haze 11 1019 81 6437 0.93 45 14:20 23.12.2020
4544 Haze 11 1019 81 6437 0.93 45 13:43 23.12.2020
4545 Haze 11 1019 81 6437 0.38 224 13:19 23.12.2020
4546 Haze 12 1019 81 6437 0.38 224 12:51 23.12.2020
4547 Haze 12 1019 81 6437 0.56 310 12:25 23.12.2020
4548 Clouds 12 1020 81 10000 0.56 310 11:47 23.12.2020
4549 Clouds 12 1020 81 10000 2.1 80 11:20 23.12.2020
4550 Haze 12 1020 76 9656 0.91 249 10:50 23.12.2020
4551 Clouds 12 1020 81 10000 2.1 80 10:31 23.12.2020
4552 Haze 12 1019 82 9656 1.5 80 09:36 23.12.2020
4553 Haze 12 1019 82 8047 1.5 100 08:50 23.12.2020
4554 Mist 12 1019 87 8047 1.71 147 08:21 23.12.2020
4555 Mist 12 1019 87 8047 1.71 147 07:37 23.12.2020
4556 Haze 13 1019 82 8047 1.15 133 06:41 23.12.2020
4557 Haze 13 1018 87 9656 0.96 151 05:41 23.12.2020
4558 Clear 13 1018 82 10000 1.1 188 05:19 23.12.2020
4559 Clear 17 1016 63 10000 1.5 250 01:32 23.12.2020
4560 Clear 20 1016 52 10000 1.5 0 00:30 23.12.2020
4561 Clear 20 1016 30 10000 1.5 0 23:39 22.12.2020
4562 Clear 21 1017 30 10000 2.3 190 23:21 22.12.2020
4563 Clear 21 1017 30 10000 2.3 190 22:42 22.12.2020
4564 Clear 20 1017 32 10000 1.97 185 22:22 22.12.2020
4565 Clear 20 1017 32 10000 1.97 185 21:48 22.12.2020
4566 Clear 20 1018 45 10000 1.77 158 21:20 22.12.2020
4567 Clear 19 1018 45 10000 1.77 158 20:53 22.12.2020
4568 Clear 19 1018 45 10000 1.77 158 20:35 22.12.2020
4569 Clear 18 1019 48 10000 1.98 149 19:52 22.12.2020
4570 Clear 17 1019 48 10000 1.78 132 19:29 22.12.2020
4571 Clear 16 1018 47 10000 1.5 70 18:59 22.12.2020
4572 Clear 16 1018 47 10000 1.5 70 18:38 22.12.2020
4573 Clear 15 1018 66 10000 0.75 138 18:20 22.12.2020
4574 Clear 12 1018 66 10000 0.75 138 17:38 22.12.2020
4575 Clear 11 1018 66 10000 1.02 143 17:18 22.12.2020
4576 Clear 10 1018 71 10000 1.02 143 16:47 22.12.2020
4577 Clear 10 1017 81 10000 1.36 128 16:21 22.12.2020
4578 Clear 11 1017 81 10000 1.36 128 15:47 22.12.2020
4579 Clear 11 1017 81 10000 1.68 103 15:29 22.12.2020
4580 Clear 11 1017 76 10000 1.68 103 14:58 22.12.2020
4581 Clear 11 1017 76 10000 1.68 103 14:40 22.12.2020
4582 Clear 11 1016 76 10000 1.48 47 14:21 22.12.2020
4583 Clear 11 1016 76 10000 1.48 47 13:45 22.12.2020
4584 Clear 12 1017 76 10000 0.6 102 13:19 22.12.2020
4585 Clear 12 1017 76 10000 0.4 109 12:55 22.12.2020
4586 Clear 13 1017 76 10000 1.12 153 12:36 22.12.2020
4587 Clear 13 1017 76 10000 1.12 153 12:18 22.12.2020
4588 Clear 13 1017 76 10000 1.12 153 11:40 22.12.2020
4589 Clear 13 1016 72 10000 1.5 90 11:21 22.12.2020
4590 Clear 13 1016 72 10000 1.5 90 10:53 22.12.2020
4591 Clear 13 1016 67 10000 1.5 100 10:25 22.12.2020
4592 Clear 13 1016 67 10000 1.5 100 09:57 22.12.2020
4593 Clear 13 1017 76 10000 2.1 70 09:27 22.12.2020
4594 Clear 13 1017 54 10000 1.21 112 08:53 22.12.2020
4595 Clear 14 1017 55 10000 2.1 90 08:34 22.12.2020
4596 Clear 14 1016 47 10000 1.07 97 07:56 22.12.2020
4597 Clear 15 1015 41 10000 0.96 164 07:23 22.12.2020
4598 Clear 16 1015 44 10000 0.7 168 05:51 22.12.2020
4599 Clear 18 1013 29 10000 0.87 211 03:46 22.12.2020
4600 Clear 21 1013 15 10000 1.5 0 01:48 22.12.2020
4601 Clear 25 1013 9 10000 1.5 280 00:21 22.12.2020
4602 Clear 25 1013 9 10000 1.5 280 23:41 21.12.2020
4603 Clear 26 1013 9 10000 1.5 250 23:18 21.12.2020
4604 Clear 26 1013 9 10000 1.5 250 22:36 21.12.2020
4605 Clear 26 1014 11 10000 1.71 239 22:18 21.12.2020
4606 Clear 26 1014 11 10000 1.71 239 21:46 21.12.2020
4607 Clear 26 1014 11 10000 0.91 261 21:27 21.12.2020
4608 Clear 25 1015 11 10000 1.5 0 20:43 21.12.2020
4609 Clear 24 1016 15 10000 1.5 20 20:21 21.12.2020
4610 Clear 23 1016 15 10000 1.5 20 19:47 21.12.2020
4611 Clear 23 1016 15 10000 1.5 20 19:22 21.12.2020
4612 Clear 22 1016 20 10000 0.65 333 18:58 21.12.2020
4613 Clear 21 1016 20 10000 0.81 340 18:40 21.12.2020
4614 Clear 19 1016 19 10000 1.5 30 18:21 21.12.2020
4615 Clear 17 1016 19 10000 1.5 30 17:42 21.12.2020
4616 Clear 17 1016 19 10000 1.5 30 17:23 21.12.2020
4617 Clear 15 1016 20 10000 1.49 6 16:42 21.12.2020
4618 Clear 14 1015 20 10000 1.5 10 16:20 21.12.2020
4619 Clear 14 1015 20 10000 1.5 10 15:42 21.12.2020
4620 Clear 14 1015 18 10000 2.1 20 14:58 21.12.2020
4621 Clear 14 1015 18 10000 2.1 20 14:36 21.12.2020
4622 Clear 13 1016 18 10000 2.1 40 14:18 21.12.2020
4623 Clear 14 1016 18 10000 2.1 40 13:40 21.12.2020
4624 Clear 14 1016 18 10000 1.5 30 13:21 21.12.2020
4625 Clear 14 1016 18 10000 1.5 30 12:42 21.12.2020
4626 Clear 14 1016 18 10000 1.5 30 12:22 21.12.2020
4627 Clear 14 1016 17 10000 1.5 30 11:43 21.12.2020
4628 Clear 15 1017 16 10000 2.1 30 11:22 21.12.2020
4629 Clear 15 1017 16 10000 2.1 30 11:22 21.12.2020
4630 Clear 15 1017 16 10000 2.1 30 10:58 21.12.2020
4631 Clear 15 1017 16 10000 2.1 30 10:39 21.12.2020
4632 Clear 14 1017 19 10000 1.5 50 09:58 21.12.2020
4633 Clear 14 1017 19 10000 1.5 50 09:40 21.12.2020
4634 Clear 14 1017 19 10000 1.5 50 09:40 21.12.2020
4635 Clear 14 1017 19 10000 1.5 50 09:22 21.12.2020
4636 Clear 14 1018 18 10000 2.1 30 08:30 21.12.2020
4637 Clear 15 1017 25 10000 1.5 30 07:31 21.12.2020
4638 Clear 15 1018 35 10000 1.75 17 05:50 21.12.2020
4639 Clear 16 1017 29 10000 1.1 326 04:31 21.12.2020
4640 Clear 24 1017 13 10000 1.5 280 00:51 21.12.2020
4641 Clear 25 1017 13 10000 1.5 280 00:30 21.12.2020
4642 Clear 26 1018 12 10000 2.1 260 23:24 20.12.2020
4643 Clear 25 1019 10 10000 0.94 305 22:56 20.12.2020
4644 Clear 25 1019 10 10000 0.94 305 22:38 20.12.2020
4645 Clear 25 1020 10 10000 0.22 7 22:19 20.12.2020
4646 Clear 25 1020 10 10000 0.22 7 21:39 20.12.2020
4647 Clear 24 1021 12 10000 0.74 288 21:20 20.12.2020
4648 Clear 24 1021 12 10000 0.74 288 20:47 20.12.2020
4649 Clear 22 1022 15 10000 0.72 316 20:22 20.12.2020
4650 Clear 22 1022 15 10000 0.72 316 19:45 20.12.2020
4651 Clear 21 1022 15 10000 1.01 354 19:26 20.12.2020
4652 Clear 18 1022 21 10000 1.01 354 18:56 20.12.2020
4653 Clear 18 1022 21 10000 0.9 355 18:38 20.12.2020
4654 Clear 17 1022 24 10000 1.5 30 18:19 20.12.2020
4655 Clear 11 1022 24 10000 1.5 30 17:43 20.12.2020
4656 Clear 13 1022 24 10000 1.5 30 17:22 20.12.2020
4657 Clear 11 1022 24 10000 1.5 20 16:44 20.12.2020
4658 Clear 11 1021 24 10000 2.1 40 16:25 20.12.2020
4659 Clear 11 1021 24 10000 2.1 40 15:45 20.12.2020
4660 Clear 11 1021 27 10000 1.5 30 15:24 20.12.2020
4661 Clear 11 1021 27 10000 1.5 30 14:49 20.12.2020
4662 Clear 11 1021 27 10000 1.5 30 14:30 20.12.2020
4663 Clear 12 1021 26 10000 2.1 20 13:46 20.12.2020
4664 Clear 11 1021 26 10000 2.1 20 13:24 20.12.2020
4665 Clear 10 1022 37 10000 1.5 30 12:54 20.12.2020
4666 Clear 10 1022 37 10000 1.5 30 12:36 20.12.2020
4667 Clear 10 1023 49 10000 2.23 8 12:18 20.12.2020
4668 Clear 10 1023 49 10000 2.23 8 11:42 20.12.2020
4669 Clear 11 1023 27 10000 2.44 8 10:57 20.12.2020
4670 Clear 11 1023 27 10000 2.44 8 10:38 20.12.2020
4671 Clear 11 1023 46 10000 2.25 12 10:19 20.12.2020
4672 Clear 12 1023 46 10000 2.25 12 09:45 20.12.2020
4673 Clear 11 1023 46 10000 2.41 12 09:27 20.12.2020
4674 Clear 11 1024 66 10000 2.41 12 08:52 20.12.2020
4675 Clear 11 1024 66 10000 2.41 12 08:33 20.12.2020
4676 Clear 11 1024 71 10000 1.69 58 07:23 20.12.2020
4677 Clear 11 1024 71 10000 1.69 58 07:23 20.12.2020
4678 Clear 13 1023 62 10000 0.85 23 05:44 20.12.2020
4679 Clear 18 1022 22 10000 1.5 280 01:35 20.12.2020
4680 Clear 20 1022 21 10000 1.5 250 00:37 20.12.2020
4681 Clear 21 1024 15 10000 0.89 235 23:20 19.12.2020
4682 Clear 21 1024 15 10000 0.89 235 22:57 19.12.2020
4683 Clear 21 1024 15 10000 0.55 274 22:38 19.12.2020
4684 Clear 21 1024 16 10000 0.55 274 22:19 19.12.2020
4685 Clear 21 1024 16 10000 0.55 274 21:42 19.12.2020
4686 Clear 20 1024 16 10000 0.58 346 21:24 19.12.2020
4687 Clear 20 1025 19 10000 0.58 346 20:45 19.12.2020
4688 Clear 19 1026 25 10000 0.77 316 20:21 19.12.2020
4689 Clear 19 1026 25 10000 0.77 316 19:54 19.12.2020
4690 Clear 18 1026 25 10000 0.55 66 19:36 19.12.2020
4691 Clear 16 1025 30 10000 0.58 54 18:43 19.12.2020
4692 Clear 16 1026 35 10000 1.75 20 18:25 19.12.2020
4693 Clear 12 1025 40 10000 1.75 20 17:49 19.12.2020
4694 Clear 12 1025 40 10000 1.82 2 17:28 19.12.2020
4695 Clear 9 1025 29 10000 1.5 350 16:56 19.12.2020
4696 Clear 8 1025 29 10000 1.5 350 16:37 19.12.2020
4697 Clear 8 1024 52 10000 1.76 12 16:19 19.12.2020
4698 Clear 9 1024 52 10000 1.76 12 15:47 19.12.2020
4699 Clear 9 1024 43 10000 1.87 14 15:18 19.12.2020
4700 Clear 9 1024 43 10000 1.87 14 14:35 19.12.2020
4701 Clear 9 1024 61 10000 1.79 18 13:42 19.12.2020
4702 Clear 8 1024 65 10000 1.88 8 13:22 19.12.2020
4703 Clear 9 1024 65 10000 1.91 4 12:55 19.12.2020
4704 Clear 9 1024 65 10000 1.91 4 12:37 19.12.2020
4705 Clear 9 1024 65 10000 1.91 4 12:37 19.12.2020
4706 Clear 9 1024 61 10000 2.01 1 12:19 19.12.2020
4707 Clear 9 1024 61 10000 2.01 1 11:42 19.12.2020
4708 Clear 10 1024 66 10000 1.8 4 11:18 19.12.2020
4709 Clear 10 1024 66 10000 1.8 4 10:42 19.12.2020
4710 Clear 10 1024 57 10000 1.86 8 10:18 19.12.2020
4711 Clear 11 1024 57 10000 1.86 8 09:41 19.12.2020
4712 Clear 11 1024 62 10000 1.7 14 08:58 19.12.2020
4713 Clear 11 1024 66 10000 1.76 13 08:18 19.12.2020
4714 Clear 12 1024 66 10000 2.03 13 07:20 19.12.2020
4715 Clear 12 1024 66 10000 2.24 10 06:49 19.12.2020
4716 Clear 13 1022 58 10000 2 7 05:24 19.12.2020
4717 Clear 13 1022 51 10000 1.73 24 03:50 19.12.2020
4718 Clear 18 1021 42 10000 2.1 260 00:42 19.12.2020
4719 Clear 18 1021 42 10000 2.1 260 00:22 19.12.2020
4720 Clear 18 1020 45 10000 2.31 254 23:57 18.12.2020
4721 Clear 18 1020 45 10000 2.31 254 23:39 18.12.2020
4722 Clear 19 1020 45 10000 3.56 251 23:18 18.12.2020
4723 Clear 19 1021 42 10000 3.56 251 22:42 18.12.2020
4724 Clear 19 1021 45 10000 3.28 243 22:20 18.12.2020
4725 Clear 18 1021 45 10000 3.28 243 21:46 18.12.2020
4726 Clear 18 1021 45 10000 2.28 247 21:28 18.12.2020
4727 Clear 17 1022 51 10000 2.28 247 20:38 18.12.2020
4728 Clear 17 1022 59 10000 1.91 280 20:19 18.12.2020
4729 Clear 16 1022 59 10000 1.91 280 19:41 18.12.2020
4730 Clear 15 1022 59 10000 1.63 316 19:19 18.12.2020
4731 Clear 14 1022 66 10000 2.1 80 18:39 18.12.2020
4732 Clear 13 1021 71 10000 1.56 354 18:20 18.12.2020
4733 Clear 11 1020 76 10000 1.66 350 17:22 18.12.2020
4734 Clear 10 1020 76 10000 1.66 350 16:49 18.12.2020
4735 Clear 9 1020 76 10000 1.39 358 16:27 18.12.2020
4736 Clouds 10 1020 81 10000 1.39 358 15:58 18.12.2020
4737 Clouds 9 1020 81 10000 1.39 358 15:39 18.12.2020
4738 Clouds 10 1019 81 10000 1.22 18 15:20 18.12.2020
4739 Clouds 9 1019 81 10000 1.22 18 14:54 18.12.2020
4740 Clouds 9 1019 81 10000 1.22 18 14:54 18.12.2020
4741 Clear 9 1018 76 10000 1.5 20 14:21 18.12.2020
4742 Clear 9 1018 76 10000 1.5 20 13:50 18.12.2020
4743 Clear 9 1018 76 10000 1.5 20 13:27 18.12.2020
4744 Clear 9 1018 81 10000 1.27 5 12:47 18.12.2020
4745 Clear 9 1017 81 10000 1.66 359 11:59 18.12.2020
4746 Clear 9 1017 81 10000 1.78 2 11:23 18.12.2020
4747 Clear 10 1016 81 10000 1.78 2 10:40 18.12.2020
4748 Clear 10 1016 81 10000 1.78 2 10:40 18.12.2020
4749 Clear 10 1016 71 10000 1.84 7 10:20 18.12.2020
4750 Clear 11 1016 71 10000 1.84 7 09:39 18.12.2020
4751 Clear 11 1016 47 10000 2.1 90 09:21 18.12.2020
4752 Clear 11 1016 47 10000 2.1 90 09:21 18.12.2020
4753 Clear 12 1016 47 10000 2.1 90 08:54 18.12.2020
4754 Clear 12 1016 47 10000 2.1 90 08:30 18.12.2020
4755 Clear 13 1015 44 10000 2.54 354 07:39 18.12.2020
4756 Clear 13 1015 38 10000 4.73 349 07:18 18.12.2020
4757 Clear 13 1015 38 10000 4.73 349 06:51 18.12.2020
4758 Clear 13 1015 44 10000 5.49 348 05:42 18.12.2020
4759 Clear 13 1014 71 10000 5.69 4 04:51 18.12.2020
4760 Clear 13 1014 71 10000 5.69 4 04:51 18.12.2020
4761 Clouds 13 1014 72 10000 0.2 356 02:24 18.12.2020
4762 Clouds 15 1013 59 10000 0.2 356 01:40 18.12.2020
4763 Clouds 15 1014 59 10000 2.6 246 00:27 18.12.2020
4764 Clouds 15 1014 72 10000 2.6 250 23:50 17.12.2020
4765 Clouds 16 1014 72 10000 2.6 0 23:19 17.12.2020
4766 Clouds 16 1015 72 10000 1.5 0 22:47 17.12.2020
4767 Clouds 16 1015 72 10000 1.5 0 22:26 17.12.2020
4768 Clear 16 1016 59 10000 3.57 227 21:43 17.12.2020
4769 Clear 17 1017 55 10000 3.12 207 21:19 17.12.2020
4770 Clear 16 1017 55 10000 3.12 207 20:43 17.12.2020
4771 Clear 16 1017 48 10000 1.5 0 20:19 17.12.2020
4772 Clear 15 1017 48 10000 1.5 0 19:49 17.12.2020
4773 Clear 15 1017 48 10000 1.5 0 19:25 17.12.2020
4774 Clear 14 1017 44 10000 2.24 179 18:47 17.12.2020
4775 Clear 13 1017 44 10000 1.8 144 18:27 17.12.2020
4776 Clear 12 1017 50 10000 1.8 144 17:58 17.12.2020
4777 Clear 12 1017 50 10000 1.8 144 17:38 17.12.2020
4778 Clouds 12 1017 53 10000 0.93 151 17:20 17.12.2020
4779 Clouds 11 1017 53 10000 0.93 151 16:37 17.12.2020
4780 Clear 11 1016 53 10000 1.5 100 16:19 17.12.2020
4781 Clear 11 1016 53 10000 1.5 100 15:42 17.12.2020
4782 Clear 11 1016 53 10000 0.42 163 15:23 17.12.2020
4783 Clear 11 1016 53 10000 0.42 163 14:47 17.12.2020
4784 Clear 11 1016 50 10000 0.99 146 14:20 17.12.2020
4785 Clear 11 1016 50 10000 0.99 146 13:48 17.12.2020
4786 Clear 11 1017 53 10000 0.46 135 13:20 17.12.2020
4787 Clear 11 1017 53 10000 0.76 118 12:41 17.12.2020
4788 Clear 11 1017 53 10000 1.3 117 12:22 17.12.2020
4789 Clear 11 1017 53 10000 1.3 117 11:42 17.12.2020
4790 Clear 11 1017 53 10000 1.02 116 11:22 17.12.2020
4791 Clear 12 1017 46 10000 1.02 116 10:44 17.12.2020
4792 Clear 12 1017 38 10000 1.5 100 09:37 17.12.2020
4793 Clear 13 1017 47 10000 1.5 90 08:57 17.12.2020
4794 Clear 12 1018 66 10000 1.05 124 07:44 17.12.2020
4795 Clear 12 1018 66 10000 1.35 117 07:25 17.12.2020
4796 Clear 12 1018 58 10000 1.38 104 06:50 17.12.2020
4797 Clear 13 1018 58 10000 1.35 117 06:32 17.12.2020
4798 Clear 15 1018 31 10000 1.63 255 03:31 17.12.2020
4799 Clear 21 1017 26 10000 2.1 280 00:28 17.12.2020
4800 Clear 21 1018 21 10000 1.5 260 23:50 16.12.2020
4801 Clear 21 1018 17 10000 1.71 257 23:19 16.12.2020
4802 Clear 22 1018 17 10000 1.71 257 22:50 16.12.2020
4803 Clear 21 1018 17 10000 1.6 260 22:31 16.12.2020
4804 Clear 21 1020 15 10000 1.6 260 21:46 16.12.2020
4805 Clear 21 1020 15 10000 0.96 256 21:26 16.12.2020
4806 Clear 20 1021 19 10000 0.96 256 20:52 16.12.2020
4807 Clear 19 1021 22 10000 0.86 303 20:20 16.12.2020
4808 Clear 19 1021 22 10000 0.86 303 19:45 16.12.2020
4809 Clear 18 1022 20 10000 1.5 90 19:18 16.12.2020
4810 Clear 17 1021 33 10000 0.62 297 18:52 16.12.2020
4811 Clear 16 1022 26 10000 0.69 351 18:27 16.12.2020
4812 Clear 12 1021 45 10000 0.69 351 17:43 16.12.2020
4813 Clear 9 1021 49 10000 1.26 12 16:58 16.12.2020
4814 Clear 9 1021 49 10000 1.26 12 16:39 16.12.2020
4815 Clear 10 1021 49 10000 1.51 16 16:20 16.12.2020
4816 Clear 10 1021 49 10000 1.51 16 15:49 16.12.2020
4817 Clear 10 1021 42 10000 1.69 12 15:24 16.12.2020
4818 Clear 10 1021 42 10000 1.69 12 14:46 16.12.2020
4819 Clear 10 1021 45 10000 1.66 15 14:28 16.12.2020
4820 Clear 10 1021 45 10000 1.66 15 13:45 16.12.2020
4821 Clear 10 1021 45 10000 1.88 20 13:27 16.12.2020
4822 Clear 9 1021 45 10000 1.55 26 12:48 16.12.2020
4823 Clear 10 1021 43 10000 1.55 21 12:25 16.12.2020
4824 Clear 10 1021 43 10000 1.53 10 11:38 16.12.2020
4825 Clear 10 1021 40 10000 1.53 10 11:19 16.12.2020
4826 Clear 10 1021 40 10000 1.53 10 10:43 16.12.2020
4827 Clear 11 1022 40 10000 1.48 15 10:19 16.12.2020
4828 Clear 11 1022 40 10000 1.48 15 09:39 16.12.2020
4829 Clear 12 1022 37 10000 2.26 6 08:27 16.12.2020
4830 Clear 12 1022 37 10000 2.26 6 07:49 16.12.2020
4831 Clear 12 1022 37 10000 2.15 6 07:30 16.12.2020
4832 Clear 13 1022 30 10000 1.71 5 06:41 16.12.2020
4833 Clear 15 1021 27 10000 2.37 242 02:26 16.12.2020
4834 Clear 19 1021 21 10000 1.5 250 00:23 16.12.2020
4835 Clear 20 1021 21 10000 1.5 250 23:44 15.12.2020
4836 Clear 20 1021 19 10000 1.74 246 22:46 15.12.2020
4837 Clear 19 1022 22 10000 4.6 250 22:24 15.12.2020
4838 Clear 19 1022 22 10000 1.44 265 21:57 15.12.2020
4839 Clear 19 1022 22 10000 1.44 265 21:37 15.12.2020
4840 Clear 19 1022 22 10000 2.6 250 21:18 15.12.2020
4841 Clear 18 1024 25 10000 1.5 270 20:42 15.12.2020
4842 Clear 18 1023 27 10000 1.96 309 20:23 15.12.2020
4843 Clear 17 1023 27 10000 1.96 309 19:42 15.12.2020
4844 Clear 16 1023 27 10000 2.04 320 19:23 15.12.2020
4845 Clear 15 1023 41 10000 1.82 326 18:39 15.12.2020
4846 Clear 14 1024 35 10000 2.03 346 18:21 15.12.2020
4847 Clear 14 1024 35 10000 2.03 346 18:21 15.12.2020
4848 Clear 12 1023 32 10000 2.03 346 17:44 15.12.2020
4849 Clear 11 1023 36 10000 1.93 5 17:23 15.12.2020
4850 Clear 8 1022 52 10000 1.93 5 16:39 15.12.2020
4851 Clear 9 1021 45 10000 2.03 10 16:21 15.12.2020
4852 Clear 9 1021 45 10000 2.03 10 15:37 15.12.2020
4853 Clear 8 1021 52 10000 2.04 3 15:18 15.12.2020
4854 Clear 8 1021 52 10000 2.04 3 14:41 15.12.2020
4855 Clear 8 1021 52 10000 2.04 3 14:41 15.12.2020
4856 Clear 9 1020 49 10000 1.89 8 14:19 15.12.2020
4857 Clear 9 1020 49 10000 1.89 8 13:49 15.12.2020
4858 Clear 9 1020 49 10000 2.18 3 13:24 15.12.2020
4859 Clear 9 1020 49 10000 2.08 3 12:46 15.12.2020
4860 Clear 10 1020 40 10000 2.26 360 12:19 15.12.2020
4861 Clear 10 1020 40 10000 2.26 360 11:52 15.12.2020
4862 Clear 10 1019 43 10000 2.65 356 11:23 15.12.2020
4863 Clear 10 1019 43 10000 2.65 356 10:49 15.12.2020
4864 Clear 11 1020 37 10000 2.6 355 10:20 15.12.2020
4865 Clear 12 1020 37 10000 2.6 355 09:44 15.12.2020
4866 Clear 12 1020 37 10000 2.55 358 09:26 15.12.2020
4867 Clear 12 1020 37 10000 2.55 358 08:46 15.12.2020
4868 Clear 12 1019 35 10000 2.76 350 08:24 15.12.2020
4869 Clear 12 1019 35 10000 2.76 350 07:48 15.12.2020
4870 Clear 12 1019 35 10000 3.11 340 07:23 15.12.2020
4871 Clear 12 1019 33 10000 3.5 356 06:26 15.12.2020
4872 Clear 16 1016 29 10000 2.6 0 01:27 15.12.2020
4873 Clear 17 1016 27 10000 2.1 290 00:34 15.12.2020
4874 Clear 18 1016 27 10000 3.1 300 23:23 14.12.2020
4875 Clear 18 1017 27 10000 3.6 300 22:48 14.12.2020
4876 Clear 18 1017 28 10000 3.6 300 22:27 14.12.2020
4877 Clear 18 1017 27 10000 2.1 0 21:44 14.12.2020
4878 Clear 18 1019 27 10000 3.6 320 21:22 14.12.2020
4879 Clear 17 1019 27 10000 3.6 320 20:49 14.12.2020
4880 Clear 17 1019 27 10000 3.6 320 20:29 14.12.2020
4881 Clear 16 1019 39 10000 2.1 0 19:53 14.12.2020
4882 Clear 16 1019 39 10000 2.1 0 19:29 14.12.2020
4883 Clear 15 1019 54 10000 2.1 100 18:44 14.12.2020
4884 Clear 14 1019 54 10000 2.1 100 18:25 14.12.2020
4885 Clear 13 1019 81 10000 3.68 344 17:46 14.12.2020
4886 Clear 12 1019 81 10000 3.23 8 17:23 14.12.2020
4887 Clouds 12 1019 76 10000 3.23 8 16:50 14.12.2020
4888 Clear 11 1018 71 10000 2.44 32 16:28 14.12.2020
4889 Clear 12 1018 71 10000 2.44 32 15:39 14.12.2020
4890 Clear 11 1018 76 10000 1.86 54 15:20 14.12.2020
4891 Clear 11 1018 76 10000 1.86 54 14:42 14.12.2020
4892 Clear 12 1018 71 10000 1.78 71 14:23 14.12.2020
4893 Clear 12 1018 71 10000 1.78 71 13:42 14.12.2020
4894 Clouds 12 1019 67 10000 1.07 46 13:18 14.12.2020
4895 Clouds 12 1019 67 10000 1.07 46 12:52 14.12.2020
4896 Clouds 12 1019 71 10000 0.31 287 12:24 14.12.2020
4897 Clouds 12 1019 71 10000 0.31 287 11:35 14.12.2020
4898 Clouds 12 1020 82 10000 3.1 280 10:38 14.12.2020
4899 Clouds 12 1020 67 10000 1.49 224 10:19 14.12.2020
4900 Clouds 13 1020 67 10000 1.46 210 09:31 14.12.2020
4901 Clouds 13 1020 62 10000 1.46 210 08:47 14.12.2020
4902 Clouds 13 1020 62 10000 1.52 213 08:28 14.12.2020
4903 Clouds 13 1021 62 10000 1.52 213 07:44 14.12.2020
4904 Clouds 14 1021 51 10000 1.3 212 06:48 14.12.2020
4905 Clouds 14 1021 55 10000 1.45 234 05:35 14.12.2020
4906 Clouds 15 1022 29 10000 1.5 270 02:26 14.12.2020
4907 Clear 18 1021 22 10000 3.6 260 00:56 14.12.2020
4908 Clear 18 1022 20 10000 4.6 270 00:33 14.12.2020
4909 Clear 19 1021 21 10000 2.02 232 23:57 13.12.2020
4910 Clear 19 1021 21 10000 2.02 232 23:36 13.12.2020
4911 Clear 20 1022 22 10000 1.65 199 22:48 13.12.2020
4912 Clear 19 1022 22 10000 1.3 174 22:20 13.12.2020
4913 Clear 19 1023 22 10000 1.3 174 21:47 13.12.2020
4914 Clear 19 1023 22 10000 0.77 179 21:28 13.12.2020
4915 Clear 18 1024 23 10000 0.77 179 20:40 13.12.2020
4916 Clear 18 1024 23 10000 0.5 285 20:21 13.12.2020
4917 Clear 17 1024 27 10000 2.1 0 19:42 13.12.2020
4918 Clear 17 1024 27 10000 2.1 0 19:20 13.12.2020
4919 Clear 16 1025 24 10000 1.5 0 18:44 13.12.2020
4920 Clear 15 1025 33 10000 1.5 0 18:21 13.12.2020
4921 Clear 13 1024 57 10000 1.41 341 17:47 13.12.2020
4922 Clear 13 1024 57 10000 1.61 4 17:21 13.12.2020
4923 Clear 12 1024 57 10000 1.61 4 16:59 13.12.2020
4924 Clear 11 1024 57 10000 1.61 4 16:39 13.12.2020
4925 Clear 11 1023 62 10000 1.73 4 16:19 13.12.2020
4926 Clear 11 1023 62 10000 1.73 4 15:42 13.12.2020
4927 Clear 11 1023 62 10000 1.62 19 15:23 13.12.2020
4928 Clear 10 1023 71 10000 1.62 19 14:44 13.12.2020
4929 Clear 11 1023 71 10000 1.83 40 14:25 13.12.2020
4930 Clear 10 1023 81 10000 1.83 40 13:44 13.12.2020
4931 Clear 10 1023 81 10000 1.78 29 13:25 13.12.2020
4932 Clear 11 1022 76 10000 1.76 36 12:52 13.12.2020
4933 Clear 11 1022 76 10000 1.73 21 12:23 13.12.2020
4934 Clear 11 1022 76 10000 1.73 21 11:47 13.12.2020
4935 Clear 11 1022 76 10000 1.56 6 11:23 13.12.2020
4936 Clear 11 1022 71 10000 1.56 6 10:41 13.12.2020
4937 Clear 13 1021 71 10000 1.08 20 09:59 13.12.2020
4938 Clear 12 1021 71 10000 0.99 31 09:31 13.12.2020
4939 Haze 12 1021 71 9656 0.99 31 08:36 13.12.2020
4940 Clear 12 1021 67 10000 1.8 27 07:52 13.12.2020
4941 Clear 13 1020 59 10000 2.55 12 05:50 13.12.2020
4942 Clear 16 1016 37 10000 2.1 0 02:43 13.12.2020
4943 Clear 16 1016 55 10000 5.3 334 01:59 13.12.2020
4944 Clear 17 1016 55 10000 5.3 334 01:33 13.12.2020
4945 Clear 18 1015 52 10000 2.1 0 00:37 13.12.2020
4946 Clear 18 1015 55 10000 1.5 270 23:33 12.12.2020
4947 Clear 17 1015 59 10000 4.5 283 22:59 12.12.2020
4948 Clear 17 1015 59 10000 3.8 286 22:29 12.12.2020
4949 Clear 16 1016 55 10000 3.8 286 21:46 12.12.2020
4950 Clouds 16 1017 63 10000 1.5 10 21:19 12.12.2020
4951 Clouds 15 1018 62 10000 2.27 267 20:45 12.12.2020
4952 Clouds 15 1018 62 10000 0.93 177 20:21 12.12.2020
4953 Clouds 14 1018 71 10000 1.5 0 19:52 12.12.2020
4954 Clouds 14 1018 71 10000 1.5 0 19:33 12.12.2020
4955 Clouds 13 1018 71 10000 1.5 0 18:56 12.12.2020
4956 Haze 13 1018 71 9656 1.5 0 18:37 12.12.2020
4957 Haze 12 1018 76 6437 2.45 98 18:18 12.12.2020
4958 Haze 11 1018 76 6437 2.45 98 17:40 12.12.2020
4959 Haze 10 1018 76 8047 1.63 104 16:44 12.12.2020
4960 Mist 9 1018 87 9656 2.1 110 15:57 12.12.2020
4961 Mist 9 1018 87 9656 2.1 110 15:39 12.12.2020
4962 Haze 9 1018 81 9656 1.03 171 14:54 12.12.2020
4963 Haze 9 1018 81 9656 0.47 140 14:22 12.12.2020
4964 Haze 9 1018 81 9656 0.47 140 13:41 12.12.2020
4965 Haze 9 1019 81 8047 0.91 189 13:23 12.12.2020
4966 Haze 9 1019 81 8047 0.79 206 12:36 12.12.2020
4967 Mist 10 1018 87 8047 1.36 244 11:28 12.12.2020
4968 Haze 10 1018 81 8047 1.36 244 10:46 12.12.2020
4969 Mist 10 1019 87 9656 1.51 270 09:24 12.12.2020
4970 Mist 10 1019 87 9656 1.51 270 08:41 12.12.2020
4971 Clear 14 1018 59 10000 2.25 237 01:56 12.12.2020
4972 Clear 16 1018 51 10000 1.5 250 23:31 11.12.2020
4973 Clouds 14 1020 58 10000 1.83 232 20:58 11.12.2020
4974 Clouds 13 1021 62 10000 1.07 220 19:46 11.12.2020
4975 Clouds 12 1020 76 10000 1.32 196 17:30 11.12.2020
4976 Clouds 10 1019 81 10000 0.89 219 14:38 11.12.2020
4977 Clouds 10 1019 76 10000 0.95 240 13:46 11.12.2020
4978 Clouds 10 1019 76 10000 0.86 231 12:29 11.12.2020
4979 Clouds 10 1020 76 10000 0.86 231 11:55 11.12.2020
4980 Clouds 10 1020 76 10000 0.86 231 11:37 11.12.2020
4981 Clouds 10 1020 81 10000 1.08 220 10:40 11.12.2020
4982 Clear 11 1019 76 10000 1.3 188 07:51 11.12.2020
4983 Clouds 12 1019 71 10000 1.32 178 05:36 11.12.2020
4984 Clouds 12 1018 67 10000 1.21 186 04:47 11.12.2020
4985 Clouds 16 1016 59 10000 2.1 260 00:59 11.12.2020
4986 Clouds 17 1016 52 10000 3.45 193 23:37 10.12.2020
4987 Clear 17 1016 52 10000 3.1 0 21:59 10.12.2020
4988 Clear 17 1016 52 10000 3.1 0 21:29 10.12.2020
4989 Clouds 16 1017 55 10000 3.1 0 20:38 10.12.2020
4990 Clouds 15 1018 59 10000 3.1 100 19:33 10.12.2020
4991 Clouds 14 1017 50 10000 3.34 135 18:50 10.12.2020
4992 Clear 13 1016 54 10000 3.07 129 17:45 10.12.2020
4993 Clouds 10 1016 57 10000 2.27 101 16:24 10.12.2020
4994 Clear 10 1015 54 10000 1.69 127 15:25 10.12.2020
4995 Clear 10 1014 76 10000 1.69 127 14:48 10.12.2020
4996 Clear 10 1014 66 10000 3.04 107 14:24 10.12.2020
4997 Clear 11 1014 62 10000 1.5 100 12:38 10.12.2020
4998 Clear 11 1015 71 10000 1.54 105 11:32 10.12.2020
4999 Clear 13 1015 67 10000 1.16 140 08:47 10.12.2020
5000 Clear 13 1015 71 10000 1.94 132 07:37 10.12.2020
5001 Clear 14 1014 62 10000 1.5 100 06:41 10.12.2020
5002 Clear 16 1014 39 10000 1.5 260 02:53 10.12.2020
5003 Clear 18 1013 42 10000 2.6 260 01:58 10.12.2020
5004 Clear 22 1014 18 10000 2.6 260 23:50 09.12.2020
5005 Clear 21 1017 15 10000 1.91 229 20:51 09.12.2020
5006 Clear 21 1018 20 10000 1.5 260 20:26 09.12.2020
5007 Clear 19 1018 33 10000 1.36 175 19:20 09.12.2020
5008 Clear 15 1018 37 10000 0.92 129 17:42 09.12.2020
5009 Clear 14 1018 40 10000 0.59 98 16:40 09.12.2020
5010 Clear 13 1018 40 10000 0.38 106 16:20 09.12.2020
5011 Clear 13 1018 40 10000 0.38 106 16:20 09.12.2020
5012 Clear 14 1018 37 10000 0.28 136 14:58 09.12.2020
5013 Clear 14 1018 37 10000 0.49 100 14:27 09.12.2020
5014 Clear 13 1018 35 10000 0.49 100 13:51 09.12.2020
5015 Clear 13 1018 32 10000 0.78 115 13:19 09.12.2020
5016 Clear 14 1018 32 10000 0.78 115 12:43 09.12.2020
5017 Clear 14 1018 32 10000 0.46 39 11:48 09.12.2020
5018 Clear 15 1018 21 10000 0.85 40 10:39 09.12.2020
5019 Clear 16 1018 26 10000 1.09 49 08:46 09.12.2020
5020 Clear 16 1018 33 10000 1.4 74 07:43 09.12.2020
5021 Clear 17 1017 23 10000 1.38 31 05:48 09.12.2020
5022 Clear 20 1016 19 10000 1.27 344 03:21 09.12.2020
5023 Clear 22 1016 9 10000 0.66 329 01:49 09.12.2020
5024 Clear 26 1016 7 10000 1.5 0 23:41 08.12.2020
5025 Clear 27 1017 7 10000 2.1 90 22:43 08.12.2020
5026 Clear 25 1018 11 10000 0.52 316 20:54 08.12.2020
5027 Clear 23 1018 29 10000 1.01 341 19:32 08.12.2020
5028 Clear 20 1018 29 10000 2.08 5 18:57 08.12.2020
5029 Clear 16 1018 35 10000 3.12 9 17:31 08.12.2020
5030 Clear 16 1017 34 10000 3.24 9 15:44 08.12.2020
5031 Clear 15 1016 40 10000 2.86 12 14:18 08.12.2020
5032 Clear 15 1016 40 10000 2.87 7 13:24 08.12.2020
5033 Clear 14 1017 40 10000 2.52 14 12:24 08.12.2020
5034 Clear 14 1017 40 10000 2.52 14 11:42 08.12.2020
5035 Clear 15 1016 37 10000 2.33 22 10:45 08.12.2020
5036 Clear 15 1016 24 10000 2.33 14 09:50 08.12.2020
5037 Clouds 17 1016 12 10000 0.45 190 07:59 08.12.2020
5038 Clear 17 1016 31 10000 2.34 10 06:36 08.12.2020
5039 Clear 20 1015 27 10000 1.31 348 03:29 08.12.2020
5040 Clear 22 1014 13 10000 0.14 46 00:46 08.12.2020
5041 Clear 22 1014 16 10000 1.33 349 23:52 07.12.2020
5042 Clear 21 1014 19 10000 1.04 33 22:38 07.12.2020
5043 Clear 20 1015 34 10000 1.51 96 21:51 07.12.2020
5044 Clear 15 1016 41 10000 1.11 83 19:52 07.12.2020
5045 Clear 13 1016 40 10000 1.04 73 18:42 07.12.2020
5046 Clear 11 1016 53 10000 1.22 52 17:26 07.12.2020
5047 Clear 12 1015 57 10000 1.22 52 16:54 07.12.2020
5048 Clear 10 1016 39 10000 0.77 76 15:30 07.12.2020
5049 Clear 11 1016 61 10000 0.77 76 14:51 07.12.2020
5050 Clear 10 1016 65 10000 0.56 57 14:18 07.12.2020
5051 Clear 9 1016 65 10000 0.78 90 13:23 07.12.2020
5052 Clear 10 1016 66 10000 0.59 82 11:44 07.12.2020
5053 Clear 10 1017 70 10000 0.54 98 11:19 07.12.2020
5054 Clear 11 1018 62 10000 0.77 107 09:56 07.12.2020
5055 Clear 12 1018 33 10000 0.92 96 08:26 07.12.2020
5056 Clear 12 1018 76 10000 0.4 149 06:44 07.12.2020
5057 Clear 13 1019 67 10000 0.57 193 04:50 07.12.2020
5058 Clear 17 1019 25 10000 1.5 260 01:55 07.12.2020
5059 Clear 21 1019 15 10000 3.1 270 00:29 07.12.2020
5060 Clear 22 1020 19 10000 1.5 260 22:28 06.12.2020
5061 Clear 22 1021 12 10000 2.07 226 21:22 06.12.2020
5062 Clear 20 1022 17 10000 2.07 226 20:34 06.12.2020
5063 Clear 19 1023 20 10000 1.77 249 19:56 06.12.2020
5064 Clear 16 1023 28 10000 1.23 244 18:40 06.12.2020
5065 Clear 8 1023 42 10000 0.54 56 16:56 06.12.2020
5066 Clear 8 1022 45 10000 0.77 33 15:37 06.12.2020
5067 Clear 9 1022 42 10000 1.51 349 13:56 06.12.2020
5068 Clear 9 1023 37 10000 1.07 360 12:52 06.12.2020
5069 Clear 9 1023 37 10000 1.22 292 12:23 06.12.2020
5070 Clear 9 1023 57 10000 1.22 292 11:35 06.12.2020
5071 Clear 10 1023 66 10000 0.18 191 10:55 06.12.2020
5072 Clear 10 1023 66 10000 1.82 88 10:24 06.12.2020
5073 Clear 11 1024 76 10000 1.52 70 08:37 06.12.2020
5074 Clear 12 1024 76 10000 0.28 296 06:51 06.12.2020
5075 Clouds 16 1023 67 1200 3.1 230 02:21 06.12.2020
5076 Clear 20 1022 24 10000 2.01 230 00:42 06.12.2020
5077 Clear 21 1022 12 10000 1.5 0 00:23 06.12.2020
5078 Clear 22 1023 7 10000 1.71 195 22:51 05.12.2020
5079 Clear 22 1023 8 10000 1.5 110 22:20 05.12.2020
5080 Clear 22 1023 8 10000 1.5 110 21:51 05.12.2020
5081 Clear 21 1023 8 10000 1.5 110 21:26 05.12.2020
5082 Clear 17 1025 19 10000 1.21 147 19:48 05.12.2020
5083 Clear 17 1025 21 10000 0.76 199 18:41 05.12.2020
5084 Clear 12 1024 25 10000 2.6 270 17:34 05.12.2020
5085 Clear 10 1024 31 10000 0.23 358 16:42 05.12.2020
5086 Clear 9 1023 34 10000 1.5 20 16:20 05.12.2020
5087 Clear 9 1022 42 10000 0.76 67 14:28 05.12.2020
5088 Clear 9 1022 45 10000 1.12 56 12:32 05.12.2020
5089 Clear 9 1022 39 10000 0.96 56 11:48 05.12.2020
5090 Clear 10 1022 42 10000 1.35 77 10:32 05.12.2020
5091 Clear 12 1022 66 10000 0.3 126 07:49 05.12.2020
5092 Clear 11 1022 66 10000 0.27 216 07:25 05.12.2020
5093 Clear 14 1020 35 10000 0.78 284 04:46 05.12.2020
5094 Clear 22 1020 10 10000 2.1 0 23:56 04.12.2020
5095 Clear 22 1020 8 10000 2.39 241 22:41 04.12.2020
5096 Clear 21 1022 9 10000 0.24 263 20:30 04.12.2020
5097 Clear 18 1023 14 10000 2.1 360 18:53 04.12.2020
5098 Clear 15 1023 18 10000 1.5 10 18:21 04.12.2020
5099 Clear 13 1023 18 10000 1.5 10 17:41 04.12.2020
5100 Clear 10 1023 18 10000 2.1 20 15:54 04.12.2020
5101 Clear 10 1022 18 10000 2.1 20 15:20 04.12.2020
5102 Clear 10 1023 16 10000 2.1 30 13:35 04.12.2020
5103 Clear 10 1023 17 10000 1.69 1 12:55 04.12.2020
5104 Clear 11 1023 15 10000 1.52 11 11:41 04.12.2020
5105 Clear 11 1023 16 10000 1.5 40 10:30 04.12.2020
5106 Clear 13 1023 27 10000 1.79 7 08:29 04.12.2020
5107 Clear 14 1023 22 10000 1.75 9 06:40 04.12.2020
5108 Clear 14 1023 22 10000 1.75 9 06:40 04.12.2020
5109 Clear 15 1023 21 10000 2.01 6 04:52 04.12.2020
5110 Clear 21 1021 8 10000 1.48 250 01:20 04.12.2020
5111 Clear 22 1022 8 10000 1.5 0 22:47 03.12.2020
5112 Clear 21 1023 9 10000 0.43 294 21:22 03.12.2020
5113 Clear 20 1023 9 10000 2.1 0 20:46 03.12.2020
5114 Clear 18 1024 14 10000 1.5 10 19:23 03.12.2020
5115 Clear 17 1024 25 10000 1.5 100 18:41 03.12.2020
5116 Clear 13 1023 57 10000 2.55 358 17:21 03.12.2020
5117 Clear 10 1022 57 10000 2.35 12 15:59 03.12.2020
5118 Clear 9 1022 57 10000 2.35 12 15:32 03.12.2020
5119 Clear 10 1021 61 10000 1.9 8 14:49 03.12.2020
5120 Clear 10 1021 40 10000 1.76 16 13:55 03.12.2020
5121 Clear 10 1021 61 10000 1.55 354 12:46 03.12.2020
5122 Clear 11 1021 57 10000 2.68 352 12:23 03.12.2020
5123 Clear 12 1020 58 10000 1.53 29 10:54 03.12.2020
5124 Clear 13 1020 58 10000 1.4 53 08:49 03.12.2020
5125 Clear 16 1018 51 10000 1.31 26 04:21 03.12.2020
5126 Clear 19 1017 43 10000 1.5 260 01:57 03.12.2020
5127 Clear 24 1016 38 10000 2.6 270 00:32 03.12.2020
5128 Clear 25 1017 15 10000 0.88 210 22:47 02.12.2020
5129 Clear 24 1017 13 10000 0.7 224 21:55 02.12.2020
5130 Clear 23 1018 13 10000 1.5 120 20:51 02.12.2020
5131 Clear 23 1018 13 10000 1.5 120 20:33 02.12.2020
5132 Clear 22 1018 20 10000 0.13 191 19:55 02.12.2020
5133 Clear 17 1018 19 10000 0.85 35 17:53 02.12.2020
5134 Clear 15 1018 19 10000 0.85 35 17:34 02.12.2020
5135 Clear 11 1018 57 10000 1.13 13 16:57 02.12.2020
5136 Clear 11 1016 37 10000 1.35 25 14:47 02.12.2020
5137 Clear 12 1017 32 10000 1.5 30 11:34 02.12.2020
5138 Clear 12 1017 54 10000 1.74 21 10:28 02.12.2020
5139 Clear 14 1017 58 10000 0.74 332 08:29 02.12.2020
5140 Clear 24 1015 17 10000 1.45 247 00:57 02.12.2020
5141 Clear 24 1017 12 10000 0.97 224 22:21 01.12.2020
5142 Clear 23 1018 12 10000 0.73 245 20:46 01.12.2020
5143 Clear 20 1018 31 10000 0.27 270 19:34 01.12.2020
5144 Clear 15 1019 37 10000 0.89 13 17:34 01.12.2020
5145 Clear 10 1018 45 10000 0.94 24 15:40 01.12.2020
5146 Clear 11 1018 43 10000 1.11 19 13:37 01.12.2020
5147 Clear 12 1019 22 10000 1.5 50 11:46 01.12.2020
5148 Clear 12 1019 22 10000 1.5 50 11:26 01.12.2020
5149 Clear 12 1019 34 10000 1.18 22 10:38 01.12.2020
5150 Clear 13 1019 66 10000 0.91 348 08:21 01.12.2020
5151 Clear 14 1019 62 10000 0.46 346 06:47 01.12.2020
5152 Clear 19 1018 21 10000 1.5 260 01:52 01.12.2020
5153 Clear 22 1018 20 10000 2.46 258 00:55 01.12.2020
5154 Clear 25 1018 10 10000 1.5 0 23:21 30.11.2020
5155 Clear 25 1018 10 10000 1.5 0 22:44 30.11.2020
5156 Clear 24 1018 10 10000 1.5 0 22:25 30.11.2020
5157 Clear 23 1020 11 10000 1.5 0 20:47 30.11.2020
5158 Clear 22 1021 14 10000 1.5 0 19:42 30.11.2020
5159 Clear 18 1021 26 10000 0.41 24 18:23 30.11.2020
5160 Clear 15 1021 26 10000 0.41 24 17:47 30.11.2020
5161 Clear 11 1020 30 10000 0.91 36 16:55 30.11.2020
5162 Clear 12 1020 26 10000 1.5 30 15:59 30.11.2020
5163 Clear 12 1020 22 10000 0.62 33 14:46 30.11.2020
5164 Clear 12 1020 22 10000 2.1 30 13:52 30.11.2020
5165 Clear 13 1020 21 10000 2.1 10 12:26 30.11.2020
5166 Clear 13 1020 24 10000 1.5 40 11:58 30.11.2020
5167 Clear 13 1020 24 10000 1.5 40 11:58 30.11.2020
5168 Clear 13 1020 24 10000 1.21 7 10:26 30.11.2020
5169 Clear 13 1020 24 10000 1.21 7 10:26 30.11.2020
5170 Clear 14 1020 24 10000 1.21 7 09:49 30.11.2020
5171 Clear 14 1020 54 10000 1.23 66 07:18 30.11.2020
5172 Clear 22 1017 16 10000 2.62 243 00:41 30.11.2020
5173 Clear 23 1019 11 10000 1.45 259 21:52 29.11.2020
5174 Clear 23 1019 11 10000 1.45 259 21:31 29.11.2020
5175 Clear 21 1020 15 10000 0.87 7 19:58 29.11.2020
5176 Clear 13 1020 24 10000 0.86 52 17:48 29.11.2020
5177 Clear 10 1020 23 10000 2.1 30 16:27 29.11.2020
5178 Clear 11 1019 23 10000 1.5 30 13:24 29.11.2020
5179 Clear 11 1019 23 10000 2.1 20 11:42 29.11.2020
5180 Clear 12 1019 24 10000 2.1 20 10:53 29.11.2020
5181 Clear 12 1020 32 10000 1.5 10 08:39 29.11.2020
5182 Clear 13 1019 46 10000 0.66 27 06:33 29.11.2020
5183 Clear 22 1019 10 10000 2.9 254 00:30 29.11.2020
5184 Clear 22 1020 12 10000 2.62 242 22:57 28.11.2020
5185 Clear 21 1022 10 10000 1.5 0 20:50 28.11.2020
5186 Clear 19 1023 14 10000 2.6 60 19:51 28.11.2020
5187 Clear 18 1023 14 10000 2.6 60 19:24 28.11.2020
5188 Clear 17 1023 18 10000 0.41 8 18:51 28.11.2020
5189 Clear 14 1022 23 10000 1.5 360 17:48 28.11.2020
5190 Clear 11 1022 25 10000 1.5 20 16:45 28.11.2020
5191 Clear 9 1022 31 10000 1.5 360 14:58 28.11.2020
5192 Clear 10 1021 25 10000 1.5 10 13:30 28.11.2020
5193 Clear 10 1022 37 10000 1.62 13 11:23 28.11.2020
5194 Clear 12 1021 37 10000 1.83 28 08:18 28.11.2020
5195 Clear 15 1021 22 10000 1.54 334 03:34 28.11.2020
5196 Clear 16 1020 17 10000 1.5 0 01:51 28.11.2020
5197 Clear 19 1021 16 10000 2.1 0 23:19 27.11.2020
5198 Clear 19 1021 18 10000 1.5 0 21:57 27.11.2020
5199 Clear 18 1022 31 10000 1.98 245 20:38 27.11.2020
5200 Clear 17 1022 22 10000 2.1 140 19:31 27.11.2020
5201 Clear 15 1022 22 10000 0.56 12 18:51 27.11.2020
5202 Clear 8 1020 52 10000 1.77 0 15:39 27.11.2020
5203 Clear 9 1019 52 10000 1.87 3 14:18 27.11.2020
5204 Clear 9 1019 49 10000 2 360 12:48 27.11.2020
5205 Clear 10 1019 49 10000 1.67 355 12:20 27.11.2020
5206 Clear 11 1019 61 10000 1.49 353 10:51 27.11.2020
5207 Clear 11 1019 61 10000 1.79 19 10:28 27.11.2020
5208 Clear 13 1019 22 10000 3.24 28 07:39 27.11.2020
5209 Clear 19 1016 28 10000 0.45 219 22:59 26.11.2020
5210 Clear 19 1016 40 10000 0.83 265 22:22 26.11.2020
5211 Clear 18 1016 50 10000 1.34 261 21:39 26.11.2020
5212 Haze 17 1018 55 8047 0.79 255 20:39 26.11.2020
5213 Haze 13 1018 76 6437 1.5 100 18:36 26.11.2020
5214 Haze 11 1018 81 4828 2.1 0 17:20 26.11.2020
5215 Haze 11 1017 76 9656 0.53 17 13:44 26.11.2020
5216 Haze 11 1017 76 8047 0.45 64 12:56 26.11.2020
5217 Haze 11 1017 76 8047 0.63 91 12:29 26.11.2020
5218 Haze 10 1017 81 9656 0.84 107 10:46 26.11.2020
5219 Clear 11 1018 81 10000 1.02 123 10:23 26.11.2020
5220 Clear 11 1018 81 10000 1.02 123 09:34 26.11.2020
5221 Clear 12 1018 82 10000 1.22 146 08:57 26.11.2020
5222 Clear 11 1018 82 10000 1.22 146 08:33 26.11.2020
5223 Clear 15 1017 67 10000 2.1 260 02:18 26.11.2020
5224 Clear 18 1019 63 10000 2.75 224 22:18 25.11.2020
5225 Clouds 17 1020 67 10000 2.1 0 20:37 25.11.2020
5226 Haze 16 1020 63 8047 1.52 191 19:18 25.11.2020
5227 Clear 12 1020 71 10000 0.91 150 17:29 25.11.2020
5228 Mist 10 1019 87 6437 1.14 149 15:46 25.11.2020
5229 Fog 10 1018 87 402 0.79 127 14:58 25.11.2020
5230 Mist 11 1018 87 4828 0.88 112 13:46 25.11.2020
5231 Mist 11 1019 87 2414 0.79 126 12:57 25.11.2020
5232 Mist 12 1019 87 6437 0.38 198 11:26 25.11.2020
5233 Clear 12 1019 81 10000 0.63 215 09:22 25.11.2020
5234 Mist 13 1018 87 6437 0.63 215 08:50 25.11.2020
5235 Clouds 18 1009 83 1200 6.2 90 07:45 25.11.2020
5236 Clear 15 1017 67 10000 1.45 249 03:52 25.11.2020
5237 Clear 17 1016 59 10000 2.1 270 01:50 25.11.2020
5238 Clear 19 1016 46 10000 3.15 245 00:21 25.11.2020
5239 Clear 20 1016 46 10000 3.15 245 23:36 24.11.2020
5240 Clear 20 1017 42 10000 2.83 238 22:51 24.11.2020
5241 Clear 19 1017 48 10000 2.4 238 21:50 24.11.2020
5242 Clear 19 1017 48 10000 1.85 243 21:27 24.11.2020
5243 Clear 17 1018 55 10000 1.34 242 20:19 24.11.2020
5244 Haze 14 1018 71 9656 0.11 223 17:54 24.11.2020
5245 Haze 13 1018 71 9656 0.65 356 17:28 24.11.2020
5246 Haze 11 1017 81 8047 0.65 356 16:38 24.11.2020
5247 Clear 11 1017 81 10000 0.63 5 15:56 24.11.2020
5248 Clear 11 1016 76 10000 0.32 41 15:20 24.11.2020
5249 Clear 11 1016 76 10000 0.32 41 14:45 24.11.2020
5250 Clear 12 1016 76 10000 0.36 92 14:22 24.11.2020
5251 Clouds 12 1016 76 10000 0.5 116 12:42 24.11.2020
5252 Clouds 12 1016 76 10000 0.71 151 12:21 24.11.2020
5253 Haze 11 1016 81 9656 0.71 151 11:35 24.11.2020
5254 Haze 12 1015 76 9656 1.44 166 10:26 24.11.2020
5255 Haze 12 1015 81 9656 1.44 166 09:53 24.11.2020
5256 Haze 11 1015 81 9656 1.44 166 09:34 24.11.2020
5257 Haze 13 1014 82 8047 2.03 142 06:50 24.11.2020
5258 Clear 14 1013 72 10000 1.04 0 04:19 24.11.2020
5259 Haze 17 1012 63 8047 2.72 222 22:29 23.11.2020
5260 Haze 16 1012 63 8047 2.72 222 21:36 23.11.2020
5261 Haze 14 1014 67 8047 2.36 211 20:50 23.11.2020
5262 Haze 15 1014 67 8047 2.1 189 20:21 23.11.2020
5263 Haze 13 1014 76 4828 1.67 196 19:20 23.11.2020
5264 Haze 12 1013 82 4828 1.58 179 17:25 23.11.2020
5265 Mist 12 1013 87 4023 0.52 178 16:28 23.11.2020
5266 Mist 11 1012 93 1609 2.1 90 14:48 23.11.2020
5267 Fog 10 1012 93 805 0.52 203 13:20 23.11.2020
5268 Fog 11 1012 93 805 0.95 222 12:37 23.11.2020
5269 Fog 11 1012 93 402 0.63 168 11:48 23.11.2020
5270 Fog 11 1012 93 402 1.07 158 11:21 23.11.2020
5271 Haze 12 1012 82 9656 0.94 136 09:32 23.11.2020
5272 Haze 13 1013 82 8047 0.94 136 08:49 23.11.2020
5273 Haze 13 1013 82 6437 1.34 139 07:28 23.11.2020
5274 Clear 21 1012 56 10000 2.59 229 00:39 23.11.2020
5275 Clear 22 1012 53 10000 2.72 227 23:38 22.11.2020
5276 Clear 22 1013 40 10000 2.86 225 22:18 22.11.2020
5277 Clear 22 1013 40 10000 2.21 205 21:23 22.11.2020
5278 Clear 20 1015 52 10000 1.53 177 19:58 22.11.2020
5279 Haze 18 1015 63 9656 1.5 110 18:56 22.11.2020
5280 Clear 15 1016 66 10000 0.94 176 17:54 22.11.2020
5281 Clear 11 1014 54 10000 1.5 90 15:58 22.11.2020
5282 Clear 12 1014 71 10000 0.22 113 14:58 22.11.2020
5283 Haze 13 1015 66 6437 0.73 90 12:51 22.11.2020
5284 Clear 13 1015 71 10000 0.67 80 12:31 22.11.2020
5285 Clear 13 1015 71 10000 0.67 80 11:39 22.11.2020
5286 Clear 14 1015 76 10000 0.53 60 10:47 22.11.2020
5287 Clear 14 1015 76 10000 0.23 357 10:29 22.11.2020
5288 Clear 17 1016 67 10000 0.23 265 04:33 22.11.2020
5289 Clear 24 1016 43 10000 2.1 0 23:56 21.11.2020
5290 Clear 25 1017 41 10000 2.31 249 22:41 21.11.2020
5291 Clear 24 1017 29 10000 1.4 261 21:31 21.11.2020
5292 Clear 23 1018 35 10000 1.4 261 20:49 21.11.2020
5293 Clear 23 1018 35 10000 1.11 259 20:20 21.11.2020
5294 Clear 22 1019 45 10000 1.11 259 19:42 21.11.2020
5295 Clear 20 1019 59 10000 0.9 213 18:55 21.11.2020
5296 Clear 15 1019 76 10000 0.3 326 17:31 21.11.2020
5297 Clear 11 1019 87 10000 0.83 360 16:45 21.11.2020
5298 Clear 11 1018 87 10000 0.75 3 15:41 21.11.2020
5299 Mist 12 1018 81 9656 0.37 49 15:20 21.11.2020
5300 Mist 12 1018 81 9656 0.37 49 14:42 21.11.2020
5301 Clear 12 1018 82 10000 0.25 12 12:59 21.11.2020
5302 Clear 12 1018 82 10000 0.46 325 12:23 21.11.2020
5303 Clear 13 1018 87 10000 0.46 325 11:49 21.11.2020
5304 Clear 13 1018 82 10000 0.22 100 10:28 21.11.2020
5305 Clear 15 1019 82 10000 0.98 281 08:52 21.11.2020
5306 Clear 15 1019 82 10000 0.98 281 08:52 21.11.2020
5307 Clear 15 1019 82 10000 0.98 281 08:34 21.11.2020
5308 Clear 16 1019 77 10000 0.97 218 05:42 21.11.2020
5309 Clear 17 1018 59 10000 1.27 242 03:28 21.11.2020
5310 Clear 22 1017 42 10000 2.1 270 00:22 21.11.2020
5311 Clear 23 1017 40 10000 2.49 253 23:19 20.11.2020
5312 Clear 23 1018 35 10000 2.44 251 21:46 20.11.2020
5313 Clear 23 1019 40 10000 1.31 199 21:22 20.11.2020
5314 Clear 22 1019 40 10000 1.31 199 20:41 20.11.2020
5315 Clear 20 1020 40 10000 1.61 278 19:28 20.11.2020
5316 Clear 18 1020 59 10000 1.03 263 18:27 20.11.2020
5317 Clear 15 1020 67 10000 0.71 140 17:32 20.11.2020
5318 Haze 11 1020 81 9656 0.71 140 16:48 20.11.2020
5319 Haze 12 1020 81 9656 0.83 4 16:27 20.11.2020
5320 Clear 11 1019 81 10000 0.83 4 15:42 20.11.2020
5321 Haze 12 1018 81 9656 0.65 268 13:57 20.11.2020
5322 Haze 11 1018 81 8047 0.23 64 13:22 20.11.2020
5323 Haze 11 1018 81 8047 0.16 289 12:58 20.11.2020
5324 Haze 12 1018 81 8047 0.78 336 11:55 20.11.2020
5325 Haze 12 1018 81 8047 1.22 317 11:26 20.11.2020
5326 Mist 12 1019 87 8047 1.23 244 09:56 20.11.2020
5327 Mist 12 1019 87 6437 0.53 135 08:32 20.11.2020
5328 Mist 13 1019 87 4828 0.4 302 07:52 20.11.2020
5329 Clouds 13 1018 82 10000 0.73 230 05:19 20.11.2020
5330 Clear 20 1018 52 10000 1.5 0 00:41 20.11.2020
5331 Clear 21 1019 56 10000 2.1 260 22:31 19.11.2020
5332 Clear 21 1019 56 10000 2.6 260 21:54 19.11.2020
5333 Clear 19 1020 52 10000 2.77 260 20:58 19.11.2020
5334 Haze 19 1021 55 9656 2.04 257 20:21 19.11.2020
5335 Haze 19 1021 55 9656 2.04 257 20:21 19.11.2020
5336 Haze 18 1021 55 9656 1.44 248 19:27 19.11.2020
5337 Haze 17 1021 72 8047 1.4 239 18:55 19.11.2020
5338 Haze 14 1021 82 8047 0.8 227 17:35 19.11.2020
5339 Haze 14 1020 82 6437 0.26 247 16:39 19.11.2020
5340 Clouds 14 1020 77 10000 0.04 79 15:31 19.11.2020
5341 Haze 14 1020 82 9656 0.25 88 13:58 19.11.2020
5342 Haze 14 1020 82 9656 0.25 88 13:38 19.11.2020
5343 Clouds 14 1020 82 10000 1.5 0 12:57 19.11.2020
5344 Clouds 13 1020 82 10000 1.5 0 12:34 19.11.2020
5345 Clouds 13 1020 93 10000 0.03 69 11:41 19.11.2020
5346 Clouds 13 1020 93 10000 0.27 148 11:22 19.11.2020
5347 Clouds 13 1020 93 10000 0.27 148 11:22 19.11.2020
5348 Clouds 13 1020 93 10000 0.27 148 10:51 19.11.2020
5349 Clouds 13 1020 93 10000 0.5 154 09:49 19.11.2020
5350 Clouds 13 1020 87 10000 0.84 158 09:28 19.11.2020
5351 Clear 13 1020 87 10000 0.84 158 08:58 19.11.2020
5352 Clear 14 1020 82 10000 1.03 174 07:59 19.11.2020
5353 Clear 17 1018 63 10000 2.1 270 01:50 19.11.2020
5354 Clouds 18 1018 63 10000 3.38 233 00:33 19.11.2020
5355 Clear 19 1018 59 10000 2.6 260 23:47 18.11.2020
5356 Clear 19 1018 59 10000 2.49 228 23:24 18.11.2020
5357 Clear 19 1018 59 10000 2.68 225 22:30 18.11.2020
5358 Clear 19 1019 55 10000 2.68 225 22:30 18.11.2020
5359 Clear 19 1019 55 10000 2.68 225 21:45 18.11.2020
5360 Clear 18 1019 55 10000 2.42 214 21:26 18.11.2020
5361 Clear 17 1020 67 10000 2.1 140 20:40 18.11.2020
5362 Clouds 17 1020 67 10000 2.1 130 19:44 18.11.2020
5363 Clouds 16 1020 67 10000 2.1 130 19:24 18.11.2020
5364 Clouds 14 1020 77 10000 2.36 182 18:48 18.11.2020
5365 Clouds 14 1019 82 10000 1.83 196 17:52 18.11.2020
5366 Haze 13 1018 87 8047 1.16 186 16:58 18.11.2020
5367 Haze 13 1018 87 8047 1.05 175 16:21 18.11.2020
5368 Mist 13 1017 87 3219 0.86 201 14:43 18.11.2020
5369 Mist 13 1017 87 3219 0.79 191 14:25 18.11.2020
5370 Mist 13 1017 93 2816 1.17 212 13:29 18.11.2020
5371 Mist 12 1017 93 3219 1.5 0 12:45 18.11.2020
5372 Mist 13 1017 93 2414 1.07 216 11:57 18.11.2020
5373 Mist 13 1017 93 1609 1.47 219 11:25 18.11.2020
5374 Mist 13 1017 93 2414 1.35 207 10:31 18.11.2020
5375 Mist 14 1018 87 4828 1.09 174 08:52 18.11.2020
5376 Clear 14 1017 87 10000 1.19 212 07:37 18.11.2020
5377 Clear 15 1017 82 10000 1.49 203 06:29 18.11.2020
5378 Clear 25 1016 31 10000 2.85 192 00:22 18.11.2020
5379 Clear 25 1016 31 10000 2.87 176 23:31 17.11.2020
5380 Clear 25 1016 21 10000 2.87 176 22:46 17.11.2020
5381 Clear 25 1016 21 10000 2.53 180 22:28 17.11.2020
5382 Clear 25 1016 22 10000 1.5 0 21:49 17.11.2020
5383 Clear 25 1016 22 10000 1.5 0 21:29 17.11.2020
5384 Clear 24 1017 23 10000 2.49 169 20:44 17.11.2020
5385 Clear 24 1017 23 10000 2.76 140 20:24 17.11.2020
5386 Clear 23 1018 25 10000 2.76 140 19:50 17.11.2020
5387 Clear 20 1018 33 10000 2.24 121 18:24 17.11.2020
5388 Clear 18 1018 33 10000 2.1 100 17:33 17.11.2020
5389 Clear 13 1018 50 10000 2.06 114 16:49 17.11.2020
5390 Clear 14 1017 50 10000 0.72 130 16:18 17.11.2020
5391 Clear 14 1017 50 10000 0.72 130 15:38 17.11.2020
5392 Clear 14 1016 50 10000 0.68 138 15:20 17.11.2020
5393 Clear 14 1016 50 10000 1.59 112 14:30 17.11.2020
5394 Clear 14 1016 50 10000 1.59 112 13:45 17.11.2020
5395 Clear 13 1016 50 10000 1.24 107 13:27 17.11.2020
5396 Clear 14 1016 47 10000 1.17 113 12:42 17.11.2020
5397 Clear 14 1016 50 10000 1.14 109 11:45 17.11.2020
5398 Clear 14 1016 50 10000 0.95 137 11:26 17.11.2020
5399 Clear 15 1016 47 10000 0.95 137 10:39 17.11.2020
5400 Clear 15 1016 41 10000 0.86 136 10:19 17.11.2020
5401 Clear 16 1016 41 10000 0.86 136 09:43 17.11.2020
5402 Clear 17 1015 42 10000 1.16 129 08:43 17.11.2020
5403 Clear 17 1016 42 10000 1.59 139 07:59 17.11.2020
5404 Clear 17 1016 42 10000 1.59 139 07:32 17.11.2020
5405 Clear 21 1015 28 10000 0.81 186 04:31 17.11.2020
5406 Clear 23 1014 25 10000 1.05 236 03:25 17.11.2020
5407 Clear 23 1013 21 10000 2.1 270 02:29 17.11.2020
5408 Clear 29 1013 11 10000 2.15 200 00:56 17.11.2020
5409 Clear 31 1013 10 10000 1.21 173 23:54 16.11.2020
5410 Clear 32 1013 10 10000 1.21 173 23:32 16.11.2020
5411 Clear 32 1014 11 10000 1.5 160 22:59 16.11.2020
5412 Clear 32 1014 11 10000 1.5 160 22:26 16.11.2020
5413 Clear 31 1015 10 10000 1.5 80 21:56 16.11.2020
5414 Clear 30 1015 10 10000 1.5 80 21:38 16.11.2020
5415 Clear 30 1016 13 10000 1.5 0 21:19 16.11.2020
5416 Clear 28 1017 14 10000 0.43 10 20:26 16.11.2020
5417 Clear 28 1017 14 10000 0.43 10 19:55 16.11.2020
5418 Clear 27 1017 14 10000 0.89 7 19:29 16.11.2020
5419 Clear 25 1017 19 10000 2.1 0 18:51 16.11.2020
5420 Clear 23 1017 19 10000 2.1 0 18:19 16.11.2020
5421 Clear 21 1017 19 10000 2.1 0 17:36 16.11.2020
5422 Clear 20 1017 23 10000 1.5 20 17:18 16.11.2020
5423 Clear 19 1017 23 10000 1.5 20 16:49 16.11.2020
5424 Clear 18 1017 23 10000 1.5 20 16:26 16.11.2020
5425 Clear 18 1017 27 10000 2.6 20 15:45 16.11.2020
5426 Clear 18 1017 27 10000 2.6 20 15:27 16.11.2020
5427 Clear 18 1016 25 10000 1.5 0 14:48 16.11.2020
5428 Clear 17 1016 24 10000 2.1 20 13:50 16.11.2020
5429 Clear 17 1017 25 10000 1.5 30 13:18 16.11.2020
5430 Clear 16 1017 25 10000 1.5 30 12:30 16.11.2020
5431 Clear 16 1017 36 10000 1.5 30 11:41 16.11.2020
5432 Clear 17 1017 23 10000 2.01 10 11:21 16.11.2020
5433 Clear 18 1017 23 10000 2.01 10 10:44 16.11.2020
5434 Clear 18 1017 23 10000 2.03 14 10:26 16.11.2020
5435 Clear 18 1017 31 10000 1.5 100 09:52 16.11.2020
5436 Clear 18 1017 31 10000 1.5 100 09:34 16.11.2020
5437 Clear 18 1017 36 10000 1.5 360 08:48 16.11.2020
5438 Clear 18 1017 48 10000 2.45 8 08:19 16.11.2020
5439 Clear 17 1017 48 10000 2.14 11 07:19 16.11.2020
5440 Clear 18 1017 48 10000 1.88 18 06:45 16.11.2020
5441 Clear 19 1016 48 10000 1.69 15 05:44 16.11.2020
5442 Clear 20 1016 30 10000 1.14 341 03:54 16.11.2020
5443 Clear 24 1016 16 10000 2.1 280 01:45 16.11.2020
5444 Clear 27 1016 15 10000 2.1 280 00:29 16.11.2020
5445 Clear 28 1017 14 10000 1.5 280 23:29 15.11.2020
5446 Clear 28 1018 12 10000 2.5 268 22:58 15.11.2020
5447 Clear 27 1018 12 10000 2.01 277 22:25 15.11.2020
5448 Clear 27 1018 12 10000 2.01 277 21:56 15.11.2020
5449 Clear 27 1018 12 10000 2.01 277 21:36 15.11.2020
5450 Clear 27 1020 15 10000 1.72 285 20:58 15.11.2020
5451 Clear 27 1020 15 10000 1.72 285 20:39 15.11.2020
5452 Clear 25 1020 17 10000 1.5 0 19:57 15.11.2020
5453 Clear 24 1020 17 10000 1.5 0 19:39 15.11.2020
5454 Clear 24 1020 17 10000 1.5 0 19:20 15.11.2020
5455 Clear 22 1020 22 10000 1.4 317 18:45 15.11.2020
5456 Clear 21 1020 22 10000 0.89 353 18:25 15.11.2020
5457 Clear 18 1021 25 10000 1.5 20 17:58 15.11.2020
5458 Clear 18 1021 25 10000 1.5 20 17:39 15.11.2020
5459 Clear 16 1020 50 10000 1.19 9 17:20 15.11.2020
5460 Clear 13 1020 50 10000 1.19 9 16:41 15.11.2020
5461 Clear 13 1020 57 10000 1.27 3 16:19 15.11.2020
5462 Clear 12 1020 57 10000 1.27 3 15:43 15.11.2020
5463 Clear 12 1020 71 10000 1.19 360 15:24 15.11.2020
5464 Clear 13 1020 71 10000 1.19 360 14:53 15.11.2020
5465 Clear 13 1020 71 10000 1.1 5 14:26 15.11.2020
5466 Clear 14 1020 81 10000 1.1 5 13:42 15.11.2020
5467 Clear 13 1020 81 10000 1.41 355 13:21 15.11.2020
5468 Clear 14 1020 81 10000 1.41 355 12:46 15.11.2020
5469 Clear 14 1020 81 10000 1.41 355 12:46 15.11.2020
5470 Clear 13 1020 81 10000 1.39 354 12:19 15.11.2020
5471 Clear 14 1020 81 10000 1.39 354 11:44 15.11.2020
5472 Clear 14 1020 71 10000 1.14 358 11:19 15.11.2020
5473 Clear 13 1020 71 10000 1.14 358 10:53 15.11.2020
5474 Clear 13 1020 71 10000 1.14 358 10:31 15.11.2020
5475 Haze 14 1020 76 9656 1 359 09:55 15.11.2020
5476 Haze 13 1020 76 9656 0.83 47 09:32 15.11.2020
5477 Clear 14 1020 71 10000 0.83 47 08:56 15.11.2020
5478 Clear 14 1020 71 10000 0.66 63 08:38 15.11.2020
5479 Clear 14 1020 76 10000 0.66 63 07:45 15.11.2020
5480 Clear 14 1020 76 10000 0.72 17 06:42 15.11.2020
5481 Clear 16 1019 67 10000 0.37 9 04:54 15.11.2020
5482 Clear 17 1018 63 10000 2.1 260 02:21 15.11.2020
5483 Clear 19 1018 52 10000 2.21 255 00:36 15.11.2020
5484 Clear 20 1018 52 10000 1.5 0 23:54 14.11.2020
5485 Clear 20 1019 52 10000 3.1 260 23:20 14.11.2020
5486 Clear 20 1019 52 10000 3.1 260 22:45 14.11.2020
5487 Clear 20 1019 48 10000 2.05 241 22:20 14.11.2020
5488 Clear 20 1019 48 10000 2.05 241 21:39 14.11.2020
5489 Clear 19 1020 55 10000 1.74 255 21:21 14.11.2020
5490 Clear 19 1020 55 10000 1.74 255 20:48 14.11.2020
5491 Clear 18 1020 55 10000 1.75 262 20:24 14.11.2020
5492 Clear 17 1021 55 10000 1.5 100 19:39 14.11.2020
5493 Clear 16 1021 62 10000 2.1 70 19:19 14.11.2020
5494 Clear 15 1021 62 10000 2.1 70 18:41 14.11.2020
5495 Clear 15 1021 62 10000 2.1 70 18:22 14.11.2020
5496 Clear 12 1021 66 10000 0.35 325 17:46 14.11.2020
5497 Clear 13 1021 66 10000 0.76 92 17:28 14.11.2020
5498 Haze 11 1020 76 9656 1.5 100 16:52 14.11.2020
5499 Haze 11 1020 76 9656 1.5 100 16:34 14.11.2020
5500 Clear 11 1020 76 10000 0.3 115 15:58 14.11.2020
5501 Clear 11 1020 76 10000 0.59 281 15:33 14.11.2020
5502 Clear 11 1019 76 10000 0.59 281 14:59 14.11.2020
5503 Clear 11 1019 76 10000 0.35 304 14:31 14.11.2020
5504 Clear 12 1019 71 10000 0.35 304 13:59 14.11.2020
5505 Clear 12 1019 71 10000 0.35 304 13:59 14.11.2020
5506 Clear 12 1019 71 10000 0.35 304 13:39 14.11.2020
5507 Clear 12 1019 71 10000 0.59 89 13:21 14.11.2020
5508 Clear 12 1019 71 10000 1.5 60 12:41 14.11.2020
5509 Clear 12 1019 71 10000 2.1 70 12:23 14.11.2020
5510 Clear 12 1019 71 10000 2.1 70 11:40 14.11.2020
5511 Haze 11 1019 76 9656 2.1 100 11:22 14.11.2020
5512 Haze 12 1019 76 9656 2.1 100 10:41 14.11.2020
5513 Haze 12 1019 76 9656 2.1 100 10:23 14.11.2020
5514 Clear 12 1019 76 10000 2.1 80 09:45 14.11.2020
5515 Clear 11 1019 76 10000 2.1 80 09:27 14.11.2020
5516 Clear 13 1020 71 10000 2.6 123 08:48 14.11.2020
5517 Clear 12 1020 71 10000 2.27 119 08:23 14.11.2020
5518 Clear 12 1020 71 10000 2.27 119 07:42 14.11.2020
5519 Clear 12 1020 71 10000 2.23 126 07:21 14.11.2020
5520 Clear 13 1019 71 10000 1.61 141 06:29 14.11.2020
5521 Clear 13 1019 71 10000 1.55 168 05:18 14.11.2020
5522 Clear 14 1019 67 10000 1.47 205 03:40 14.11.2020
5523 Clear 18 1018 48 10000 3.68 243 00:43 14.11.2020
5524 Clear 19 1018 45 10000 3.33 221 23:43 13.11.2020
5525 Clear 19 1018 45 10000 2.65 212 23:21 13.11.2020
5526 Clear 19 1019 45 10000 2.65 212 22:42 13.11.2020
5527 Clear 19 1019 45 10000 2.53 199 22:23 13.11.2020
5528 Clear 19 1019 42 10000 2.53 199 21:51 13.11.2020
5529 Clear 18 1019 42 10000 2.54 178 21:29 13.11.2020
5530 Clear 18 1020 45 10000 2.54 178 20:59 13.11.2020
5531 Clear 18 1020 45 10000 2.54 178 20:40 13.11.2020
5532 Clear 18 1020 51 10000 2.41 169 20:20 13.11.2020
5533 Clear 17 1020 51 10000 2.41 169 19:45 13.11.2020
5534 Clear 17 1020 51 10000 2.03 160 19:23 13.11.2020
5535 Clear 16 1020 48 10000 2.03 160 18:53 13.11.2020
5536 Clear 14 1020 54 10000 1.83 139 18:00 13.11.2020
5537 Clear 14 1020 54 10000 1.83 139 17:39 13.11.2020
5538 Clear 13 1019 57 10000 1.42 129 17:18 13.11.2020
5539 Clear 11 1019 57 10000 1.42 129 16:47 13.11.2020
5540 Clear 10 1019 81 10000 0.55 97 16:21 13.11.2020
5541 Clear 9 1019 81 10000 0.55 97 15:47 13.11.2020
5542 Clear 9 1019 81 10000 1.11 121 15:27 13.11.2020
5543 Clouds 9 1019 81 10000 1.11 121 14:45 13.11.2020
5544 Clear 10 1018 76 10000 1.2 103 14:22 13.11.2020
5545 Clear 10 1018 76 10000 1.2 103 13:47 13.11.2020
5546 Clear 10 1018 71 10000 1.13 111 13:21 13.11.2020
5547 Clear 10 1018 71 10000 1.13 111 12:46 13.11.2020
5548 Clear 10 1018 71 10000 0.62 143 12:24 13.11.2020
5549 Clear 11 1018 71 10000 0.62 143 11:48 13.11.2020
5550 Clear 11 1018 71 10000 1.37 122 11:27 13.11.2020
5551 Clear 11 1018 71 10000 1.37 122 10:56 13.11.2020
5552 Clear 11 1018 71 10000 1.37 122 10:35 13.11.2020
5553 Clear 12 1018 71 10000 2.1 100 09:57 13.11.2020
5554 Clear 12 1018 71 10000 2.1 100 09:38 13.11.2020
5555 Clear 12 1018 76 10000 0.87 154 09:19 13.11.2020
5556 Clear 13 1018 76 10000 0.87 154 08:50 13.11.2020
5557 Clear 13 1018 76 10000 1.18 142 08:20 13.11.2020
5558 Haze 12 1018 81 6437 1.18 142 07:44 13.11.2020
5559 Haze 12 1018 81 6437 1.37 139 07:26 13.11.2020
5560 Clear 13 1018 76 10000 1.6 154 06:49 13.11.2020
5561 Clear 13 1017 71 10000 0.82 184 05:58 13.11.2020
5562 Clear 13 1017 71 10000 1.59 208 05:30 13.11.2020
5563 Clear 17 1016 39 10000 2.1 0 01:46 13.11.2020
5564 Clear 18 1015 37 10000 3.1 260 00:53 13.11.2020
5565 Clear 19 1015 37 10000 3.1 260 00:32 13.11.2020
5566 Clear 20 1015 35 10000 3.78 245 23:38 12.11.2020
5567 Clear 20 1015 35 10000 3.41 235 23:19 12.11.2020
5568 Clear 20 1016 32 10000 2.1 0 22:52 12.11.2020
5569 Clear 20 1016 32 10000 2.1 0 22:33 12.11.2020
5570 Clear 20 1016 30 10000 2.73 233 21:56 12.11.2020
5571 Clear 19 1016 30 10000 2.73 233 21:37 12.11.2020
5572 Clear 19 1017 34 10000 1.97 237 21:18 12.11.2020
5573 Clear 19 1017 34 10000 1.97 237 20:40 12.11.2020
5574 Clear 18 1017 34 10000 1.36 240 20:21 12.11.2020
5575 Clear 18 1018 34 10000 1.36 240 19:50 12.11.2020
5576 Clear 17 1018 34 10000 0.97 230 19:32 12.11.2020
5577 Clear 16 1018 41 10000 1.21 175 18:56 12.11.2020
5578 Clear 15 1018 41 10000 1.21 175 18:37 12.11.2020
5579 Clear 15 1018 54 10000 0.8 140 18:18 12.11.2020
5580 Clear 14 1018 54 10000 0.8 140 17:39 12.11.2020
5581 Clear 12 1017 66 10000 0.25 172 17:20 12.11.2020
5582 Clear 9 1017 66 10000 0.25 172 16:44 12.11.2020
5583 Clear 9 1017 66 10000 0.34 265 16:23 12.11.2020
5584 Clear 9 1017 66 10000 0.34 265 15:46 12.11.2020
5585 Clear 9 1017 66 10000 0.31 315 15:26 12.11.2020
5586 Clear 9 1016 70 10000 0.31 315 14:47 12.11.2020
5587 Clear 9 1016 70 10000 0.31 315 14:47 12.11.2020
5588 Clear 9 1016 70 10000 0.48 251 14:27 12.11.2020
5589 Clear 9 1016 70 10000 0.48 251 14:27 12.11.2020
5590 Clear 9 1016 66 10000 0.48 251 13:58 12.11.2020
5591 Clear 9 1016 66 10000 0.48 251 13:39 12.11.2020
5592 Clear 9 1016 81 10000 0.56 215 13:19 12.11.2020
5593 Clear 9 1016 81 10000 0.56 215 12:44 12.11.2020
5594 Clear 9 1016 81 10000 0.41 162 12:24 12.11.2020
5595 Clear 10 1016 81 10000 0.41 162 11:53 12.11.2020
5596 Clear 10 1016 81 10000 0.7 109 11:30 12.11.2020
5597 Clear 11 1016 76 10000 0.7 109 10:49 12.11.2020
5598 Clear 11 1016 76 10000 0.85 158 10:29 12.11.2020
5599 Clear 11 1016 76 10000 0.85 158 09:50 12.11.2020
5600 Clear 11 1016 76 10000 0.63 157 09:25 12.11.2020
5601 Clear 12 1017 81 10000 0.63 157 08:58 12.11.2020
5602 Clear 12 1017 81 10000 0.63 157 08:40 12.11.2020
5603 Clear 11 1017 76 10000 0.67 132 08:20 12.11.2020
5604 Clear 12 1017 76 10000 0.67 132 07:54 12.11.2020
5605 Clear 12 1017 76 10000 0.42 192 07:30 12.11.2020
5606 Clear 12 1016 76 10000 0.52 212 06:51 12.11.2020
5607 Clear 12 1016 76 10000 0.99 223 06:22 12.11.2020
5608 Clear 14 1015 59 10000 1.5 260 03:45 12.11.2020
5609 Clear 14 1015 51 10000 2.27 240 03:19 12.11.2020
5610 Clear 18 1015 42 10000 2.97 222 00:28 12.11.2020
5611 Clear 19 1015 42 10000 2.97 222 23:43 11.11.2020
5612 Clear 19 1015 42 10000 3.21 218 23:24 11.11.2020
5613 Clear 19 1015 42 10000 1.5 0 22:47 11.11.2020
5614 Clear 19 1016 26 10000 2.88 202 22:22 11.11.2020
5615 Clear 19 1016 26 10000 2.88 202 21:57 11.11.2020
5616 Clear 19 1016 26 10000 2.88 202 21:38 11.11.2020
5617 Clear 18 1017 27 10000 1.5 110 21:19 11.11.2020
5618 Clear 18 1017 27 10000 1.5 110 20:42 11.11.2020
5619 Clear 17 1017 28 10000 1.5 110 20:22 11.11.2020
5620 Clear 17 1017 28 10000 1.83 139 19:55 11.11.2020
5621 Clear 17 1017 28 10000 1.83 139 19:37 11.11.2020
5622 Clear 17 1017 32 10000 1.81 107 19:18 11.11.2020
5623 Clear 16 1017 33 10000 1.5 0 18:41 11.11.2020
5624 Clear 15 1017 33 10000 1.5 0 18:22 11.11.2020
5625 Clear 13 1018 46 10000 1.48 133 17:39 11.11.2020
5626 Clear 12 1017 49 10000 1.16 116 17:21 11.11.2020
5627 Clear 9 1017 49 10000 1.16 116 16:44 11.11.2020
5628 Clear 9 1017 49 10000 0.67 92 16:25 11.11.2020
5629 Clear 9 1017 49 10000 0.67 92 15:44 11.11.2020
5630 Clear 9 1017 49 10000 0.78 80 15:24 11.11.2020
5631 Clear 9 1017 49 10000 0.78 80 14:51 11.11.2020
5632 Clear 9 1017 49 10000 0.6 62 14:31 11.11.2020
5633 Clear 9 1016 37 10000 0.6 62 13:50 11.11.2020
5634 Clear 9 1016 37 10000 0.57 121 13:32 11.11.2020
5635 Clear 10 1016 43 10000 1.5 60 12:40 11.11.2020
5636 Clear 10 1017 43 10000 0.95 118 12:20 11.11.2020
5637 Clear 9 1017 43 10000 0.95 118 11:48 11.11.2020
5638 Clear 9 1017 43 10000 0.54 125 11:26 11.11.2020
5639 Clear 10 1017 36 10000 1.5 30 10:40 11.11.2020
5640 Clear 10 1017 53 10000 1.04 109 10:20 11.11.2020
5641 Clear 10 1017 53 10000 1.04 109 09:44 11.11.2020
5642 Clear 10 1017 53 10000 1.28 97 09:25 11.11.2020
5643 Clear 11 1017 53 10000 1.28 97 08:46 11.11.2020
5644 Clear 11 1017 53 10000 1.28 97 08:46 11.11.2020
5645 Clear 11 1017 53 10000 1.03 72 08:27 11.11.2020
5646 Clear 11 1018 62 10000 1.03 72 07:49 11.11.2020
5647 Clear 11 1018 62 10000 1.03 72 07:49 11.11.2020
5648 Clear 12 1018 66 10000 0.51 14 06:51 11.11.2020
5649 Clear 12 1018 66 10000 0.43 188 06:25 11.11.2020
5650 Clear 14 1018 50 10000 2.1 270 03:57 11.11.2020
5651 Clear 17 1018 30 10000 2.6 260 00:59 11.11.2020
5652 Clear 17 1018 27 10000 2.6 260 00:28 11.11.2020
5653 Clear 18 1018 25 10000 3.1 260 23:49 10.11.2020
5654 Clear 18 1018 25 10000 3.1 260 23:24 10.11.2020
5655 Clear 18 1018 24 10000 3.37 249 22:57 10.11.2020
5656 Clear 18 1018 24 10000 2.26 245 22:27 10.11.2020
5657 Clear 18 1019 25 10000 2.26 245 21:54 10.11.2020
5658 Clear 18 1019 25 10000 2.26 245 21:36 10.11.2020
5659 Clear 17 1020 25 10000 1.5 0 21:18 10.11.2020
5660 Clear 17 1020 25 10000 1.5 0 20:42 10.11.2020
5661 Clear 17 1020 25 10000 1.5 0 20:23 10.11.2020
5662 Clear 16 1021 25 10000 1.5 0 19:50 10.11.2020
5663 Clear 16 1021 25 10000 1.5 0 19:32 10.11.2020
5664 Clear 15 1022 35 10000 0.31 352 18:59 10.11.2020
5665 Clear 14 1022 35 10000 0.31 352 18:41 10.11.2020
5666 Clear 13 1022 40 10000 0.61 19 18:20 10.11.2020
5667 Clear 13 1022 40 10000 0.61 19 17:44 10.11.2020
5668 Clear 12 1022 40 10000 0.7 1 17:26 10.11.2020
5669 Clear 9 1021 45 10000 1.5 20 16:57 10.11.2020
5670 Clear 9 1021 45 10000 1.5 20 16:38 10.11.2020
5671 Clear 8 1021 49 10000 0.96 18 16:19 10.11.2020
5672 Clear 8 1021 49 10000 0.96 18 15:45 10.11.2020
5673 Clear 8 1021 49 10000 1.08 358 15:24 10.11.2020
5674 Clear 8 1021 49 10000 1.08 358 14:42 10.11.2020
5675 Clear 9 1021 49 10000 1.13 353 14:23 10.11.2020
5676 Clear 8 1021 49 10000 1.13 353 13:57 10.11.2020
5677 Clear 8 1021 49 10000 1.13 353 13:36 10.11.2020
5678 Clear 8 1021 37 10000 0.89 350 13:18 10.11.2020
5679 Clear 8 1021 37 10000 0.94 359 12:44 10.11.2020
5680 Clear 8 1021 37 10000 0.79 36 12:24 10.11.2020
5681 Clear 8 1021 37 10000 0.79 36 11:40 10.11.2020
5682 Clear 9 1022 43 10000 0.67 352 11:21 10.11.2020
5683 Clear 9 1022 43 10000 0.67 352 10:46 10.11.2020
5684 Clear 9 1022 43 10000 0.62 322 10:27 10.11.2020
5685 Clear 9 1021 43 10000 0.62 322 09:57 10.11.2020
5686 Clear 9 1021 43 10000 0.62 322 09:39 10.11.2020
5687 Clear 9 1021 43 10000 0.62 322 09:39 10.11.2020
5688 Clear 10 1021 37 10000 0.71 272 09:19 10.11.2020
5689 Clear 10 1021 37 10000 0.71 272 08:48 10.11.2020
5690 Clear 10 1021 36 10000 0.6 236 08:25 10.11.2020
5691 Clear 10 1021 57 10000 0.6 236 07:43 10.11.2020
5692 Clear 10 1021 57 10000 1.18 274 07:20 10.11.2020
5693 Clear 10 1021 54 10000 1.08 267 06:39 10.11.2020
5694 Clear 11 1021 54 10000 1.17 275 05:41 10.11.2020
5695 Clear 11 1020 54 10000 2.03 270 04:39 10.11.2020
5696 Clear 14 1019 44 10000 2.1 260 01:42 10.11.2020
5697 Clear 15 1018 39 10000 1.5 0 00:59 10.11.2020
5698 Clear 16 1018 27 10000 1.36 231 23:53 09.11.2020
5699 Clear 16 1018 27 10000 1.37 231 23:24 09.11.2020
5700 Clear 16 1018 29 10000 1.37 231 22:44 09.11.2020
5701 Clear 16 1018 29 10000 1.37 231 22:44 09.11.2020
5702 Clear 16 1019 31 10000 1.54 217 22:23 09.11.2020
5703 Clear 16 1019 31 10000 1.54 217 21:45 09.11.2020
5704 Clear 16 1019 32 10000 1.52 205 21:27 09.11.2020
5705 Clear 15 1019 38 10000 2.1 90 20:46 09.11.2020
5706 Clear 15 1019 38 10000 2.1 90 20:24 09.11.2020
5707 Clear 14 1019 44 10000 1.5 0 19:59 09.11.2020
5708 Clear 14 1019 44 10000 1.5 0 19:40 09.11.2020
5709 Clear 13 1019 44 10000 1.5 0 19:21 09.11.2020
5710 Clear 13 1019 43 10000 1.22 141 18:41 09.11.2020
5711 Clear 13 1019 43 10000 1.22 141 18:41 09.11.2020
5712 Clear 12 1018 50 10000 1.63 108 18:20 09.11.2020
5713 Clear 11 1018 50 10000 1.63 108 17:50 09.11.2020
5714 Clear 10 1017 57 10000 1.5 10 17:30 09.11.2020
5715 Clear 8 1017 57 10000 1.5 10 16:46 09.11.2020
5716 Clear 8 1016 65 10000 1.72 15 16:27 09.11.2020
5717 Clear 7 1016 65 10000 1.72 15 16:27 09.11.2020
5718 Clear 7 1016 65 10000 1.72 15 15:51 09.11.2020
5719 Clear 6 1016 65 10000 2.26 355 15:30 09.11.2020
5720 Clear 7 1016 61 10000 1.5 20 14:59 09.11.2020
5721 Clear 7 1016 61 10000 1.5 20 14:40 09.11.2020
5722 Clear 7 1016 61 10000 1.5 20 14:22 09.11.2020
5723 Clear 7 1015 61 10000 2.73 342 13:43 09.11.2020
5724 Clear 8 1014 41 10000 2.88 341 13:20 09.11.2020
5725 Clear 8 1014 42 10000 3.14 336 12:47 09.11.2020
5726 Clear 8 1014 41 10000 3.58 336 12:21 09.11.2020
5727 Clear 8 1013 46 10000 3.58 336 11:55 09.11.2020
5728 Clear 8 1013 46 10000 3.58 336 11:36 09.11.2020
5729 Clear 9 1013 43 10000 4 340 11:18 09.11.2020
5730 Clear 9 1013 43 10000 4 340 10:41 09.11.2020
5731 Clear 8 1012 53 10000 4.76 334 10:22 09.11.2020
5732 Clear 9 1012 53 10000 4.76 334 09:41 09.11.2020
5733 Clear 9 1012 53 10000 4.18 331 09:23 09.11.2020
5734 Clouds 9 1012 53 10000 4.18 331 08:37 09.11.2020
5735 Clear 9 1012 50 10000 3.75 318 08:18 09.11.2020
5736 Clear 9 1012 50 10000 3.75 318 07:38 09.11.2020
5737 Clouds 10 1011 47 10000 2.1 0 07:18 09.11.2020
5738 Clear 10 1010 47 10000 4.22 308 06:22 09.11.2020
5739 Clear 12 1008 50 10000 4.6 270 03:19 09.11.2020
5740 Clear 13 1008 47 10000 3.1 250 01:43 09.11.2020
5741 Clear 14 1007 48 10000 3.6 260 00:58 09.11.2020
5742 Clear 16 1007 48 10000 3.1 260 23:51 08.11.2020
5743 Clear 16 1007 48 10000 3.1 260 23:29 08.11.2020
5744 Clear 16 1008 41 10000 3.6 250 22:46 08.11.2020
5745 Clear 16 1009 44 10000 4.6 260 22:23 08.11.2020
5746 Clear 16 1009 44 10000 4.6 260 21:55 08.11.2020
5747 Clear 16 1009 44 10000 4.6 260 21:37 08.11.2020
5748 Clouds 16 1009 48 10000 3.6 260 21:18 08.11.2020
5749 Clouds 15 1009 48 10000 3.6 260 20:39 08.11.2020
5750 Clouds 15 1009 48 10000 3.6 260 20:39 08.11.2020
5751 Clouds 15 1009 48 10000 3.6 260 20:39 08.11.2020
5752 Clouds 15 1010 48 10000 3.6 270 20:20 08.11.2020
5753 Clouds 15 1010 48 10000 3.6 270 20:20 08.11.2020
5754 Clouds 15 1010 48 10000 3.6 270 19:56 08.11.2020
5755 Clouds 14 1010 48 10000 3.6 270 19:37 08.11.2020
5756 Clear 14 1011 58 10000 5.68 272 19:19 08.11.2020
5757 Clear 13 1011 58 10000 4.43 272 18:45 08.11.2020
5758 Clear 13 1011 58 10000 3.37 271 18:21 08.11.2020
5759 Clear 12 1010 66 10000 3.37 271 17:57 08.11.2020
5760 Clear 11 1010 66 10000 3.37 271 17:37 08.11.2020
5761 Clouds 11 1010 66 10000 1.5 100 17:19 08.11.2020
5762 Clouds 11 1010 66 10000 1.5 100 16:47 08.11.2020
5763 Clouds 10 1010 66 10000 1.5 100 16:21 08.11.2020
5764 Clouds 10 1010 66 10000 3.52 261 15:57 08.11.2020
5765 Clouds 10 1010 66 10000 3.52 261 15:38 08.11.2020
5766 Clouds 10 1010 66 10000 3.57 258 15:20 08.11.2020
5767 Clouds 10 1010 66 10000 3.57 258 14:40 08.11.2020
5768 Clouds 9 1011 81 10000 1.5 80 14:21 08.11.2020
5769 Clouds 10 1010 66 10000 2.1 90 13:46 08.11.2020
5770 Clouds 10 1010 66 10000 2.1 90 13:22 08.11.2020
5771 Clouds 9 1011 71 10000 2.87 262 12:43 08.11.2020
5772 Clouds 9 1011 71 10000 4 258 12:25 08.11.2020
5773 Clear 9 1011 71 10000 4 258 11:58 08.11.2020
5774 Clear 9 1011 71 10000 4 258 11:39 08.11.2020
5775 Clear 9 1011 71 10000 3.65 248 11:20 08.11.2020
5776 Clear 10 1011 62 10000 3.65 248 10:50 08.11.2020
5777 Clear 10 1010 58 10000 1.5 70 10:19 08.11.2020
5778 Clear 11 1010 58 10000 1.5 70 09:55 08.11.2020
5779 Clear 11 1010 58 10000 1.5 70 09:37 08.11.2020
5780 Clear 11 1010 62 10000 2.1 110 09:18 08.11.2020
5781 Clear 11 1010 62 10000 2.1 110 08:39 08.11.2020
5782 Clear 11 1010 58 10000 1.5 100 08:20 08.11.2020
5783 Clear 11 1010 58 10000 1.5 100 07:52 08.11.2020
5784 Clear 11 1010 58 10000 1.5 100 07:28 08.11.2020
5785 Clear 11 1010 58 10000 3.52 247 06:23 08.11.2020
5786 Clear 11 1008 54 10000 3.52 247 05:52 08.11.2020
5787 Clear 11 1008 62 10000 3.9 246 04:50 08.11.2020
5788 Clear 13 1007 51 10000 2.6 260 01:53 08.11.2020
5789 Clear 14 1006 44 10000 3.1 250 01:19 08.11.2020
5790 Clear 15 1006 44 10000 3.1 250 00:30 08.11.2020
5791 Clear 15 1006 51 10000 3.1 0 23:47 07.11.2020
5792 Clear 15 1006 51 10000 3.1 0 23:29 07.11.2020
5793 Clouds 15 1006 48 10000 3.6 250 22:47 07.11.2020
5794 Clouds 15 1006 48 10000 3.6 250 22:27 07.11.2020
5795 Clear 15 1007 51 10000 2.1 0 21:56 07.11.2020
5796 Clear 15 1007 51 10000 2.1 0 21:37 07.11.2020
5797 Clouds 14 1007 51 10000 3.1 250 21:18 07.11.2020
5798 Clouds 14 1007 51 10000 3.1 250 20:44 07.11.2020
5799 Clouds 14 1007 51 10000 3.1 250 20:25 07.11.2020
5800 Clouds 13 1008 62 10000 7.21 248 19:45 07.11.2020
5801 Clouds 13 1008 62 10000 7.29 250 19:26 07.11.2020
5802 Clouds 12 1007 67 10000 3.1 260 18:43 07.11.2020
5803 Clouds 12 1007 67 10000 3.1 260 18:24 07.11.2020
5804 Clouds 12 1007 76 10000 5.86 252 17:47 07.11.2020
5805 Clouds 11 1007 76 10000 5.21 238 17:28 07.11.2020
5806 Clouds 11 1007 81 4828 1.5 260 16:46 07.11.2020
5807 Rain 11 1007 81 4828 1.5 260 16:25 07.11.2020
5808 Rain 12 1006 66 10000 5.19 245 15:58 07.11.2020
5809 Clear 12 1006 66 10000 5.19 245 15:39 07.11.2020
5810 Clouds 11 1006 66 10000 4.21 247 15:19 07.11.2020
5811 Clouds 11 1006 66 10000 4.21 247 14:42 07.11.2020
5812 Clouds 11 1006 66 10000 4.06 251 14:24 07.11.2020
5813 Clear 12 1006 66 10000 4.06 251 13:50 07.11.2020
5814 Clear 12 1006 66 10000 4.38 255 13:29 07.11.2020
5815 Clear 12 1006 58 10000 1.5 260 12:42 07.11.2020
5816 Clouds 12 1006 67 10000 4.67 255 12:19 07.11.2020
5817 Clouds 12 1006 67 10000 4.67 255 11:41 07.11.2020
5818 Clouds 12 1006 67 10000 2.84 247 11:22 07.11.2020
5819 Clouds 12 1005 62 10000 2.84 247 10:45 07.11.2020
5820 Clouds 12 1005 62 10000 1.45 189 10:25 07.11.2020
5821 Clear 12 1005 67 10000 1.45 189 09:52 07.11.2020
5822 Clear 12 1005 67 10000 2.37 161 09:32 07.11.2020
5823 Clouds 13 1005 67 10000 2.37 161 08:53 07.11.2020
5824 Clouds 13 1005 67 10000 2.37 161 08:34 07.11.2020
5825 Clouds 13 1005 59 10000 3.29 178 07:50 07.11.2020
5826 Clouds 14 1005 63 10000 1.5 0 07:19 07.11.2020
5827 Clouds 14 1005 59 10000 2.6 260 06:47 07.11.2020
5828 Clouds 15 1004 63 10000 1.5 250 05:23 07.11.2020
5829 Clouds 17 1004 63 10000 3.22 188 03:24 07.11.2020
5830 Clouds 19 1003 64 10000 4.73 161 01:28 07.11.2020
5831 Clouds 20 1003 60 10000 2.6 0 00:59 07.11.2020
5832 Clouds 21 1004 56 10000 1.5 0 23:53 06.11.2020
5833 Clouds 22 1004 56 10000 1.5 0 23:22 06.11.2020
5834 Clouds 22 1004 60 10000 5.5 156 22:42 06.11.2020
5835 Clear 23 1005 53 10000 1.5 0 22:19 06.11.2020
5836 Clear 24 1005 53 10000 1.5 0 21:47 06.11.2020
5837 Clear 23 1005 53 10000 1.5 0 21:22 06.11.2020
5838 Clear 23 1006 53 10000 2.1 0 20:59 06.11.2020
5839 Clear 23 1006 53 10000 2.1 0 20:41 06.11.2020
5840 Clear 23 1006 64 10000 4.66 152 20:19 06.11.2020
5841 Clear 23 1006 64 10000 4.66 152 19:45 06.11.2020
5842 Clear 22 1006 64 10000 4.15 144 19:26 06.11.2020
5843 Clouds 22 1007 73 10000 2.6 0 18:46 06.11.2020
5844 Clouds 21 1007 73 10000 2.6 0 18:24 06.11.2020
5845 Haze 20 1007 82 8047 2.1 0 17:52 06.11.2020
5846 Haze 19 1007 82 6437 3.02 126 17:31 06.11.2020
5847 Haze 18 1007 82 6437 3.02 126 16:58 06.11.2020
5848 Mist 17 1007 88 9656 3.02 126 16:33 06.11.2020
5849 Haze 18 1007 82 8047 2.15 123 15:55 06.11.2020
5850 Haze 18 1007 82 8047 2.15 123 15:33 06.11.2020
5851 Mist 17 1007 88 9656 1.5 120 14:54 06.11.2020
5852 Mist 17 1007 88 9656 1.5 120 14:29 06.11.2020
5853 Clear 17 1007 77 10000 2.41 151 13:54 06.11.2020
5854 Clear 18 1007 77 10000 2.1 0 13:26 06.11.2020
5855 Clear 18 1007 64 10000 2.57 141 12:56 06.11.2020
5856 Clear 18 1007 64 10000 2.52 138 12:38 06.11.2020
5857 Clear 18 1007 64 10000 2.52 138 12:38 06.11.2020
5858 Clear 18 1007 56 10000 2.1 100 12:18 06.11.2020
5859 Clear 19 1007 56 10000 2.1 100 11:37 06.11.2020
5860 Clear 19 1007 52 10000 1.37 117 10:58 06.11.2020
5861 Clear 20 1007 52 10000 1.37 117 10:35 06.11.2020
5862 Clear 21 1008 49 10000 1.24 122 09:57 06.11.2020
5863 Clear 21 1008 49 10000 1.24 122 09:38 06.11.2020
5864 Clear 22 1008 46 10000 1.72 140 09:20 06.11.2020
5865 Clear 22 1008 46 10000 1.72 140 08:47 06.11.2020
5866 Clear 21 1008 46 10000 1.75 111 08:27 06.11.2020
5867 Clear 22 1009 43 10000 1.75 111 07:42 06.11.2020
5868 Clear 23 1009 40 10000 1.65 95 07:19 06.11.2020
5869 Clear 23 1009 40 10000 1.66 100 06:40 06.11.2020
5870 Clear 23 1009 35 10000 1.49 104 05:38 06.11.2020
5871 Clear 27 1011 21 10000 1.85 263 02:00 06.11.2020
5872 Clear 29 1012 20 10000 2.1 270 00:34 06.11.2020
5873 Clear 31 1012 20 10000 3.38 255 23:56 05.11.2020
5874 Clear 31 1012 20 10000 3.43 260 23:26 05.11.2020
5875 Clear 32 1013 18 10000 2.1 0 22:48 05.11.2020
5876 Clear 32 1013 18 10000 2.1 0 22:26 05.11.2020
5877 Clear 31 1014 19 10000 1.75 262 21:57 05.11.2020
5878 Clear 31 1014 19 10000 1.75 262 21:38 05.11.2020
5879 Clear 31 1015 14 10000 0.58 328 21:19 05.11.2020
5880 Clear 31 1015 14 10000 0.58 328 20:44 05.11.2020
5881 Clear 31 1015 14 10000 0.43 273 20:24 05.11.2020
5882 Clear 30 1016 26 10000 0.43 273 19:57 05.11.2020
5883 Clear 29 1016 26 10000 0.43 273 19:38 05.11.2020
5884 Clear 29 1016 26 10000 0.24 339 19:19 05.11.2020
5885 Clear 26 1016 27 10000 0.41 323 18:41 05.11.2020
5886 Clear 24 1016 30 10000 1.5 20 18:22 05.11.2020
5887 Clear 22 1016 30 10000 1.5 20 17:47 05.11.2020
5888 Clear 22 1016 30 10000 1.5 20 17:26 05.11.2020
5889 Clear 20 1016 26 10000 2.1 0 16:50 05.11.2020
5890 Clear 20 1016 26 10000 2.1 0 16:29 05.11.2020
5891 Clear 18 1016 51 10000 1.68 4 15:57 05.11.2020
5892 Clear 18 1016 51 10000 2.35 13 15:39 05.11.2020
5893 Clear 17 1016 45 10000 2.35 13 15:20 05.11.2020
5894 Clear 18 1016 45 10000 2.35 13 14:44 05.11.2020
5895 Clear 17 1016 45 10000 1.7 23 14:24 05.11.2020
5896 Clear 17 1017 55 10000 1.7 23 13:41 05.11.2020
5897 Clear 18 1017 55 10000 1.57 19 13:23 05.11.2020
5898 Clear 17 1017 63 10000 1.57 19 12:45 05.11.2020
5899 Clear 17 1017 63 10000 2.07 14 12:23 05.11.2020
5900 Clear 17 1017 72 10000 2.07 14 11:46 05.11.2020
5901 Clear 17 1017 72 10000 1.9 16 11:25 05.11.2020
5902 Clear 19 1017 72 10000 1.9 16 10:52 05.11.2020
5903 Clear 18 1017 77 10000 1.51 21 10:30 05.11.2020
5904 Clear 19 1017 77 10000 1.51 21 09:58 05.11.2020
5905 Clear 19 1017 77 10000 1.51 21 09:38 05.11.2020
5906 Haze 18 1018 82 9656 1.75 15 09:20 05.11.2020
5907 Haze 19 1018 82 9656 1.75 15 08:43 05.11.2020
5908 Haze 18 1018 82 9656 1.44 16 08:24 05.11.2020
5909 Clear 18 1018 77 10000 1.42 39 07:29 05.11.2020
5910 Haze 19 1018 77 9656 1.42 39 06:52 05.11.2020
5911 Haze 19 1018 77 9656 1.29 87 06:33 05.11.2020
5912 Clear 20 1017 68 10000 0.88 135 03:47 05.11.2020
5913 Clear 26 1016 47 10000 2.1 260 01:22 05.11.2020
5914 Clear 28 1016 41 10000 2.6 0 00:29 05.11.2020
5915 Clear 27 1016 39 10000 2.1 250 23:44 04.11.2020
5916 Clear 28 1016 39 10000 2.1 250 23:25 04.11.2020
5917 Clear 29 1017 39 10000 3.32 257 22:45 04.11.2020
5918 Clear 29 1017 39 10000 2.78 257 22:24 04.11.2020
5919 Haze 28 1017 44 8047 1.5 0 21:48 04.11.2020
5920 Haze 28 1017 44 8047 1.5 0 21:29 04.11.2020
5921 Haze 28 1018 36 9656 2 255 20:56 04.11.2020
5922 Haze 27 1018 36 9656 2 255 20:38 04.11.2020
5923 Haze 27 1019 44 8047 1.27 266 20:19 04.11.2020
5924 Haze 26 1019 44 8047 1.27 266 19:44 04.11.2020
5925 Haze 25 1019 44 8047 0.88 281 19:26 04.11.2020
5926 Haze 23 1019 53 8047 1.11 295 18:44 04.11.2020
5927 Haze 23 1019 53 8047 0.91 293 18:25 04.11.2020
5928 Haze 20 1019 72 8047 0.91 293 17:57 04.11.2020
5929 Haze 19 1019 72 8047 0.91 293 17:38 04.11.2020
5930 Haze 14 1018 77 6437 0.66 296 17:19 04.11.2020
5931 Haze 14 1018 77 6437 0.66 296 16:38 04.11.2020
5932 Haze 14 1018 82 8047 0.32 253 16:20 04.11.2020
5933 Haze 14 1018 82 8047 0.32 253 15:46 04.11.2020
5934 Haze 14 1018 82 8047 0.1 199 15:24 04.11.2020
5935 Mist 14 1018 87 6437 0.1 199 14:57 04.11.2020
5936 Mist 14 1018 87 6437 0.1 199 14:39 04.11.2020
5937 Mist 14 1018 87 6437 0.18 30 14:18 04.11.2020
5938 Mist 14 1018 87 6437 0.18 30 13:41 04.11.2020
5939 Mist 14 1017 87 6437 0.19 334 13:19 04.11.2020
5940 Mist 14 1017 87 6437 0.76 273 12:50 04.11.2020
5941 Mist 14 1017 87 6437 0.91 286 12:26 04.11.2020
5942 Mist 15 1018 87 6437 0.91 286 11:56 04.11.2020
5943 Mist 15 1018 87 6437 0.91 286 11:36 04.11.2020
5944 Mist 15 1018 82 6437 0.64 278 11:18 04.11.2020
5945 Mist 15 1018 82 6437 0.64 278 10:43 04.11.2020
5946 Mist 15 1018 82 6437 0.53 202 10:22 04.11.2020
5947 Haze 16 1017 82 6437 0.53 202 09:50 04.11.2020
5948 Haze 16 1017 82 6437 0.39 197 09:22 04.11.2020
5949 Haze 16 1017 82 6437 0.39 197 08:45 04.11.2020
5950 Haze 16 1017 82 6437 0.2 96 08:19 04.11.2020
5951 Haze 17 1017 82 6437 0.2 96 07:48 04.11.2020
5952 Haze 17 1017 82 6437 0.18 201 07:27 04.11.2020
5953 Haze 17 1017 82 8047 0.4 207 06:45 04.11.2020
5954 Haze 17 1017 82 8047 1.23 192 06:26 04.11.2020
5955 Haze 19 1015 72 8047 3.02 250 02:33 04.11.2020
5956 Haze 20 1015 64 9656 2.1 250 01:49 04.11.2020
5957 Haze 24 1015 53 8047 2.72 245 00:43 04.11.2020
5958 Haze 25 1015 47 8047 3.25 240 23:44 03.11.2020
5959 Haze 25 1015 53 6437 3.18 231 23:21 03.11.2020
5960 Haze 24 1015 53 6437 3.18 231 22:41 03.11.2020
5961 Haze 24 1015 53 6437 2.41 237 22:21 03.11.2020
5962 Haze 24 1016 60 4828 2.41 237 21:56 03.11.2020
5963 Haze 24 1016 60 4828 2.41 237 21:38 03.11.2020
5964 Haze 23 1017 72 4828 1.5 140 21:20 03.11.2020
5965 Haze 21 1017 72 4828 1.5 140 20:44 03.11.2020
5966 Haze 20 1017 72 4828 1.5 0 20:23 03.11.2020
5967 Haze 18 1018 77 4828 2.36 235 19:44 03.11.2020
5968 Haze 18 1018 77 4828 2.36 235 19:44 03.11.2020
5969 Haze 17 1018 82 4023 2.2 219 19:23 03.11.2020
5970 Haze 16 1018 82 4023 1.91 222 18:46 03.11.2020
5971 Haze 19 1018 82 4023 1.73 210 18:21 03.11.2020
5972 Haze 15 1018 82 4023 1.73 210 17:59 03.11.2020
5973 Mist 15 1017 87 3219 1.73 210 17:41 03.11.2020
5974 Mist 15 1017 87 3219 0.57 207 17:23 03.11.2020
5975 Mist 15 1016 87 2414 0.57 207 16:45 03.11.2020
5976 Mist 15 1016 87 2414 1.04 231 16:24 03.11.2020
5977 Mist 15 1016 87 1609 1.04 231 15:46 03.11.2020
5978 Mist 15 1016 87 1609 0.33 269 15:25 03.11.2020
5979 Mist 15 1016 87 1207 0.33 269 14:53 03.11.2020
5980 Mist 15 1016 87 1207 0.33 269 14:33 03.11.2020
5981 Mist 15 1016 87 1207 0.71 236 13:47 03.11.2020
5982 Mist 15 1016 87 1609 1.49 195 13:24 03.11.2020
5983 Mist 15 1016 87 4023 1.49 195 12:59 03.11.2020
5984 Haze 15 1015 82 4828 1.29 198 12:41 03.11.2020
5985 Mist 15 1016 87 4828 1.5 100 12:20 03.11.2020
5986 Mist 15 1016 87 4023 0.88 99 11:46 03.11.2020
5987 Mist 15 1016 87 4023 0.87 119 11:21 03.11.2020
5988 Mist 15 1017 87 2816 0.87 119 10:41 03.11.2020
5989 Mist 15 1017 87 2816 0.23 169 10:22 03.11.2020
5990 Mist 15 1017 87 2816 0.23 169 09:59 03.11.2020
5991 Mist 16 1017 87 3219 0.23 169 09:41 03.11.2020
5992 Mist 16 1017 87 4023 0.73 264 09:18 03.11.2020
5993 Mist 16 1017 87 4023 0.73 264 08:44 03.11.2020
5994 Mist 16 1017 87 4023 1.16 227 08:25 03.11.2020
5995 Mist 16 1017 87 4023 1.16 227 07:37 03.11.2020
5996 Haze 17 1017 82 6437 1.02 173 06:53 03.11.2020
5997 Haze 17 1017 82 6437 1.05 181 06:20 03.11.2020
5998 Clear 19 1016 77 10000 1.5 280 03:59 03.11.2020
5999 Clear 24 1016 56 10000 2.1 250 00:44 03.11.2020
6000 Clear 25 1016 53 10000 3.48 239 00:20 03.11.2020
6001 Clear 25 1016 53 10000 3.48 239 23:42 02.11.2020
6002 Haze 25 1016 50 9656 3.09 232 22:57 02.11.2020
6003 Haze 26 1016 50 9656 3.09 232 22:39 02.11.2020
6004 Haze 25 1016 50 9656 2.55 222 22:21 02.11.2020
6005 Haze 26 1018 53 8047 2.55 222 21:39 02.11.2020
6006 Haze 26 1018 53 8047 2.55 222 21:39 02.11.2020
6007 Haze 25 1018 53 8047 2.14 209 21:20 02.11.2020
6008 Haze 24 1019 64 6437 2.14 209 20:55 02.11.2020
6009 Haze 23 1019 64 6437 2.14 209 20:36 02.11.2020
6010 Haze 23 1019 64 8047 1.5 0 20:18 02.11.2020
6011 Haze 22 1019 64 8047 1.5 0 19:42 02.11.2020
6012 Haze 22 1019 64 8047 1.5 0 19:22 02.11.2020
6013 Haze 20 1019 72 8047 2.1 90 18:42 02.11.2020
6014 Haze 19 1019 72 9656 0.79 176 18:21 02.11.2020
6015 Haze 16 1019 72 9656 0.79 176 17:56 02.11.2020
6016 Haze 16 1019 72 9656 0.79 176 17:56 02.11.2020
6017 Haze 18 1019 72 9656 0.54 177 17:38 02.11.2020
6018 Mist 14 1019 93 6437 0.54 177 17:19 02.11.2020
6019 Mist 14 1019 93 6437 0.54 177 16:40 02.11.2020
6020 Mist 14 1019 93 6437 0.54 177 16:40 02.11.2020
6021 Mist 14 1019 93 6437 0.37 105 16:22 02.11.2020
6022 Mist 14 1018 87 9656 0.37 105 15:41 02.11.2020
6023 Mist 14 1018 87 9656 0.7 122 15:22 02.11.2020
6024 Mist 14 1018 93 9656 0.7 122 14:53 02.11.2020
6025 Mist 14 1018 93 9656 0.7 122 14:53 02.11.2020
6026 Mist 14 1018 93 8047 0.53 120 14:20 02.11.2020
6027 Mist 14 1018 93 8047 0.53 120 13:56 02.11.2020
6028 Mist 14 1018 93 8047 0.21 143 13:38 02.11.2020
6029 Mist 14 1018 87 6437 0.21 143 13:19 02.11.2020
6030 Mist 15 1018 87 6437 0.33 267 12:31 02.11.2020
6031 Mist 15 1018 93 4828 0.33 267 11:59 02.11.2020
6032 Mist 15 1018 93 4828 0.33 267 11:38 02.11.2020
6033 Mist 16 1018 87 1207 0.8 250 11:19 02.11.2020
6034 Mist 16 1018 87 1207 0.8 250 10:43 02.11.2020
6035 Mist 16 1018 87 1207 1.37 243 10:21 02.11.2020
6036 Mist 17 1018 87 4023 1.37 243 09:51 02.11.2020
6037 Mist 17 1018 88 6437 1.08 261 09:24 02.11.2020
6038 Mist 17 1018 93 2414 1.08 261 08:46 02.11.2020
6039 Mist 18 1018 93 2414 0.98 260 08:26 02.11.2020
6040 Fog 17 1018 93 805 0.98 260 07:53 02.11.2020
6041 Mist 18 1018 93 3219 0.57 212 07:25 02.11.2020
6042 Mist 18 1018 88 2414 0.85 261 06:36 02.11.2020
6043 Clear 22 1017 49 10000 1.5 270 03:55 02.11.2020
6044 Clear 28 1017 30 10000 1.5 270 01:25 02.11.2020
6045 Clear 28 1017 34 10000 2.1 0 00:36 02.11.2020
6046 Clear 27 1017 39 10000 1.5 0 23:45 01.11.2020
6047 Clear 28 1018 28 10000 1.5 260 23:25 01.11.2020
6048 Clear 28 1018 28 10000 1.5 260 22:48 01.11.2020
6049 Clear 29 1018 28 10000 1.5 260 22:27 01.11.2020
6050 Clear 28 1019 30 10000 2.72 235 21:59 01.11.2020
6051 Clear 28 1019 30 10000 2.72 235 21:41 01.11.2020
6052 Clear 28 1019 30 10000 1.34 240 21:23 01.11.2020
6053 Clear 27 1020 46 10000 1.34 240 20:43 01.11.2020
6054 Clear 26 1020 46 10000 1.11 331 20:25 01.11.2020
6055 Clear 24 1020 38 10000 1.5 270 19:45 01.11.2020
6056 Clear 22 1020 55 10000 1.28 307 19:26 01.11.2020
6057 Clear 22 1020 55 10000 1.28 307 18:57 01.11.2020
6058 Clear 22 1020 55 10000 1.28 307 18:37 01.11.2020
6059 Clear 17 1020 63 10000 1.71 197 18:18 01.11.2020
6060 Clear 15 1020 63 10000 1.71 197 17:43 01.11.2020
6061 Clear 15 1020 63 10000 0.44 214 17:25 01.11.2020
6062 Haze 13 1019 76 9656 0.44 214 16:44 01.11.2020
6063 Haze 15 1019 76 9656 1.78 344 16:25 01.11.2020
6064 Haze 14 1018 82 8047 1.78 344 15:57 01.11.2020
6065 Haze 15 1018 82 8047 1.78 344 15:38 01.11.2020
6066 Haze 15 1018 82 8047 1.78 344 15:38 01.11.2020
6067 Haze 15 1018 82 9656 0.28 83 15:18 01.11.2020
6068 Haze 15 1018 82 9656 0.28 83 14:45 01.11.2020
6069 Haze 15 1018 82 9656 0.16 18 14:22 01.11.2020
6070 Haze 16 1017 82 9656 0.16 18 13:56 01.11.2020
6071 Haze 16 1017 82 9656 0.16 18 13:37 01.11.2020
6072 Haze 16 1018 77 9656 0.41 12 13:19 01.11.2020
6073 Haze 16 1018 77 9656 0.32 16 12:38 01.11.2020
6074 Haze 16 1018 77 8047 0.28 305 12:18 01.11.2020
6075 Haze 16 1018 77 8047 0.28 305 11:47 01.11.2020
6076 Haze 16 1018 77 8047 1.04 332 11:18 01.11.2020
6077 Haze 16 1018 77 8047 1.04 332 10:42 01.11.2020
6078 Haze 17 1018 77 8047 0.03 104 10:24 01.11.2020
6079 Haze 17 1018 72 9656 0.03 104 09:49 01.11.2020
6080 Haze 18 1018 72 9656 0.12 120 09:19 01.11.2020
6081 Haze 18 1018 72 9656 0.12 120 08:38 01.11.2020
6082 Haze 19 1018 72 9656 0.7 54 07:51 01.11.2020
6083 Haze 19 1017 72 9656 1.05 133 06:48 01.11.2020
6084 Clear 22 1015 40 10000 1 228 02:31 01.11.2020
6085 Clear 24 1015 49 10000 1.57 250 01:38 01.11.2020
6086 Clear 27 1015 39 10000 3.62 252 23:56 31.10.2020
6087 Clear 28 1015 39 10000 3.24 243 23:23 31.10.2020
6088 Clear 28 1015 26 10000 1.5 0 22:45 31.10.2020
6089 Clear 28 1015 26 10000 1.5 0 22:24 31.10.2020
6090 Clear 28 1015 26 10000 1.5 0 22:24 31.10.2020
6091 Clear 28 1016 17 10000 2.63 230 21:46 31.10.2020
6092 Clear 28 1016 17 10000 1.91 233 21:22 31.10.2020
6093 Clear 28 1016 27 10000 1.91 233 20:44 31.10.2020
6094 Clear 27 1016 27 10000 1.54 231 20:20 31.10.2020
6095 Clear 26 1017 31 10000 1.54 231 19:58 31.10.2020
6096 Clear 26 1017 31 10000 1.54 231 19:37 31.10.2020
6097 Clear 25 1017 31 10000 0.56 249 19:18 31.10.2020
6098 Clear 23 1017 28 10000 0.71 247 18:42 31.10.2020
6099 Clear 20 1017 55 10000 0.37 301 17:47 31.10.2020
6100 Clear 19 1017 55 10000 0.45 20 17:29 31.10.2020
6101 Clear 13 1016 66 10000 0.45 20 16:59 31.10.2020
6102 Clear 13 1016 66 10000 0.45 20 16:40 31.10.2020
6103 Clear 13 1016 66 10000 0.68 21 15:57 31.10.2020
6104 Clear 13 1016 66 10000 0.68 21 15:38 31.10.2020
6105 Clear 14 1015 54 10000 1.5 20 15:19 31.10.2020
6106 Clear 14 1015 54 10000 1.5 20 14:46 31.10.2020
6107 Clear 14 1015 54 10000 1.5 20 14:26 31.10.2020
6108 Clear 13 1015 76 10000 0.77 18 13:50 31.10.2020
6109 Clear 13 1015 76 10000 0.71 11 13:23 31.10.2020
6110 Clear 14 1016 82 10000 0.73 337 12:35 31.10.2020
6111 Clear 14 1016 87 10000 0.39 335 11:48 31.10.2020
6112 Clear 14 1016 87 10000 0.36 92 11:29 31.10.2020
6113 Clear 14 1016 82 10000 0.36 92 10:57 31.10.2020
6114 Clear 14 1016 82 10000 0.36 92 10:35 31.10.2020
6115 Clear 16 1016 77 10000 0.51 122 09:43 31.10.2020
6116 Clear 16 1016 77 10000 0.58 135 09:25 31.10.2020
6117 Clear 16 1015 77 10000 0.58 135 08:33 31.10.2020
6118 Clear 17 1015 77 10000 1.05 118 07:59 31.10.2020
6119 Clear 17 1015 77 10000 1.41 120 07:27 31.10.2020
6120 Clear 17 1015 77 10000 0.72 131 06:42 31.10.2020
6121 Clear 17 1014 72 10000 1.09 151 06:20 31.10.2020
6122 Clear 20 1014 52 10000 0.79 238 03:46 31.10.2020
6123 Clear 24 1013 38 10000 3.1 260 01:30 31.10.2020
6124 Clear 25 1013 36 10000 3.53 250 00:47 31.10.2020
6125 Clear 26 1013 34 10000 2.1 250 23:53 30.10.2020
6126 Clear 27 1013 34 10000 2.1 250 23:27 30.10.2020
6127 Clear 28 1014 28 10000 3.23 242 22:56 30.10.2020
6128 Clear 28 1014 28 10000 3.23 242 22:37 30.10.2020
6129 Clear 27 1014 22 10000 2.5 246 22:18 30.10.2020
6130 Clear 27 1014 22 10000 2.5 246 21:41 30.10.2020
6131 Clear 26 1014 23 10000 1.88 237 21:22 30.10.2020
6132 Clear 27 1015 18 10000 1.88 237 20:44 30.10.2020
6133 Clear 26 1015 18 10000 1.35 223 20:25 30.10.2020
6134 Clear 26 1016 25 10000 1.35 223 19:53 30.10.2020
6135 Clear 25 1016 25 10000 0.99 219 19:22 30.10.2020
6136 Clear 24 1016 24 10000 0.89 211 18:53 30.10.2020
6137 Clear 23 1016 24 10000 0.89 211 18:34 30.10.2020
6138 Clear 20 1016 39 10000 0.74 206 17:59 30.10.2020
6139 Clear 19 1016 39 10000 0.74 206 17:40 30.10.2020
6140 Clear 18 1016 66 10000 0.4 166 17:20 30.10.2020
6141 Clear 12 1016 66 10000 0.4 166 16:49 30.10.2020
6142 Clear 14 1016 66 10000 0.2 111 16:24 30.10.2020
6143 Clear 12 1016 62 10000 0.2 111 15:41 30.10.2020
6144 Clear 12 1016 62 10000 0.15 73 15:21 30.10.2020
6145 Clear 13 1016 62 10000 0.15 73 14:55 30.10.2020
6146 Clear 13 1016 62 10000 0.15 73 14:36 30.10.2020
6147 Clear 13 1015 66 10000 0.31 49 14:18 30.10.2020
6148 Clear 13 1015 66 10000 0.31 49 13:41 30.10.2020
6149 Clear 14 1015 62 10000 0.18 69 13:19 30.10.2020
6150 Clear 14 1015 62 10000 0.22 341 12:43 30.10.2020
6151 Clear 14 1015 62 10000 0.12 57 12:22 30.10.2020
6152 Clear 14 1015 67 10000 0.12 57 11:46 30.10.2020
6153 Clear 15 1015 62 10000 0.32 59 11:20 30.10.2020
6154 Clear 15 1015 62 10000 0.32 59 10:50 30.10.2020
6155 Clear 15 1015 62 10000 0.36 80 10:25 30.10.2020
6156 Clear 16 1016 63 10000 0.36 80 09:47 30.10.2020
6157 Clear 16 1016 63 10000 0.19 82 09:25 30.10.2020
6158 Clear 16 1016 63 10000 0.55 315 08:59 30.10.2020
6159 Clear 16 1016 63 10000 0.55 315 08:31 30.10.2020
6160 Clear 17 1016 59 10000 0.42 290 07:52 30.10.2020
6161 Clear 18 1016 59 10000 0.42 290 07:33 30.10.2020
6162 Clear 18 1015 55 10000 0.5 190 06:49 30.10.2020
6163 Clear 18 1015 55 10000 0.99 164 05:39 30.10.2020
6164 Clear 21 1014 37 10000 1.41 234 02:43 30.10.2020
6165 Clear 25 1013 32 10000 1.5 250 01:18 30.10.2020
6166 Clear 26 1014 34 10000 3.21 245 23:59 29.10.2020
6167 Clear 27 1014 34 10000 3.21 245 23:41 29.10.2020
6168 Clear 27 1014 34 10000 3 246 23:21 29.10.2020
6169 Clear 27 1014 28 10000 3 246 22:44 29.10.2020
6170 Clear 26 1014 28 10000 2.58 242 22:25 29.10.2020
6171 Clear 27 1016 20 10000 2.58 242 21:43 29.10.2020
6172 Clear 27 1016 20 10000 2.13 226 21:22 29.10.2020
6173 Clear 26 1016 22 10000 2.13 226 20:43 29.10.2020
6174 Clear 26 1017 22 10000 1.42 228 20:23 29.10.2020
6175 Clear 25 1017 22 10000 1.42 228 19:56 29.10.2020
6176 Clear 25 1017 22 10000 1.42 228 19:38 29.10.2020
6177 Clear 24 1017 28 10000 1.05 251 19:18 29.10.2020
6178 Clear 23 1017 28 10000 1.05 251 18:45 29.10.2020
6179 Clear 22 1017 28 10000 0.72 205 18:25 29.10.2020
6180 Clear 19 1017 39 10000 0.72 205 17:42 29.10.2020
6181 Clear 17 1016 44 10000 1.5 360 17:22 29.10.2020
6182 Clear 19 1017 39 10000 0.29 207 17:22 29.10.2020
6183 Clear 13 1016 44 10000 1.5 360 16:53 29.10.2020
6184 Clear 13 1016 47 10000 1.5 10 16:23 29.10.2020
6185 Clear 13 1016 47 10000 1.5 10 15:58 29.10.2020
6186 Clear 13 1016 47 10000 1.5 10 15:40 29.10.2020
6187 Clear 13 1016 47 10000 1.5 10 15:22 29.10.2020
6188 Clear 13 1016 50 10000 1.5 10 14:58 29.10.2020
6189 Clear 13 1016 50 10000 1.5 10 14:39 29.10.2020
6190 Clear 13 1016 50 10000 1.5 10 14:39 29.10.2020
6191 Clear 13 1016 50 10000 0.46 67 14:18 29.10.2020
6192 Clear 13 1016 50 10000 0.46 67 13:40 29.10.2020
6193 Clear 13 1016 62 10000 0.3 140 13:22 29.10.2020
6194 Clear 13 1016 62 10000 0.3 140 12:41 29.10.2020
6195 Clear 13 1016 71 10000 0.21 83 12:19 29.10.2020
6196 Clear 14 1016 71 10000 0.21 83 11:47 29.10.2020
6197 Clear 14 1016 71 10000 0.41 85 11:26 29.10.2020
6198 Clear 14 1016 71 10000 0.41 85 10:38 29.10.2020
6199 Clear 14 1017 63 10000 0.67 67 10:20 29.10.2020
6200 Clear 15 1017 63 10000 0.67 67 09:56 29.10.2020
6201 Clear 15 1017 63 10000 0.64 92 09:28 29.10.2020
6202 Clear 15 1017 63 10000 1.5 100 08:59 29.10.2020
6203 Clear 15 1017 63 10000 1.5 100 08:40 29.10.2020
6204 Clear 15 1017 72 10000 1.13 121 08:19 29.10.2020
6205 Clear 16 1017 72 10000 1.13 121 07:48 29.10.2020
6206 Clear 17 1017 72 10000 1.37 125 06:58 29.10.2020
6207 Clear 17 1017 72 10000 1.32 135 06:24 29.10.2020
6208 Clear 17 1016 63 10000 1.28 169 04:47 29.10.2020
6209 Clear 19 1016 56 10000 4.1 270 02:18 29.10.2020
6210 Clear 23 1015 33 10000 4.1 220 00:31 29.10.2020
6211 Clear 23 1016 56 10000 4.1 250 23:59 28.10.2020
6212 Clear 24 1016 56 10000 4.1 250 23:23 28.10.2020
6213 Clear 24 1016 56 10000 4.1 250 22:59 28.10.2020
6214 Clear 24 1016 15 10000 3.1 200 22:41 28.10.2020
6215 Clear 23 1017 27 10000 3.33 233 22:22 28.10.2020
6216 Clear 24 1017 27 10000 3.33 233 21:44 28.10.2020
6217 Clear 23 1017 27 10000 2.54 225 21:25 28.10.2020
6218 Clear 24 1018 25 10000 2.54 225 20:43 28.10.2020
6219 Clear 23 1018 30 10000 1.84 218 20:23 28.10.2020
6220 Clear 23 1018 30 10000 1.84 218 19:55 28.10.2020
6221 Clear 22 1018 30 10000 1.84 218 19:36 28.10.2020
6222 Clear 22 1019 32 10000 1.5 0 19:18 28.10.2020
6223 Clear 21 1019 32 10000 1.5 0 18:42 28.10.2020
6224 Clear 20 1019 36 10000 0.94 171 18:18 28.10.2020
6225 Clear 18 1019 36 10000 0.94 171 17:41 28.10.2020
6226 Clear 17 1019 41 10000 1.5 20 17:21 28.10.2020
6227 Clear 13 1019 41 10000 1.5 20 16:47 28.10.2020
6228 Clear 13 1019 41 10000 1.5 20 16:28 28.10.2020
6229 Clear 12 1019 43 10000 0.85 108 15:43 28.10.2020
6230 Clear 12 1019 43 10000 1.18 103 15:20 28.10.2020
6231 Clear 13 1018 25 10000 1.18 103 14:50 28.10.2020
6232 Clear 13 1018 47 10000 1.18 103 14:32 28.10.2020
6233 Clear 13 1022 15 10000 0.45 0 13:59 28.10.2020
6234 Clear 13 1018 47 10000 1.43 110 12:38 28.10.2020
6235 Clear 14 1018 54 10000 1.44 105 12:20 28.10.2020
6236 Clear 14 1018 54 10000 1.44 105 11:43 28.10.2020
6237 Clear 14 1018 62 10000 1.5 99 11:22 28.10.2020
6238 Clear 13 1018 62 10000 1.5 99 10:57 28.10.2020
6239 Clear 14 1018 62 10000 1.5 99 10:39 28.10.2020
6240 Clear 14 1018 62 10000 1.45 100 10:21 28.10.2020
6241 Clear 15 1018 62 10000 1.45 100 09:38 28.10.2020
6242 Clear 16 1018 55 10000 1.34 113 09:20 28.10.2020
6243 Clear 16 1018 55 10000 1.34 113 08:47 28.10.2020
6244 Clear 16 1018 55 10000 1.21 113 08:25 28.10.2020
6245 Clear 16 1018 59 10000 1.21 113 07:48 28.10.2020
6246 Clear 16 1018 59 10000 1.17 118 07:30 28.10.2020
6247 Clear 16 1017 55 10000 1.05 140 06:40 28.10.2020
6248 Clear 17 1017 55 10000 0.88 161 05:51 28.10.2020
6249 Clear 17 1017 52 10000 0.63 206 04:53 28.10.2020
6250 Clear 18 1017 52 10000 1.21 254 04:25 28.10.2020
6251 Clear 19 1016 28 10000 1.5 260 02:26 28.10.2020
6252 Clear 21 1016 18 10000 2.6 260 01:49 28.10.2020
6253 Clear 24 1016 12 10000 4.01 255 23:57 27.10.2020
6254 Clear 24 1016 12 10000 4.01 255 23:38 27.10.2020
6255 Clear 24 1016 12 10000 3.64 237 23:20 27.10.2020
6256 Clear 24 1016 9 10000 3.64 237 22:42 27.10.2020
6257 Clear 24 1016 9 10000 3.53 217 22:19 27.10.2020
6258 Clear 24 1016 8 10000 2.6 270 21:56 27.10.2020
6259 Clear 24 1016 8 10000 2.6 270 21:37 27.10.2020
6260 Clear 24 1016 8 10000 2.6 270 21:37 27.10.2020
6261 Clear 24 1016 8 10000 2.6 270 21:37 27.10.2020
6262 Clear 24 1016 8 10000 2.6 270 21:37 27.10.2020
6263 Clear 23 1017 8 10000 3.09 223 21:19 27.10.2020
6264 Clear 24 1017 8 10000 3.09 223 20:44 27.10.2020
6265 Clear 23 1017 10 10000 2.39 236 20:22 27.10.2020
6266 Clear 22 1017 10 10000 2.39 236 19:39 27.10.2020
6267 Clear 22 1017 10 10000 1.42 249 19:21 27.10.2020
6268 Clear 21 1018 8 10000 2.1 0 18:59 27.10.2020
6269 Clear 20 1018 8 10000 2.1 0 18:40 27.10.2020
6270 Clear 20 1018 8 10000 2.1 0 18:40 27.10.2020
6271 Clear 19 1019 11 10000 0.93 283 18:20 27.10.2020
6272 Clear 16 1018 26 10000 0.93 283 17:44 27.10.2020
6273 Clear 16 1017 15 10000 1.32 357 17:22 27.10.2020
6274 Clear 14 1017 15 10000 1.32 357 16:57 27.10.2020
6275 Clear 13 1017 15 10000 1.32 357 16:39 27.10.2020
6276 Clear 14 1017 15 10000 2.19 16 16:20 27.10.2020
6277 Clear 13 1017 20 10000 2.19 16 15:40 27.10.2020
6278 Clear 12 1017 29 10000 2.29 10 15:21 27.10.2020
6279 Clear 11 1017 29 10000 2.29 10 14:48 27.10.2020
6280 Clear 11 1017 29 10000 2.5 7 14:29 27.10.2020
6281 Clear 11 1017 34 10000 2.5 7 13:56 27.10.2020
6282 Clear 11 1017 34 10000 2.5 7 13:56 27.10.2020
6283 Clear 12 1017 34 10000 2.65 7 13:25 27.10.2020
6284 Clear 12 1017 25 10000 1.5 100 12:43 27.10.2020
6285 Clear 12 1017 25 10000 1.5 100 12:24 27.10.2020
6286 Clear 14 1017 24 10000 2.32 16 11:58 27.10.2020
6287 Clear 13 1017 24 10000 2.32 16 11:40 27.10.2020
6288 Clear 13 1017 24 10000 2 13 11:20 27.10.2020
6289 Clear 12 1017 22 10000 1.99 2 10:39 27.10.2020
6290 Clear 13 1017 15 10000 1.5 30 10:19 27.10.2020
6291 Clear 14 1017 15 10000 1.5 30 09:28 27.10.2020
6292 Clear 15 1017 19 10000 2.25 21 08:56 27.10.2020
6293 Clear 15 1017 19 10000 1.59 27 08:29 27.10.2020
6294 Clear 14 1017 26 10000 1.59 27 07:52 27.10.2020
6295 Clear 15 1017 26 10000 1.59 27 07:34 27.10.2020
6296 Clear 16 1017 21 10000 1.13 8 06:54 27.10.2020
6297 Clear 16 1017 16 10000 0.86 11 06:19 27.10.2020
6298 Clear 16 1017 16 10000 0.86 11 05:45 27.10.2020
6299 Clear 17 1017 14 10000 1.5 0 05:23 27.10.2020
6300 Clear 19 1015 14 10000 0.72 84 03:19 27.10.2020
6301 Clear 21 1015 19 10000 2.22 98 01:20 27.10.2020
6302 Clear 21 1015 19 10000 2.22 98 00:38 27.10.2020
6303 Clouds 22 1016 13 10000 3.34 122 23:38 26.10.2020
6304 Clouds 22 1016 14 10000 0.45 111 22:59 26.10.2020
6305 Clouds 21 1016 14 10000 0.45 111 22:39 26.10.2020
6306 Clouds 21 1017 10 10000 1.5 0 22:18 26.10.2020
6307 Clouds 21 1017 10 10000 1.5 0 21:40 26.10.2020
6308 Clouds 21 1017 8 10000 1.38 129 21:19 26.10.2020
6309 Clouds 21 1017 10 10000 1.38 129 20:49 26.10.2020
6310 Haze 20 1018 17 9656 1.84 119 20:27 26.10.2020
6311 Haze 19 1018 17 9656 1.84 119 19:58 26.10.2020
6312 Haze 19 1018 17 9656 1.84 119 19:40 26.10.2020
6313 Haze 19 1018 17 9656 2.23 92 19:20 26.10.2020
6314 Haze 17 1018 17 8047 1.5 0 18:42 26.10.2020
6315 Haze 16 1017 33 8047 2.52 90 18:22 26.10.2020
6316 Haze 15 1017 33 8047 2.52 90 17:44 26.10.2020
6317 Clouds 15 1016 72 10000 2.7 35 17:24 26.10.2020
6318 Clouds 14 1016 72 10000 2.7 35 16:57 26.10.2020
6319 Clouds 14 1016 72 10000 2.7 35 16:38 26.10.2020
6320 Clouds 13 1015 71 10000 2.97 16 16:19 26.10.2020
6321 Clouds 13 1015 71 10000 2.97 16 15:39 26.10.2020
6322 Clear 13 1014 76 10000 2.94 31 15:19 26.10.2020
6323 Clear 13 1014 76 10000 2.94 31 14:46 26.10.2020
6324 Clear 14 1014 76 10000 3.18 37 14:21 26.10.2020
6325 Clear 13 1013 71 10000 3.18 37 13:42 26.10.2020
6326 Clear 13 1013 71 10000 2.76 51 13:23 26.10.2020
6327 Clear 13 1013 67 10000 3.24 34 12:47 26.10.2020
6328 Clear 13 1013 67 10000 2.46 31 12:27 26.10.2020
6329 Clear 13 1014 67 10000 1.5 10 11:56 26.10.2020
6330 Clear 13 1014 67 10000 1.5 10 11:37 26.10.2020
6331 Clear 13 1013 67 10000 1.29 15 11:19 26.10.2020
6332 Clear 13 1013 67 10000 1.29 15 10:43 26.10.2020
6333 Clear 13 1013 67 10000 0.87 297 10:25 26.10.2020
6334 Clear 14 1013 67 10000 0.87 297 09:48 26.10.2020
6335 Clear 14 1013 67 10000 1.2 241 09:26 26.10.2020
6336 Clear 14 1013 67 10000 1.2 241 08:46 26.10.2020
6337 Clear 14 1012 72 10000 1.23 217 07:58 26.10.2020
6338 Clear 14 1012 72 10000 1.23 217 07:38 26.10.2020
6339 Clear 15 1012 63 10000 2.07 255 06:58 26.10.2020
6340 Clear 16 1011 63 10000 2.66 260 05:30 26.10.2020
6341 Clouds 17 1011 55 10000 2.6 260 04:18 26.10.2020
6342 Clouds 17 1011 55 10000 1.5 270 03:20 26.10.2020
6343 Clouds 17 1011 55 10000 1.5 270 03:20 26.10.2020
6344 Clouds 17 1011 55 10000 1.5 270 03:20 26.10.2020
6345 Clouds 17 1011 55 10000 1.5 270 03:20 26.10.2020
6346 Clear 18 1011 49 10000 2.6 260 01:34 26.10.2020
6347 Clouds 19 1011 52 10000 3.64 244 00:33 26.10.2020
6348 Clouds 20 1011 52 10000 2.6 260 23:46 25.10.2020
6349 Clouds 20 1011 52 10000 2.6 260 23:24 25.10.2020
6350 Clouds 19 1012 52 10000 3.1 260 22:45 25.10.2020
6351 Clouds 20 1012 52 10000 3.1 260 22:26 25.10.2020
6352 Clouds 19 1012 56 10000 4.5 236 21:50 25.10.2020
6353 Clouds 19 1012 56 10000 4.41 233 21:31 25.10.2020
6354 Clouds 19 1013 52 10000 4.41 233 20:59 25.10.2020
6355 Clouds 19 1013 52 10000 4.41 233 20:40 25.10.2020
6356 Clouds 19 1013 59 10000 4.24 236 20:22 25.10.2020
6357 Clouds 19 1013 59 10000 4.24 236 19:50 25.10.2020
6358 Clouds 18 1013 59 10000 4.12 253 19:27 25.10.2020
6359 Clouds 18 1014 63 10000 3.8 247 18:59 25.10.2020
6360 Clouds 18 1014 63 10000 3.8 247 18:41 25.10.2020
6361 Clouds 18 1014 63 10000 3.83 244 18:22 25.10.2020
6362 Clouds 18 1014 68 10000 3.83 244 17:55 25.10.2020
6363 Clouds 17 1014 68 10000 3.83 244 17:37 25.10.2020
6364 Clouds 17 1013 68 10000 3.37 252 17:18 25.10.2020
6365 Clouds 17 1013 68 10000 3.37 252 16:43 25.10.2020
6366 Clouds 17 1013 68 10000 3 238 16:23 25.10.2020
6367 Clouds 16 1013 68 10000 3 238 15:47 25.10.2020
6368 Clouds 16 1013 68 10000 2.81 247 15:27 25.10.2020
6369 Clouds 16 1013 68 10000 2.81 247 14:53 25.10.2020
6370 Clouds 16 1013 68 10000 2.4 245 14:29 25.10.2020
6371 Clouds 16 1013 68 10000 2.4 245 13:45 25.10.2020
6372 Clouds 16 1013 68 10000 2.4 245 13:45 25.10.2020
6373 Clouds 16 1013 68 10000 2.56 258 13:25 25.10.2020
6374 Clouds 16 1013 68 10000 2.56 258 12:57 25.10.2020
6375 Clouds 16 1013 68 10000 2.56 258 12:39 25.10.2020
6376 Clouds 16 1013 68 10000 2.9 253 12:21 25.10.2020
6377 Clouds 16 1013 68 10000 2.9 253 11:42 25.10.2020
6378 Clouds 16 1014 68 10000 2.71 241 11:20 25.10.2020
6379 Clouds 17 1014 68 10000 2.71 241 10:47 25.10.2020
6380 Clouds 17 1014 68 10000 2.33 234 10:26 25.10.2020
6381 Clouds 17 1014 63 10000 2.33 234 09:55 25.10.2020
6382 Clouds 17 1014 63 10000 2.33 234 09:37 25.10.2020
6383 Clouds 17 1014 72 10000 2.26 223 09:18 25.10.2020
6384 Clouds 17 1014 72 10000 2.26 223 08:40 25.10.2020
6385 Clouds 17 1014 72 10000 2.15 224 08:22 25.10.2020
6386 Clouds 17 1014 68 10000 2.15 224 07:46 25.10.2020
6387 Clouds 17 1014 68 10000 1.91 238 07:18 25.10.2020
6388 Clouds 17 1014 68 10000 2.07 229 06:30 25.10.2020
6389 Clouds 18 1014 68 10000 1.5 0 05:34 25.10.2020
6390 Clouds 18 1013 68 10000 1.98 233 04:51 25.10.2020
6391 Clouds 19 1013 56 10000 1.5 260 02:42 25.10.2020
6392 Clouds 20 1013 56 10000 1.5 250 01:20 25.10.2020
6393 Clouds 21 1014 60 10000 3.1 250 00:40 25.10.2020
6394 Clouds 21 1014 60 10000 3.64 244 00:18 25.10.2020
6395 Clouds 21 1014 60 10000 3.64 244 23:43 24.10.2020
6396 Clouds 21 1014 60 10000 3.34 238 23:22 24.10.2020
6397 Clouds 20 1015 60 10000 3.34 238 22:41 24.10.2020
6398 Clouds 20 1015 60 10000 2.7 224 22:23 24.10.2020
6399 Clouds 20 1016 64 10000 2.7 224 21:56 24.10.2020
6400 Clouds 20 1016 64 10000 2.7 224 21:38 24.10.2020
6401 Clouds 20 1016 68 10000 2.57 228 21:19 24.10.2020
6402 Clouds 20 1016 68 10000 2.57 228 20:44 24.10.2020
6403 Clouds 20 1016 68 10000 1.91 220 20:21 24.10.2020
6404 Clouds 19 1016 68 10000 1.81 203 19:44 24.10.2020
6405 Clouds 19 1016 68 10000 1.94 213 19:25 24.10.2020
6406 Clouds 19 1016 72 10000 1.94 213 18:54 24.10.2020
6407 Clouds 18 1016 72 10000 2.03 213 18:31 24.10.2020
6408 Clouds 18 1016 68 10000 2.03 213 17:55 24.10.2020
6409 Clouds 18 1016 68 10000 0.85 233 17:27 24.10.2020
6410 Clouds 17 1016 68 10000 0.85 233 16:59 24.10.2020
6411 Clouds 17 1016 68 10000 0.85 233 16:41 24.10.2020
6412 Clouds 17 1016 68 10000 1.49 214 15:59 24.10.2020
6413 Clouds 18 1016 68 10000 1.49 214 15:38 24.10.2020
6414 Clouds 18 1016 68 10000 1.45 223 15:19 24.10.2020
6415 Clouds 18 1015 77 10000 1.34 215 14:42 24.10.2020
6416 Clouds 17 1015 77 10000 1.33 226 14:22 24.10.2020
6417 Clouds 17 1015 72 10000 1.33 226 13:44 24.10.2020
6418 Clouds 17 1016 68 10000 1.69 233 13:20 24.10.2020
6419 Clouds 17 1016 68 10000 1.69 233 12:41 24.10.2020
6420 Clouds 17 1016 77 10000 1.75 212 12:21 24.10.2020
6421 Clouds 17 1016 77 10000 1.75 212 11:51 24.10.2020
6422 Clouds 17 1016 77 10000 0.37 204 11:27 24.10.2020
6423 Clouds 17 1016 77 10000 0.37 204 10:52 24.10.2020
6424 Clouds 17 1016 77 10000 0.37 204 10:32 24.10.2020
6425 Clouds 17 1016 77 10000 2.09 231 09:50 24.10.2020
6426 Clouds 17 1016 77 10000 2.05 221 09:32 24.10.2020
6427 Clear 17 1016 77 10000 2.05 221 08:58 24.10.2020
6428 Clear 17 1016 77 10000 1.47 220 08:19 24.10.2020
6429 Clouds 17 1016 77 10000 1.47 220 07:54 24.10.2020
6430 Clouds 17 1016 77 10000 1.99 241 07:25 24.10.2020
6431 Clear 17 1015 77 10000 1.99 241 06:53 24.10.2020
6432 Clear 17 1015 77 10000 1.99 241 06:53 24.10.2020
6433 Clear 17 1015 72 10000 1.5 280 06:23 24.10.2020
6434 Clear 18 1014 68 10000 1.5 260 03:35 24.10.2020
6435 Clouds 20 1014 64 10000 1.5 0 01:40 24.10.2020
6436 Clouds 21 1014 64 10000 1.5 250 00:42 24.10.2020
6437 Clouds 21 1014 64 10000 1.5 250 00:21 24.10.2020
6438 Clouds 21 1014 64 10000 1.5 250 23:49 23.10.2020
6439 Clouds 21 1014 64 10000 1.5 250 23:26 23.10.2020
6440 Clouds 21 1015 56 10000 2.91 200 22:58 23.10.2020
6441 Clouds 21 1015 56 10000 2.91 200 22:39 23.10.2020
6442 Clouds 21 1015 53 10000 1.5 0 22:20 23.10.2020
6443 Clouds 21 1015 53 10000 1.5 0 21:46 23.10.2020
6444 Clouds 21 1015 53 10000 1.5 0 21:25 23.10.2020
6445 Clouds 21 1016 60 10000 2.2 179 20:42 23.10.2020
6446 Clouds 20 1016 60 10000 2.36 172 20:23 23.10.2020
6447 Clouds 20 1016 60 10000 2.34 176 19:58 23.10.2020
6448 Clouds 20 1016 60 10000 2.34 176 19:33 23.10.2020
6449 Clouds 20 1016 60 10000 2.07 160 18:57 23.10.2020
6450 Clouds 19 1016 60 10000 2.07 160 18:38 23.10.2020
6451 Clouds 19 1015 60 10000 2.04 152 18:19 23.10.2020
6452 Clouds 19 1015 60 10000 2.04 152 17:42 23.10.2020
6453 Clouds 19 1015 60 10000 2.2 160 17:20 23.10.2020
6454 Clouds 18 1014 64 10000 2.2 160 16:44 23.10.2020
6455 Clouds 18 1014 64 10000 2.27 156 16:25 23.10.2020
6456 Clouds 18 1013 64 10000 2.27 156 15:45 23.10.2020
6457 Clouds 18 1013 64 10000 2.06 149 15:24 23.10.2020
6458 Clouds 18 1013 64 10000 2.06 149 14:57 23.10.2020
6459 Clouds 18 1013 64 10000 2.06 149 14:39 23.10.2020
6460 Clouds 18 1013 64 10000 1.54 154 14:20 23.10.2020
6461 Clouds 18 1013 64 10000 1.05 174 13:38 23.10.2020
6462 Clouds 18 1013 72 10000 0.87 200 13:19 23.10.2020
6463 Clouds 18 1013 72 10000 0.87 200 12:47 23.10.2020
6464 Clouds 18 1013 72 10000 1.03 205 12:27 23.10.2020
6465 Clouds 18 1013 72 10000 1.03 205 11:47 23.10.2020
6466 Clouds 18 1013 72 10000 1.31 210 11:22 23.10.2020
6467 Clouds 18 1013 72 10000 1.31 210 10:46 23.10.2020
6468 Clouds 17 1013 72 10000 1.35 210 10:25 23.10.2020
6469 Clouds 17 1013 72 10000 1.35 210 09:47 23.10.2020
6470 Clouds 17 1013 77 10000 1.5 217 09:27 23.10.2020
6471 Clouds 17 1013 77 10000 1.5 217 08:53 23.10.2020
6472 Clouds 17 1013 77 10000 1.5 217 08:35 23.10.2020
6473 Clear 17 1013 77 10000 1.67 185 07:47 23.10.2020
6474 Clear 16 1013 77 10000 1.62 189 07:23 23.10.2020
6475 Clear 17 1013 72 10000 1.62 189 06:31 23.10.2020
6476 Clear 17 1013 72 10000 1.77 197 05:58 23.10.2020
6477 Clear 21 1012 56 10000 2.94 203 02:54 23.10.2020
6478 Clear 21 1012 56 10000 3.07 203 02:25 23.10.2020
6479 Clouds 22 1011 60 10000 2.98 201 00:48 23.10.2020
6480 Clouds 21 1012 60 10000 2.94 192 23:54 22.10.2020
6481 Clouds 21 1012 60 10000 2.94 192 23:31 22.10.2020
6482 Clouds 22 1012 60 10000 2.61 188 22:56 22.10.2020
6483 Clouds 21 1012 60 10000 2.61 188 22:38 22.10.2020
6484 Clouds 21 1012 56 10000 2.39 185 22:19 22.10.2020
6485 Clouds 21 1012 56 10000 2.39 185 21:43 22.10.2020
6486 Clouds 21 1012 56 10000 2.33 182 21:24 22.10.2020
6487 Clouds 21 1012 56 10000 2.33 182 20:58 22.10.2020
6488 Clouds 21 1012 56 10000 2.33 182 20:39 22.10.2020
6489 Clouds 20 1012 64 10000 2.11 180 20:18 22.10.2020
6490 Clouds 20 1012 64 10000 2.11 180 19:41 22.10.2020
6491 Clouds 20 1012 68 10000 1.79 178 19:19 22.10.2020
6492 Clouds 19 1012 68 10000 1.79 178 18:43 22.10.2020
6493 Clouds 19 1012 68 10000 1.58 176 18:21 22.10.2020
6494 Clouds 19 1011 68 10000 1.58 176 17:47 22.10.2020
6495 Clouds 18 1011 68 10000 1.34 172 17:26 22.10.2020
6496 Clouds 18 1011 68 10000 1.34 172 16:58 22.10.2020
6497 Clouds 18 1011 68 10000 1.34 172 16:40 22.10.2020
6498 Clouds 18 1011 68 10000 1.51 174 16:22 22.10.2020
6499 Clouds 18 1011 68 10000 1.51 174 15:44 22.10.2020
6500 Clouds 18 1011 68 10000 1.56 166 15:25 22.10.2020
6501 Clouds 18 1010 72 10000 1.5 0 14:49 22.10.2020
6502 Clouds 18 1010 72 10000 1.5 0 14:25 22.10.2020
6503 Clouds 19 1010 68 10000 1.33 157 13:49 22.10.2020
6504 Clouds 19 1010 68 10000 1.32 160 13:24 22.10.2020
6505 Clouds 18 1011 68 10000 2.1 80 12:54 22.10.2020
6506 Clouds 18 1011 68 10000 2.1 80 12:24 22.10.2020
6507 Haze 18 1011 72 9656 1.39 145 11:50 22.10.2020
6508 Haze 18 1011 72 9656 1.65 156 11:20 22.10.2020
6509 Haze 18 1011 72 9656 1.65 156 10:52 22.10.2020
6510 Haze 18 1011 72 9656 1.69 172 10:29 22.10.2020
6511 Haze 18 1011 77 9656 1.69 172 09:56 22.10.2020
6512 Haze 18 1011 77 9656 1.69 172 09:38 22.10.2020
6513 Haze 18 1011 77 9656 1.95 189 08:56 22.10.2020
6514 Haze 18 1011 77 9656 1.95 189 08:37 22.10.2020
6515 Haze 18 1011 72 9656 1.72 182 08:18 22.10.2020
6516 Haze 18 1011 72 9656 1.8 223 07:42 22.10.2020
6517 Clouds 18 1010 72 10000 1.5 0 06:59 22.10.2020
6518 Clouds 19 1010 72 10000 1.5 0 06:36 22.10.2020
6519 Haze 19 1010 77 9656 1.73 214 05:42 22.10.2020
6520 Haze 19 1010 77 9656 2.07 230 05:20 22.10.2020
6521 Haze 23 1008 64 6437 3.29 228 01:57 22.10.2020
6522 Haze 23 1009 64 6437 1.5 0 00:27 22.10.2020
6523 Haze 23 1009 60 4828 3.55 237 23:58 21.10.2020
6524 Haze 23 1009 60 4828 3.55 237 23:37 21.10.2020
6525 Haze 22 1010 64 4828 3.7 235 22:58 21.10.2020
6526 Haze 22 1010 64 4828 3.7 235 22:36 21.10.2020
6527 Haze 22 1011 64 4828 3.49 229 22:18 21.10.2020
6528 Haze 21 1011 64 4828 3.49 229 21:42 21.10.2020
6529 Haze 21 1011 72 4023 2.91 218 21:19 21.10.2020
6530 Haze 20 1011 72 4023 2.91 218 20:48 21.10.2020
6531 Haze 20 1011 72 4023 2.55 225 20:19 21.10.2020
6532 Haze 20 1011 72 4023 2.37 201 19:59 21.10.2020
6533 Haze 19 1011 72 4023 2.15 225 19:39 21.10.2020
6534 Haze 19 1011 77 4023 2.15 225 19:19 21.10.2020
6535 Haze 19 1011 77 4023 2.15 225 18:47 21.10.2020
6536 Haze 19 1010 77 4023 1.61 227 18:26 21.10.2020
6537 Haze 18 1010 77 4023 1.61 227 17:47 21.10.2020
6538 Haze 18 1010 77 4023 1.15 235 17:21 21.10.2020
6539 Haze 18 1010 77 6437 1.15 235 16:57 21.10.2020
6540 Haze 18 1010 77 6437 1.15 235 16:36 21.10.2020
6541 Haze 18 1010 77 6437 1.23 231 16:18 21.10.2020
6542 Haze 18 1010 77 6437 1.23 231 15:44 21.10.2020
6543 Haze 18 1010 77 6437 1.17 226 15:21 21.10.2020
6544 Haze 18 1009 77 6437 1.17 226 14:48 21.10.2020
6545 Haze 18 1009 77 6437 1.33 229 14:28 21.10.2020
6546 Haze 18 1009 77 8047 1.2 232 13:47 21.10.2020
6547 Haze 18 1009 77 8047 1.37 237 13:27 21.10.2020
6548 Haze 18 1010 82 8047 1.37 237 12:57 21.10.2020
6549 Haze 18 1010 82 8047 1.37 237 12:37 21.10.2020
6550 Haze 18 1010 82 8047 1.52 235 12:19 21.10.2020
6551 Haze 18 1010 77 8047 1.52 235 11:41 21.10.2020
6552 Haze 18 1010 82 6437 1.48 230 11:20 21.10.2020
6553 Haze 18 1011 88 9656 1.5 220 10:47 21.10.2020
6554 Haze 18 1011 88 9656 1.5 220 10:25 21.10.2020
6555 Clouds 18 1011 82 10000 2.1 250 09:57 21.10.2020
6556 Clouds 18 1011 82 10000 2.1 250 09:34 21.10.2020
6557 Haze 18 1011 82 9656 1.3 216 08:56 21.10.2020
6558 Haze 18 1011 82 9656 1.3 216 08:38 21.10.2020
6559 Clouds 18 1011 88 10000 2.1 250 08:19 21.10.2020
6560 Clouds 18 1011 82 10000 2.6 250 07:37 21.10.2020
6561 Haze 18 1010 82 9656 1.4 213 06:55 21.10.2020
6562 Haze 19 1010 82 9656 1.64 208 06:30 21.10.2020
6563 Clouds 19 1009 82 10000 3.1 280 04:47 21.10.2020
6564 Haze 22 1009 64 6437 2.1 250 02:26 21.10.2020
6565 Haze 26 1009 54 9656 3.74 235 23:51 20.10.2020
6566 Haze 26 1009 54 9656 3.08 227 23:20 20.10.2020
6567 Haze 25 1011 60 8047 3.08 227 22:36 20.10.2020
6568 Haze 25 1011 60 8047 2.72 221 22:18 20.10.2020
6569 Haze 24 1012 64 6437 1.5 250 21:45 20.10.2020
6570 Haze 22 1012 64 6437 1.5 250 21:18 20.10.2020
6571 Haze 21 1012 68 6437 2.35 213 20:42 20.10.2020
6572 Haze 21 1012 68 6437 1.65 208 20:23 20.10.2020
6573 Haze 20 1013 73 6437 1.65 208 19:44 20.10.2020
6574 Haze 20 1013 77 6437 1.29 182 19:22 20.10.2020
6575 Haze 19 1013 82 6437 1.29 182 18:56 20.10.2020
6576 Haze 19 1013 82 6437 1.29 182 18:37 20.10.2020
6577 Haze 19 1013 82 6437 1.5 30 17:50 20.10.2020
6578 Haze 18 1013 82 6437 1.5 30 17:32 20.10.2020
6579 Haze 18 1012 82 8047 1.5 90 16:56 20.10.2020
6580 Haze 18 1012 82 8047 1.5 90 16:38 20.10.2020
6581 Haze 18 1012 82 8047 1.5 90 16:20 20.10.2020
6582 Haze 18 1012 82 6437 0.88 174 15:44 20.10.2020
6583 Haze 18 1012 82 6437 0.88 190 15:23 20.10.2020
6584 Haze 18 1012 82 8047 1.5 100 14:44 20.10.2020
6585 Haze 18 1012 82 8047 1.5 100 14:25 20.10.2020
6586 Haze 18 1012 82 8047 0.79 184 13:58 20.10.2020
6587 Haze 18 1012 82 8047 0.79 184 13:40 20.10.2020
6588 Haze 18 1012 82 8047 0.66 189 13:19 20.10.2020
6589 Haze 18 1013 82 8047 0.66 189 12:49 20.10.2020
6590 Haze 18 1013 82 8047 0.81 205 12:30 20.10.2020
6591 Haze 18 1013 82 8047 0.81 205 12:30 20.10.2020
6592 Haze 18 1013 88 9656 0.81 205 11:47 20.10.2020
6593 Haze 18 1013 88 9656 0.97 212 11:28 20.10.2020
6594 Haze 18 1013 88 9656 0.97 212 10:43 20.10.2020
6595 Haze 18 1013 88 9656 1.09 218 10:25 20.10.2020
6596 Clouds 18 1013 82 10000 1.09 218 09:44 20.10.2020
6597 Clouds 18 1013 82 10000 1.4 230 09:20 20.10.2020
6598 Clouds 18 1013 82 10000 1.4 230 08:40 20.10.2020
6599 Clouds 18 1013 82 10000 1.29 221 08:19 20.10.2020
6600 Clouds 18 1013 82 10000 1.43 226 07:44 20.10.2020
6601 Clouds 18 1013 82 10000 1.35 213 07:21 20.10.2020
6602 Clouds 19 1013 82 10000 1.5 250 06:20 20.10.2020
6603 Clear 19 1013 77 10000 2.1 260 04:51 20.10.2020
6604 Haze 23 1012 64 9656 1.5 250 02:31 20.10.2020
6605 Clear 24 1013 60 10000 2.1 280 01:27 20.10.2020
6606 Clear 25 1013 60 10000 2.1 260 00:51 20.10.2020
6607 Clear 25 1013 60 10000 2.1 260 00:27 20.10.2020
6608 Haze 25 1013 60 9656 1.5 250 23:54 19.10.2020
6609 Haze 25 1013 60 9656 1.5 250 23:29 19.10.2020
6610 Clear 25 1014 57 10000 4.16 235 22:56 19.10.2020
6611 Clear 25 1014 57 10000 3.34 225 22:30 19.10.2020
6612 Haze 24 1015 57 9656 3.34 225 21:58 19.10.2020
6613 Haze 24 1015 57 9656 3.34 225 21:39 19.10.2020
6614 Haze 24 1015 57 9656 2.39 219 21:19 19.10.2020
6615 Haze 22 1015 64 9656 1.5 0 20:44 19.10.2020
6616 Haze 22 1015 64 9656 1.5 0 20:26 19.10.2020
6617 Haze 21 1015 68 8047 1.5 130 19:46 19.10.2020
6618 Haze 20 1016 73 8047 1.77 205 19:20 19.10.2020
6619 Haze 19 1016 77 6437 1.77 205 18:51 19.10.2020
6620 Haze 19 1016 77 6437 1.77 205 18:31 19.10.2020
6621 Haze 18 1015 82 6437 1.52 182 17:49 19.10.2020
6622 Haze 18 1015 82 6437 1.06 126 17:29 19.10.2020
6623 Haze 19 1015 82 8047 1.06 126 16:55 19.10.2020
6624 Haze 18 1015 82 8047 1.1 184 16:30 19.10.2020
6625 Clouds 19 1015 82 10000 2.1 0 15:59 19.10.2020
6626 Clouds 19 1015 75 10000 1.1 184 15:37 19.10.2020
6627 Clear 19 1015 75 10000 1.17 163 15:19 19.10.2020
6628 Clear 19 1015 75 10000 1.17 163 14:47 19.10.2020
6629 Clear 19 1015 75 10000 1.33 164 14:24 19.10.2020
6630 Clear 19 1015 75 10000 1.33 164 13:48 19.10.2020
6631 Clear 19 1015 75 10000 0.99 190 13:30 19.10.2020
6632 Clear 18 1016 88 10000 0.89 173 12:46 19.10.2020
6633 Clear 17 1013 89 10000 1.55 112 12:28 19.10.2020
6634 Clouds 18 1015 88 10000 1.55 112 11:51 19.10.2020
6635 Clouds 18 1015 88 10000 1.24 116 11:24 19.10.2020
6636 Clouds 18 1015 88 10000 1.24 116 10:55 19.10.2020
6637 Clouds 18 1015 88 10000 1.24 116 10:36 19.10.2020
6638 Clouds 19 1015 82 10000 1.1 168 10:18 19.10.2020
6639 Clouds 19 1015 82 10000 1.1 168 09:42 19.10.2020
6640 Clear 19 1015 88 10000 1.24 175 09:18 19.10.2020
6641 Clear 19 1015 88 10000 1.24 175 08:47 19.10.2020
6642 Clear 19 1015 88 10000 1.37 182 08:21 19.10.2020
6643 Clear 19 1015 88 10000 1.47 204 07:21 19.10.2020
6644 Clear 20 1015 77 10000 1.47 204 06:50 19.10.2020
6645 Clear 20 1014 77 10000 1.5 280 05:42 19.10.2020
6646 Clear 22 1014 73 10000 1.5 0 03:47 19.10.2020
6647 Clear 25 1014 54 10000 1.5 250 01:57 19.10.2020
6648 Clear 27 1014 51 10000 2.6 0 00:44 19.10.2020
6649 Clear 28 1014 54 10000 3.3 223 23:59 18.10.2020
6650 Clear 27 1014 54 10000 3.3 223 23:41 18.10.2020
6651 Clear 27 1014 54 10000 3.27 217 23:21 18.10.2020
6652 Haze 27 1015 51 8047 3.27 217 22:46 18.10.2020
6653 Haze 27 1015 51 8047 2.9 207 22:21 18.10.2020
6654 Haze 26 1016 64 6437 2.9 207 21:50 18.10.2020
6655 Haze 25 1016 64 6437 2.38 201 21:30 18.10.2020
6656 Haze 24 1016 64 4828 2.38 201 20:56 18.10.2020
6657 Haze 24 1016 64 4828 2.38 201 20:38 18.10.2020
6658 Haze 23 1017 73 4828 1.88 189 20:19 18.10.2020
6659 Haze 21 1017 73 4828 1.99 194 19:42 18.10.2020
6660 Haze 21 1017 73 4828 1.54 172 19:20 18.10.2020
6661 Haze 20 1017 82 3219 1.5 270 18:48 18.10.2020
6662 Haze 20 1017 82 3219 1.5 270 18:25 18.10.2020
6663 Haze 19 1016 82 3219 1.58 165 17:43 18.10.2020
6664 Haze 19 1016 82 3219 1.32 105 17:24 18.10.2020
6665 Mist 19 1015 88 4023 1.32 105 16:45 18.10.2020
6666 Mist 19 1015 88 4023 1.2 142 16:26 18.10.2020
6667 Mist 19 1015 88 4023 1.2 142 15:57 18.10.2020
6668 Mist 19 1015 88 4023 1.2 142 15:39 18.10.2020
6669 Mist 19 1014 88